
Distance (Route):
Temperature : 18.4°C
Humidity : 61.6%
Pressure : 995.6hPa| Receiver | Frames | First received | Last received |
|---|---|---|---|
| KRY50SP-1 | 469 | 2026-09-01 17:06:10 | 2026-09-01 19:06:54 |
| DB0DAN | 391 | 2026-09-01 16:51:40 | 2026-09-01 18:44:55 |
| AA1-15 | 290 | 2026-09-01 17:07:14 | 2026-09-01 18:16:53 |
| DF8AY | 206 | 2026-09-01 17:18:04 | 2026-09-01 18:01:27 |
| SONDE2-12 | 192 | 2026-09-01 16:46:35 | 2026-09-01 18:52:17 |
| SP3BTT-10 | 171 | 2026-09-01 16:54:29 | 2026-09-01 19:12:36 |
| EDDB2-12 | 148 | 2026-09-01 16:45:29 | 2026-09-01 19:00:29 |
| EDDB2-11 | 132 | 2026-09-01 16:45:25 | 2026-09-01 18:56:47 |
| DM0DOS-11 | 119 | 2026-09-01 17:17:40 | 2026-09-01 18:06:35 |
| SP6BVK | 114 | 2026-09-01 17:01:22 | 2026-09-01 19:05:41 |
| DL1XH-west | 108 | 2026-09-01 17:29:49 | 2026-09-01 18:00:58 |
| 13BRC | 96 | 2026-09-01 16:51:59 | 2026-09-01 18:45:21 |
| DAC517 | 81 | 2026-09-01 16:48:32 | 2026-09-01 18:21:09 |
| SONDE2-11 | 77 | 2026-09-01 16:45:32 | 2026-09-01 19:01:06 |
| DL2RXE-15 | 62 | 2026-09-01 16:52:07 | 2026-09-01 18:18:39 |
| S3001 | 54 | 2026-09-01 16:55:17 | 2026-09-01 17:56:56 |
| SP3WXH-11 | 51 | 2026-09-01 17:17:10 | 2026-09-01 19:04:43 |
| DL1XH1-15 | 37 | 2026-09-01 17:28:57 | 2026-09-01 17:56:02 |
| SONCRA | 26 | 2026-09-01 17:09:58 | 2026-09-01 18:09:59 |
| DB0NH | 26 | 2026-09-01 17:11:44 | 2026-09-01 18:11:03 |
| OE3JTB-15 | 18 | 2026-09-01 17:56:45 | 2026-09-01 18:18:30 |
| MECKS9 | 16 | 2026-09-01 17:07:05 | 2026-09-01 17:23:44 |
| DO3MHA-11 | 14 | 2026-09-01 17:38:22 | 2026-09-01 17:53:00 |
| D01LWL | 7 | 2026-09-01 17:31:47 | 2026-09-01 17:46:48 |
| DJ2DS-15 | 5 | 2026-09-01 17:41:02 | 2026-09-01 17:49:48 |
| NBG1-10 | 3 | 2026-09-01 17:18:03 | 2026-09-01 17:52:16 |
| DL1JHR | 1 | 2026-09-01 17:23:13 | 2026-09-01 17:23:13 |
| DH0BRO-15 | 1 | 2026-09-01 17:49:29 | 2026-09-01 17:49:29 |
| Receiver | Date | Latitude | Longitude | Direction | Speed | Altitude | Climb | Temperature | Humidity | Pressure | Voltage | Killtimer | Uptime | BKT | XDATA |
|---|---|---|---|---|---|---|---|---|---|---|---|---|---|---|---|
| SP3BTT-10 | 2026-09-01 19:12:36 | 52.13748 | 16.13619 | 70° | 31km/h | 221m | -2.6m/s | 18.4°C | 61.6% | 995.6hPa | 2.7V | 00:00:00 | 00:00:00 | 00:00:00 | |
| SP3BTT-10 | 2026-09-01 19:12:34 | 52.13743 | 16.13595 | 75° | 29km/h | 226m | -2.4m/s | 18.3°C | 62.4% | 995.0hPa | 2.7V | 00:00:00 | 00:00:00 | 00:00:00 | |
| SP3BTT-10 | 2026-09-01 19:12:32 | 52.13739 | 16.13572 | 77° | 31km/h | 231m | -2.7m/s | 18.2°C | 62.8% | 994.5hPa | 2.7V | 00:00:00 | 00:00:00 | 00:00:00 | |
| SP3BTT-10 | 2026-09-01 19:12:30 | 52.13735 | 16.13547 | 76° | 31km/h | 237m | -3.0m/s | 18.3°C | 62.2% | 993.6hPa | 2.7V | 00:00:00 | 00:00:00 | 00:00:00 | |
| SP3BTT-10 | 2026-09-01 19:12:28 | 52.13731 | 16.13522 | 77° | 33km/h | 243m | -2.4m/s | 18.4°C | 61.1% | 993.1hPa | 2.7V | 00:00:00 | 00:00:00 | 00:00:00 | |
| SP3BTT-10 | 2026-09-01 19:12:26 | 52.13728 | 16.13496 | 78° | 33km/h | 248m | -2.9m/s | 18.4°C | 61.0% | 992.5hPa | 2.7V | 00:00:00 | 00:00:00 | 00:00:00 | |
| SP3BTT-10 | 2026-09-01 19:12:24 | 52.13725 | 16.13469 | 81° | 33km/h | 254m | -3.0m/s | 18.4°C | 60.8% | 991.5hPa | 2.7V | 00:00:00 | 00:00:00 | 00:00:00 | |
| SP3BTT-10 | 2026-09-01 19:12:22 | 52.13721 | 16.13443 | 79° | 33km/h | 260m | -3.0m/s | 18.4°C | 60.5% | 991.0hPa | 2.7V | 07:05:00 | 00:00:00 | 00:00:00 | |
| SP3BTT-10 | 2026-09-01 19:12:20 | 52.13718 | 16.13416 | 78° | 33km/h | 266m | -2.8m/s | 18.3°C | 60.7% | 990.5hPa | 2.7V | 00:00:00 | 00:00:00 | 00:00:00 | |
| SP3BTT-10 | 2026-09-01 19:12:18 | 52.13715 | 16.13388 | 78° | 35km/h | 272m | -3.0m/s | 18.3°C | 60.7% | 989.8hPa | 2.7V | 00:00:00 | 00:00:00 | 00:00:00 | |
| SP3BTT-10 | 2026-09-01 19:12:16 | 52.13712 | 16.13361 | 82° | 35km/h | 277m | -2.8m/s | 18.3°C | 60.7% | 989.0hPa | 2.7V | 00:00:00 | 00:00:00 | 00:00:00 | |
| SP3BTT-10 | 2026-09-01 19:12:14 | 52.13708 | 16.13333 | 81° | 35km/h | 283m | -2.4m/s | 18.3°C | 60.8% | 988.5hPa | 2.7V | 00:00:00 | 00:00:00 | 00:00:00 | |
| SP3BTT-10 | 2026-09-01 19:12:12 | 52.13706 | 16.13304 | 82° | 37km/h | 288m | -2.5m/s | 18.3°C | 60.8% | 987.8hPa | 2.7V | 00:00:00 | 00:00:00 | 00:00:00 | |
| SP3BTT-10 | 2026-09-01 19:12:10 | 52.13704 | 16.13275 | 81° | 37km/h | 293m | -2.6m/s | 18.3°C | 60.3% | 987.3hPa | 2.7V | 00:00:00 | 00:00:00 | 00:00:00 | |
| SP3BTT-10 | 2026-09-01 19:12:08 | 52.13701 | 16.13244 | 82° | 37km/h | 298m | -2.3m/s | 18.3°C | 60.4% | 986.6hPa | 2.7V | 00:00:00 | 00:00:00 | 00:00:00 | |
| SP3BTT-10 | 2026-09-01 19:12:06 | 52.13699 | 16.13214 | 85° | 38km/h | 303m | -3.0m/s | 18.3°C | 60.1% | 986.1hPa | 2.7V | 07:06:00 | 00:00:00 | 00:00:00 | |
| SP3BTT-10 | 2026-09-01 19:12:00 | 52.13693 | 16.13122 | 86° | 38km/h | 319m | -2.2m/s | 18.2°C | 60.5% | 984.2hPa | 2.7V | 00:00:00 | 00:00:00 | 00:00:00 | |
| SP3BTT-10 | 2026-09-01 19:11:54 | 52.13689 | 16.13029 | 86° | 38km/h | 334m | -2.6m/s | 18.3°C | 58.3% | 982.6hPa | 2.7V | 00:00:00 | 00:00:00 | 00:00:00 | |
| SP3BTT-10 | 2026-09-01 19:11:48 | 52.13686 | 16.12934 | 87° | 38km/h | 350m | -2.7m/s | 18.3°C | 57.6% | 980.6hPa | 2.7V | 00:00:00 | 00:00:00 | 00:00:00 | |
| SP3BTT-10 | 2026-09-01 19:11:42 | 52.13683 | 16.12837 | 88° | 38km/h | 365m | -2.6m/s | 18.2°C | 57.1% | 979.1hPa | 2.7V | 00:00:00 | 00:00:00 | 00:00:00 | |
| SP3BTT-10 | 2026-09-01 19:11:36 | 52.13680 | 16.12741 | 89° | 38km/h | 381m | -2.7m/s | 18.2°C | 57.5% | 977.2hPa | 2.7V | 00:00:00 | 00:00:00 | 00:00:00 | |
| SP3BTT-10 | 2026-09-01 19:11:30 | 52.13678 | 16.12647 | 88° | 38km/h | 397m | -2.7m/s | 18.1°C | 58.2% | 975.5hPa | 2.7V | 00:00:00 | 00:00:00 | 00:00:00 | |
| SP3BTT-10 | 2026-09-01 19:11:24 | 52.13675 | 16.12554 | 88° | 37km/h | 413m | -2.8m/s | 17.9°C | 59.0% | 973.6hPa | 2.7V | 00:00:00 | 00:00:00 | 00:00:00 | |
| SP3BTT-10 | 2026-09-01 19:11:18 | 52.13675 | 16.12462 | 90° | 37km/h | 429m | -2.8m/s | 17.8°C | 59.8% | 971.7hPa | 2.7V | 07:07:00 | 00:00:00 | 00:00:00 | |
| SP3BTT-10 | 2026-09-01 19:11:12 | 52.13675 | 16.12372 | 92° | 37km/h | 444m | -2.6m/s | 17.7°C | 60.4% | 970.0hPa | 2.7V | 00:00:00 | 00:00:00 | 00:00:00 | |
| SP3BTT-10 | 2026-09-01 19:11:06 | 52.13678 | 16.12283 | 96° | 37km/h | 460m | -2.6m/s | 17.5°C | 61.1% | 968.2hPa | 2.7V | 00:00:00 | 00:00:00 | 00:00:00 | |
| SP3BTT-10 | 2026-09-01 19:11:00 | 52.13683 | 16.12193 | 96° | 37km/h | 475m | -2.5m/s | 17.4°C | 62.1% | 966.5hPa | 2.7V | 00:00:00 | 00:00:00 | 00:00:00 | |
| SP3BTT-10 | 2026-09-01 19:10:54 | 52.13690 | 16.12103 | 97° | 37km/h | 490m | -2.4m/s | 17.3°C | 63.0% | 965.0hPa | 2.7V | 00:00:00 | 00:00:00 | 00:00:00 | |
| SP3BTT-10 | 2026-09-01 19:10:48 | 52.13697 | 16.12014 | 98° | 37km/h | 505m | -2.5m/s | 17.2°C | 63.3% | 963.3hPa | 2.7V | 00:00:00 | 00:00:00 | 00:00:00 | |
| SP3BTT-10 | 2026-09-01 19:10:42 | 52.13706 | 16.11924 | 101° | 38km/h | 521m | -2.4m/s | 17.2°C | 62.7% | 961.5hPa | 2.7V | 00:00:00 | 00:00:00 | 00:00:00 | |
| SP3BTT-10 | 2026-09-01 19:10:36 | 52.13717 | 16.11831 | 101° | 38km/h | 536m | -2.3m/s | 17.1°C | 63.0% | 959.8hPa | 2.7V | 00:00:00 | 00:00:00 | 00:00:00 | |
| SP3BTT-10 | 2026-09-01 19:10:30 | 52.13729 | 16.11740 | 103° | 38km/h | 551m | -2.6m/s | 17.0°C | 63.0% | 958.1hPa | 2.7V | 07:07:00 | 00:00:00 | 00:00:00 | |
| SP3BTT-10 | 2026-09-01 19:10:24 | 52.13741 | 16.11649 | 103° | 38km/h | 567m | -2.8m/s | 16.9°C | 63.2% | 956.3hPa | 2.7V | 00:00:00 | 00:00:00 | 00:00:00 | |
| SP3BTT-10 | 2026-09-01 19:10:18 | 52.13753 | 16.11559 | 103° | 37km/h | 583m | -2.5m/s | 16.8°C | 63.6% | 954.4hPa | 2.7V | 00:00:00 | 00:00:00 | 00:00:00 | |
| SP3BTT-10 | 2026-09-01 19:10:12 | 52.13766 | 16.11469 | 103° | 37km/h | 599m | -2.7m/s | 16.8°C | 64.0% | 952.8hPa | 2.7V | 00:00:00 | 00:00:00 | 00:00:00 | |
| SP3BTT-10 | 2026-09-01 19:10:06 | 52.13778 | 16.11380 | 103° | 37km/h | 615m | -2.6m/s | 16.8°C | 62.0% | 950.9hPa | 2.7V | 00:00:00 | 00:00:00 | 00:00:00 | |
| SP3BTT-10 | 2026-09-01 19:10:00 | 52.13790 | 16.11294 | 105° | 37km/h | 632m | -2.7m/s | 16.7°C | 61.9% | 949.1hPa | 2.7V | 00:00:00 | 00:00:00 | 00:00:00 | |
| SP3BTT-10 | 2026-09-01 19:09:54 | 52.13803 | 16.11207 | 103° | 37km/h | 649m | -2.8m/s | 16.6°C | 62.4% | 947.3hPa | 2.7V | 00:00:00 | 00:00:00 | 00:00:00 | |
| SP3BTT-10 | 2026-09-01 19:09:48 | 52.13816 | 16.11122 | 104° | 35km/h | 665m | -2.8m/s | 16.4°C | 62.7% | 945.4hPa | 2.7V | 00:00:00 | 00:00:00 | 00:00:00 | |
| SP3BTT-10 | 2026-09-01 19:09:42 | 52.13828 | 16.11038 | 104° | 35km/h | 681m | -2.8m/s | 16.3°C | 62.6% | 943.7hPa | 2.7V | 07:08:00 | 00:00:00 | 00:00:00 | |
| SP3BTT-10 | 2026-09-01 19:09:30 | 52.13851 | 16.10871 | 104° | 35km/h | 715m | -2.8m/s | 16.0°C | 63.6% | 939.8hPa | 2.7V | 00:00:00 | 00:00:00 | 00:00:00 | |
| SP3BTT-10 | 2026-09-01 19:09:24 | 52.13864 | 16.10788 | 103° | 35km/h | 733m | -3.0m/s | 15.8°C | 64.1% | 937.8hPa | 2.7V | 00:00:00 | 00:00:00 | 00:00:00 | |
| SP3BTT-10 | 2026-09-01 19:09:18 | 52.13875 | 16.10706 | 104° | 33km/h | 750m | -2.9m/s | 15.7°C | 66.0% | 935.9hPa | 2.7V | 00:00:00 | 00:00:00 | 00:00:00 | |
| SP3BTT-10 | 2026-09-01 19:09:12 | 52.13887 | 16.10627 | 104° | 33km/h | 768m | -2.8m/s | 15.5°C | 66.7% | 934.0hPa | 2.7V | 00:00:00 | 00:00:00 | 00:00:00 | |
| SP3BTT-10 | 2026-09-01 19:09:06 | 52.13900 | 16.10547 | 105° | 33km/h | 785m | -3.0m/s | 15.3°C | 67.2% | 931.9hPa | 2.7V | 00:00:00 | 00:00:00 | 00:00:00 | |
| SP3BTT-10 | 2026-09-01 19:09:00 | 52.13912 | 16.10467 | 104° | 33km/h | 802m | -2.8m/s | 15.1°C | 67.8% | 930.1hPa | 2.7V | 00:00:00 | 00:00:00 | 00:00:00 | |
| SP3BTT-10 | 2026-09-01 19:08:48 | 52.13936 | 16.10310 | 105° | 33km/h | 836m | -3.0m/s | 14.8°C | 68.5% | 926.3hPa | 2.7V | 00:00:00 | 00:00:00 | 00:00:00 | |
| SP3BTT-10 | 2026-09-01 19:08:42 | 52.13947 | 16.10232 | 104° | 33km/h | 854m | -2.9m/s | 14.7°C | 68.9% | 924.5hPa | 2.7V | 00:00:00 | 00:00:00 | 00:00:00 | |
| SP3BTT-10 | 2026-09-01 19:08:36 | 52.13958 | 16.10154 | 103° | 31km/h | 872m | -2.8m/s | 14.6°C | 69.2% | 922.5hPa | 2.7V | 00:00:00 | 00:00:00 | 00:00:00 | |
| SP3BTT-10 | 2026-09-01 19:08:30 | 52.13969 | 16.10078 | 103° | 31km/h | 890m | -2.8m/s | 14.4°C | 69.1% | 920.6hPa | 2.7V | 00:00:00 | 00:00:00 | 00:00:00 | |
| SP3BTT-10 | 2026-09-01 19:08:24 | 52.13979 | 16.10003 | 104° | 31km/h | 908m | -3.1m/s | 14.3°C | 69.4% | 918.6hPa | 2.7V | 00:00:00 | 00:00:00 | 00:00:00 | |
| SP3BTT-10 | 2026-09-01 19:08:18 | 52.13989 | 16.09928 | 102° | 31km/h | 925m | -2.7m/s | 14.1°C | 69.7% | 916.7hPa | 2.7V | 00:00:00 | 00:00:00 | 00:00:00 | |
| SP3BTT-10 | 2026-09-01 19:08:12 | 52.13998 | 16.09854 | 100° | 31km/h | 942m | -2.6m/s | 14.0°C | 70.0% | 914.8hPa | 2.7V | 00:00:00 | 00:00:00 | 00:00:00 | |
| SP3BTT-10 | 2026-09-01 19:08:06 | 52.14007 | 16.09780 | 102° | 29km/h | 958m | -2.8m/s | 13.8°C | 70.2% | 913.1hPa | 2.7V | 07:10:00 | 00:00:00 | 00:00:00 | |
| SP3BTT-10 | 2026-09-01 19:08:00 | 52.14016 | 16.09711 | 102° | 27km/h | 976m | -3.3m/s | 13.7°C | 70.8% | 911.1hPa | 2.7V | 00:00:00 | 00:00:00 | 00:00:00 | |
| SP3BTT-10 | 2026-09-01 19:07:54 | 52.14024 | 16.09643 | 102° | 27km/h | 993m | -3.2m/s | 13.5°C | 71.4% | 909.1hPa | 2.7V | 00:00:00 | 00:00:00 | 00:00:00 | |
| SP3BTT-10 | 2026-09-01 19:07:48 | 52.14032 | 16.09576 | 103° | 27km/h | 1012m | -3.1m/s | 13.3°C | 72.1% | 907.4hPa | 2.7V | 00:00:00 | 00:00:00 | 00:00:00 | |
| SP3BTT-10 | 2026-09-01 19:07:42 | 52.14041 | 16.09509 | 101° | 27km/h | 1030m | -3.0m/s | 13.2°C | 72.0% | 905.5hPa | 2.7V | 00:00:00 | 00:00:00 | 00:00:00 | |
| SP3BTT-10 | 2026-09-01 19:07:36 | 52.14049 | 16.09442 | 100° | 27km/h | 1048m | -2.8m/s | 13.0°C | 73.0% | 903.3hPa | 2.7V | 00:00:00 | 00:00:00 | 00:00:00 | |
| SP3BTT-10 | 2026-09-01 19:07:30 | 52.14057 | 16.09377 | 102° | 27km/h | 1066m | -2.9m/s | 12.8°C | 73.7% | 901.3hPa | 2.7V | 00:00:00 | 00:00:00 | 00:00:00 | |
| SP3BTT-10 | 2026-09-01 19:07:24 | 52.14066 | 16.09310 | 102° | 27km/h | 1084m | -3.1m/s | 12.6°C | 74.4% | 899.6hPa | 2.7V | 00:00:00 | 00:00:00 | 00:00:00 | |
| SP3BTT-10 | 2026-09-01 19:07:18 | 52.14075 | 16.09243 | 104° | 29km/h | 1102m | -2.9m/s | 12.5°C | 75.2% | 897.5hPa | 2.7V | 07:11:00 | 00:00:00 | 00:00:00 | |
| SP3BTT-10 | 2026-09-01 19:07:08 | 52.14091 | 16.09124 | 102° | 33km/h | 1133m | -3.1m/s | 12.2°C | 76.1% | 894.3hPa | 2.7V | 00:00:00 | 00:00:00 | 00:00:00 | |
| KRY50SP-1 | 2026-09-01 19:06:54 | 52.14118 | 16.08961 | 109° | 33km/h | 1175m | -3.2m/s | 12.0°C | 75.8% | 890.0hPa | 2.7V | 07:11:00 | 00:00:00 | 00:00:00 | |
| SP3BTT-10 | 2026-09-01 19:06:48 | 52.14136 | 16.08870 | 108° | 35km/h | 1197m | -3.2m/s | 11.8°C | 74.7% | 887.5hPa | 2.7V | 00:00:00 | 00:00:00 | 00:00:00 | |
| KRY50SP-1 | 2026-09-01 19:06:44 | 52.14145 | 16.08830 | 110° | 35km/h | 1206m | -3.4m/s | 11.8°C | 75.3% | 886.6hPa | 2.7V | 07:11:00 | 00:00:00 | 00:00:00 | |
| SP3BTT-10 | 2026-09-01 19:06:28 | 52.14193 | 16.08603 | 109° | 35km/h | 1259m | -3.0m/s | 11.4°C | 73.0% | 881.1hPa | 2.7V | 00:00:00 | 00:00:00 | 00:00:00 | |
| KRY50SP-1 | 2026-09-01 19:06:27 | 52.14193 | 16.08603 | 110° | 35km/h | 1259m | -3.0m/s | 11.5°C | 73.1% | 881.2hPa | 2.7V | 07:11:00 | 00:00:00 | 00:00:00 | |
| KRY50SP-1 | 2026-09-01 19:06:22 | 52.14208 | 16.08535 | 111° | 35km/h | 1274m | -2.8m/s | 11.3°C | 73.9% | 879.5hPa | 2.7V | 00:00:00 | 00:00:00 | 00:00:00 | |
| KRY50SP-1 | 2026-09-01 19:06:16 | 52.14227 | 16.08454 | 112° | 35km/h | 1291m | -3.4m/s | 11.2°C | 72.1% | 877.7hPa | 2.7V | 00:00:00 | 00:00:00 | 00:00:00 | |
| KRY50SP-1 | 2026-09-01 19:06:08 | 52.14252 | 16.08349 | 112° | 35km/h | 1316m | -3.4m/s | 11.0°C | 72.9% | 875.1hPa | 2.7V | 00:00:00 | 00:00:00 | 00:00:00 | |
| SP3BTT-10 | 2026-09-01 19:06:08 | 52.14255 | 16.08336 | 112° | 35km/h | 1319m | -3.2m/s | 10.9°C | 72.9% | 874.7hPa | 2.7V | 00:00:00 | 00:00:00 | 00:00:00 | |
| KRY50SP-1 | 2026-09-01 19:05:50 | 52.14309 | 16.08115 | 113° | 33km/h | 1371m | -3.1m/s | 10.6°C | 72.9% | 869.3hPa | 2.7V | 00:00:00 | 00:00:00 | 00:00:00 | |
| SP3BTT-10 | 2026-09-01 19:05:48 | 52.14318 | 16.08076 | 112° | 35km/h | 1380m | -3.0m/s | 10.4°C | 72.7% | 868.2hPa | 2.7V | 00:00:00 | 00:00:00 | 00:00:00 | |
| SP6BVK | 2026-09-01 19:05:41 | 52.14338 | 16.07999 | 114° | 35km/h | 1399m | -2.9m/s | 10.3°C | 73.3% | 866.4hPa | 2.7V | 00:00:00 | 00:00:00 | 00:00:00 | |
| SP3BTT-10 | 2026-09-01 19:05:28 | 52.14384 | 16.07815 | 111° | 37km/h | 1442m | -3.4m/s | 9.8°C | 74.8% | 861.7hPa | 2.7V | 00:00:00 | 00:00:00 | 00:00:00 | |
| SP3BTT-10 | 2026-09-01 19:05:08 | 52.14452 | 16.07543 | 113° | 37km/h | 1507m | -3.3m/s | 9.2°C | 78.5% | 855.2hPa | 2.7V | 00:00:00 | 00:00:00 | 00:00:00 | |
| SP3BTT-10 | 2026-09-01 19:04:48 | 52.14519 | 16.07263 | 110° | 37km/h | 1571m | -3.1m/s | 8.6°C | 80.9% | 848.7hPa | 2.7V | 07:13:00 | 00:00:00 | 00:00:00 | |
| SP3WXH-11 | 2026-09-01 19:04:43 | 52.14534 | 16.07193 | 109° | 35km/h | 1586m | -3.0m/s | 8.5°C | 83.3% | 847.1hPa | 2.7V | 00:00:00 | 00:00:00 | 00:00:00 | |
| KRY50SP-1 | 2026-09-01 19:04:36 | 52.14553 | 16.07109 | 111° | 37km/h | 1605m | -3.3m/s | 8.3°C | 84.8% | 845.2hPa | 2.7V | 07:14:00 | 00:00:00 | 00:00:00 | |
| SP3BTT-10 | 2026-09-01 19:04:28 | 52.14580 | 16.06983 | 111° | 35km/h | 1633m | -3.2m/s | 8.0°C | 85.9% | 842.2hPa | 2.7V | 00:00:00 | 00:00:00 | 00:00:00 | |
| KRY50SP-1 | 2026-09-01 19:04:22 | 52.14596 | 16.06914 | 111° | 37km/h | 1650m | -3.2m/s | 8.0°C | 85.9% | 840.6hPa | 2.7V | 07:14:00 | 00:00:00 | 00:00:00 | |
| KRY50SP-1 | 2026-09-01 19:04:13 | 52.14626 | 16.06777 | 112° | 35km/h | 1681m | -3.5m/s | 7.7°C | 87.0% | 837.5hPa | 2.7V | 07:14:00 | 00:00:00 | 00:00:00 | |
| SP3WXH-11 | 2026-09-01 19:04:12 | 52.14629 | 16.06764 | 109° | 35km/h | 1684m | -3.1m/s | 7.6°C | 87.2% | 837.2hPa | 2.7V | 00:00:00 | 00:00:00 | 00:00:00 | |
| SP3BTT-10 | 2026-09-01 19:04:08 | 52.14641 | 16.06709 | 111° | 35km/h | 1697m | -3.1m/s | 7.5°C | 87.7% | 835.9hPa | 2.7V | 00:00:00 | 00:00:00 | 00:00:00 | |
| KRY50SP-1 | 2026-09-01 19:04:00 | 52.14663 | 16.06614 | 112° | 35km/h | 1718m | -3.0m/s | 7.4°C | 87.1% | 833.7hPa | 2.7V | 07:14:00 | 00:00:00 | 00:00:00 | |
| KRY50SP-1 | 2026-09-01 19:03:51 | 52.14690 | 16.06492 | 109° | 35km/h | 1745m | -3.3m/s | 7.1°C | 87.6% | 831.0hPa | 2.7V | 07:14:00 | 00:00:00 | 00:00:00 | |
| SP3BTT-10 | 2026-09-01 19:03:48 | 52.14701 | 16.06437 | 109° | 37km/h | 1757m | -3.1m/s | 7.0°C | 88.0% | 829.5hPa | 2.7V | 00:00:00 | 00:00:00 | 00:00:00 | |
| KRY50SP-1 | 2026-09-01 19:03:45 | 52.14707 | 16.06409 | 111° | 37km/h | 1764m | -3.2m/s | 7.0°C | 87.8% | 829.1hPa | 2.7V | 07:15:00 | 00:00:00 | 00:00:00 | |
| SP3WXH-11 | 2026-09-01 19:03:41 | 52.14723 | 16.06337 | 109° | 37km/h | 1779m | -3.0m/s | 6.8°C | 87.1% | 827.3hPa | 2.7V | 00:00:00 | 00:00:00 | 00:00:00 | |
| KRY50SP-1 | 2026-09-01 19:03:40 | 52.14723 | 16.06338 | 111° | 37km/h | 1779m | -3.0m/s | 6.8°C | 87.1% | 827.3hPa | 2.7V | 07:15:00 | 00:00:00 | 00:00:00 | |
| KRY50SP-1 | 2026-09-01 19:03:32 | 52.14747 | 16.06223 | 110° | 37km/h | 1804m | -3.0m/s | 6.7°C | 86.9% | 825.0hPa | 2.7V | 07:15:00 | 00:00:00 | 00:00:00 | |
| SP3BTT-10 | 2026-09-01 19:03:28 | 52.14763 | 16.06149 | 110° | 38km/h | 1819m | -3.2m/s | 6.6°C | 85.9% | 823.5hPa | 2.7V | 00:00:00 | 00:00:00 | 00:00:00 | |
| KRY50SP-1 | 2026-09-01 19:03:20 | 52.14786 | 16.06043 | 110° | 38km/h | 1841m | -3.4m/s | 6.5°C | 84.4% | 821.2hPa | 2.7V | 07:15:00 | 00:00:00 | 00:00:00 | |
| SP6BVK | 2026-09-01 19:03:17 | 52.14796 | 16.05999 | 111° | 38km/h | 1851m | -3.2m/s | 6.5°C | 83.6% | 820.4hPa | 2.7V | 00:00:00 | 00:00:00 | 00:00:00 | |
| SP3WXH-11 | 2026-09-01 19:03:10 | 52.14823 | 16.05881 | 111° | 38km/h | 1876m | -3.1m/s | 6.3°C | 83.5% | 817.9hPa | 2.7V | 00:00:00 | 00:00:00 | 00:00:00 | |
| KRY50SP-1 | 2026-09-01 19:03:08 | 52.14827 | 16.05867 | 112° | 38km/h | 1880m | -3.1m/s | 6.2°C | 84.0% | 817.6hPa | 2.7V | 07:15:00 | 00:00:00 | 00:00:00 | |
| SP3BTT-10 | 2026-09-01 19:03:08 | 52.14830 | 16.05851 | 111° | 40km/h | 1883m | -3.0m/s | 6.2°C | 83.7% | 817.3hPa | 2.7V | 00:00:00 | 00:00:00 | 00:00:00 | |
| KRY50SP-1 | 2026-09-01 19:03:02 | 52.14848 | 16.05776 | 113° | 40km/h | 1899m | -3.1m/s | 6.1°C | 83.2% | 815.8hPa | 2.7V | 07:15:00 | 00:00:00 | 00:00:00 | |
| KRY50SP-1 | 2026-09-01 19:02:56 | 52.14871 | 16.05685 | 114° | 40km/h | 1916m | -2.9m/s | 5.9°C | 83.7% | 814.0hPa | 2.7V | 07:16:00 | 00:00:00 | 00:00:00 | |
| KRY50SP-1 | 2026-09-01 19:02:51 | 52.14891 | 16.05609 | 113° | 40km/h | 1931m | -3.0m/s | 5.8°C | 84.3% | 812.6hPa | 2.7V | 07:16:00 | 00:00:00 | 00:00:00 | |
| SP3BTT-10 | 2026-09-01 19:02:48 | 52.14907 | 16.05548 | 114° | 40km/h | 1942m | -2.8m/s | 5.6°C | 85.1% | 811.4hPa | 2.7V | 00:00:00 | 00:00:00 | 00:00:00 | |
| KRY50SP-1 | 2026-09-01 19:02:45 | 52.14914 | 16.05518 | 114° | 40km/h | 1947m | -3.0m/s | 5.6°C | 84.6% | 810.9hPa | 2.7V | 07:16:00 | 00:00:00 | 00:00:00 | |
| KRY50SP-1 | 2026-09-01 19:02:40 | 52.14938 | 16.05427 | 113° | 40km/h | 1964m | -2.7m/s | 5.5°C | 84.4% | 809.1hPa | 2.7V | 07:16:00 | 00:00:00 | 00:00:00 | |
| SP6BVK | 2026-09-01 19:02:39 | 52.14938 | 16.05427 | 113° | 40km/h | 1964m | -2.7m/s | 5.5°C | 84.4% | 809.1hPa | 2.7V | 07:16:00 | 00:00:00 | 00:00:00 | |
| SP3WXH-11 | 2026-09-01 19:02:39 | 52.14941 | 16.05412 | 111° | 38km/h | 1967m | -2.9m/s | 5.5°C | 84.0% | 808.9hPa | 2.7V | 00:00:00 | 00:00:00 | 00:00:00 | |
| KRY50SP-1 | 2026-09-01 19:02:34 | 52.14956 | 16.05351 | 112° | 40km/h | 1978m | -2.7m/s | 5.4°C | 85.2% | 807.5hPa | 2.7V | 07:16:00 | 00:00:00 | 00:00:00 | |
| KRY50SP-1 | 2026-09-01 19:02:28 | 52.14978 | 16.05260 | 112° | 40km/h | 1995m | -2.6m/s | 5.4°C | 84.0% | 806.0hPa | 2.7V | 07:16:00 | 00:00:00 | 00:00:00 | |
| SP3BTT-10 | 2026-09-01 19:02:28 | 52.14982 | 16.05244 | 111° | 40km/h | 1998m | -2.6m/s | 5.3°C | 84.0% | 805.7hPa | 2.7V | 00:00:00 | 00:00:00 | 00:00:00 | |
| KRY50SP-1 | 2026-09-01 19:02:23 | 52.14996 | 16.05182 | 112° | 40km/h | 2010m | -2.9m/s | 5.3°C | 82.7% | 804.6hPa | 2.7V | 07:16:00 | 00:00:00 | 00:00:00 | |
| KRY50SP-1 | 2026-09-01 19:02:17 | 52.15018 | 16.05090 | 113° | 40km/h | 2026m | -2.9m/s | 5.2°C | 81.1% | 802.9hPa | 2.7V | 07:16:00 | 00:00:00 | 00:00:00 | |
| SP6BVK | 2026-09-01 19:02:14 | 52.15029 | 16.05044 | 113° | 40km/h | 2035m | -2.9m/s | 5.2°C | 80.6% | 802.2hPa | 2.7V | 07:16:00 | 00:00:00 | 00:00:00 | |
| KRY50SP-1 | 2026-09-01 19:02:11 | 52.15040 | 16.04998 | 112° | 40km/h | 2044m | -2.7m/s | 5.2°C | 79.8% | 801.4hPa | 2.7V | 07:16:00 | 00:00:00 | 00:00:00 | |
| KRY50SP-1 | 2026-09-01 19:02:05 | 52.15062 | 16.04908 | 113° | 38km/h | 2060m | -3.0m/s | 5.0°C | 78.5% | 799.8hPa | 2.7V | 07:17:00 | 00:00:00 | 00:00:00 | |
| KRY50SP-1 | 2026-09-01 19:01:59 | 52.15084 | 16.04820 | 113° | 38km/h | 2077m | -2.7m/s | 4.9°C | 78.5% | 798.1hPa | 2.7V | 07:17:00 | 00:00:00 | 00:00:00 | |
| KRY50SP-1 | 2026-09-01 19:01:54 | 52.15103 | 16.04748 | 116° | 38km/h | 2090m | -3.0m/s | 4.8°C | 78.4% | 796.8hPa | 2.7V | 07:17:00 | 00:00:00 | 00:00:00 | |
| SP6BVK | 2026-09-01 19:01:53 | 52.15107 | 16.04733 | 116° | 38km/h | 2093m | -2.9m/s | 4.8°C | 78.3% | 796.4hPa | 2.7V | 07:17:00 | 00:00:00 | 00:00:00 | |
| SP3BTT-10 | 2026-09-01 19:01:48 | 52.15132 | 16.04646 | 116° | 38km/h | 2109m | -2.6m/s | 4.6°C | 78.9% | 794.8hPa | 2.7V | 00:00:00 | 00:00:00 | 00:00:00 | |
| KRY50SP-1 | 2026-09-01 19:01:43 | 52.15150 | 16.04588 | 116° | 38km/h | 2120m | -2.6m/s | 4.6°C | 78.8% | 793.9hPa | 2.7V | 07:17:00 | 00:00:00 | 00:00:00 | |
| SP3WXH-11 | 2026-09-01 19:01:37 | 52.15179 | 16.04487 | 113° | 37km/h | 2138m | -2.6m/s | 4.4°C | 78.3% | 792.0hPa | 2.7V | 00:00:00 | 00:00:00 | 00:00:00 | |
| SP6BVK | 2026-09-01 19:01:33 | 52.15190 | 16.04445 | 114° | 37km/h | 2147m | -3.1m/s | 4.4°C | 77.9% | 791.2hPa | 2.7V | 07:17:00 | 00:00:00 | 00:00:00 | |
| KRY50SP-1 | 2026-09-01 19:01:32 | 52.15193 | 16.04431 | 113° | 37km/h | 2150m | -3.3m/s | 4.4°C | 77.8% | 791.0hPa | 2.7V | 07:17:00 | 00:00:00 | 00:00:00 | |
| SP3BTT-10 | 2026-09-01 19:01:28 | 52.15211 | 16.04361 | 114° | 38km/h | 2165m | -2.9m/s | 4.2°C | 78.1% | 789.3hPa | 2.7V | 00:00:00 | 00:00:00 | 00:00:00 | |
| KRY50SP-1 | 2026-09-01 19:01:27 | 52.15211 | 16.04361 | 115° | 38km/h | 2165m | -3.0m/s | 4.3°C | 77.8% | 789.4hPa | 2.7V | 07:17:00 | 00:00:00 | 00:00:00 | |
| KRY50SP-1 | 2026-09-01 19:01:22 | 52.15230 | 16.04289 | 114° | 38km/h | 2181m | -3.3m/s | 4.2°C | 78.4% | 788.0hPa | 2.7V | 07:17:00 | 00:00:00 | 00:00:00 | |
| KRY50SP-1 | 2026-09-01 19:01:17 | 52.15247 | 16.04216 | 112° | 38km/h | 2197m | -3.2m/s | 4.1°C | 77.4% | 786.5hPa | 2.7V | 00:00:00 | 00:00:00 | 00:00:00 | |
| SP6BVK | 2026-09-01 19:01:12 | 52.15264 | 16.04143 | 112° | 38km/h | 2213m | -3.2m/s | 4.1°C | 75.5% | 785.0hPa | 2.7V | 07:17:00 | 00:00:00 | 00:00:00 | |
| KRY50SP-1 | 2026-09-01 19:01:11 | 52.15268 | 16.04129 | 112° | 38km/h | 2216m | -3.1m/s | 4.0°C | 75.6% | 784.7hPa | 2.7V | 00:00:00 | 00:00:00 | 00:00:00 | |
| SP3BTT-10 | 2026-09-01 19:01:08 | 52.15280 | 16.04070 | 111° | 38km/h | 2228m | -3.2m/s | 3.9°C | 76.7% | 783.4hPa | 2.7V | 00:00:00 | 00:00:00 | 00:00:00 | |
| SONDE2-11 | 2026-09-01 19:01:06 | 52.15359 | 16.03705 | 106° | 40km/h | 2299m | -3.0m/s | 3.4°C | 76.7% | 776.6hPa | 2.7V | 00:00:00 | 00:00:00 | 00:00:00 | |
| KRY50SP-1 | 2026-09-01 19:01:00 | 52.15304 | 16.03965 | 112° | 38km/h | 2249m | -2.8m/s | 3.8°C | 75.2% | 781.5hPa | 2.7V | 00:00:00 | 00:00:00 | 00:00:00 | |
| KRY50SP-1 | 2026-09-01 19:00:55 | 52.15321 | 16.03889 | 111° | 38km/h | 2264m | -3.0m/s | 3.7°C | 74.3% | 779.9hPa | 2.7V | 00:00:00 | 00:00:00 | 00:00:00 | |
| SP6BVK | 2026-09-01 19:00:51 | 52.15334 | 16.03830 | 111° | 38km/h | 2276m | -2.9m/s | 3.6°C | 74.8% | 779.0hPa | 2.7V | 07:17:00 | 00:00:00 | 00:00:00 | |
| KRY50SP-1 | 2026-09-01 19:00:49 | 52.15340 | 16.03799 | 110° | 38km/h | 2281m | -2.9m/s | 3.6°C | 74.9% | 778.3hPa | 2.7V | 00:00:00 | 00:00:00 | 00:00:00 | |
| SP3BTT-10 | 2026-09-01 19:00:48 | 52.15347 | 16.03769 | 109° | 42km/h | 2287m | -3.0m/s | 3.5°C | 76.5% | 777.7hPa | 2.7V | 00:00:00 | 00:00:00 | 00:00:00 | |
| KRY50SP-1 | 2026-09-01 19:00:38 | 52.15374 | 16.03623 | 109° | 42km/h | 2314m | -2.8m/s | 3.3°C | 77.2% | 775.3hPa | 2.7V | 00:00:00 | 00:00:00 | 00:00:00 | |
| SONDE2-11 | 2026-09-01 19:00:35 | 52.15391 | 16.03541 | 108° | 40km/h | 2328m | -2.7m/s | 3.2°C | 77.4% | 773.9hPa | 2.7V | 00:00:00 | 00:00:00 | 00:00:00 | |
| KRY50SP-1 | 2026-09-01 19:00:31 | 52.15397 | 16.03509 | 109° | 42km/h | 2334m | -2.9m/s | 3.1°C | 77.4% | 773.4hPa | 2.7V | 00:00:00 | 00:00:00 | 00:00:00 | |
| SP6BVK | 2026-09-01 19:00:30 | 52.15401 | 16.03492 | 109° | 42km/h | 2337m | -2.9m/s | 3.1°C | 77.6% | 773.1hPa | 2.7V | 07:17:00 | 00:00:00 | 00:00:00 | |
| EDDB2-12 | 2026-09-01 19:00:29 | 52.15407 | 16.03460 | 107° | 40km/h | 2342m | -2.9m/s | 3.1°C | 77.3% | 772.5hPa | 2.7V | 00:00:00 | 00:00:00 | 00:00:00 | |
| SP3BTT-10 | 2026-09-01 19:00:28 | 52.15410 | 16.03443 | 108° | 42km/h | 2345m | -2.7m/s | 3.1°C | 77.4% | 772.1hPa | 2.7V | 00:00:00 | 00:00:00 | 00:00:00 | |
| KRY50SP-1 | 2026-09-01 19:00:25 | 52.15417 | 16.03411 | 108° | 42km/h | 2351m | -2.8m/s | 3.1°C | 76.8% | 771.8hPa | 2.7V | 07:18:00 | 00:00:00 | 00:00:00 | |
| KRY50SP-1 | 2026-09-01 19:00:15 | 52.15449 | 16.03245 | 109° | 44km/h | 2380m | -2.9m/s | 2.9°C | 76.1% | 769.0hPa | 2.7V | 07:18:00 | 00:00:00 | 00:00:00 | |
| SP6BVK | 2026-09-01 19:00:10 | 52.15466 | 16.03161 | 110° | 42km/h | 2394m | -2.9m/s | 2.8°C | 76.5% | 767.7hPa | 2.7V | 07:18:00 | 00:00:00 | 00:00:00 | |
| KRY50SP-1 | 2026-09-01 19:00:09 | 52.15470 | 16.03144 | 110° | 42km/h | 2397m | -2.7m/s | 2.8°C | 76.5% | 767.4hPa | 2.7V | 07:18:00 | 00:00:00 | 00:00:00 | |
| SP3BTT-10 | 2026-09-01 19:00:08 | 52.15477 | 16.03112 | 111° | 42km/h | 2402m | -3.0m/s | 2.7°C | 77.1% | 766.9hPa | 2.7V | 00:00:00 | 00:00:00 | 00:00:00 | |
| SP3WXH-11 | 2026-09-01 19:00:04 | 52.15491 | 16.03046 | 110° | 42km/h | 2414m | -2.8m/s | 2.6°C | 77.0% | 765.9hPa | 2.7V | 00:00:00 | 00:00:00 | 00:00:00 | |
| KRY50SP-1 | 2026-09-01 19:00:03 | 52.15491 | 16.03046 | 111° | 42km/h | 2414m | -2.8m/s | 2.6°C | 77.0% | 765.9hPa | 2.7V | 07:18:00 | 00:00:00 | 00:00:00 | |
| EDDB2-12 | 2026-09-01 18:59:58 | 52.15513 | 16.02947 | 110° | 42km/h | 2430m | -2.7m/s | 2.5°C | 76.9% | 764.1hPa | 2.7V | 00:00:00 | 00:00:00 | 00:00:00 | |
| KRY50SP-1 | 2026-09-01 18:59:57 | 52.15513 | 16.02947 | 111° | 42km/h | 2430m | -2.7m/s | 2.5°C | 76.9% | 764.1hPa | 2.7V | 07:18:00 | 00:00:00 | 00:00:00 | |
| KRY50SP-1 | 2026-09-01 18:59:51 | 52.15536 | 16.02849 | 112° | 42km/h | 2447m | -3.0m/s | 2.4°C | 76.3% | 762.6hPa | 2.7V | 07:18:00 | 00:00:00 | 00:00:00 | |
| SP6BVK | 2026-09-01 18:59:49 | 52.15544 | 16.02816 | 112° | 42km/h | 2452m | -2.8m/s | 2.4°C | 76.4% | 762.1hPa | 2.7V | 07:18:00 | 00:00:00 | 00:00:00 | |
| SP3BTT-10 | 2026-09-01 18:59:48 | 52.15552 | 16.02783 | 111° | 46km/h | 2458m | -2.7m/s | 2.3°C | 76.8% | 761.4hPa | 2.7V | 00:00:00 | 00:00:00 | 00:00:00 | |
| KRY50SP-1 | 2026-09-01 18:59:46 | 52.15556 | 16.02766 | 112° | 44km/h | 2461m | -2.9m/s | 2.3°C | 76.4% | 761.4hPa | 2.7V | 07:18:00 | 00:00:00 | 00:00:00 | |
| KRY50SP-1 | 2026-09-01 18:59:40 | 52.15579 | 16.02664 | 111° | 44km/h | 2478m | -2.7m/s | 2.2°C | 76.0% | 759.9hPa | 2.7V | 07:18:00 | 00:00:00 | 00:00:00 | |
| KRY50SP-1 | 2026-09-01 18:59:34 | 52.15602 | 16.02559 | 111° | 46km/h | 2494m | -3.0m/s | 2.1°C | 76.2% | 758.1hPa | 2.7V | 07:19:00 | 00:00:00 | 00:00:00 | |
| SONDE2-11 | 2026-09-01 18:59:33 | 52.15614 | 16.02507 | 110° | 44km/h | 2503m | -3.0m/s | 2.0°C | 76.5% | 757.3hPa | 2.7V | 00:00:00 | 00:00:00 | 00:00:00 | |
| KRY50SP-1 | 2026-09-01 18:59:29 | 52.15621 | 16.02472 | 110° | 46km/h | 2509m | -2.8m/s | 2.0°C | 76.7% | 756.8hPa | 2.7V | 07:19:00 | 00:00:00 | 00:00:00 | |
| SP3BTT-10 | 2026-09-01 18:59:28 | 52.15629 | 16.02436 | 110° | 46km/h | 2514m | -2.9m/s | 1.9°C | 77.6% | 756.2hPa | 2.7V | 07:18:00 | 00:00:00 | 00:00:00 | |
| EDDB2-12 | 2026-09-01 18:59:27 | 52.15633 | 16.02419 | 108° | 44km/h | 2517m | -2.9m/s | 1.9°C | 77.4% | 756.1hPa | 2.7V | 00:00:00 | 00:00:00 | 00:00:00 | |
| KRY50SP-1 | 2026-09-01 18:59:23 | 52.15644 | 16.02366 | 109° | 46km/h | 2526m | -2.9m/s | 1.8°C | 77.7% | 755.2hPa | 2.7V | 07:19:00 | 00:00:00 | 00:00:00 | |
| KRY50SP-1 | 2026-09-01 18:59:18 | 52.15662 | 16.02276 | 109° | 46km/h | 2540m | -3.1m/s | 1.7°C | 77.1% | 753.9hPa | 2.7V | 07:19:00 | 00:00:00 | 00:00:00 | |
| KRY50SP-1 | 2026-09-01 18:59:13 | 52.15680 | 16.02187 | 109° | 46km/h | 2555m | -3.0m/s | 1.7°C | 75.5% | 752.4hPa | 2.7V | 07:19:00 | 00:00:00 | 00:00:00 | |
| SP3BTT-10 | 2026-09-01 18:59:08 | 52.15701 | 16.02080 | 107° | 46km/h | 2571m | -2.8m/s | 1.6°C | 74.8% | 750.8hPa | 2.7V | 00:00:00 | 00:00:00 | 00:00:00 | |
| KRY50SP-1 | 2026-09-01 18:59:07 | 52.15701 | 16.02080 | 108° | 46km/h | 2571m | -2.8m/s | 1.6°C | 74.3% | 750.9hPa | 2.7V | 07:19:00 | 00:00:00 | 00:00:00 | |
| SP3WXH-11 | 2026-09-01 18:59:02 | 52.15722 | 16.01973 | 107° | 46km/h | 2588m | -3.0m/s | 1.5°C | 74.8% | 749.3hPa | 2.7V | 00:00:00 | 00:00:00 | 00:00:00 | |
| SONDE2-11 | 2026-09-01 18:59:01 | 52.15725 | 16.01955 | 106° | 44km/h | 2591m | -3.2m/s | 1.4°C | 74.9% | 748.9hPa | 2.7V | 00:00:00 | 00:00:00 | 00:00:00 | |
| EDDB2-12 | 2026-09-01 18:58:56 | 52.15741 | 16.01865 | 106° | 46km/h | 2606m | -2.9m/s | 1.3°C | 73.9% | 747.7hPa | 2.7V | 00:00:00 | 00:00:00 | 00:00:00 | |
| KRY50SP-1 | 2026-09-01 18:58:50 | 52.15757 | 16.01775 | 108° | 46km/h | 2621m | -3.2m/s | 1.2°C | 73.5% | 746.3hPa | 2.7V | 07:19:00 | 00:00:00 | 00:00:00 | |
| SP3BTT-10 | 2026-09-01 18:58:48 | 52.15767 | 16.01720 | 106° | 46km/h | 2630m | -3.1m/s | 1.1°C | 74.3% | 745.2hPa | 2.7V | 00:00:00 | 00:00:00 | 00:00:00 | |
| SP6BVK | 2026-09-01 18:58:47 | 52.15767 | 16.01720 | 107° | 46km/h | 2630m | -3.1m/s | 1.1°C | 73.7% | 745.3hPa | 2.7V | 07:19:00 | 00:00:00 | 00:00:00 | |
| KRY50SP-1 | 2026-09-01 18:58:44 | 52.15777 | 16.01665 | 107° | 46km/h | 2640m | -3.1m/s | 1.0°C | 74.2% | 744.5hPa | 2.7V | 07:20:00 | 00:00:00 | 00:00:00 | |
| KRY50SP-1 | 2026-09-01 18:58:39 | 52.15793 | 16.01576 | 108° | 46km/h | 2655m | -3.0m/s | 0.9°C | 74.5% | 743.2hPa | 2.7V | 07:20:00 | 00:00:00 | 00:00:00 | |
| KRY50SP-1 | 2026-09-01 18:58:33 | 52.15813 | 16.01471 | 109° | 44km/h | 2674m | -3.0m/s | 0.7°C | 75.5% | 741.4hPa | 2.7V | 07:20:00 | 00:00:00 | 00:00:00 | |
| SP3WXH-11 | 2026-09-01 18:58:31 | 52.15823 | 16.01418 | 106° | 44km/h | 2683m | -3.0m/s | 0.6°C | 76.0% | 740.5hPa | 2.7V | 00:00:00 | 00:00:00 | 00:00:00 | |
| SONDE2-11 | 2026-09-01 18:58:30 | 52.15826 | 16.01401 | 106° | 44km/h | 2686m | -3.1m/s | 0.6°C | 76.0% | 740.2hPa | 2.7V | 00:00:00 | 00:00:00 | 00:00:00 | |
| SP3BTT-10 | 2026-09-01 18:58:28 | 52.15832 | 16.01366 | 107° | 44km/h | 2692m | -3.0m/s | 0.5°C | 77.1% | 739.7hPa | 2.7V | 00:00:00 | 00:00:00 | 00:00:00 | |
| SP6BVK | 2026-09-01 18:58:27 | 52.15832 | 16.01366 | 108° | 44km/h | 2692m | -3.1m/s | 0.5°C | 76.6% | 739.8hPa | 2.7V | 07:20:00 | 00:00:00 | 00:00:00 | |
| EDDB2-12 | 2026-09-01 18:58:25 | 52.15842 | 16.01313 | 106° | 44km/h | 2701m | -3.1m/s | 0.5°C | 75.4% | 738.9hPa | 2.7V | 00:00:00 | 00:00:00 | 00:00:00 | |
| KRY50SP-1 | 2026-09-01 18:58:23 | 52.15845 | 16.01296 | 108° | 44km/h | 2704m | -3.0m/s | 0.4°C | 77.0% | 738.5hPa | 2.7V | 07:20:00 | 00:00:00 | 00:00:00 | |
| KRY50SP-1 | 2026-09-01 18:58:17 | 52.15864 | 16.01192 | 107° | 44km/h | 2722m | -3.0m/s | 0.3°C | 74.0% | 736.9hPa | 2.7V | 07:20:00 | 00:00:00 | 00:00:00 | |
| KRY50SP-1 | 2026-09-01 18:58:12 | 52.15880 | 16.01108 | 109° | 44km/h | 2737m | -2.8m/s | 0.2°C | 74.2% | 735.6hPa | 2.7V | 07:20:00 | 00:00:00 | 00:00:00 | |
| SP3BTT-10 | 2026-09-01 18:58:08 | 52.15897 | 16.01023 | 108° | 46km/h | 2752m | -2.9m/s | 0.0°C | 73.0% | 734.2hPa | 2.7V | 00:00:00 | 00:00:00 | 00:00:00 | |
| SP6BVK | 2026-09-01 18:58:07 | 52.15900 | 16.01006 | 109° | 44km/h | 2755m | -3.0m/s | 0.1°C | 72.5% | 733.9hPa | 2.7V | 07:20:00 | 00:00:00 | 00:00:00 | |
| KRY50SP-1 | 2026-09-01 18:58:06 | 52.15900 | 16.01006 | 109° | 44km/h | 2755m | -3.0m/s | 0.1°C | 72.5% | 733.9hPa | 2.7V | 07:20:00 | 00:00:00 | 00:00:00 | |
| SP3WXH-11 | 2026-09-01 18:58:00 | 52.15924 | 16.00885 | 106° | 44km/h | 2776m | -3.1m/s | -0.0°C | 71.5% | 732.1hPa | 2.7V | 00:00:00 | 00:00:00 | 00:00:00 | |
| SONDE2-11 | 2026-09-01 18:57:59 | 52.15927 | 16.00867 | 107° | 44km/h | 2779m | -3.1m/s | -0.1°C | 71.3% | 731.9hPa | 2.7V | 00:00:00 | 00:00:00 | 00:00:00 | |
| EDDB2-12 | 2026-09-01 18:57:54 | 52.15943 | 16.00777 | 106° | 46km/h | 2794m | -3.3m/s | -0.2°C | 71.7% | 730.3hPa | 2.7V | 00:00:00 | 00:00:00 | 00:00:00 | |
| KRY50SP-1 | 2026-09-01 18:57:50 | 52.15953 | 16.00722 | 107° | 46km/h | 2804m | -3.1m/s | -0.2°C | 71.9% | 729.5hPa | 2.7V | 07:21:00 | 00:00:00 | 00:00:00 | |
| SP3BTT-10 | 2026-09-01 18:57:48 | 52.15963 | 16.00667 | 107° | 49km/h | 2813m | -3.0m/s | -0.2°C | 72.8% | 728.6hPa | 2.7V | 00:00:00 | 00:00:00 | 00:00:00 | |
| KRY50SP-1 | 2026-09-01 18:57:46 | 52.15969 | 16.00630 | 107° | 46km/h | 2819m | -3.0m/s | -0.3°C | 70.7% | 728.1hPa | 2.7V | 07:21:00 | 00:00:00 | 00:00:00 | |
| SP6BVK | 2026-09-01 18:57:45 | 52.15969 | 16.00630 | 107° | 46km/h | 2819m | -3.0m/s | -0.3°C | 70.7% | 728.1hPa | 2.7V | 07:21:00 | 00:00:00 | 00:00:00 | |
| KRY50SP-1 | 2026-09-01 18:57:40 | 52.15986 | 16.00537 | 106° | 47km/h | 2835m | -3.1m/s | -0.4°C | 68.9% | 726.6hPa | 2.7V | 07:21:00 | 00:00:00 | 00:00:00 | |
| KRY50SP-1 | 2026-09-01 18:57:34 | 52.16005 | 16.00422 | 107° | 49km/h | 2853m | -3.2m/s | -0.3°C | 67.3% | 725.0hPa | 2.7V | 07:21:00 | 00:00:00 | 00:00:00 | |
| SP3WXH-11 | 2026-09-01 18:57:29 | 52.16025 | 16.00303 | 106° | 49km/h | 2872m | -3.1m/s | -0.5°C | 68.1% | 723.3hPa | 2.7V | 00:00:00 | 00:00:00 | 00:00:00 | |
| SP3BTT-10 | 2026-09-01 18:57:28 | 52.16029 | 16.00283 | 106° | 51km/h | 2875m | -3.0m/s | -0.4°C | 68.8% | 722.8hPa | 2.7V | 00:00:00 | 00:00:00 | 00:00:00 | |
| SP6BVK | 2026-09-01 18:57:25 | 52.16036 | 16.00243 | 107° | 51km/h | 2881m | -3.2m/s | -0.5°C | 68.1% | 722.4hPa | 2.7V | 07:21:00 | 00:00:00 | 00:00:00 | |
| EDDB2-12 | 2026-09-01 18:57:23 | 52.16046 | 16.00183 | 105° | 49km/h | 2890m | -3.1m/s | -0.6°C | 68.0% | 721.6hPa | 2.7V | 00:00:00 | 00:00:00 | 00:00:00 | |
| KRY50SP-1 | 2026-09-01 18:57:17 | 52.16065 | 16.00082 | 109° | 51km/h | 2906m | -3.3m/s | -0.6°C | 67.9% | 720.2hPa | 2.7V | 07:21:00 | 00:00:00 | 00:00:00 | |
| KRY50SP-1 | 2026-09-01 18:57:11 | 52.16086 | 15.99962 | 108° | 51km/h | 2925m | -3.0m/s | -0.7°C | 68.1% | 718.5hPa | 2.7V | 07:21:00 | 00:00:00 | 00:00:00 | |
| SP3BTT-10 | 2026-09-01 18:57:08 | 52.16102 | 15.99882 | 109° | 53km/h | 2938m | -3.1m/s | -0.7°C | 67.3% | 717.2hPa | 2.7V | 00:00:00 | 00:00:00 | 00:00:00 | |
| KRY50SP-1 | 2026-09-01 18:57:06 | 52.16106 | 15.99862 | 109° | 53km/h | 2941m | -3.2m/s | -0.8°C | 66.8% | 717.1hPa | 2.6V | 07:21:00 | 00:00:00 | 00:00:00 | |
| SP6BVK | 2026-09-01 18:57:04 | 52.16114 | 15.99821 | 110° | 53km/h | 2947m | -3.1m/s | -0.9°C | 67.0% | 716.5hPa | 2.6V | 07:21:00 | 00:00:00 | 00:00:00 | |
| SP3WXH-11 | 2026-09-01 18:56:58 | 52.16145 | 15.99675 | 108° | 53km/h | 2969m | -3.1m/s | -1.0°C | 67.8% | 714.6hPa | 2.6V | 00:00:00 | 00:00:00 | 00:00:00 | |
| SONDE2-11 | 2026-09-01 18:56:57 | 52.16150 | 15.99655 | 109° | 53km/h | 2972m | -3.2m/s | -1.1°C | 67.8% | 714.3hPa | 2.6V | 00:00:00 | 00:00:00 | 00:00:00 | |
| EDDB2-12 | 2026-09-01 18:56:52 | 52.16173 | 15.99551 | 110° | 53km/h | 2988m | -3.1m/s | -1.2°C | 68.2% | 712.9hPa | 2.6V | 00:00:00 | 00:00:00 | 00:00:00 | |
| EDDB2-11 | 2026-09-01 18:56:47 | 52.16207 | 15.99407 | 111° | 53km/h | 3009m | -3.2m/s | -1.2°C | 69.7% | 711.1hPa | 2.6V | 00:00:00 | 00:00:00 | 00:00:00 | |
| SP6BVK | 2026-09-01 18:56:44 | 52.16207 | 15.99407 | 113° | 53km/h | 3009m | -3.2m/s | -1.2°C | 69.7% | 711.1hPa | 2.6V | 00:00:00 | 00:00:00 | 00:00:00 | |
| KRY50SP-1 | 2026-09-01 18:56:43 | 52.16212 | 15.99386 | 113° | 55km/h | 3012m | -3.2m/s | -1.2°C | 69.2% | 710.6hPa | 2.6V | 07:22:00 | 00:00:00 | 00:00:00 | |
| KRY50SP-1 | 2026-09-01 18:56:37 | 52.16240 | 15.99264 | 111° | 53km/h | 3031m | -3.2m/s | -1.2°C | 66.2% | 709.0hPa | 2.6V | 07:22:00 | 00:00:00 | 00:00:00 | |
| KRY50SP-1 | 2026-09-01 18:56:32 | 52.16264 | 15.99164 | 113° | 51km/h | 3047m | -3.2m/s | -1.0°C | 47.5% | 707.7hPa | 2.6V | 07:22:00 | 00:00:00 | 00:00:00 | |
| SP3BTT-10 | 2026-09-01 18:56:28 | 52.16289 | 15.99065 | 114° | 51km/h | 3063m | -3.1m/s | -0.8°C | 42.2% | 706.2hPa | 2.6V | 00:00:00 | 00:00:00 | 00:00:00 | |
| SP3WXH-11 | 2026-09-01 18:56:27 | 52.16294 | 15.99045 | 113° | 51km/h | 3065m | -3.1m/s | -0.9°C | 41.6% | 706.0hPa | 2.6V | 00:00:00 | 00:00:00 | 00:00:00 | |
| SONDE2-11 | 2026-09-01 18:56:26 | 52.16300 | 15.99025 | 113° | 51km/h | 3068m | -3.2m/s | -0.9°C | 41.3% | 705.7hPa | 2.6V | 00:00:00 | 00:00:00 | 00:00:00 | |
| SP6BVK | 2026-09-01 18:56:23 | 52.16310 | 15.98986 | 114° | 51km/h | 3075m | -3.2m/s | -0.9°C | 40.3% | 705.1hPa | 2.6V | 00:00:00 | 00:00:00 | 00:00:00 | |
| KRY50SP-1 | 2026-09-01 18:56:22 | 52.16315 | 15.98966 | 114° | 51km/h | 3078m | -3.2m/s | -0.9°C | 38.7% | 704.8hPa | 2.6V | 07:22:00 | 00:00:00 | 00:00:00 | |
| EDDB2-12 | 2026-09-01 18:56:21 | 52.16325 | 15.98927 | 113° | 49km/h | 3085m | -3.5m/s | -0.8°C | 37.5% | 704.4hPa | 2.6V | 00:00:00 | 00:00:00 | 00:00:00 | |
| KRY50SP-1 | 2026-09-01 18:56:17 | 52.16341 | 15.98870 | 115° | 51km/h | 3095m | -3.5m/s | -0.8°C | 36.6% | 703.5hPa | 2.6V | 07:22:00 | 00:00:00 | 00:00:00 | |
| EDDB2-11 | 2026-09-01 18:56:16 | 52.16357 | 15.98812 | 114° | 49km/h | 3106m | -3.5m/s | -0.6°C | 37.8% | 702.5hPa | 2.6V | 00:00:00 | 00:00:00 | 00:00:00 | |
| KRY50SP-1 | 2026-09-01 18:56:11 | 52.16372 | 15.98755 | 114° | 51km/h | 3115m | -3.3m/s | -0.7°C | 39.5% | 701.6hPa | 2.6V | 07:22:00 | 00:00:00 | 00:00:00 | |
| SP3BTT-10 | 2026-09-01 18:56:08 | 52.16393 | 15.98678 | 115° | 51km/h | 3129m | -3.5m/s | -0.7°C | 42.0% | 700.6hPa | 2.6V | 00:00:00 | 00:00:00 | 00:00:00 | |
| KRY50SP-1 | 2026-09-01 18:56:05 | 52.16403 | 15.98641 | 116° | 51km/h | 3135m | -3.4m/s | -0.8°C | 43.4% | 700.0hPa | 2.6V | 07:22:00 | 00:00:00 | 00:00:00 | |
| SP6BVK | 2026-09-01 18:56:02 | 52.16419 | 15.98584 | 116° | 51km/h | 3146m | -3.1m/s | -0.8°C | 46.4% | 699.0hPa | 2.6V | 07:22:00 | 00:00:00 | 00:00:00 | |
| SP3WXH-11 | 2026-09-01 18:55:56 | 52.16458 | 15.98450 | 115° | 51km/h | 3169m | -3.4m/s | -0.4°C | 37.7% | 697.0hPa | 2.6V | 00:00:00 | 00:00:00 | 00:00:00 | |
| SONDE2-11 | 2026-09-01 18:55:55 | 52.16464 | 15.98430 | 115° | 51km/h | 3172m | -3.4m/s | -0.4°C | 39.2% | 696.7hPa | 2.6V | 00:00:00 | 00:00:00 | 00:00:00 | |
| EDDB2-12 | 2026-09-01 18:55:50 | 52.16493 | 15.98334 | 115° | 51km/h | 3189m | -3.2m/s | -0.4°C | 32.0% | 695.2hPa | 2.6V | 00:00:00 | 00:00:00 | 00:00:00 | |
| EDDB2-11 | 2026-09-01 18:55:45 | 52.16522 | 15.98239 | 116° | 51km/h | 3206m | -3.6m/s | -0.4°C | 36.7% | 693.7hPa | 2.6V | 00:00:00 | 00:00:00 | 00:00:00 | |
| SP6BVK | 2026-09-01 18:55:42 | 52.16533 | 15.98201 | 118° | 51km/h | 3213m | -3.3m/s | -0.5°C | 38.4% | 693.1hPa | 2.6V | 07:22:00 | 00:00:00 | 00:00:00 | |
| SP3BTT-10 | 2026-09-01 18:55:38 | 52.16562 | 15.98107 | 118° | 51km/h | 3230m | -3.5m/s | -0.6°C | 41.5% | 691.6hPa | 2.6V | 00:00:00 | 00:00:00 | 00:00:00 | |
| KRY50SP-1 | 2026-09-01 18:55:30 | 52.16605 | 15.97975 | 119° | 51km/h | 3254m | -3.6m/s | -0.8°C | 43.2% | 689.6hPa | 2.6V | 07:22:00 | 00:00:00 | 00:00:00 | |
| SP3WXH-11 | 2026-09-01 18:55:25 | 52.16640 | 15.97862 | 117° | 51km/h | 3274m | -3.5m/s | -1.0°C | 44.0% | 687.8hPa | 2.6V | 00:00:00 | 00:00:00 | 00:00:00 | |
| SONDE2-11 | 2026-09-01 18:55:24 | 52.16646 | 15.97843 | 117° | 51km/h | 3278m | -3.4m/s | -1.1°C | 44.0% | 687.4hPa | 2.6V | 00:00:00 | 00:00:00 | 00:00:00 | |
| SP6BVK | 2026-09-01 18:55:21 | 52.16658 | 15.97806 | 118° | 51km/h | 3285m | -3.3m/s | -1.1°C | 44.6% | 687.0hPa | 2.6V | 07:22:00 | 00:00:00 | 00:00:00 | |
| EDDB2-12 | 2026-09-01 18:55:19 | 52.16677 | 15.97750 | 119° | 49km/h | 3294m | -3.6m/s | -1.2°C | 44.7% | 686.0hPa | 2.6V | 00:00:00 | 00:00:00 | 00:00:00 | |
| KRY50SP-1 | 2026-09-01 18:55:18 | 52.16677 | 15.97767 | 120° | 51km/h | 3294m | -3.6m/s | -1.2°C | 44.7% | 686.0hPa | 2.6V | 07:23:00 | 00:00:00 | 00:00:00 | |
| EDDB2-11 | 2026-09-01 18:55:14 | 52.16708 | 15.97658 | 119° | 49km/h | 3312m | -3.5m/s | -1.4°C | 45.8% | 684.4hPa | 2.6V | 00:00:00 | 00:00:00 | 00:00:00 | |
| KRY50SP-1 | 2026-09-01 18:55:12 | 52.16715 | 15.97640 | 121° | 51km/h | 3316m | -3.7m/s | -1.4°C | 45.9% | 684.2hPa | 2.6V | 07:23:00 | 00:00:00 | 00:00:00 | |
| SP3BTT-10 | 2026-09-01 18:55:08 | 52.16746 | 15.97550 | 120° | 51km/h | 3334m | -3.5m/s | -1.5°C | 47.3% | 682.6hPa | 2.6V | 00:00:00 | 00:00:00 | 00:00:00 | |
| KRY50SP-1 | 2026-09-01 18:55:07 | 52.16746 | 15.97550 | 121° | 51km/h | 3334m | -3.6m/s | -1.6°C | 46.8% | 682.7hPa | 2.6V | 07:23:00 | 00:00:00 | 00:00:00 | |
| KRY50SP-1 | 2026-09-01 18:55:01 | 52.16785 | 15.97440 | 121° | 51km/h | 3356m | -3.8m/s | -1.7°C | 49.4% | 680.8hPa | 2.6V | 07:23:00 | 00:00:00 | 00:00:00 | |
| SP3WXH-11 | 2026-09-01 18:54:54 | 52.16838 | 15.97292 | 119° | 51km/h | 3384m | -3.5m/s | -1.9°C | 56.9% | 678.2hPa | 2.6V | 00:00:00 | 00:00:00 | 00:00:00 | |
| SONDE2-11 | 2026-09-01 18:54:53 | 52.16844 | 15.97273 | 118° | 51km/h | 3388m | -3.6m/s | -2.0°C | 57.7% | 678.0hPa | 2.6V | 00:00:00 | 00:00:00 | 00:00:00 | |
| EDDB2-12 | 2026-09-01 18:54:48 | 52.16877 | 15.97181 | 120° | 51km/h | 3405m | -3.6m/s | -2.1°C | 60.2% | 676.4hPa | 2.6V | 00:00:00 | 00:00:00 | 00:00:00 | |
| KRY50SP-1 | 2026-09-01 18:54:46 | 52.16883 | 15.97162 | 122° | 51km/h | 3409m | -3.7m/s | -2.1°C | 60.6% | 676.1hPa | 2.6V | 07:23:00 | 00:00:00 | 00:00:00 | |
| SP6BVK | 2026-09-01 18:54:40 | 52.16924 | 15.97053 | 121° | 53km/h | 3431m | -3.7m/s | -2.2°C | 62.3% | 674.2hPa | 2.6V | 07:23:00 | 00:00:00 | 00:00:00 | |
| SP3BTT-10 | 2026-09-01 18:54:38 | 52.16945 | 15.96997 | 121° | 51km/h | 3442m | -3.8m/s | -2.2°C | 61.4% | 673.3hPa | 2.6V | 00:00:00 | 00:00:00 | 00:00:00 | |
| KRY50SP-1 | 2026-09-01 18:54:34 | 52.16965 | 15.96941 | 121° | 53km/h | 3453m | -3.8m/s | -2.4°C | 59.4% | 672.5hPa | 2.7V | 07:23:00 | 00:00:00 | 00:00:00 | |
| KRY50SP-1 | 2026-09-01 18:54:28 | 52.17005 | 15.96830 | 121° | 53km/h | 3476m | -3.8m/s | -2.5°C | 61.1% | 670.5hPa | 2.7V | 07:24:00 | 00:00:00 | 00:00:00 | |
| SP3WXH-11 | 2026-09-01 18:54:23 | 52.17051 | 15.96701 | 119° | 49km/h | 3501m | -3.7m/s | -2.6°C | 58.2% | 668.5hPa | 2.7V | 00:00:00 | 00:00:00 | 00:00:00 | |
| SONDE2-11 | 2026-09-01 18:54:22 | 52.17051 | 15.96701 | 119° | 49km/h | 3501m | -3.7m/s | -2.6°C | 58.2% | 668.5hPa | 2.7V | 00:00:00 | 00:00:00 | 00:00:00 | |
| SP6BVK | 2026-09-01 18:54:19 | 52.17064 | 15.96664 | 120° | 49km/h | 3508m | -3.7m/s | -2.7°C | 58.9% | 667.8hPa | 2.7V | 07:24:00 | 00:00:00 | 00:00:00 | |
| EDDB2-12 | 2026-09-01 18:54:17 | 52.17082 | 15.96609 | 117° | 49km/h | 3519m | -3.7m/s | -2.8°C | 59.0% | 666.8hPa | 2.7V | 00:00:00 | 00:00:00 | 00:00:00 | |
| KRY50SP-1 | 2026-09-01 18:54:16 | 52.17082 | 15.96609 | 119° | 49km/h | 3519m | -3.7m/s | -2.8°C | 59.0% | 666.8hPa | 2.7V | 07:24:00 | 00:00:00 | 00:00:00 | |
| EDDB2-11 | 2026-09-01 18:54:12 | 52.17112 | 15.96517 | 117° | 49km/h | 3537m | -3.6m/s | -2.9°C | 56.3% | 665.3hPa | 2.7V | 00:00:00 | 00:00:00 | 00:00:00 | |
| KRY50SP-1 | 2026-09-01 18:54:11 | 52.17112 | 15.96517 | 118° | 51km/h | 3537m | -3.6m/s | -2.9°C | 56.3% | 665.3hPa | 2.7V | 07:24:00 | 00:00:00 | 00:00:00 | |
| SP3BTT-10 | 2026-09-01 18:54:08 | 52.17135 | 15.96442 | 117° | 47km/h | 3552m | -3.7m/s | -3.0°C | 56.1% | 664.0hPa | 2.7V | 00:00:00 | 00:00:00 | 00:00:00 | |
| KRY50SP-1 | 2026-09-01 18:54:06 | 52.17141 | 15.96424 | 118° | 51km/h | 3555m | -3.6m/s | -3.1°C | 55.6% | 663.8hPa | 2.7V | 07:24:00 | 00:00:00 | 00:00:00 | |
| KRY50SP-1 | 2026-09-01 18:54:01 | 52.17169 | 15.96331 | 117° | 49km/h | 3574m | -3.6m/s | -3.2°C | 55.3% | 662.3hPa | 2.7V | 07:24:00 | 00:00:00 | 00:00:00 | |
| SP3WXH-11 | 2026-09-01 18:53:52 | 52.17228 | 15.96132 | 116° | 47km/h | 3613m | -3.6m/s | -3.5°C | 54.8% | 658.8hPa | 2.7V | 00:00:00 | 00:00:00 | 00:00:00 | |
| SONDE2-11 | 2026-09-01 18:53:51 | 52.17228 | 15.96132 | 116° | 47km/h | 3613m | -3.6m/s | -3.5°C | 54.8% | 658.8hPa | 2.7V | 00:00:00 | 00:00:00 | 00:00:00 | |
| EDDB2-12 | 2026-09-01 18:53:46 | 52.17254 | 15.96046 | 116° | 46km/h | 3630m | -3.6m/s | -3.6°C | 53.5% | 657.5hPa | 2.7V | 00:00:00 | 00:00:00 | 00:00:00 | |
| KRY50SP-1 | 2026-09-01 18:53:44 | 52.17260 | 15.96029 | 117° | 47km/h | 3634m | -3.5m/s | -3.7°C | 54.0% | 657.2hPa | 2.7V | 07:24:00 | 00:00:00 | 00:00:00 | |
| EDDB2-11 | 2026-09-01 18:53:41 | 52.17281 | 15.95960 | 116° | 46km/h | 3648m | -3.5m/s | -3.8°C | 53.4% | 656.0hPa | 2.7V | 00:00:00 | 00:00:00 | 00:00:00 | |
| SP6BVK | 2026-09-01 18:53:39 | 52.17286 | 15.95942 | 117° | 47km/h | 3652m | -3.5m/s | -3.8°C | 53.4% | 655.8hPa | 2.7V | 07:24:00 | 00:00:00 | 00:00:00 | |
| SP3BTT-10 | 2026-09-01 18:53:38 | 52.17297 | 15.95908 | 116° | 47km/h | 3659m | -3.5m/s | -3.8°C | 53.4% | 655.0hPa | 2.7V | 00:00:00 | 00:00:00 | 00:00:00 | |
| KRY50SP-1 | 2026-09-01 18:53:28 | 52.17343 | 15.95749 | 117° | 47km/h | 3692m | -3.6m/s | -3.9°C | 49.7% | 652.5hPa | 2.7V | 07:25:00 | 00:00:00 | 00:00:00 | |
| KRY50SP-1 | 2026-09-01 18:53:22 | 52.17374 | 15.95645 | 117° | 47km/h | 3714m | -3.8m/s | -4.0°C | 49.5% | 650.4hPa | 2.7V | 07:25:00 | 00:00:00 | 00:00:00 | |
| SP3WXH-11 | 2026-09-01 18:53:21 | 52.17385 | 15.95611 | 115° | 46km/h | 3721m | -3.7m/s | -4.1°C | 50.2% | 650.0hPa | 2.7V | 00:00:00 | 00:00:00 | 00:00:00 | |
| SONDE2-11 | 2026-09-01 18:53:20 | 52.17390 | 15.95593 | 115° | 47km/h | 3725m | -3.7m/s | -4.2°C | 50.5% | 649.6hPa | 2.7V | 00:00:00 | 00:00:00 | 00:00:00 | |
| SP6BVK | 2026-09-01 18:53:18 | 52.17395 | 15.95575 | 118° | 47km/h | 3729m | -3.8m/s | -4.2°C | 50.6% | 649.3hPa | 2.7V | 07:25:00 | 00:00:00 | 00:00:00 | |
| KRY50SP-1 | 2026-09-01 18:53:16 | 52.17406 | 15.95540 | 117° | 47km/h | 3736m | -3.6m/s | -4.3°C | 50.6% | 648.7hPa | 2.7V | 07:25:00 | 00:00:00 | 00:00:00 | |
| EDDB2-12 | 2026-09-01 18:53:15 | 52.17416 | 15.95505 | 115° | 47km/h | 3743m | -3.8m/s | -4.3°C | 50.6% | 648.2hPa | 2.7V | 00:00:00 | 00:00:00 | 00:00:00 | |
| KRY50SP-1 | 2026-09-01 18:53:11 | 52.17432 | 15.95453 | 118° | 47km/h | 3754m | -3.6m/s | -4.4°C | 49.7% | 647.3hPa | 2.7V | 07:25:00 | 00:00:00 | 00:00:00 | |
| EDDB2-11 | 2026-09-01 18:53:10 | 52.17443 | 15.95418 | 116° | 46km/h | 3761m | -3.6m/s | -4.4°C | 49.4% | 646.7hPa | 2.7V | 00:00:00 | 00:00:00 | 00:00:00 | |
| SP3BTT-10 | 2026-09-01 18:53:08 | 52.17453 | 15.95384 | 116° | 49km/h | 3768m | -3.5m/s | -4.4°C | 49.0% | 646.0hPa | 2.7V | 07:25:00 | 00:00:00 | 00:00:00 | |
| KRY50SP-1 | 2026-09-01 18:53:06 | 52.17458 | 15.95366 | 116° | 47km/h | 3772m | -3.6m/s | -4.5°C | 48.1% | 645.8hPa | 2.7V | 07:25:00 | 00:00:00 | 00:00:00 | |
| SP3WXH-11 | 2026-09-01 18:52:50 | 52.17552 | 15.95045 | 115° | 47km/h | 3833m | -3.6m/s | -5.0°C | 48.6% | 640.7hPa | 2.7V | 00:00:00 | 00:00:00 | 00:00:00 | |
| SONDE2-11 | 2026-09-01 18:52:49 | 52.17552 | 15.95045 | 115° | 47km/h | 3833m | -3.6m/s | -5.0°C | 48.6% | 640.7hPa | 2.7V | 00:00:00 | 00:00:00 | 00:00:00 | |
| EDDB2-12 | 2026-09-01 18:52:44 | 52.17580 | 15.94953 | 116° | 49km/h | 3850m | -3.4m/s | -5.0°C | 43.1% | 639.5hPa | 2.7V | 00:00:00 | 00:00:00 | 00:00:00 | |
| EDDB2-11 | 2026-09-01 18:52:39 | 52.17614 | 15.94839 | 115° | 51km/h | 3871m | -3.5m/s | -5.1°C | 45.3% | 637.7hPa | 2.7V | 00:00:00 | 00:00:00 | 00:00:00 | |
| SP3BTT-10 | 2026-09-01 18:52:38 | 52.17614 | 15.94839 | 116° | 51km/h | 3872m | -3.5m/s | -5.0°C | 46.0% | 637.6hPa | 2.7V | 00:00:00 | 00:00:00 | 00:00:00 | |
| SP6BVK | 2026-09-01 18:52:37 | 52.17614 | 15.94839 | 116° | 51km/h | 3872m | -3.5m/s | -5.1°C | 45.3% | 637.7hPa | 2.7V | 07:26:00 | 00:00:00 | 00:00:00 | |
| SONDE2-12 | 2026-09-01 18:52:17 | 52.17729 | 15.94437 | 115° | 49km/h | 3945m | -3.6m/s | -5.7°C | 65.4% | 631.7hPa | 2.7V | 00:00:00 | 00:00:00 | 00:00:00 | |
| KRY50SP-1 | 2026-09-01 18:52:12 | 52.17751 | 15.94361 | 116° | 51km/h | 3959m | -3.6m/s | -5.8°C | 64.6% | 630.5hPa | 2.7V | 07:26:00 | 00:00:00 | 00:00:00 | |
| SP3BTT-10 | 2026-09-01 18:52:08 | 52.17778 | 15.94266 | 116° | 51km/h | 3976m | -3.8m/s | -5.9°C | 65.8% | 629.1hPa | 2.7V | 00:00:00 | 00:00:00 | 00:00:00 | |
| KRY50SP-1 | 2026-09-01 18:52:06 | 52.17784 | 15.94247 | 116° | 51km/h | 3980m | -3.6m/s | -6.0°C | 65.1% | 628.9hPa | 2.7V | 07:26:00 | 00:00:00 | 00:00:00 | |
| SONDE2-12 | 2026-09-01 18:51:46 | 52.17889 | 15.93841 | 112° | 49km/h | 4053m | -3.5m/s | -6.6°C | 65.8% | 622.9hPa | 2.7V | 00:00:00 | 00:00:00 | 00:00:00 | |
| KRY50SP-1 | 2026-09-01 18:51:45 | 52.17889 | 15.93841 | 113° | 51km/h | 4053m | -3.5m/s | -6.6°C | 65.1% | 622.9hPa | 2.7V | 07:27:00 | 00:00:00 | 00:00:00 | |
| EDDB2-12 | 2026-09-01 18:51:42 | 52.17913 | 15.93744 | 112° | 49km/h | 4070m | -3.5m/s | -6.6°C | 67.6% | 621.6hPa | 2.7V | 00:00:00 | 00:00:00 | 00:00:00 | |
| KRY50SP-1 | 2026-09-01 18:51:39 | 52.17918 | 15.93725 | 113° | 51km/h | 4074m | -3.6m/s | -6.6°C | 68.2% | 621.4hPa | 2.7V | 07:27:00 | 00:00:00 | 00:00:00 | |
| SP3BTT-10 | 2026-09-01 18:51:38 | 52.17927 | 15.93686 | 112° | 51km/h | 4081m | -3.2m/s | -6.6°C | 69.9% | 620.7hPa | 2.7V | 00:00:00 | 00:00:00 | 00:00:00 | |
| EDDB2-11 | 2026-09-01 18:51:37 | 52.17937 | 15.93648 | 112° | 49km/h | 4087m | -3.5m/s | -6.7°C | 68.9% | 620.3hPa | 2.7V | 00:00:00 | 00:00:00 | 00:00:00 | |
| SP6BVK | 2026-09-01 18:51:35 | 52.17937 | 15.93648 | 113° | 49km/h | 4087m | -3.5m/s | -6.7°C | 68.9% | 620.3hPa | 2.7V | 07:27:00 | 00:00:00 | 00:00:00 | |
| KRY50SP-1 | 2026-09-01 18:51:34 | 52.17942 | 15.93629 | 114° | 51km/h | 4091m | -3.5m/s | -6.8°C | 68.7% | 620.0hPa | 2.7V | 07:27:00 | 00:00:00 | 00:00:00 | |
| KRY50SP-1 | 2026-09-01 18:51:28 | 52.17970 | 15.93514 | 112° | 49km/h | 4112m | -3.5m/s | -6.9°C | 70.2% | 618.4hPa | 2.7V | 07:27:00 | 00:00:00 | 00:00:00 | |
| KRY50SP-1 | 2026-09-01 18:51:23 | 52.17993 | 15.93419 | 113° | 49km/h | 4129m | -3.3m/s | -7.1°C | 70.8% | 617.0hPa | 2.7V | 07:27:00 | 00:00:00 | 00:00:00 | |
| SONDE2-12 | 2026-09-01 18:51:15 | 52.18073 | 15.93058 | 108° | 51km/h | 4190m | -3.6m/s | -7.6°C | 74.4% | 612.2hPa | 2.7V | 00:00:00 | 00:00:00 | 00:00:00 | |
| KRY50SP-1 | 2026-09-01 18:51:12 | 52.18045 | 15.93201 | 110° | 53km/h | 4166m | -3.5m/s | -7.4°C | 72.7% | 614.0hPa | 2.7V | 07:27:00 | 00:00:00 | 00:00:00 | |
| EDDB2-12 | 2026-09-01 18:51:11 | 52.18053 | 15.93161 | 108° | 51km/h | 4173m | -3.5m/s | -7.5°C | 72.7% | 613.5hPa | 2.7V | 00:00:00 | 00:00:00 | 00:00:00 | |
| SP3BTT-10 | 2026-09-01 18:51:08 | 52.18065 | 15.93099 | 108° | 53km/h | 4183m | -3.2m/s | -7.5°C | 74.7% | 612.6hPa | 2.7V | 00:00:00 | 00:00:00 | 00:00:00 | |
| KRY50SP-1 | 2026-09-01 18:51:07 | 52.18065 | 15.93099 | 109° | 51km/h | 4183m | -3.3m/s | -7.6°C | 73.5% | 612.7hPa | 2.7V | 07:27:00 | 00:00:00 | 00:00:00 | |
| KRY50SP-1 | 2026-09-01 18:51:01 | 52.18088 | 15.92976 | 107° | 51km/h | 4203m | -3.5m/s | -7.8°C | 74.5% | 611.1hPa | 2.7V | 07:28:00 | 00:00:00 | 00:00:00 | |
| SP3WXH-11 | 2026-09-01 18:50:46 | 52.18144 | 15.92629 | 103° | 51km/h | 4261m | -3.5m/s | -7.9°C | 75.9% | 606.7hPa | 2.7V | 00:00:00 | 00:00:00 | 00:00:00 | |
| SONDE2-11 | 2026-09-01 18:50:45 | 52.18148 | 15.92608 | 103° | 51km/h | 4264m | -3.4m/s | -7.9°C | 75.6% | 606.4hPa | 2.7V | 00:00:00 | 00:00:00 | 00:00:00 | |
| KRY50SP-1 | 2026-09-01 18:50:44 | 52.18145 | 15.92629 | 105° | 53km/h | 4261m | -3.5m/s | -7.9°C | 75.9% | 606.7hPa | 2.7V | 07:28:00 | 00:00:00 | 00:00:00 | |
| EDDB2-12 | 2026-09-01 18:50:40 | 52.18164 | 15.92502 | 105° | 53km/h | 4282m | -3.5m/s | -8.0°C | 74.0% | 605.1hPa | 2.7V | 00:00:00 | 00:00:00 | 00:00:00 | |
| KRY50SP-1 | 2026-09-01 18:50:38 | 52.18164 | 15.92502 | 106° | 53km/h | 4282m | -3.5m/s | -8.0°C | 74.0% | 605.1hPa | 2.7V | 07:28:00 | 00:00:00 | 00:00:00 | |
| SP6BVK | 2026-09-01 18:50:34 | 52.18178 | 15.92417 | 106° | 55km/h | 4296m | -3.6m/s | -8.0°C | 72.1% | 604.1hPa | 2.7V | 07:28:00 | 00:00:00 | 00:00:00 | |
| KRY50SP-1 | 2026-09-01 18:50:33 | 52.18182 | 15.92395 | 106° | 55km/h | 4299m | -3.4m/s | -8.1°C | 72.0% | 603.7hPa | 2.7V | 07:28:00 | 00:00:00 | 00:00:00 | |
| KRY50SP-1 | 2026-09-01 18:50:27 | 52.18203 | 15.92266 | 105° | 55km/h | 4320m | -3.3m/s | -8.1°C | 72.7% | 602.2hPa | 2.7V | 07:28:00 | 00:00:00 | 00:00:00 | |
| SONDE2-12 | 2026-09-01 18:50:13 | 52.18278 | 15.91810 | 105° | 55km/h | 4391m | -3.5m/s | -8.4°C | 69.0% | 596.6hPa | 2.7V | 00:00:00 | 00:00:00 | 00:00:00 | |
| KRY50SP-1 | 2026-09-01 18:50:10 | 52.18263 | 15.91896 | 107° | 55km/h | 4378m | -3.5m/s | -8.3°C | 68.0% | 597.5hPa | 2.7V | 07:28:00 | 00:00:00 | 00:00:00 | |
| EDDB2-12 | 2026-09-01 18:50:09 | 52.18270 | 15.91853 | 106° | 53km/h | 4384m | -3.4m/s | -8.3°C | 68.2% | 597.1hPa | 2.7V | 00:00:00 | 00:00:00 | 00:00:00 | |
| EDDB2-11 | 2026-09-01 18:50:04 | 52.18293 | 15.91723 | 105° | 53km/h | 4406m | -3.6m/s | -8.5°C | 68.7% | 595.4hPa | 2.7V | 00:00:00 | 00:00:00 | 00:00:00 | |
| KRY50SP-1 | 2026-09-01 18:49:59 | 52.18304 | 15.91658 | 105° | 55km/h | 4417m | -3.8m/s | -8.6°C | 68.7% | 594.6hPa | 2.7V | 07:28:00 | 00:00:00 | 00:00:00 | |
| SONDE2-12 | 2026-09-01 18:49:42 | 52.18365 | 15.91250 | 102° | 53km/h | 4485m | -3.8m/s | -9.1°C | 71.2% | 589.4hPa | 2.7V | 00:00:00 | 00:00:00 | 00:00:00 | |
| SP3BTT-10 | 2026-09-01 18:49:39 | 52.18371 | 15.91207 | 102° | 49km/h | 4493m | -4.0m/s | -9.0°C | 72.9% | 588.8hPa | 2.7V | 00:00:00 | 00:00:00 | 00:00:00 | |
| KRY50SP-1 | 2026-09-01 18:49:37 | 52.18373 | 15.91185 | 103° | 55km/h | 4497m | -3.8m/s | -9.1°C | 71.7% | 588.6hPa | 2.7V | 07:28:00 | 00:00:00 | 00:00:00 | |
| KRY50SP-1 | 2026-09-01 18:49:32 | 52.18388 | 15.91078 | 103° | 53km/h | 4516m | -3.8m/s | -9.1°C | 71.0% | 587.1hPa | 2.7V | 07:28:00 | 00:00:00 | 00:00:00 | |
| SP6BVK | 2026-09-01 18:49:31 | 52.18390 | 15.91057 | 103° | 51km/h | 4519m | -3.7m/s | -9.2°C | 71.1% | 586.7hPa | 2.7V | 07:28:00 | 00:00:00 | 00:00:00 | |
| SONDE2-12 | 2026-09-01 18:49:11 | 52.18451 | 15.90614 | 101° | 47km/h | 4603m | -4.0m/s | -9.7°C | 72.5% | 580.6hPa | 2.7V | 00:00:00 | 00:00:00 | 00:00:00 | |
| SP6BVK | 2026-09-01 18:49:10 | 52.18448 | 15.90634 | 103° | 49km/h | 4599m | -3.8m/s | -9.7°C | 72.1% | 580.8hPa | 2.7V | 07:29:00 | 00:00:00 | 00:00:00 | |
| KRY50SP-1 | 2026-09-01 18:49:09 | 52.18451 | 15.90614 | 103° | 47km/h | 4603m | -4.0m/s | -9.7°C | 71.6% | 580.6hPa | 2.7V | 07:29:00 | 00:00:00 | 00:00:00 | |
| EDDB2-12 | 2026-09-01 18:49:07 | 52.18460 | 15.90537 | 101° | 47km/h | 4618m | -3.9m/s | -9.9°C | 72.0% | 579.4hPa | 2.7V | 00:00:00 | 00:00:00 | 00:00:00 | |
| KRY50SP-1 | 2026-09-01 18:49:04 | 52.18463 | 15.90518 | 103° | 47km/h | 4622m | -4.0m/s | -9.9°C | 72.2% | 579.1hPa | 2.7V | 07:29:00 | 00:00:00 | 00:00:00 | |
| EDDB2-11 | 2026-09-01 18:49:02 | 52.18473 | 15.90443 | 102° | 46km/h | 4637m | -3.9m/s | -10.0°C | 72.4% | 577.9hPa | 2.7V | 00:00:00 | 00:00:00 | 00:00:00 | |
| KRY50SP-1 | 2026-09-01 18:48:58 | 52.18478 | 15.90405 | 104° | 47km/h | 4645m | -3.8m/s | -10.1°C | 72.6% | 577.4hPa | 2.7V | 07:29:00 | 00:00:00 | 00:00:00 | |
| SONDE2-12 | 2026-09-01 18:48:40 | 52.18539 | 15.90034 | 106° | 44km/h | 4723m | -3.9m/s | -10.5°C | 71.9% | 571.6hPa | 2.7V | 00:00:00 | 00:00:00 | 00:00:00 | |
| KRY50SP-1 | 2026-09-01 18:48:37 | 52.18542 | 15.90016 | 108° | 46km/h | 4727m | -4.1m/s | -10.5°C | 71.0% | 571.4hPa | 2.7V | 07:29:00 | 00:00:00 | 00:00:00 | |
| EDDB2-12 | 2026-09-01 18:48:36 | 52.18552 | 15.89963 | 107° | 44km/h | 4738m | -4.0m/s | -10.6°C | 71.3% | 570.5hPa | 2.7V | 00:00:00 | 00:00:00 | 00:00:00 | |
| KRY50SP-1 | 2026-09-01 18:48:32 | 52.18558 | 15.89928 | 109° | 44km/h | 4746m | -4.0m/s | -10.7°C | 71.4% | 569.8hPa | 2.7V | 07:30:00 | 00:00:00 | 00:00:00 | |
| EDDB2-11 | 2026-09-01 18:48:31 | 52.18569 | 15.89875 | 106° | 46km/h | 4758m | -3.9m/s | -10.8°C | 72.0% | 569.0hPa | 2.7V | 00:00:00 | 00:00:00 | 00:00:00 | |
| SP6BVK | 2026-09-01 18:48:28 | 52.18572 | 15.89857 | 107° | 46km/h | 4762m | -3.8m/s | -10.8°C | 72.2% | 568.6hPa | 2.7V | 07:30:00 | 00:00:00 | 00:00:00 | |
| KRY50SP-1 | 2026-09-01 18:48:26 | 52.18579 | 15.89821 | 109° | 47km/h | 4769m | -4.1m/s | -10.9°C | 72.4% | 568.1hPa | 2.7V | 07:30:00 | 00:00:00 | 00:00:00 | |
| SONDE2-12 | 2026-09-01 18:48:09 | 52.18646 | 15.89465 | 108° | 47km/h | 4844m | -3.9m/s | -11.3°C | 71.1% | 562.7hPa | 2.7V | 00:00:00 | 00:00:00 | 00:00:00 | |
| SP3BTT-10 | 2026-09-01 18:48:08 | 52.18646 | 15.89465 | 109° | 49km/h | 4844m | -3.8m/s | -11.2°C | 71.7% | 562.6hPa | 2.7V | 07:30:00 | 00:00:00 | 00:00:00 | |
| KRY50SP-1 | 2026-09-01 18:48:05 | 52.18653 | 15.89427 | 109° | 47km/h | 4851m | -3.8m/s | -11.4°C | 70.8% | 562.1hPa | 2.7V | 07:30:00 | 00:00:00 | 00:00:00 | |
| EDDB2-12 | 2026-09-01 18:48:04 | 52.18661 | 15.89390 | 108° | 47km/h | 4859m | -3.8m/s | -11.5°C | 71.8% | 561.5hPa | 2.7V | 00:00:00 | 00:00:00 | 00:00:00 | |
| EDDB2-11 | 2026-09-01 18:48:00 | 52.18680 | 15.89298 | 108° | 46km/h | 4878m | -3.8m/s | -11.6°C | 71.2% | 560.1hPa | 2.7V | 00:00:00 | 00:00:00 | 00:00:00 | |
| KRY50SP-1 | 2026-09-01 18:47:59 | 52.18676 | 15.89316 | 110° | 47km/h | 4874m | -3.8m/s | -11.5°C | 71.1% | 560.4hPa | 2.7V | 07:30:00 | 00:00:00 | 00:00:00 | |
| SONDE2-12 | 2026-09-01 18:47:38 | 52.18769 | 15.88875 | 109° | 49km/h | 4962m | -4.1m/s | -12.1°C | 72.8% | 554.0hPa | 2.7V | 00:00:00 | 00:00:00 | 00:00:00 | |
| KRY50SP-1 | 2026-09-01 18:47:37 | 52.18764 | 15.88895 | 110° | 49km/h | 4958m | -4.0m/s | -12.1°C | 71.6% | 554.3hPa | 2.7V | 07:31:00 | 00:00:00 | 00:00:00 | |
| EDDB2-12 | 2026-09-01 18:47:33 | 52.18785 | 15.88799 | 110° | 47km/h | 4978m | -4.2m/s | -12.2°C | 71.2% | 552.9hPa | 2.7V | 00:00:00 | 00:00:00 | 00:00:00 | |
| KRY50SP-1 | 2026-09-01 18:47:32 | 52.18785 | 15.88799 | 111° | 49km/h | 4978m | -4.2m/s | -12.2°C | 71.2% | 552.9hPa | 2.7V | 07:31:00 | 00:00:00 | 00:00:00 | |
| EDDB2-11 | 2026-09-01 18:47:28 | 52.18806 | 15.88706 | 109° | 46km/h | 4997m | -4.0m/s | -12.4°C | 71.9% | 551.4hPa | 2.7V | 00:00:00 | 00:00:00 | 00:00:00 | |
| SP6BVK | 2026-09-01 18:47:27 | 52.18806 | 15.88706 | 111° | 47km/h | 4998m | -4.0m/s | -12.4°C | 71.9% | 551.4hPa | 2.7V | 07:31:00 | 00:00:00 | 00:00:00 | |
| KRY50SP-1 | 2026-09-01 18:47:26 | 52.18810 | 15.88687 | 112° | 47km/h | 5001m | -4.1m/s | -12.4°C | 71.9% | 551.2hPa | 2.7V | 07:31:00 | 00:00:00 | 00:00:00 | |
| SONDE2-12 | 2026-09-01 18:47:07 | 52.18890 | 15.88296 | 106° | 46km/h | 5086m | -4.2m/s | -12.9°C | 74.9% | 545.1hPa | 2.7V | 00:00:00 | 00:00:00 | 00:00:00 | |
| SP6BVK | 2026-09-01 18:47:06 | 52.18886 | 15.88315 | 106° | 47km/h | 5082m | -4.2m/s | -12.9°C | 73.7% | 545.3hPa | 2.7V | 07:31:00 | 00:00:00 | 00:00:00 | |
| KRY50SP-1 | 2026-09-01 18:47:03 | 52.18897 | 15.88258 | 106° | 47km/h | 5095m | -4.1m/s | -13.0°C | 73.9% | 544.5hPa | 2.7V | 07:31:00 | 00:00:00 | 00:00:00 | |
| EDDB2-12 | 2026-09-01 18:47:02 | 52.18903 | 15.88221 | 105° | 46km/h | 5103m | -4.1m/s | -13.0°C | 73.9% | 544.0hPa | 2.7V | 00:00:00 | 00:00:00 | 00:00:00 | |
| EDDB2-11 | 2026-09-01 18:46:57 | 52.18917 | 15.88126 | 101° | 46km/h | 5123m | -4.2m/s | -13.0°C | 72.8% | 542.4hPa | 2.7V | 00:00:00 | 00:00:00 | 00:00:00 | |
| KRY50SP-1 | 2026-09-01 18:46:52 | 52.18927 | 15.88050 | 104° | 47km/h | 5140m | -4.3m/s | -13.2°C | 73.3% | 541.3hPa | 2.7V | 07:31:00 | 00:00:00 | 00:00:00 | |
| SONDE2-12 | 2026-09-01 18:46:36 | 52.18969 | 15.87712 | 100° | 46km/h | 5214m | -4.0m/s | -13.8°C | 75.8% | 536.1hPa | 2.7V | 00:00:00 | 00:00:00 | 00:00:00 | |
| KRY50SP-1 | 2026-09-01 18:46:31 | 52.18975 | 15.87655 | 102° | 47km/h | 5226m | -3.9m/s | -13.9°C | 74.8% | 535.3hPa | 2.7V | 07:32:00 | 00:00:00 | 00:00:00 | |
| KRY50SP-1 | 2026-09-01 18:46:26 | 52.18987 | 15.87558 | 101° | 47km/h | 5245m | -3.7m/s | -14.0°C | 75.7% | 533.9hPa | 2.7V | 07:32:00 | 00:00:00 | 00:00:00 | |
| SP6BVK | 2026-09-01 18:46:24 | 52.18991 | 15.87519 | 99° | 47km/h | 5253m | -3.9m/s | -14.1°C | 75.8% | 533.4hPa | 2.7V | 07:32:00 | 00:00:00 | 00:00:00 | |
| SONDE2-12 | 2026-09-01 18:46:05 | 52.19024 | 15.87115 | 97° | 47km/h | 5334m | -4.0m/s | -14.8°C | 80.3% | 527.6hPa | 2.7V | 00:00:00 | 00:00:00 | 00:00:00 | |
| SP6BVK | 2026-09-01 18:46:04 | 52.19023 | 15.87134 | 99° | 47km/h | 5330m | -3.9m/s | -14.7°C | 78.6% | 527.9hPa | 2.7V | 07:32:00 | 00:00:00 | 00:00:00 | |
| KRY50SP-1 | 2026-09-01 18:46:03 | 52.19024 | 15.87114 | 99° | 47km/h | 5334m | -4.0m/s | -14.8°C | 79.1% | 527.6hPa | 2.7V | 07:32:00 | 00:00:00 | 00:00:00 | |
| EDDB2-12 | 2026-09-01 18:46:00 | 52.19031 | 15.87036 | 97° | 47km/h | 5350m | -4.0m/s | -14.9°C | 80.3% | 526.5hPa | 2.7V | 00:00:00 | 00:00:00 | 00:00:00 | |
| KRY50SP-1 | 2026-09-01 18:45:58 | 52.19033 | 15.87016 | 100° | 47km/h | 5354m | -3.9m/s | -14.9°C | 81.9% | 526.3hPa | 2.7V | 07:33:00 | 00:00:00 | 00:00:00 | |
| KRY50SP-1 | 2026-09-01 18:45:53 | 52.19043 | 15.86919 | 101° | 47km/h | 5373m | -4.0m/s | -15.0°C | 82.8% | 524.9hPa | 2.7V | 07:33:00 | 00:00:00 | 00:00:00 | |
| SP3BTT-10 | 2026-09-01 18:45:52 | 52.19046 | 15.86880 | 98° | 47km/h | 5381m | -3.6m/s | -15.0°C | 85.8% | 524.4hPa | 2.7V | 00:00:00 | 00:00:00 | 00:00:00 | |
| SONDE2-12 | 2026-09-01 18:45:33 | 52.19078 | 15.86497 | 95° | 49km/h | 5455m | -3.7m/s | -15.5°C | 87.6% | 519.2hPa | 2.7V | 00:00:00 | 00:00:00 | 00:00:00 | |
| KRY50SP-1 | 2026-09-01 18:45:31 | 52.19078 | 15.86497 | 97° | 49km/h | 5455m | -3.7m/s | -15.5°C | 86.1% | 519.2hPa | 2.7V | 07:33:00 | 00:00:00 | 00:00:00 | |
| KRY50SP-1 | 2026-09-01 18:45:26 | 52.19085 | 15.86399 | 98° | 47km/h | 5473m | -3.9m/s | -15.6°C | 85.9% | 517.9hPa | 2.7V | 07:33:00 | 00:00:00 | 00:00:00 | |
| EDDB2-11 | 2026-09-01 18:45:24 | 52.19090 | 15.86342 | 99° | 46km/h | 5484m | -3.8m/s | -15.6°C | 85.6% | 517.2hPa | 2.7V | 00:00:00 | 00:00:00 | 00:00:00 | |
| SP6BVK | 2026-09-01 18:45:22 | 52.19092 | 15.86322 | 100° | 47km/h | 5488m | -4.0m/s | -15.7°C | 85.4% | 516.8hPa | 2.7V | 07:33:00 | 00:00:00 | 00:00:00 | |
| 13BRC | 2026-09-01 18:45:21 | 52.19094 | 15.86303 | 99° | 47km/h | 5492m | -3.9m/s | -15.7°C | 85.3% | 516.6hPa | 2.7V | 07:33:00 | 00:00:00 | 00:00:00 | |
| KRY50SP-1 | 2026-09-01 18:45:16 | 52.19102 | 15.86207 | 99° | 47km/h | 5510m | -3.6m/s | -15.8°C | 85.4% | 515.4hPa | 2.7V | 07:33:00 | 00:00:00 | 00:00:00 | |
| KRY50SP-1 | 2026-09-01 18:45:10 | 52.19115 | 15.86091 | 101° | 47km/h | 5532m | -3.9m/s | -16.0°C | 85.9% | 513.9hPa | 2.7V | 07:33:00 | 00:00:00 | 00:00:00 | |
| SP3BTT-10 | 2026-09-01 18:45:07 | 52.19123 | 15.86013 | 100° | 51km/h | 5546m | -3.7m/s | -16.0°C | 88.3% | 512.8hPa | 2.7V | 00:00:00 | 00:00:00 | 00:00:00 | |
| SP3WXH-11 | 2026-09-01 18:45:04 | 52.19128 | 15.85953 | 97° | 49km/h | 5557m | -3.6m/s | -16.1°C | 85.7% | 512.2hPa | 2.7V | 00:00:00 | 00:00:00 | 00:00:00 | |
| SONDE2-11 | 2026-09-01 18:45:03 | 52.19130 | 15.85932 | 96° | 49km/h | 5561m | -3.7m/s | -16.2°C | 85.7% | 511.9hPa | 2.7V | 00:00:00 | 00:00:00 | 00:00:00 | |
| EDDB2-12 | 2026-09-01 18:44:58 | 52.19138 | 15.85829 | 96° | 49km/h | 5579m | -3.7m/s | -16.1°C | 82.1% | 510.7hPa | 2.7V | 00:00:00 | 00:00:00 | 00:00:00 | |
| DB0DAN | 2026-09-01 18:44:55 | 52.19143 | 15.85767 | 98° | 49km/h | 5590m | -3.9m/s | -16.2°C | 82.4% | 510.06hPa | 2.7V | 00:00:00 | 00:00:00 | 00:00:00 | |
| EDDB2-11 | 2026-09-01 18:44:53 | 52.19146 | 15.85725 | 96° | 49km/h | 5597m | -3.6m/s | -16.3°C | 82.7% | 509.5hPa | 2.6V | 00:00:00 | 00:00:00 | 00:00:00 | |
| KRY50SP-1 | 2026-09-01 18:44:48 | 52.19153 | 15.85642 | 99° | 51km/h | 5611m | -3.8m/s | -16.4°C | 83.3% | 508.4hPa | 2.6V | 07:34:00 | 00:00:00 | 00:00:00 | |
| KRY50SP-1 | 2026-09-01 18:44:43 | 52.19161 | 15.85536 | 97° | 53km/h | 5630m | -3.8m/s | -16.5°C | 82.0% | 507.4hPa | 2.6V | 07:34:00 | 00:00:00 | 00:00:00 | |
| SP6BVK | 2026-09-01 18:44:41 | 52.19164 | 15.85493 | 97° | 53km/h | 5638m | -3.8m/s | -16.5°C | 80.8% | 506.8hPa | 2.6V | 07:34:00 | 00:00:00 | 00:00:00 | |
| DB0DAN | 2026-09-01 18:44:40 | 52.19166 | 15.85450 | 95° | 49km/h | 5645m | -3.7m/s | -16.5°C | 80.4% | 506.3hPa | 2.6V | 00:00:00 | 00:00:00 | 00:00:00 | |
| SONDE2-12 | 2026-09-01 18:44:31 | 52.19176 | 15.85261 | 95° | 51km/h | 5678m | -3.7m/s | -16.6°C | 78.0% | 504.1hPa | 2.7V | 00:00:00 | 00:00:00 | 00:00:00 | |
| EDDB2-12 | 2026-09-01 18:44:27 | 52.19180 | 15.85175 | 95° | 53km/h | 5692m | -3.7m/s | -16.6°C | 74.2% | 503.0hPa | 2.7V | 00:00:00 | 00:00:00 | 00:00:00 | |
| DB0DAN | 2026-09-01 18:44:25 | 52.19182 | 15.85132 | 93° | 49km/h | 5700m | -3.7m/s | -16.6°C | 74.5% | 502.6hPa | 2.7V | 00:00:00 | 00:00:00 | 00:00:00 | |
| SP3BTT-10 | 2026-09-01 18:44:22 | 52.19184 | 15.85067 | 94° | 55km/h | 5711m | -3.6m/s | -16.6°C | 77.7% | 501.8hPa | 2.7V | 00:00:00 | 00:00:00 | 00:00:00 | |
| SP6BVK | 2026-09-01 18:44:21 | 52.19184 | 15.85067 | 94° | 53km/h | 5711m | -3.7m/s | -16.7°C | 75.5% | 501.9hPa | 2.7V | 07:34:00 | 00:00:00 | 00:00:00 | |
| KRY50SP-1 | 2026-09-01 18:44:20 | 52.19185 | 15.85045 | 93° | 53km/h | 5714m | -3.5m/s | -16.7°C | 75.5% | 501.7hPa | 2.7V | 07:34:00 | 00:00:00 | 00:00:00 | |
| KRY50SP-1 | 2026-09-01 18:44:14 | 52.19190 | 15.84915 | 98° | 53km/h | 5735m | -3.7m/s | -16.9°C | 76.3% | 500.2hPa | 2.7V | 07:34:00 | 00:00:00 | 00:00:00 | |
| DB0DAN | 2026-09-01 18:44:10 | 52.19197 | 15.84808 | 96° | 49km/h | 5753m | -3.6m/s | -17°C | 76.4% | 499.06hPa | 2.7V | 00:00:00 | 00:00:00 | 00:00:00 | |
| SONDE2-12 | 2026-09-01 18:44:00 | 52.19220 | 15.84455 | 95° | 53km/h | 5808m | -3.7m/s | -17.3°C | 76.4% | 495.4hPa | 2.6V | 00:00:00 | 00:00:00 | 00:00:00 | |
| EDDB2-12 | 2026-09-01 18:43:56 | 52.19217 | 15.84500 | 96° | 53km/h | 5801m | -3.6m/s | -17.3°C | 75.4% | 495.8hPa | 2.6V | 00:00:00 | 00:00:00 | 00:00:00 | |
| DB0DAN | 2026-09-01 18:43:55 | 52.19219 | 15.84477 | 98° | 53km/h | 5804m | -3.5m/s | -17.3°C | 75.3% | 495.66hPa | 2.6V | 00:00:00 | 00:00:00 | 00:00:00 | |
| EDDB2-11 | 2026-09-01 18:43:51 | 52.19225 | 15.84389 | 96° | 53km/h | 5818m | -3.7m/s | -17.4°C | 75.1% | 494.7hPa | 2.6V | 00:00:00 | 00:00:00 | 00:00:00 | |
| KRY50SP-1 | 2026-09-01 18:43:46 | 52.19230 | 15.84300 | 97° | 55km/h | 5832m | -3.6m/s | -17.4°C | 74.0% | 493.8hPa | 2.6V | 07:34:00 | 00:00:00 | 00:00:00 | |
| DB0DAN | 2026-09-01 18:43:40 | 52.19241 | 15.84142 | 97° | 51km/h | 5856m | -3.4m/s | -17.5°C | 71.8% | 492.28hPa | 2.6V | 00:00:00 | 00:00:00 | 00:00:00 | |
| SP6BVK | 2026-09-01 18:43:39 | 52.19241 | 15.84142 | 98° | 55km/h | 5856m | -3.4m/s | -17.5°C | 71.8% | 492.3hPa | 2.6V | 07:34:00 | 00:00:00 | 00:00:00 | |
| SP3BTT-10 | 2026-09-01 18:43:37 | 52.19246 | 15.84075 | 96° | 55km/h | 5867m | -3.6m/s | -17.5°C | 74.3% | 491.5hPa | 2.6V | 00:00:00 | 00:00:00 | 00:00:00 | |
| KRY50SP-1 | 2026-09-01 18:43:35 | 52.19247 | 15.84052 | 97° | 55km/h | 5870m | -3.8m/s | -17.6°C | 72.2% | 491.3hPa | 2.6V | 07:34:00 | 00:00:00 | 00:00:00 | |
| SONDE2-12 | 2026-09-01 18:43:29 | 52.19277 | 15.83639 | 98° | 57km/h | 5934m | -3.5m/s | -18.1°C | 75.6% | 487.2hPa | 2.6V | 00:00:00 | 00:00:00 | 00:00:00 | |
| DB0DAN | 2026-09-01 18:43:25 | 52.19264 | 15.83801 | 97° | 55km/h | 5909m | -3.6m/s | -17.9°C | 73.2% | 488.75hPa | 2.6V | 00:00:00 | 00:00:00 | 00:00:00 | |
| KRY50SP-1 | 2026-09-01 18:43:24 | 52.19264 | 15.83801 | 98° | 57km/h | 5909m | -3.6m/s | -17.9°C | 73.2% | 488.8hPa | 2.6V | 07:35:00 | 00:00:00 | 00:00:00 | |
| EDDB2-11 | 2026-09-01 18:43:20 | 52.19273 | 15.83685 | 98° | 55km/h | 5927m | -3.6m/s | -18.1°C | 74.0% | 487.6hPa | 2.6V | 00:00:00 | 00:00:00 | 00:00:00 | |
| SP6BVK | 2026-09-01 18:43:19 | 52.19273 | 15.83684 | 99° | 57km/h | 5927m | -3.6m/s | -18.1°C | 74.0% | 487.6hPa | 2.6V | 07:35:00 | 00:00:00 | 00:00:00 | |
| KRY50SP-1 | 2026-09-01 18:43:13 | 52.19286 | 15.83547 | 100° | 57km/h | 5947m | -3.5m/s | -18.3°C | 74.7% | 486.3hPa | 2.6V | 07:35:00 | 00:00:00 | 00:00:00 | |
| DB0DAN | 2026-09-01 18:43:10 | 52.19294 | 15.83457 | 99° | 53km/h | 5961m | -3.7m/s | -18.3°C | 74.4% | 485.31hPa | 2.6V | 00:00:00 | 00:00:00 | 00:00:00 | |
| SONDE2-12 | 2026-09-01 18:42:58 | 52.19321 | 15.83190 | 100° | 53km/h | 6003m | -3.7m/s | -18.5°C | 72.2% | 482.6hPa | 2.6V | 00:00:00 | 00:00:00 | 00:00:00 | |
| DB0DAN | 2026-09-01 18:42:55 | 52.19328 | 15.83124 | 99° | 51km/h | 6014m | -3.6m/s | -18.5°C | 70.9% | 481.99hPa | 2.6V | 00:00:00 | 00:00:00 | 00:00:00 | |
| EDDB2-12 | 2026-09-01 18:42:54 | 52.19330 | 15.83103 | 99° | 51km/h | 6017m | -3.6m/s | -18.5°C | 70.8% | 481.7hPa | 2.6V | 00:00:00 | 00:00:00 | 00:00:00 | |
| EDDB2-11 | 2026-09-01 18:42:49 | 52.19341 | 15.82996 | 100° | 51km/h | 6035m | -3.6m/s | -18.7°C | 71.4% | 480.6hPa | 2.6V | 00:00:00 | 00:00:00 | 00:00:00 | |
| KRY50SP-1 | 2026-09-01 18:42:47 | 52.19343 | 15.82975 | 102° | 53km/h | 6038m | -3.8m/s | -18.7°C | 71.6% | 480.4hPa | 2.6V | 07:35:00 | 00:00:00 | 00:00:00 | |
| KRY50SP-1 | 2026-09-01 18:42:42 | 52.19358 | 15.82846 | 103° | 53km/h | 6059m | -3.7m/s | -18.9°C | 71.5% | 479.1hPa | 2.6V | 07:35:00 | 00:00:00 | 00:00:00 | |
| DB0DAN | 2026-09-01 18:42:40 | 52.19364 | 15.82804 | 102° | 51km/h | 6066m | -3.8m/s | -18.9°C | 70.9% | 478.56hPa | 2.6V | 00:00:00 | 00:00:00 | 00:00:00 | |
| SONDE2-12 | 2026-09-01 18:42:27 | 52.19399 | 15.82529 | 103° | 53km/h | 6111m | -3.4m/s | -19.2°C | 73.3% | 475.7hPa | 2.6V | 00:00:00 | 00:00:00 | 00:00:00 | |
| DB0DAN | 2026-09-01 18:42:25 | 52.19405 | 15.82486 | 102° | 51km/h | 6117m | -3.4m/s | -19.3°C | 72% | 475.29hPa | 2.6V | 00:00:00 | 00:00:00 | 00:00:00 | |
| EDDB2-12 | 2026-09-01 18:42:23 | 52.19412 | 15.82444 | 104° | 53km/h | 6124m | -3.6m/s | -19.4°C | 72.3% | 474.8hPa | 2.6V | 00:00:00 | 00:00:00 | 00:00:00 | |
| SP6BVK | 2026-09-01 18:42:19 | 52.19421 | 15.82380 | 104° | 53km/h | 6135m | -3.5m/s | -19.4°C | 72.7% | 474.1hPa | 2.6V | 07:36:00 | 00:00:00 | 00:00:00 | |
| KRY50SP-1 | 2026-09-01 18:42:13 | 52.19441 | 15.82253 | 105° | 55km/h | 6156m | -3.3m/s | -19.6°C | 73.7% | 472.8hPa | 2.6V | 07:36:00 | 00:00:00 | 00:00:00 | |
| DB0DAN | 2026-09-01 18:42:10 | 52.19454 | 15.82167 | 105° | 51km/h | 6169m | -3.4m/s | -19.7°C | 74.2% | 471.99hPa | 2.6V | 00:00:00 | 00:00:00 | 00:00:00 | |
| SONDE2-12 | 2026-09-01 18:41:56 | 52.19500 | 15.81868 | 104° | 53km/h | 6215m | -3.4m/s | -20.1°C | 77.0% | 469.1hPa | 2.6V | 00:00:00 | 00:00:00 | 00:00:00 | |
| DB0DAN | 2026-09-01 18:41:55 | 52.19503 | 15.81846 | 102° | 51km/h | 6218m | -3.2m/s | -20.1°C | 75.5% | 468.85hPa | 2.6V | 00:00:00 | 00:00:00 | 00:00:00 | |
| EDDB2-12 | 2026-09-01 18:41:52 | 52.19512 | 15.81783 | 103° | 53km/h | 6228m | -3.5m/s | -20.2°C | 75.8% | 468.3hPa | 2.5V | 00:00:00 | 00:00:00 | 00:00:00 | |
| EDDB2-11 | 2026-09-01 18:41:47 | 52.19526 | 15.81676 | 102° | 53km/h | 6243m | -3.2m/s | -20.3°C | 76.2% | 467.3hPa | 2.5V | 00:00:00 | 00:00:00 | 00:00:00 | |
| KRY50SP-1 | 2026-09-01 18:41:44 | 52.19532 | 15.81633 | 104° | 53km/h | 6250m | -3.3m/s | -20.4°C | 76.6% | 466.9hPa | 2.5V | 07:37:00 | 00:00:00 | 00:00:00 | |
| DB0DAN | 2026-09-01 18:41:40 | 52.19547 | 15.81527 | 102° | 49km/h | 6266m | -3.2m/s | -20.5°C | 77% | 465.83hPa | 2.5V | 00:00:00 | 00:00:00 | 00:00:00 | |
| KRY50SP-1 | 2026-09-01 18:41:39 | 52.19550 | 15.81506 | 105° | 53km/h | 6269m | -3.5m/s | -20.6°C | 77.2% | 465.7hPa | 2.6V | 07:37:00 | 00:00:00 | 00:00:00 | |
| SP6BVK | 2026-09-01 18:41:38 | 52.19550 | 15.81506 | 105° | 53km/h | 6269m | -3.5m/s | -20.6°C | 77.2% | 465.7hPa | 2.6V | 07:37:00 | 00:00:00 | 00:00:00 | |
| 13BRC | 2026-09-01 18:41:33 | 52.19566 | 15.81378 | 102° | 55km/h | 6289m | -3.4m/s | -20.8°C | 78.0% | 464.4hPa | 2.6V | 07:37:00 | 00:00:00 | 00:00:00 | |
| KRY50SP-1 | 2026-09-01 18:41:28 | 52.19576 | 15.81291 | 102° | 55km/h | 6302m | -3.4m/s | -20.9°C | 78.6% | 463.6hPa | 2.6V | 07:37:00 | 00:00:00 | 00:00:00 | |
| SP3WXH-11 | 2026-09-01 18:41:27 | 52.19581 | 15.81248 | 99° | 53km/h | 6308m | -3.2m/s | -20.9°C | 78.8% | 463.3hPa | 2.6V | 00:00:00 | 00:00:00 | 00:00:00 | |
| DB0DAN | 2026-09-01 18:41:25 | 52.19586 | 15.81205 | 102° | 51km/h | 6315m | -3.2m/s | -21°C | 79.1% | 462.87hPa | 2.6V | 00:00:00 | 00:00:00 | 00:00:00 | |
| KRY50SP-1 | 2026-09-01 18:41:23 | 52.19588 | 15.81183 | 100° | 53km/h | 6318m | -3.2m/s | -21.0°C | 79.2% | 462.6hPa | 2.6V | 07:37:00 | 00:00:00 | 00:00:00 | |
| SP3BTT-10 | 2026-09-01 18:41:22 | 52.19592 | 15.81140 | 99° | 57km/h | 6324m | -3.1m/s | -21.0°C | 82.1% | 462.2hPa | 2.6V | 00:00:00 | 00:00:00 | 00:00:00 | |
| EDDB2-12 | 2026-09-01 18:41:21 | 52.19595 | 15.81118 | 100° | 53km/h | 6327m | -3.3m/s | -21.1°C | 79.6% | 462.1hPa | 2.6V | 00:00:00 | 00:00:00 | 00:00:00 | |
| SP6BVK | 2026-09-01 18:41:17 | 52.19601 | 15.81053 | 100° | 53km/h | 6336m | -3.2m/s | -21.2°C | 79.4% | 461.5hPa | 2.6V | 07:37:00 | 00:00:00 | 00:00:00 | |
| EDDB2-11 | 2026-09-01 18:41:16 | 52.19605 | 15.81010 | 99° | 53km/h | 6342m | -3.2m/s | -21.2°C | 79.7% | 461.1hPa | 2.6V | 00:00:00 | 00:00:00 | 00:00:00 | |
| KRY50SP-1 | 2026-09-01 18:41:12 | 52.19613 | 15.80944 | 101° | 55km/h | 6351m | -3.1m/s | -21.3°C | 79.8% | 460.5hPa | 2.6V | 07:37:00 | 00:00:00 | 00:00:00 | |
| DB0DAN | 2026-09-01 18:41:10 | 52.19621 | 15.80877 | 103° | 53km/h | 6361m | -3.2m/s | -21.4°C | 79.9% | 459.95hPa | 2.6V | 00:00:00 | 00:00:00 | 00:00:00 | |
| KRY50SP-1 | 2026-09-01 18:41:07 | 52.19627 | 15.80832 | 104° | 55km/h | 6367m | -3.0m/s | -21.4°C | 80.0% | 459.6hPa | 2.6V | 07:37:00 | 00:00:00 | 00:00:00 | |
| KRY50SP-1 | 2026-09-01 18:41:02 | 52.19641 | 15.80719 | 101° | 57km/h | 6381m | -2.9m/s | -21.5°C | 80.2% | 458.7hPa | 2.6V | 07:37:00 | 00:00:00 | 00:00:00 | |
| SP3WXH-11 | 2026-09-01 18:40:56 | 52.19661 | 15.80560 | 102° | 57km/h | 6402m | -2.9m/s | -21.6°C | 79.7% | 457.4hPa | 2.6V | 00:00:00 | 00:00:00 | 00:00:00 | |
| DB0DAN | 2026-09-01 18:40:55 | 52.19665 | 15.80538 | 104° | 53km/h | 6405m | -3.1m/s | -21.6°C | 79.3% | 457.19hPa | 2.6V | 00:00:00 | 00:00:00 | 00:00:00 | |
| SONDE2-12 | 2026-09-01 18:40:54 | 52.19668 | 15.80515 | 103° | 55km/h | 6408m | -3.1m/s | -21.6°C | 80.8% | 457.0hPa | 2.6V | 00:00:00 | 00:00:00 | 00:00:00 | |
| EDDB2-12 | 2026-09-01 18:40:50 | 52.19681 | 15.80424 | 103° | 57km/h | 6420m | -3.3m/s | -21.7°C | 79.5% | 456.2hPa | 2.6V | 00:00:00 | 00:00:00 | 00:00:00 | |
| EDDB2-11 | 2026-09-01 18:40:45 | 52.19699 | 15.80309 | 103° | 57km/h | 6436m | -3.0m/s | -21.8°C | 80.0% | 455.2hPa | 2.6V | 00:00:00 | 00:00:00 | 00:00:00 | |
| KRY50SP-1 | 2026-09-01 18:40:41 | 52.19708 | 15.80241 | 104° | 55km/h | 6444m | -3.0m/s | -21.9°C | 80.2% | 454.7hPa | 2.6V | 07:38:00 | 00:00:00 | 00:00:00 | |
| DB0DAN | 2026-09-01 18:40:40 | 52.19715 | 15.80196 | 104° | 53km/h | 6450m | -3m/s | -21.9°C | 79.4% | 454.29hPa | 2.6V | 00:00:00 | 00:00:00 | 00:00:00 | |
| SP3BTT-10 | 2026-09-01 18:40:37 | 52.19725 | 15.80130 | 106° | 53km/h | 6459m | -3.1m/s | -21.9°C | 81.3% | 453.7hPa | 2.6V | 00:00:00 | 00:00:00 | 00:00:00 | |
| KRY50SP-1 | 2026-09-01 18:40:36 | 52.19725 | 15.80130 | 106° | 55km/h | 6459m | -3.2m/s | -21.9°C | 78.4% | 453.7hPa | 2.6V | 07:38:00 | 00:00:00 | 00:00:00 | |
| SP6BVK | 2026-09-01 18:40:35 | 52.19728 | 15.80108 | 106° | 57km/h | 6462m | -3.4m/s | -21.9°C | 78.2% | 453.6hPa | 2.6V | 07:38:00 | 00:00:00 | 00:00:00 | |
| KRY50SP-1 | 2026-09-01 18:40:31 | 52.19743 | 15.80019 | 107° | 57km/h | 6475m | -3.2m/s | -22.0°C | 77.8% | 452.9hPa | 2.6V | 07:38:00 | 00:00:00 | 00:00:00 | |
| 13BRC | 2026-09-01 18:40:28 | 52.19754 | 15.79951 | 105° | 55km/h | 6484m | -3.0m/s | -22.1°C | 78.0% | 452.2hPa | 2.6V | 07:38:00 | 00:00:00 | 00:00:00 | |
| DB0DAN | 2026-09-01 18:40:25 | 52.19768 | 15.79863 | 104° | 53km/h | 6496m | -3.3m/s | -22.1°C | 76.8% | 451.39hPa | 2.6V | 00:00:00 | 00:00:00 | 00:00:00 | |
| SONDE2-12 | 2026-09-01 18:40:23 | 52.19775 | 15.79820 | 104° | 53km/h | 6502m | -3.0m/s | -22.2°C | 78.6% | 451.0hPa | 2.6V | 00:00:00 | 00:00:00 | 00:00:00 | |
| EDDB2-12 | 2026-09-01 18:40:19 | 52.19788 | 15.79734 | 104° | 53km/h | 6515m | -3.8m/s | -22.3°C | 76.6% | 450.3hPa | 2.6V | 00:00:00 | 00:00:00 | 00:00:00 | |
| EDDB2-11 | 2026-09-01 18:40:14 | 52.19805 | 15.79628 | 105° | 51km/h | 6534m | -3.9m/s | -22.4°C | 76.6% | 449.2hPa | 2.6V | 00:00:00 | 00:00:00 | 00:00:00 | |
| KRY50SP-1 | 2026-09-01 18:40:13 | 52.19805 | 15.79628 | 107° | 53km/h | 6534m | -3.9m/s | -22.4°C | 76.6% | 449.2hPa | 2.6V | 07:38:00 | 00:00:00 | 00:00:00 | |
| DB0DAN | 2026-09-01 18:40:10 | 52.19820 | 15.79546 | 106° | 49km/h | 6549m | -3.5m/s | -22.5°C | 76.1% | 448.37hPa | 2.6V | 00:00:00 | 00:00:00 | 00:00:00 | |
| 13BRC | 2026-09-01 18:40:08 | 52.19823 | 15.79525 | 106° | 51km/h | 6553m | -3.5m/s | -22.5°C | 76.1% | 448.1hPa | 2.6V | 07:38:00 | 00:00:00 | 00:00:00 | |
| KRY50SP-1 | 2026-09-01 18:40:07 | 52.19827 | 15.79505 | 106° | 51km/h | 6556m | -3.2m/s | -22.5°C | 75.9% | 447.9hPa | 2.6V | 07:38:00 | 00:00:00 | 00:00:00 | |
| KRY50SP-1 | 2026-09-01 18:39:57 | 52.19858 | 15.79303 | 105° | 51km/h | 6591m | -3.3m/s | -22.7°C | 75.1% | 445.8hPa | 2.6V | 07:39:00 | 00:00:00 | 00:00:00 | |
| DB0DAN | 2026-09-01 18:39:55 | 52.19870 | 15.79241 | 106° | 49km/h | 6601m | -3.4m/s | -22.8°C | 74.9% | 445.2hPa | 2.6V | 00:00:00 | 00:00:00 | 00:00:00 | |
| SONDE2-12 | 2026-09-01 18:39:52 | 52.19881 | 15.79179 | 107° | 51km/h | 6611m | -3.4m/s | -22.9°C | 77.1% | 444.6hPa | 2.6V | 00:00:00 | 00:00:00 | 00:00:00 | |
| EDDB2-12 | 2026-09-01 18:39:48 | 52.19896 | 15.79096 | 106° | 51km/h | 6624m | -3.4m/s | -23.0°C | 75.5% | 443.8hPa | 2.6V | 00:00:00 | 00:00:00 | 00:00:00 | |
| 13BRC | 2026-09-01 18:39:46 | 52.19900 | 15.79076 | 109° | 51km/h | 6628m | -3.4m/s | -23.0°C | 75.1% | 443.6hPa | 2.6V | 00:00:00 | 00:00:00 | 00:00:00 | |
| KRY50SP-1 | 2026-09-01 18:39:45 | 52.19904 | 15.79056 | 108° | 51km/h | 6631m | -3.3m/s | -23.0°C | 74.8% | 443.4hPa | 2.6V | 07:39:00 | 00:00:00 | 00:00:00 | |
| EDDB2-11 | 2026-09-01 18:39:43 | 52.19916 | 15.78996 | 108° | 49km/h | 6641m | -3.5m/s | -23.0°C | 74.4% | 442.8hPa | 2.6V | 00:00:00 | 00:00:00 | 00:00:00 | |
| DB0DAN | 2026-09-01 18:39:40 | 52.19928 | 15.78936 | 107° | 49km/h | 6651m | -3.2m/s | -23.1°C | 74% | 442.18hPa | 2.6V | 00:00:00 | 00:00:00 | 00:00:00 | |
| KRY50SP-1 | 2026-09-01 18:39:39 | 52.19928 | 15.78936 | 108° | 51km/h | 6651m | -3.2m/s | -23.1°C | 74.0% | 442.2hPa | 2.5V | 07:39:00 | 00:00:00 | 00:00:00 | |
| SONDE2-12 | 2026-09-01 18:39:21 | 52.20008 | 15.78537 | 110° | 57km/h | 6716m | -3.6m/s | -23.5°C | 71.0% | 438.4hPa | 2.5V | 00:00:00 | 00:00:00 | 00:00:00 | |
| EDDB2-12 | 2026-09-01 18:39:17 | 52.20023 | 15.78447 | 102° | 53km/h | 6730m | -3.3m/s | -23.6°C | 66.2% | 437.5hPa | 2.5V | 00:00:00 | 00:00:00 | 00:00:00 | |
| EDDB2-11 | 2026-09-01 18:39:12 | 52.20043 | 15.78343 | 109° | 55km/h | 6745m | -2.5m/s | -23.7°C | 65.5% | 436.6hPa | 2.5V | 00:00:00 | 00:00:00 | 00:00:00 | |
| SP3BTT-10 | 2026-09-01 18:39:07 | 52.20064 | 15.78234 | 106° | 53km/h | 6757m | -2.1m/s | -23.8°C | 67.5% | 435.8hPa | 2.5V | 00:00:00 | 00:00:00 | 00:00:00 | |
| KRY50SP-1 | 2026-09-01 18:39:06 | 52.20064 | 15.78234 | 107° | 55km/h | 6757m | -2.2m/s | -23.8°C | 64.8% | 435.8hPa | 2.5V | 07:39:00 | 00:00:00 | 00:00:00 | |
| KRY50SP-1 | 2026-09-01 18:39:01 | 52.20083 | 15.78129 | 110° | 53km/h | 6768m | -2.5m/s | -23.9°C | 62.5% | 435.2hPa | 2.5V | 07:39:00 | 00:00:00 | 00:00:00 | |
| DB0DAN | 2026-09-01 18:38:55 | 52.20113 | 15.77981 | 109° | 51km/h | 6784m | -2.3m/s | -24°C | 61.4% | 434.21hPa | 2.5V | 00:00:00 | 00:00:00 | 00:00:00 | |
| SONDE2-12 | 2026-09-01 18:38:50 | 52.20135 | 15.77874 | 107° | 53km/h | 6795m | -2.2m/s | -24.1°C | 63.2% | 433.6hPa | 2.5V | 00:00:00 | 00:00:00 | 00:00:00 | |
| EDDB2-12 | 2026-09-01 18:38:46 | 52.20151 | 15.77790 | 107° | 51km/h | 6804m | -2.2m/s | -24.2°C | 61.4% | 433.0hPa | 2.5V | 00:00:00 | 00:00:00 | 00:00:00 | |
| KRY50SP-1 | 2026-09-01 18:38:44 | 52.20155 | 15.77769 | 109° | 53km/h | 6806m | -2.3m/s | -24.2°C | 61.8% | 432.9hPa | 2.5V | 07:39:00 | 00:00:00 | 00:00:00 | |
| DB0DAN | 2026-09-01 18:38:40 | 52.20175 | 15.77665 | 107° | 51km/h | 6817m | -2.4m/s | -24.3°C | 59.4% | 432.27hPa | 2.5V | 00:00:00 | 00:00:00 | 00:00:00 | |
| KRY50SP-1 | 2026-09-01 18:38:38 | 52.20179 | 15.77644 | 108° | 53km/h | 6820m | -2.3m/s | -24.3°C | 58.6% | 432.2hPa | 2.6V | 07:39:00 | 00:00:00 | 00:00:00 | |
| KRY50SP-1 | 2026-09-01 18:38:34 | 52.20197 | 15.77539 | 106° | 53km/h | 6831m | -2.4m/s | -24.4°C | 59.0% | 431.5hPa | 2.6V | 07:39:00 | 00:00:00 | 00:00:00 | |
| SP6BVK | 2026-09-01 18:38:30 | 52.20207 | 15.77476 | 105° | 53km/h | 6838m | -2.4m/s | -24.5°C | 58.6% | 431.0hPa | 2.6V | 07:39:00 | 00:00:00 | 00:00:00 | |
| KRY50SP-1 | 2026-09-01 18:38:29 | 52.20213 | 15.77435 | 106° | 53km/h | 6843m | -2.3m/s | -24.5°C | 58.9% | 430.7hPa | 2.6V | 07:39:00 | 00:00:00 | 00:00:00 | |
| DB0DAN | 2026-09-01 18:38:25 | 52.20227 | 15.77352 | 106° | 49km/h | 6852m | -2.5m/s | -24.6°C | 62.8% | 430.21hPa | 2.6V | 00:00:00 | 00:00:00 | 00:00:00 | |
| SONDE2-12 | 2026-09-01 18:38:19 | 52.20249 | 15.77229 | 106° | 51km/h | 6867m | -2.4m/s | -24.7°C | 67.8% | 429.4hPa | 2.6V | 00:00:00 | 00:00:00 | 00:00:00 | |
| KRY50SP-1 | 2026-09-01 18:38:18 | 52.20249 | 15.77229 | 107° | 53km/h | 6867m | -2.4m/s | -24.7°C | 66.1% | 429.4hPa | 2.6V | 07:40:00 | 00:00:00 | 00:00:00 | |
| EDDB2-12 | 2026-09-01 18:38:15 | 52.20263 | 15.77146 | 106° | 51km/h | 6876m | -2.5m/s | -24.8°C | 68.6% | 428.8hPa | 2.6V | 00:00:00 | 00:00:00 | 00:00:00 | |
| KRY50SP-1 | 2026-09-01 18:38:12 | 52.20271 | 15.77105 | 108° | 51km/h | 6881m | -2.4m/s | -24.8°C | 69.2% | 428.5hPa | 2.6V | 07:40:00 | 00:00:00 | 00:00:00 | |
| DB0DAN | 2026-09-01 18:38:10 | 52.20282 | 15.77044 | 107° | 49km/h | 6888m | -2.4m/s | -24.9°C | 70.2% | 428.13hPa | 2.6V | 00:00:00 | 00:00:00 | 00:00:00 | |
| EDDB2-11 | 2026-09-01 18:38:10 | 52.20282 | 15.77044 | 107° | 51km/h | 6888m | -2.4m/s | -24.9°C | 70.2% | 428.1hPa | 2.6V | 00:00:00 | 00:00:00 | 00:00:00 | |
| KRY50SP-1 | 2026-09-01 18:38:06 | 52.20293 | 15.76983 | 108° | 51km/h | 6895m | -2.5m/s | -25.0°C | 71.1% | 427.6hPa | 2.6V | 07:40:00 | 00:00:00 | 00:00:00 | |
| 13BRC | 2026-09-01 18:38:03 | 52.20304 | 15.76923 | 108° | 51km/h | 6903m | -2.5m/s | -25.0°C | 72.3% | 427.2hPa | 2.6V | 07:40:00 | 00:00:00 | 00:00:00 | |
| KRY50SP-1 | 2026-09-01 18:38:01 | 52.20312 | 15.76882 | 108° | 51km/h | 6908m | -2.3m/s | -25.0°C | 72.5% | 426.9hPa | 2.6V | 07:40:00 | 00:00:00 | 00:00:00 | |
| KRY50SP-1 | 2026-09-01 18:37:56 | 52.20331 | 15.76781 | 109° | 51km/h | 6920m | -2.5m/s | -25.0°C | 65.6% | 426.2hPa | 2.6V | 07:40:00 | 00:00:00 | 00:00:00 | |
| DB0DAN | 2026-09-01 18:37:55 | 52.20338 | 15.76740 | 106° | 49km/h | 6924m | -2.4m/s | -25°C | 62.2% | 425.96hPa | 2.6V | 00:00:00 | 00:00:00 | 00:00:00 | |
| SONDE2-12 | 2026-09-01 18:37:48 | 52.20366 | 15.76600 | 108° | 49km/h | 6942m | -2.6m/s | -25.2°C | 61.6% | 424.9hPa | 2.6V | 00:00:00 | 00:00:00 | 00:00:00 | |
| EDDB2-12 | 2026-09-01 18:37:44 | 52.20382 | 15.76520 | 108° | 51km/h | 6952m | -2.6m/s | -25.2°C | 60.2% | 424.4hPa | 2.6V | 00:00:00 | 00:00:00 | 00:00:00 | |
| 13BRC | 2026-09-01 18:37:43 | 52.20382 | 15.76520 | 110° | 51km/h | 6952m | -2.6m/s | -25.2°C | 60.2% | 424.4hPa | 2.6V | 07:40:00 | 00:00:00 | 00:00:00 | |
| DB0DAN | 2026-09-01 18:37:40 | 52.20398 | 15.76438 | 107° | 49km/h | 6961m | -2.5m/s | -25.3°C | 59.6% | 423.81hPa | 2.6V | 00:00:00 | 00:00:00 | 00:00:00 | |
| EDDB2-11 | 2026-09-01 18:37:39 | 52.20401 | 15.76418 | 105° | 51km/h | 6964m | -2.5m/s | -25.4°C | 59.8% | 423.6hPa | 2.6V | 00:00:00 | 00:00:00 | 00:00:00 | |
| SP3BTT-10 | 2026-09-01 18:37:37 | 52.20408 | 15.76376 | 106° | 53km/h | 6969m | -2.6m/s | -25.3°C | 62.5% | 423.3hPa | 2.6V | 00:00:00 | 00:00:00 | 00:00:00 | |
| KRY50SP-1 | 2026-09-01 18:37:34 | 52.20418 | 15.76313 | 106° | 53km/h | 6977m | -2.5m/s | -25.5°C | 59.9% | 422.9hPa | 2.6V | 07:40:00 | 00:00:00 | 00:00:00 | |
| SP6BVK | 2026-09-01 18:37:28 | 52.20437 | 15.76209 | 109° | 53km/h | 6989m | -2.7m/s | -25.6°C | 59.0% | 422.2hPa | 2.6V | 07:41:00 | 00:00:00 | 00:00:00 | |
| DB0DAN | 2026-09-01 18:37:25 | 52.20454 | 15.76127 | 107° | 51km/h | 6999m | -2.7m/s | -25.7°C | 59.4% | 421.63hPa | 2.6V | 00:00:00 | 00:00:00 | 00:00:00 | |
| SONDE2-12 | 2026-09-01 18:37:17 | 52.20481 | 15.75961 | 105° | 53km/h | 7020m | -2.9m/s | -25.8°C | 58.2% | 420.4hPa | 2.5V | 00:00:00 | 00:00:00 | 00:00:00 | |
| EDDB2-12 | 2026-09-01 18:37:13 | 52.20502 | 15.75854 | 108° | 53km/h | 7033m | -2.5m/s | -25.9°C | 55.1% | 419.7hPa | 2.5V | 00:00:00 | 00:00:00 | 00:00:00 | |
| KRY50SP-1 | 2026-09-01 18:37:11 | 52.20502 | 15.75854 | 110° | 53km/h | 7033m | -2.5m/s | -25.9°C | 55.2% | 419.7hPa | 2.5V | 07:41:00 | 00:00:00 | 00:00:00 | |
| DB0DAN | 2026-09-01 18:37:10 | 52.20511 | 15.75813 | 109° | 51km/h | 7038m | -2.9m/s | -26°C | 56.1% | 419.29hPa | 2.5V | 00:00:00 | 00:00:00 | 00:00:00 | |
| EDDB2-11 | 2026-09-01 18:37:08 | 52.20519 | 15.75772 | 106° | 49km/h | 7043m | -2.6m/s | -26.0°C | 57.8% | 419.1hPa | 2.6V | 00:00:00 | 00:00:00 | 00:00:00 | |
| KRY50SP-1 | 2026-09-01 18:37:06 | 52.20525 | 15.75732 | 105° | 51km/h | 7049m | -2.6m/s | -26.1°C | 58.3% | 418.7hPa | 2.6V | 07:41:00 | 00:00:00 | 00:00:00 | |
| 13BRC | 2026-09-01 18:37:02 | 52.20534 | 15.75671 | 104° | 51km/h | 7058m | -2.8m/s | -26.1°C | 58.7% | 418.2hPa | 2.6V | 07:41:00 | 00:00:00 | 00:00:00 | |
| KRY50SP-1 | 2026-09-01 18:37:00 | 52.20540 | 15.75629 | 105° | 55km/h | 7063m | -2.7m/s | -26.2°C | 59.1% | 417.9hPa | 2.6V | 07:41:00 | 00:00:00 | 00:00:00 | |
| DB0DAN | 2026-09-01 18:36:55 | 52.20565 | 15.75500 | 109° | 51km/h | 7080m | -2.5m/s | -26.3°C | 59.6% | 417hPa | 2.6V | 00:00:00 | 00:00:00 | 00:00:00 | |
| SONDE2-12 | 2026-09-01 18:36:46 | 52.20598 | 15.75318 | 104° | 51km/h | 7103m | -2.9m/s | -26.6°C | 62.5% | 415.6hPa | 2.5V | 00:00:00 | 00:00:00 | 00:00:00 | |
| KRY50SP-1 | 2026-09-01 18:36:43 | 52.20605 | 15.75276 | 107° | 55km/h | 7109m | -2.6m/s | -26.6°C | 61.2% | 415.2hPa | 2.5V | 07:41:00 | 00:00:00 | 00:00:00 | |
| 13BRC | 2026-09-01 18:36:41 | 52.20613 | 15.75233 | 108° | 55km/h | 7114m | -2.8m/s | -26.7°C | 61.4% | 415.0hPa | 2.5V | 07:41:00 | 00:00:00 | 00:00:00 | |
| DB0DAN | 2026-09-01 18:36:40 | 52.20621 | 15.75191 | 109° | 51km/h | 7119m | -2.7m/s | -26.7°C | 61.7% | 414.67hPa | 2.5V | 00:00:00 | 00:00:00 | 00:00:00 | |
| KRY50SP-1 | 2026-09-01 18:36:38 | 52.20626 | 15.75170 | 110° | 53km/h | 7122m | -2.8m/s | -26.8°C | 61.8% | 414.5hPa | 2.6V | 07:42:00 | 00:00:00 | 00:00:00 | |
| EDDB2-11 | 2026-09-01 18:36:37 | 52.20635 | 15.75130 | 108° | 49km/h | 7127m | -2.7m/s | -26.8°C | 62.2% | 414.2hPa | 2.6V | 00:00:00 | 00:00:00 | 00:00:00 | |
| KRY50SP-1 | 2026-09-01 18:36:32 | 52.20650 | 15.75049 | 107° | 51km/h | 7138m | -2.6m/s | -26.9°C | 62.9% | 413.6hPa | 2.6V | 07:42:00 | 00:00:00 | 00:00:00 | |
| KRY50SP-1 | 2026-09-01 18:36:27 | 52.20668 | 15.74947 | 106° | 53km/h | 7152m | -2.9m/s | -27.0°C | 63.8% | 412.8hPa | 2.6V | 07:42:00 | 00:00:00 | 00:00:00 | |
| SP6BVK | 2026-09-01 18:36:26 | 52.20672 | 15.74926 | 107° | 53km/h | 7155m | -2.8m/s | -27.1°C | 64.1% | 412.6hPa | 2.6V | 07:42:00 | 00:00:00 | 00:00:00 | |
| DB0DAN | 2026-09-01 18:36:25 | 52.20679 | 15.74884 | 106° | 51km/h | 7160m | -2.8m/s | -27.1°C | 64.3% | 412.37hPa | 2.6V | 00:00:00 | 00:00:00 | 00:00:00 | |
| SONDE2-12 | 2026-09-01 18:36:15 | 52.20714 | 15.74676 | 104° | 51km/h | 7187m | -2.7m/s | -27.3°C | 67.1% | 410.8hPa | 2.5V | 00:00:00 | 00:00:00 | 00:00:00 | |
| KRY50SP-1 | 2026-09-01 18:36:12 | 52.20721 | 15.74634 | 107° | 53km/h | 7193m | -2.6m/s | -27.4°C | 65.5% | 410.5hPa | 2.5V | 07:42:00 | 00:00:00 | 00:00:00 | |
| DB0DAN | 2026-09-01 18:36:10 | 52.20732 | 15.74570 | 106° | 51km/h | 7201m | -2.7m/s | -27.5°C | 65.9% | 410.09hPa | 2.5V | 00:00:00 | 00:00:00 | 00:00:00 | |
| SP3BTT-10 | 2026-09-01 18:36:07 | 52.20743 | 15.74505 | 106° | 53km/h | 7209m | -2.7m/s | -27.5°C | 69.6% | 409.5hPa | 2.6V | 07:42:00 | 00:00:00 | 00:00:00 | |
| KRY50SP-1 | 2026-09-01 18:36:06 | 52.20743 | 15.74505 | 107° | 55km/h | 7209m | -2.7m/s | -27.5°C | 66.4% | 409.6hPa | 2.6V | 07:42:00 | 00:00:00 | 00:00:00 | |
| SP6BVK | 2026-09-01 18:36:05 | 52.20747 | 15.74484 | 107° | 53km/h | 7211m | -2.6m/s | -27.6°C | 66.5% | 409.4hPa | 2.6V | 07:42:00 | 00:00:00 | 00:00:00 | |
| KRY50SP-1 | 2026-09-01 18:36:01 | 52.20761 | 15.74399 | 106° | 53km/h | 7222m | -2.7m/s | -27.6°C | 67.7% | 408.8hPa | 2.6V | 07:42:00 | 00:00:00 | 00:00:00 | |
| 13BRC | 2026-09-01 18:35:59 | 52.20768 | 15.74357 | 106° | 53km/h | 7227m | -2.6m/s | -27.7°C | 68.0% | 408.6hPa | 2.6V | 07:42:00 | 00:00:00 | 00:00:00 | |
| KRY50SP-1 | 2026-09-01 18:35:56 | 52.20778 | 15.74294 | 106° | 53km/h | 7235m | -2.8m/s | -27.7°C | 68.2% | 408.1hPa | 2.6V | 07:42:00 | 00:00:00 | 00:00:00 | |
| DB0DAN | 2026-09-01 18:35:55 | 52.20785 | 15.74252 | 105° | 51km/h | 7240m | -2.7m/s | -27.8°C | 68.4% | 407.78hPa | 2.6V | 00:00:00 | 00:00:00 | 00:00:00 | |
| SP3WXH-11 | 2026-09-01 18:35:46 | 52.20820 | 15.74039 | 104° | 51km/h | 7266m | -2.6m/s | -28.0°C | 69.3% | 406.3hPa | 2.5V | 00:00:00 | 00:00:00 | 00:00:00 | |
| SONDE2-12 | 2026-09-01 18:35:44 | 52.20827 | 15.73997 | 104° | 51km/h | 7272m | -2.6m/s | -28.1°C | 71.1% | 406.0hPa | 2.5V | 00:00:00 | 00:00:00 | 00:00:00 | |
| DB0DAN | 2026-09-01 18:35:40 | 52.20837 | 15.73934 | 104° | 51km/h | 7279m | -2.6m/s | -28.2°C | 68.3% | 405.58hPa | 2.5V | 00:00:00 | 00:00:00 | 00:00:00 | |
| KRY50SP-1 | 2026-09-01 18:35:39 | 52.20836 | 15.73934 | 105° | 53km/h | 7279m | -2.6m/s | -28.2°C | 68.3% | 405.6hPa | 2.6V | 07:43:00 | 00:00:00 | 00:00:00 | |
| 13BRC | 2026-09-01 18:35:38 | 52.20840 | 15.73913 | 106° | 53km/h | 7282m | -2.7m/s | -28.2°C | 68.5% | 405.4hPa | 2.6V | 07:43:00 | 00:00:00 | 00:00:00 | |
| KRY50SP-1 | 2026-09-01 18:35:34 | 52.20855 | 15.73826 | 106° | 53km/h | 7292m | -2.4m/s | -28.2°C | 69.2% | 404.9hPa | 2.6V | 07:43:00 | 00:00:00 | 00:00:00 | |
| KRY50SP-1 | 2026-09-01 18:35:29 | 52.20870 | 15.73721 | 104° | 49km/h | 7305m | -2.6m/s | -28.4°C | 68.5% | 404.1hPa | 2.6V | 07:43:00 | 00:00:00 | 00:00:00 | |
| DB0DAN | 2026-09-01 18:35:25 | 52.20887 | 15.73622 | 105° | 51km/h | 7317m | -2.4m/s | -28.5°C | 68.2% | 403.36hPa | 2.6V | 00:00:00 | 00:00:00 | 00:00:00 | |
| SONDE2-12 | 2026-09-01 18:35:13 | 52.20923 | 15.73350 | 101° | 49km/h | 7348m | -2.3m/s | -28.7°C | 73.1% | 401.7hPa | 2.5V | 00:00:00 | 00:00:00 | 00:00:00 | |
| DB0DAN | 2026-09-01 18:35:10 | 52.20927 | 15.73309 | 100° | 49km/h | 7352m | -2.3m/s | -28.8°C | 71.1% | 401.37hPa | 2.5V | 00:00:00 | 00:00:00 | 00:00:00 | |
| EDDB2-12 | 2026-09-01 18:35:09 | 52.20932 | 15.73269 | 99° | 49km/h | 7357m | -2.7m/s | -28.8°C | 71.4% | 401.1hPa | 2.5V | 00:00:00 | 00:00:00 | 00:00:00 | |
| KRY50SP-1 | 2026-09-01 18:35:07 | 52.20932 | 15.73269 | 101° | 49km/h | 7357m | -2.7m/s | -28.8°C | 71.4% | 401.1hPa | 2.5V | 07:43:00 | 00:00:00 | 00:00:00 | |
| SP6BVK | 2026-09-01 18:35:05 | 52.20936 | 15.73227 | 101° | 51km/h | 7362m | -2.4m/s | -28.8°C | 71.7% | 400.8hPa | 2.5V | 07:43:00 | 00:00:00 | 00:00:00 | |
| EDDB2-11 | 2026-09-01 18:35:04 | 52.20943 | 15.73165 | 100° | 49km/h | 7369m | -2.4m/s | -28.9°C | 71.9% | 400.5hPa | 2.5V | 00:00:00 | 00:00:00 | 00:00:00 | |
| KRY50SP-1 | 2026-09-01 18:35:02 | 52.20943 | 15.73165 | 101° | 51km/h | 7369m | -2.4m/s | -28.9°C | 71.9% | 400.5hPa | 2.5V | 07:43:00 | 00:00:00 | 00:00:00 | |
| 13BRC | 2026-09-01 18:34:57 | 52.20954 | 15.73061 | 102° | 51km/h | 7381m | -2.5m/s | -29.0°C | 73.1% | 399.8hPa | 2.5V | 07:43:00 | 00:00:00 | 00:00:00 | |
| KRY50SP-1 | 2026-09-01 18:34:56 | 52.20956 | 15.73041 | 102° | 51km/h | 7383m | -2.7m/s | -29.0°C | 73.7% | 399.6hPa | 2.5V | 07:44:00 | 00:00:00 | 00:00:00 | |
| DB0DAN | 2026-09-01 18:34:55 | 52.20961 | 15.72999 | 99° | 49km/h | 7388m | -2.5m/s | -29°C | 74.6% | 399.41hPa | 2.5V | 00:00:00 | 00:00:00 | 00:00:00 | |
| SONDE2-12 | 2026-09-01 18:34:42 | 52.20988 | 15.72704 | 98° | 53km/h | 7423m | -2.5m/s | -29.3°C | 80.3% | 397.4hPa | 2.6V | 00:00:00 | 00:00:00 | 00:00:00 | |
| DB0DAN | 2026-09-01 18:34:40 | 52.20990 | 15.72682 | 97° | 51km/h | 7426m | -2.5m/s | -29.3°C | 78.2% | 397.34hPa | 2.6V | 00:00:00 | 00:00:00 | 00:00:00 | |
| EDDB2-12 | 2026-09-01 18:34:38 | 52.20995 | 15.72619 | 97° | 51km/h | 7433m | -2.4m/s | -29.4°C | 78.8% | 396.9hPa | 2.5V | 00:00:00 | 00:00:00 | 00:00:00 | |
| SP3BTT-10 | 2026-09-01 18:34:37 | 52.20995 | 15.72619 | 98° | 55km/h | 7433m | -2.4m/s | -29.3°C | 82.7% | 396.9hPa | 2.5V | 00:00:00 | 00:00:00 | 00:00:00 | |
| 13BRC | 2026-09-01 18:34:35 | 52.20996 | 15.72597 | 98° | 51km/h | 7435m | -2.5m/s | -29.4°C | 79.0% | 396.8hPa | 2.5V | 07:44:00 | 00:00:00 | 00:00:00 | |
| EDDB2-11 | 2026-09-01 18:34:33 | 52.21003 | 15.72514 | 99° | 51km/h | 7445m | -2.5m/s | -29.5°C | 79.5% | 396.3hPa | 2.5V | 00:00:00 | 00:00:00 | 00:00:00 | |
| KRY50SP-1 | 2026-09-01 18:34:30 | 52.21006 | 15.72492 | 102° | 53km/h | 7448m | -2.5m/s | -29.5°C | 79.7% | 396.1hPa | 2.5V | 07:44:00 | 00:00:00 | 00:00:00 | |
| DB0DAN | 2026-09-01 18:34:25 | 52.21017 | 15.72360 | 99° | 51km/h | 7463m | -2.8m/s | -29.6°C | 80.5% | 395.2hPa | 2.5V | 00:00:00 | 00:00:00 | 00:00:00 | |
| SONDE2-12 | 2026-09-01 18:34:11 | 52.21046 | 15.72036 | 99° | 55km/h | 7502m | -2.7m/s | -30.0°C | 83.5% | 393.1hPa | 2.6V | 00:00:00 | 00:00:00 | 00:00:00 | |
| DB0DAN | 2026-09-01 18:34:10 | 52.21046 | 15.72036 | 99° | 53km/h | 7502m | -2.7m/s | -30°C | 81.1% | 393.07hPa | 2.6V | 00:00:00 | 00:00:00 | 00:00:00 | |
| EDDB2-12 | 2026-09-01 18:34:07 | 52.21053 | 15.71948 | 98° | 51km/h | 7512m | -2.7m/s | -30.1°C | 81.5% | 392.5hPa | 2.5V | 00:00:00 | 00:00:00 | 00:00:00 | |
| EDDB2-11 | 2026-09-01 18:34:02 | 52.21064 | 15.71837 | 97° | 55km/h | 7526m | -2.8m/s | -30.2°C | 82.2% | 391.8hPa | 2.5V | 00:00:00 | 00:00:00 | 00:00:00 | |
| KRY50SP-1 | 2026-09-01 18:33:56 | 52.21071 | 15.71750 | 101° | 51km/h | 7536m | -2.6m/s | -30.3°C | 82.5% | 391.2hPa | 2.5V | 07:45:00 | 00:00:00 | 00:00:00 | |
| DB0DAN | 2026-09-01 18:33:55 | 52.21076 | 15.71707 | 101° | 53km/h | 7541m | -2.8m/s | -30.4°C | 82.8% | 390.93hPa | 2.5V | 00:00:00 | 00:00:00 | 00:00:00 | |
| 13BRC | 2026-09-01 18:33:53 | 52.21078 | 15.71684 | 101° | 57km/h | 7544m | -2.8m/s | -30.4°C | 83.1% | 390.8hPa | 2.6V | 00:00:00 | 00:00:00 | 00:00:00 | |
| SP3BTT-10 | 2026-09-01 18:33:52 | 52.21082 | 15.71638 | 98° | 57km/h | 7550m | -2.6m/s | -30.4°C | 87.6% | 390.4hPa | 2.6V | 00:00:00 | 00:00:00 | 00:00:00 | |
| KRY50SP-1 | 2026-09-01 18:33:50 | 52.21084 | 15.71616 | 99° | 55km/h | 7552m | -2.6m/s | -30.5°C | 83.6% | 390.3hPa | 2.5V | 07:45:00 | 00:00:00 | 00:00:00 | |
| KRY50SP-1 | 2026-09-01 18:33:44 | 52.21098 | 15.71484 | 100° | 55km/h | 7568m | -2.6m/s | -30.6°C | 84.5% | 389.5hPa | 2.5V | 07:45:00 | 00:00:00 | 00:00:00 | |
| SP6BVK | 2026-09-01 18:33:43 | 52.21101 | 15.71462 | 99° | 55km/h | 7570m | -2.5m/s | -30.6°C | 84.5% | 389.3hPa | 2.5V | 07:45:00 | 00:00:00 | 00:00:00 | |
| DB0DAN | 2026-09-01 18:33:40 | 52.21110 | 15.71373 | 101° | 55km/h | 7580m | -2.6m/s | -30.7°C | 85% | 388.79hPa | 2.5V | 00:00:00 | 00:00:00 | 00:00:00 | |
| SONDE2-12 | 2026-09-01 18:33:40 | 52.21117 | 15.71305 | 97° | 55km/h | 7588m | -2.4m/s | -30.8°C | 88.3% | 388.4hPa | 2.5V | 00:00:00 | 00:00:00 | 00:00:00 | |
| KRY50SP-1 | 2026-09-01 18:33:39 | 52.21110 | 15.71373 | 102° | 57km/h | 7581m | -2.6m/s | -30.7°C | 85.0% | 388.8hPa | 2.5V | 07:45:00 | 00:00:00 | 00:00:00 | |
| EDDB2-12 | 2026-09-01 18:33:36 | 52.21121 | 15.71260 | 99° | 53km/h | 7593m | -2.6m/s | -30.8°C | 86.1% | 388.0hPa | 2.5V | 00:00:00 | 00:00:00 | 00:00:00 | |
| 13BRC | 2026-09-01 18:33:32 | 52.21126 | 15.71216 | 101° | 57km/h | 7598m | -2.6m/s | -30.9°C | 86.7% | 387.8hPa | 2.5V | 00:00:00 | 00:00:00 | 00:00:00 | |
| EDDB2-11 | 2026-09-01 18:33:31 | 52.21132 | 15.71147 | 97° | 53km/h | 7606m | -2.6m/s | -31.0°C | 87.0% | 387.4hPa | 2.5V | 00:00:00 | 00:00:00 | 00:00:00 | |
| KRY50SP-1 | 2026-09-01 18:33:27 | 52.21136 | 15.71103 | 102° | 55km/h | 7611m | -2.5m/s | -31.0°C | 87.1% | 387.1hPa | 2.5V | 07:45:00 | 00:00:00 | 00:00:00 | |
| DB0DAN | 2026-09-01 18:33:25 | 52.21144 | 15.71035 | 100° | 55km/h | 7618m | -2.5m/s | -31.1°C | 87.3% | 386.65hPa | 2.5V | 00:00:00 | 00:00:00 | 00:00:00 | |
| SP6BVK | 2026-09-01 18:33:22 | 52.21149 | 15.70989 | 99° | 57km/h | 7623m | -2.4m/s | -31.1°C | 88.1% | 386.4hPa | 2.5V | 07:45:00 | 00:00:00 | 00:00:00 | |
| KRY50SP-1 | 2026-09-01 18:33:16 | 52.21162 | 15.70853 | 98° | 57km/h | 7638m | -2.5m/s | -31.3°C | 88.3% | 385.6hPa | 2.5V | 07:45:00 | 00:00:00 | 00:00:00 | |
| 13BRC | 2026-09-01 18:33:11 | 52.21173 | 15.70739 | 101° | 58km/h | 7650m | -2.4m/s | -31.4°C | 88.1% | 384.9hPa | 2.5V | 07:45:00 | 00:00:00 | 00:00:00 | |
| DB0DAN | 2026-09-01 18:33:10 | 52.21178 | 15.70693 | 97° | 53km/h | 7655m | -2.4m/s | -31.4°C | 88.3% | 384.66hPa | 2.5V | 00:00:00 | 00:00:00 | 00:00:00 | |
| SONDE2-12 | 2026-09-01 18:33:09 | 52.21189 | 15.70580 | 98° | 57km/h | 7667m | -2.4m/s | -31.5°C | 92.2% | 384.1hPa | 2.6V | 00:00:00 | 00:00:00 | 00:00:00 | |
| SP3BTT-10 | 2026-09-01 18:33:07 | 52.21184 | 15.70626 | 101° | 57km/h | 7662m | -2.4m/s | -31.5°C | 93.2% | 384.2hPa | 2.6V | 00:00:00 | 00:00:00 | 00:00:00 | |
| KRY50SP-1 | 2026-09-01 18:33:04 | 52.21189 | 15.70580 | 99° | 57km/h | 7667m | -2.4m/s | -31.5°C | 89.4% | 384.1hPa | 2.6V | 00:00:00 | 00:00:00 | 00:00:00 | |
| SP6BVK | 2026-09-01 18:33:01 | 52.21195 | 15.70512 | 101° | 55km/h | 7674m | -2.5m/s | -31.6°C | 89.9% | 383.7hPa | 2.6V | 07:45:00 | 00:00:00 | 00:00:00 | |
| EDDB2-11 | 2026-09-01 18:33:00 | 52.21203 | 15.70443 | 100° | 57km/h | 7681m | -2.3m/s | -31.7°C | 90.0% | 383.3hPa | 2.6V | 00:00:00 | 00:00:00 | 00:00:00 | |
| KRY50SP-1 | 2026-09-01 18:32:58 | 52.21203 | 15.70443 | 101° | 58km/h | 7681m | -2.3m/s | -31.7°C | 90.0% | 383.3hPa | 2.6V | 00:00:00 | 00:00:00 | 00:00:00 | |
| DB0DAN | 2026-09-01 18:32:55 | 52.21212 | 15.70352 | 99° | 53km/h | 7689m | -2.2m/s | -31.8°C | 90.4% | 382.88hPa | 2.6V | 00:00:00 | 00:00:00 | 00:00:00 | |
| KRY50SP-1 | 2026-09-01 18:32:53 | 52.21214 | 15.70329 | 101° | 55km/h | 7692m | -2.3m/s | -31.8°C | 90.7% | 382.7hPa | 2.6V | 00:00:00 | 00:00:00 | 00:00:00 | |
| 13BRC | 2026-09-01 18:32:49 | 52.21225 | 15.70217 | 102° | 55km/h | 7703m | -2.4m/s | -31.9°C | 91.4% | 382.1hPa | 2.6V | 07:45:00 | 00:00:00 | 00:00:00 | |
| KRY50SP-1 | 2026-09-01 18:32:47 | 52.21228 | 15.70194 | 103° | 57km/h | 7706m | -2.3m/s | -31.9°C | 91.4% | 382.0hPa | 2.6V | 00:00:00 | 00:00:00 | 00:00:00 | |
| KRY50SP-1 | 2026-09-01 18:32:42 | 52.21240 | 15.70078 | 101° | 57km/h | 7716m | -2.1m/s | -32.0°C | 92.5% | 381.4hPa | 2.6V | 00:00:00 | 00:00:00 | 00:00:00 | |
| DB0DAN | 2026-09-01 18:32:40 | 52.21248 | 15.70009 | 100° | 53km/h | 7723m | -2.2m/s | -32.1°C | 93.3% | 381.07hPa | 2.6V | 00:00:00 | 00:00:00 | 00:00:00 | |
| SONDE2-12 | 2026-09-01 18:32:37 | 52.21285 | 15.69637 | 99° | 58km/h | 7757m | -2.2m/s | -32.5°C | 97.1% | 379.3hPa | 2.6V | 00:00:00 | 00:00:00 | 00:00:00 | |
| KRY50SP-1 | 2026-09-01 18:32:36 | 52.21256 | 15.69942 | 103° | 57km/h | 7729m | -2.1m/s | -32.2°C | 94.5% | 380.7hPa | 2.6V | 00:00:00 | 00:00:00 | 00:00:00 | |
| EDDB2-12 | 2026-09-01 18:32:33 | 52.21266 | 15.69850 | 100° | 57km/h | 7737m | -2.2m/s | -32.3°C | 94.6% | 380.3hPa | 2.6V | 00:00:00 | 00:00:00 | 00:00:00 | |
| KRY50SP-1 | 2026-09-01 18:32:30 | 52.21271 | 15.69803 | 101° | 58km/h | 7741m | -2.2m/s | -32.3°C | 94.9% | 380.1hPa | 2.6V | 00:00:00 | 00:00:00 | 00:00:00 | |
| 13BRC | 2026-09-01 18:32:28 | 52.21276 | 15.69755 | 98° | 58km/h | 7746m | -2.4m/s | -32.3°C | 94.6% | 379.9hPa | 2.6V | 07:45:00 | 00:00:00 | 00:00:00 | |
| DB0DAN | 2026-09-01 18:32:25 | 52.21283 | 15.69661 | 99° | 55km/h | 7754m | -2.1m/s | -32.4°C | 94% | 379.36hPa | 2.6V | 00:00:00 | 00:00:00 | 00:00:00 | |
| SP6BVK | 2026-09-01 18:32:20 | 52.21292 | 15.69563 | 98° | 60km/h | 7763m | -2.2m/s | -32.5°C | 94.4% | 378.9hPa | 2.5V | 07:46:00 | 00:00:00 | 00:00:00 | |
| KRY50SP-1 | 2026-09-01 18:32:19 | 52.21293 | 15.69539 | 98° | 60km/h | 7765m | -2.0m/s | -32.6°C | 94.8% | 378.7hPa | 2.5V | 07:46:00 | 00:00:00 | 00:00:00 | |
| KRY50SP-1 | 2026-09-01 18:32:14 | 52.21309 | 15.69392 | 100° | 60km/h | 7778m | -2.0m/s | -32.7°C | 94.4% | 378.2hPa | 2.5V | 07:46:00 | 00:00:00 | 00:00:00 | |
| DB0DAN | 2026-09-01 18:32:10 | 52.21318 | 15.69296 | 97° | 57km/h | 7785m | -2.1m/s | -32.7°C | 88.5% | 377.73hPa | 2.5V | 00:00:00 | 00:00:00 | 00:00:00 | |
| SONDE2-12 | 2026-09-01 18:32:06 | 52.21326 | 15.69203 | 100° | 57km/h | 7793m | -2.0m/s | -32.7°C | 85.3% | 377.2hPa | 2.6V | 00:00:00 | 00:00:00 | 00:00:00 | |
| EDDB2-12 | 2026-09-01 18:32:02 | 52.21337 | 15.69107 | 100° | 58km/h | 7801m | -2.0m/s | -32.8°C | 78.7% | 376.9hPa | 2.6V | 00:00:00 | 00:00:00 | 00:00:00 | |
| EDDB2-11 | 2026-09-01 18:31:58 | 52.21347 | 15.68984 | 94° | 58km/h | 7811m | -2.1m/s | -32.7°C | 67.4% | 376.3hPa | 2.6V | 00:00:00 | 00:00:00 | 00:00:00 | |
| KRY50SP-1 | 2026-09-01 18:31:57 | 52.21346 | 15.69009 | 96° | 62km/h | 7809m | -2.1m/s | -32.7°C | 70.3% | 376.5hPa | 2.6V | 07:46:00 | 00:00:00 | 00:00:00 | |
| KRY50SP-1 | 2026-09-01 18:31:53 | 52.21354 | 15.68889 | 99° | 58km/h | 7819m | -1.9m/s | -32.7°C | 63.6% | 375.9hPa | 2.6V | 07:46:00 | 00:00:00 | 00:00:00 | |
| 13BRC | 2026-09-01 18:31:47 | 52.21363 | 15.68770 | 99° | 58km/h | 7829m | -1.8m/s | -32.7°C | 57.8% | 375.4hPa | 2.6V | 00:00:00 | 00:00:00 | 00:00:00 | |
| KRY50SP-1 | 2026-09-01 18:31:46 | 52.21365 | 15.68746 | 98° | 58km/h | 7831m | -1.7m/s | -32.7°C | 55.3% | 375.3hPa | 2.6V | 07:46:00 | 00:00:00 | 00:00:00 | |
| KRY50SP-1 | 2026-09-01 18:31:41 | 52.21372 | 15.68628 | 98° | 57km/h | 7840m | -1.9m/s | -32.4°C | 28.3% | 374.8hPa | 2.6V | 07:46:00 | 00:00:00 | 00:00:00 | |
| SP6BVK | 2026-09-01 18:31:39 | 52.21376 | 15.68580 | 98° | 58km/h | 7844m | -2.0m/s | -32.3°C | 24.3% | 374.6hPa | 2.6V | 07:46:00 | 00:00:00 | 00:00:00 | |
| SP3WXH-11 | 2026-09-01 18:31:38 | 52.21381 | 15.68510 | 97° | 55km/h | 7850m | -1.9m/s | -32.3°C | 22.3% | 374.2hPa | 2.6V | 00:00:00 | 00:00:00 | 00:00:00 | |
| SP3BTT-10 | 2026-09-01 18:31:37 | 52.21381 | 15.68510 | 98° | 57km/h | 7850m | -1.9m/s | -32.3°C | 24.4% | 374.2hPa | 2.6V | 00:00:00 | 00:00:00 | 00:00:00 | |
| SONDE2-11 | 2026-09-01 18:31:36 | 52.21383 | 15.68487 | 97° | 57km/h | 7852m | -1.9m/s | -32.3°C | 22.0% | 374.2hPa | 2.5V | 00:00:00 | 00:00:00 | 00:00:00 | |
| KRY50SP-1 | 2026-09-01 18:31:35 | 52.21382 | 15.68487 | 99° | 57km/h | 7852m | -1.9m/s | -32.3°C | 22.0% | 374.3hPa | 2.5V | 07:46:00 | 00:00:00 | 00:00:00 | |
| EDDB2-12 | 2026-09-01 18:31:31 | 52.21390 | 15.68372 | 95° | 53km/h | 7861m | -2.0m/s | -32.2°C | 19.6% | 373.7hPa | 2.5V | 00:00:00 | 00:00:00 | 00:00:00 | |
| KRY50SP-1 | 2026-09-01 18:31:30 | 52.21390 | 15.68371 | 97° | 55km/h | 7861m | -2.0m/s | -32.2°C | 19.6% | 373.7hPa | 2.5V | 07:47:00 | 00:00:00 | 00:00:00 | |
| DB0DAN | 2026-09-01 18:31:25 | 52.21399 | 15.68237 | 97° | 53km/h | 7873m | -1.9m/s | -32°C | 17.3% | 373.04hPa | 2.5V | 00:00:00 | 00:00:00 | 00:00:00 | |
| KRY50SP-1 | 2026-09-01 18:31:24 | 52.21399 | 15.68237 | 98° | 57km/h | 7873m | -1.9m/s | -32.0°C | 17.3% | 373.0hPa | 2.5V | 07:47:00 | 00:00:00 | 00:00:00 | |
| KRY50SP-1 | 2026-09-01 18:31:19 | 52.21405 | 15.68120 | 95° | 55km/h | 7883m | -1.9m/s | -32.1°C | 17.0% | 372.5hPa | 2.5V | 07:47:00 | 00:00:00 | 00:00:00 | |
| SP6BVK | 2026-09-01 18:31:18 | 52.21406 | 15.68098 | 96° | 55km/h | 7885m | -2.0m/s | -32.1°C | 16.9% | 372.4hPa | 2.5V | 07:47:00 | 00:00:00 | 00:00:00 | |
| KRY50SP-1 | 2026-09-01 18:31:15 | 52.21410 | 15.68009 | 95° | 53km/h | 7892m | -2.1m/s | -32.1°C | 16.5% | 372.1hPa | 2.5V | 07:47:00 | 00:00:00 | 00:00:00 | |
| DB0DAN | 2026-09-01 18:31:10 | 52.21415 | 15.67895 | 92° | 55km/h | 7902m | -1.9m/s | -32.2°C | 16.4% | 371.55hPa | 2.5V | 00:00:00 | 00:00:00 | 00:00:00 | |
| SONDE2-12 | 2026-09-01 18:31:04 | 52.21420 | 15.67756 | 94° | 55km/h | 7913m | -1.9m/s | -32.3°C | 16.9% | 371.0hPa | 2.5V | 00:00:00 | 00:00:00 | 00:00:00 | |
| KRY50SP-1 | 2026-09-01 18:31:03 | 52.21420 | 15.67756 | 96° | 55km/h | 7914m | -1.9m/s | -32.3°C | 16.3% | 371.0hPa | 2.5V | 07:47:00 | 00:00:00 | 00:00:00 | |
| EDDB2-12 | 2026-09-01 18:31:00 | 52.21427 | 15.67666 | 97° | 55km/h | 7921m | -1.9m/s | -32.3°C | 16.1% | 370.5hPa | 2.5V | 00:00:00 | 00:00:00 | 00:00:00 | |
| KRY50SP-1 | 2026-09-01 18:30:57 | 52.21430 | 15.67620 | 98° | 57km/h | 7925m | -2.0m/s | -32.3°C | 15.9% | 370.3hPa | 2.5V | 07:47:00 | 00:00:00 | 00:00:00 | |
| DB0DAN | 2026-09-01 18:30:55 | 52.21435 | 15.67549 | 94° | 55km/h | 7931m | -1.7m/s | -32.4°C | 15.8% | 370.09hPa | 2.5V | 00:00:00 | 00:00:00 | 00:00:00 | |
| 13BRC | 2026-09-01 18:30:53 | 52.21436 | 15.67525 | 95° | 58km/h | 7932m | -1.8m/s | -32.4°C | 15.8% | 370.0hPa | 2.5V | 07:47:00 | 00:00:00 | 00:00:00 | |
| KRY50SP-1 | 2026-09-01 18:30:52 | 52.21437 | 15.67501 | 95° | 58km/h | 7935m | -2.0m/s | -32.4°C | 15.8% | 369.9hPa | 2.5V | 07:47:00 | 00:00:00 | 00:00:00 | |
| SP3BTT-10 | 2026-09-01 18:30:51 | 52.21439 | 15.67453 | 94° | 64km/h | 7939m | -1.9m/s | -32.4°C | 17.6% | 369.6hPa | 2.5V | 00:00:00 | 00:00:00 | 00:00:00 | |
| KRY50SP-1 | 2026-09-01 18:30:47 | 52.21443 | 15.67382 | 99° | 58km/h | 7944m | -1.9m/s | -32.4°C | 15.4% | 369.4hPa | 2.5V | 07:47:00 | 00:00:00 | 00:00:00 | |
| KRY50SP-1 | 2026-09-01 18:30:42 | 52.21457 | 15.67259 | 102° | 66km/h | 7954m | -2.4m/s | -32.3°C | 13.6% | 368.8hPa | 2.5V | 07:47:00 | 00:00:00 | 00:00:00 | |
| DB0DAN | 2026-09-01 18:30:40 | 52.21464 | 15.67175 | 94° | 66km/h | 7961m | -2.3m/s | -32.4°C | 13.4% | 368.33hPa | 2.5V | 00:00:00 | 00:00:00 | 00:00:00 | |
| SONDE2-12 | 2026-09-01 18:30:33 | 52.21463 | 15.66997 | 97° | 53km/h | 7976m | -1.8m/s | -32.5°C | 13.4% | 367.6hPa | 2.5V | 00:00:00 | 00:00:00 | 00:00:00 | |
| KRY50SP-1 | 2026-09-01 18:30:32 | 52.21463 | 15.66997 | 99° | 55km/h | 7976m | -1.8m/s | -32.5°C | 13.0% | 367.6hPa | 2.5V | 07:48:00 | 00:00:00 | 00:00:00 | |
| EDDB2-12 | 2026-09-01 18:30:29 | 52.21476 | 15.66901 | 102° | 64km/h | 7984m | -2.2m/s | -32.5°C | 12.5% | 367.2hPa | 2.5V | 00:00:00 | 00:00:00 | 00:00:00 | |
| KRY50SP-1 | 2026-09-01 18:30:26 | 52.21482 | 15.66846 | 101° | 69km/h | 7989m | -2.2m/s | -32.5°C | 12.1% | 366.9hPa | 2.5V | 07:48:00 | 00:00:00 | 00:00:00 | |
| DB0DAN | 2026-09-01 18:30:25 | 52.21487 | 15.66788 | 95° | 69km/h | 7993m | -2m/s | -32.5°C | 11.8% | 366.77hPa | 2.5V | 00:00:00 | 00:00:00 | 00:00:00 | |
| EDDB2-11 | 2026-09-01 18:30:24 | 52.21488 | 15.66758 | 92° | 71km/h | 7995m | -2.1m/s | -32.5°C | 11.7% | 366.6hPa | 2.5V | 00:00:00 | 00:00:00 | 00:00:00 | |
| KRY50SP-1 | 2026-09-01 18:30:20 | 52.21488 | 15.66673 | 89° | 66km/h | 8001m | -2.2m/s | -32.5°C | 11.5% | 366.4hPa | 2.5V | 07:48:00 | 00:00:00 | 00:00:00 | |
| SP6BVK | 2026-09-01 18:30:16 | 52.21488 | 15.66572 | 95° | 60km/h | 8009m | -2.0m/s | -32.5°C | 11.3% | 365.9hPa | 2.5V | 07:48:00 | 00:00:00 | 00:00:00 | |
| KRY50SP-1 | 2026-09-01 18:30:15 | 52.21489 | 15.66546 | 97° | 64km/h | 8011m | -2.2m/s | -32.6°C | 11.2% | 365.8hPa | 2.5V | 07:48:00 | 00:00:00 | 00:00:00 | |
| 13BRC | 2026-09-01 18:30:13 | 52.21494 | 15.66464 | 95° | 69km/h | 8018m | -2.1m/s | -32.6°C | 10.9% | 365.5hPa | 2.5V | 07:48:00 | 00:00:00 | 00:00:00 | |
| DB0DAN | 2026-09-01 18:30:10 | 52.21496 | 15.66378 | 90° | 64km/h | 8024m | -2m/s | -32.6°C | 10.8% | 365.12hPa | 2.5V | 00:00:00 | 00:00:00 | 00:00:00 | |
| KRY50SP-1 | 2026-09-01 18:30:09 | 52.21496 | 15.66378 | 91° | 68km/h | 8024m | -2.0m/s | -32.6°C | 10.8% | 365.1hPa | 2.6V | 07:48:00 | 00:00:00 | 00:00:00 | |
| SP3BTT-10 | 2026-09-01 18:30:06 | 52.21497 | 15.66271 | 94° | 71km/h | 8032m | -1.9m/s | -32.6°C | 12.1% | 364.7hPa | 2.6V | 07:48:00 | 00:00:00 | 00:00:00 | |
| KRY50SP-1 | 2026-09-01 18:30:04 | 52.21498 | 15.66243 | 94° | 68km/h | 8035m | -2.0m/s | -32.6°C | 10.5% | 364.6hPa | 2.6V | 07:48:00 | 00:00:00 | 00:00:00 | |
| EDDB2-12 | 2026-09-01 18:29:58 | 52.21500 | 15.66047 | 90° | 69km/h | 8048m | -2.0m/s | -32.7°C | 10.2% | 363.9hPa | 2.6V | 00:00:00 | 00:00:00 | 00:00:00 | |
| SP6BVK | 2026-09-01 18:29:56 | 52.21499 | 15.66018 | 90° | 71km/h | 8050m | -2.0m/s | -32.7°C | 10.2% | 363.8hPa | 2.6V | 07:48:00 | 00:00:00 | 00:00:00 | |
| DB0DAN | 2026-09-01 18:29:55 | 52.21498 | 15.65960 | 87° | 66km/h | 8054m | -2m/s | -32.7°C | 10% | 363.6hPa | 2.6V | 00:00:00 | 00:00:00 | 00:00:00 | |
| EDDB2-11 | 2026-09-01 18:29:53 | 52.21497 | 15.65903 | 88° | 68km/h | 8058m | -1.9m/s | -32.7°C | 9.9% | 363.4hPa | 2.5V | 00:00:00 | 00:00:00 | 00:00:00 | |
| KRY50SP-1 | 2026-09-01 18:29:52 | 52.21497 | 15.65903 | 89° | 68km/h | 8058m | -1.9m/s | -32.7°C | 9.9% | 363.3hPa | 2.5V | 07:48:00 | 00:00:00 | 00:00:00 | |
| 13BRC | 2026-09-01 18:29:51 | 52.21497 | 15.65875 | 91° | 68km/h | 8060m | -1.9m/s | -32.7°C | 9.8% | 363.3hPa | 2.5V | 07:48:00 | 00:00:00 | 00:00:00 | |
| KRY50SP-1 | 2026-09-01 18:29:47 | 52.21495 | 15.65759 | 87° | 71km/h | 8068m | -2.1m/s | -32.7°C | 9.7% | 362.9hPa | 2.5V | 07:49:00 | 00:00:00 | 00:00:00 | |
| KRY50SP-1 | 2026-09-01 18:29:41 | 52.21489 | 15.65585 | 88° | 73km/h | 8080m | -2.1m/s | -32.8°C | 9.4% | 362.2hPa | 2.5V | 07:49:00 | 00:00:00 | 00:00:00 | |
| DB0DAN | 2026-09-01 18:29:40 | 52.21487 | 15.65526 | 86° | 68km/h | 8084m | -2.1m/s | -32.8°C | 0% | 0hPa | 2.5V | 00:00:00 | 00:00:00 | 00:00:00 | |
| SONDE2-12 | 2026-09-01 18:29:31 | 52.21474 | 15.65202 | 86° | 73km/h | 8106m | -2.0m/s | -32.7°C | 8.4% | 360.9hPa | 2.5V | 00:00:00 | 00:00:00 | 00:00:00 | |
| KRY50SP-1 | 2026-09-01 18:29:30 | 52.21476 | 15.65261 | 88° | 71km/h | 8102m | -1.9m/s | -32.8°C | 8.4% | 361.1hPa | 2.5V | 07:49:00 | 00:00:00 | 00:00:00 | |
| EDDB2-12 | 2026-09-01 18:29:27 | 52.21471 | 15.65142 | 85° | 71km/h | 8110m | -2.2m/s | -32.7°C | 8.0% | 360.7hPa | 2.5V | 00:00:00 | 00:00:00 | 00:00:00 | |
| DB0DAN | 2026-09-01 18:29:25 | 52.21469 | 15.65084 | 87° | 68km/h | 8114m | -1.9m/s | -32.7°C | 0% | 0hPa | 2.5V | 00:00:00 | 00:00:00 | 00:00:00 | |
| EDDB2-11 | 2026-09-01 18:29:22 | 52.21467 | 15.64993 | 87° | 75km/h | 8120m | -2.0m/s | -32.6°C | 7.4% | 360.2hPa | 2.5V | 00:00:00 | 00:00:00 | 00:00:00 | |
| KRY50SP-1 | 2026-09-01 18:29:21 | 52.21466 | 15.64961 | 87° | 77km/h | 8122m | -2.0m/s | -32.6°C | 7.3% | 360.1hPa | 2.5V | 07:49:00 | 00:00:00 | 00:00:00 | |
| SP6BVK | 2026-09-01 18:29:15 | 52.21460 | 15.64810 | 90° | 71km/h | 8132m | -2.1m/s | -32.6°C | 6.7% | 359.6hPa | 2.5V | 07:49:00 | 00:00:00 | 00:00:00 | |
| DB0DAN | 2026-09-01 18:29:10 | 52.21455 | 15.64628 | 86° | 69km/h | 8144m | -1.9m/s | -32.7°C | 0% | 0hPa | 2.5V | 00:00:00 | 00:00:00 | 00:00:00 | |
| SONDE2-12 | 2026-09-01 18:29:00 | 52.21450 | 15.64331 | 85° | 73km/h | 8165m | -2.1m/s | -32.8°C | 7.3% | 357.9hPa | 2.5V | 00:00:00 | 00:00:00 | 00:00:00 | |
| EDDB2-12 | 2026-09-01 18:28:56 | 52.21445 | 15.64214 | 88° | 69km/h | 8174m | -2.2m/s | -32.9°C | 7.2% | 357.4hPa | 2.5V | 00:00:00 | 00:00:00 | 00:00:00 | |
| EDDB2-11 | 2026-09-01 18:28:51 | 52.21443 | 15.64071 | 90° | 68km/h | 8184m | -2.1m/s | -32.9°C | 7.2% | 356.9hPa | 2.5V | 00:00:00 | 00:00:00 | 00:00:00 | |
| 13BRC | 2026-09-01 18:28:49 | 52.21443 | 15.64043 | 92° | 69km/h | 8186m | -2.3m/s | -32.9°C | 7.2% | 356.9hPa | 2.5V | 07:50:00 | 00:00:00 | 00:00:00 | |
| KRY50SP-1 | 2026-09-01 18:28:46 | 52.21443 | 15.63956 | 89° | 71km/h | 8192m | -2.2m/s | -33.0°C | 7.2% | 356.6hPa | 2.5V | 00:00:00 | 00:00:00 | 00:00:00 | |
| SONDE2-12 | 2026-09-01 18:28:29 | 52.21433 | 15.63455 | 90° | 68km/h | 8232m | -2.2m/s | -33.2°C | 7.5% | 354.6hPa | 2.5V | 00:00:00 | 00:00:00 | 00:00:00 | |
| EDDB2-12 | 2026-09-01 18:28:25 | 52.21431 | 15.63341 | 86° | 66km/h | 8241m | -2.3m/s | -33.2°C | 7.2% | 354.1hPa | 2.5V | 00:00:00 | 00:00:00 | 00:00:00 | |
| KRY50SP-1 | 2026-09-01 18:28:23 | 52.21430 | 15.63314 | 89° | 64km/h | 8243m | -2.3m/s | -33.2°C | 7.2% | 354.0hPa | 2.5V | 00:00:00 | 00:00:00 | 00:00:00 | |
| EDDB2-11 | 2026-09-01 18:28:21 | 52.21430 | 15.63206 | 90° | 66km/h | 8252m | -2.3m/s | -33.2°C | 7.2% | 353.6hPa | 2.5V | 00:00:00 | 00:00:00 | 00:00:00 | |
| KRY50SP-1 | 2026-09-01 18:28:18 | 52.21430 | 15.63153 | 93° | 64km/h | 8256m | -2.3m/s | -33.2°C | 7.2% | 353.4hPa | 2.5V | 00:00:00 | 00:00:00 | 00:00:00 | |
| SONDE2-12 | 2026-09-01 18:27:58 | 52.21439 | 15.62594 | 88° | 71km/h | 8304m | -2.4m/s | -33.4°C | 7.1% | 351.0hPa | 2.5V | 00:00:00 | 00:00:00 | 00:00:00 | |
| EDDB2-12 | 2026-09-01 18:27:54 | 52.21435 | 15.62481 | 88° | 64km/h | 8314m | -2.3m/s | -33.5°C | 6.8% | 350.5hPa | 2.5V | 00:00:00 | 00:00:00 | 00:00:00 | |
| EDDB2-11 | 2026-09-01 18:27:49 | 52.21435 | 15.62342 | 87° | 69km/h | 8326m | -2.5m/s | -33.6°C | 6.7% | 349.9hPa | 2.5V | 00:00:00 | 00:00:00 | 00:00:00 | |
| KRY50SP-1 | 2026-09-01 18:27:48 | 52.21435 | 15.62342 | 89° | 69km/h | 8326m | -2.5m/s | -33.6°C | 6.7% | 349.8hPa | 2.5V | 07:51:00 | 00:00:00 | 00:00:00 | |
| 13BRC | 2026-09-01 18:27:47 | 52.21434 | 15.62313 | 88° | 69km/h | 8329m | -2.5m/s | -33.6°C | 6.6% | 349.7hPa | 2.5V | 07:51:00 | 00:00:00 | 00:00:00 | |
| KRY50SP-1 | 2026-09-01 18:27:42 | 52.21431 | 15.62172 | 90° | 71km/h | 8341m | -2.5m/s | -33.6°C | 6.4% | 349.1hPa | 2.5V | 07:51:00 | 00:00:00 | 00:00:00 | |
| KRY50SP-1 | 2026-09-01 18:27:37 | 52.21427 | 15.62028 | 90° | 69km/h | 8353m | -2.5m/s | -33.7°C | 6.4% | 348.6hPa | 2.5V | 07:51:00 | 00:00:00 | 00:00:00 | |
| KRY50SP-1 | 2026-09-01 18:27:32 | 52.21425 | 15.61882 | 89° | 69km/h | 8365m | -2.4m/s | -33.8°C | 6.4% | 347.9hPa | 2.5V | 07:51:00 | 00:00:00 | 00:00:00 | |
| SP6BVK | 2026-09-01 18:27:30 | 52.21425 | 15.61824 | 92° | 69km/h | 8370m | -2.6m/s | -33.8°C | 6.5% | 347.6hPa | 2.5V | 07:51:00 | 00:00:00 | 00:00:00 | |
| SP3WXH-11 | 2026-09-01 18:27:29 | 52.21426 | 15.61766 | 90° | 71km/h | 8375m | -2.6m/s | -33.8°C | 6.4% | 347.4hPa | 2.5V | 00:00:00 | 00:00:00 | 00:00:00 | |
| SONDE2-11 | 2026-09-01 18:27:28 | 52.21425 | 15.61707 | 88° | 71km/h | 8380m | -2.6m/s | -33.9°C | 6.5% | 347.2hPa | 2.5V | 00:00:00 | 00:00:00 | 00:00:00 | |
| 13BRC | 2026-09-01 18:27:27 | 52.21425 | 15.61707 | 89° | 71km/h | 8380m | -2.6m/s | -33.9°C | 6.5% | 347.2hPa | 2.5V | 07:51:00 | 00:00:00 | 00:00:00 | |
| KRY50SP-1 | 2026-09-01 18:27:26 | 52.21425 | 15.61707 | 89° | 71km/h | 8380m | -2.6m/s | -33.9°C | 6.5% | 347.2hPa | 2.5V | 07:51:00 | 00:00:00 | 00:00:00 | |
| EDDB2-12 | 2026-09-01 18:27:23 | 52.21424 | 15.61593 | 91° | 69km/h | 8391m | -2.6m/s | -33.9°C | 6.6% | 346.6hPa | 2.5V | 00:00:00 | 00:00:00 | 00:00:00 | |
| KRY50SP-1 | 2026-09-01 18:27:21 | 52.21425 | 15.61563 | 93° | 71km/h | 8393m | -2.6m/s | -34.0°C | 6.6% | 346.4hPa | 2.5V | 07:51:00 | 00:00:00 | 00:00:00 | |
| EDDB2-11 | 2026-09-01 18:27:18 | 52.21425 | 15.61442 | 88° | 71km/h | 8404m | -2.6m/s | -34.0°C | 6.9% | 346.0hPa | 2.5V | 00:00:00 | 00:00:00 | 00:00:00 | |
| KRY50SP-1 | 2026-09-01 18:27:16 | 52.21424 | 15.61413 | 91° | 69km/h | 8406m | -2.7m/s | -34.0°C | 7.0% | 345.8hPa | 2.5V | 07:51:00 | 00:00:00 | 00:00:00 | |
| SONDE2-12 | 2026-09-01 18:26:56 | 52.21438 | 15.60757 | 92° | 73km/h | 8465m | -2.9m/s | -34.4°C | 9.3% | 343.0hPa | 2.5V | 00:00:00 | 00:00:00 | 00:00:00 | |
| EDDB2-12 | 2026-09-01 18:26:52 | 52.21441 | 15.60667 | 94° | 73km/h | 8474m | -2.8m/s | -34.5°C | 10.0% | 342.6hPa | 2.5V | 00:00:00 | 00:00:00 | 00:00:00 | |
| EDDB2-11 | 2026-09-01 18:26:47 | 52.21444 | 15.60512 | 89° | 71km/h | 8487m | -2.7m/s | -34.6°C | 12.1% | 341.8hPa | 2.5V | 00:00:00 | 00:00:00 | 00:00:00 | |
| 13BRC | 2026-09-01 18:26:45 | 52.21444 | 15.60482 | 92° | 71km/h | 8491m | -2.8m/s | -34.6°C | 12.6% | 341.7hPa | 2.5V | 07:51:00 | 00:00:00 | 00:00:00 | |
| KRY50SP-1 | 2026-09-01 18:26:43 | 52.21445 | 15.60424 | 94° | 71km/h | 8496m | -2.8m/s | -34.7°C | 13.2% | 341.5hPa | 2.5V | 07:51:00 | 00:00:00 | 00:00:00 | |
| SONDE2-12 | 2026-09-01 18:26:25 | 52.21465 | 15.59853 | 92° | 75km/h | 8548m | -2.7m/s | -35.2°C | 17.9% | 338.9hPa | 2.5V | 00:00:00 | 00:00:00 | 00:00:00 | |
| 13BRC | 2026-09-01 18:26:24 | 52.21465 | 15.59853 | 94° | 75km/h | 8548m | -2.7m/s | -35.2°C | 17.3% | 338.9hPa | 2.5V | 07:52:00 | 00:00:00 | 00:00:00 | |
| KRY50SP-1 | 2026-09-01 18:26:23 | 52.21466 | 15.59822 | 93° | 75km/h | 8551m | -2.7m/s | -35.2°C | 17.4% | 338.8hPa | 2.5V | 07:52:00 | 00:00:00 | 00:00:00 | |
| EDDB2-12 | 2026-09-01 18:26:21 | 52.21469 | 15.59730 | 92° | 73km/h | 8559m | -2.8m/s | -35.3°C | 17.8% | 338.4hPa | 2.5V | 00:00:00 | 00:00:00 | 00:00:00 | |
| KRY50SP-1 | 2026-09-01 18:26:17 | 52.21471 | 15.59640 | 94° | 73km/h | 8567m | -2.8m/s | -35.4°C | 18.4% | 338.0hPa | 2.5V | 07:52:00 | 00:00:00 | 00:00:00 | |
| EDDB2-11 | 2026-09-01 18:26:16 | 52.21473 | 15.59580 | 93° | 73km/h | 8573m | -2.8m/s | -35.4°C | 19.1% | 337.7hPa | 2.5V | 00:00:00 | 00:00:00 | 00:00:00 | |
| KRY50SP-1 | 2026-09-01 18:26:11 | 52.21478 | 15.59457 | 95° | 77km/h | 8584m | -2.8m/s | -35.5°C | 22.1% | 337.2hPa | 2.5V | 07:52:00 | 00:00:00 | 00:00:00 | |
| SONDE2-12 | 2026-09-01 18:25:54 | 52.21497 | 15.58900 | 93° | 75km/h | 8634m | -2.8m/s | -36.0°C | 26.6% | 334.8hPa | 2.5V | 00:00:00 | 00:00:00 | 00:00:00 | |
| EDDB2-12 | 2026-09-01 18:25:50 | 52.21501 | 15.58775 | 93° | 75km/h | 8645m | -2.8m/s | -36.1°C | 26.1% | 334.2hPa | 2.5V | 00:00:00 | 00:00:00 | 00:00:00 | |
| EDDB2-11 | 2026-09-01 18:25:45 | 52.21507 | 15.58618 | 93° | 75km/h | 8658m | -2.7m/s | -36.2°C | 26.6% | 333.6hPa | 2.5V | 00:00:00 | 00:00:00 | 00:00:00 | |
| 13BRC | 2026-09-01 18:25:44 | 52.21507 | 15.58618 | 95° | 75km/h | 8658m | -2.7m/s | -36.2°C | 26.6% | 333.6hPa | 2.5V | 07:52:00 | 00:00:00 | 00:00:00 | |
| KRY50SP-1 | 2026-09-01 18:25:43 | 52.21508 | 15.58587 | 95° | 77km/h | 8661m | -2.8m/s | -36.2°C | 26.7% | 333.4hPa | 2.5V | 07:52:00 | 00:00:00 | 00:00:00 | |
| SONDE2-12 | 2026-09-01 18:25:23 | 52.21536 | 15.57935 | 93° | 75km/h | 8718m | -2.8m/s | -36.7°C | 29.3% | 330.7hPa | 2.5V | 00:00:00 | 00:00:00 | 00:00:00 | |
| KRY50SP-1 | 2026-09-01 18:25:21 | 52.21538 | 15.57904 | 95° | 75km/h | 8721m | -2.7m/s | -36.8°C | 28.0% | 330.6hPa | 2.5V | 07:53:00 | 00:00:00 | 00:00:00 | |
| EDDB2-12 | 2026-09-01 18:25:19 | 52.21542 | 15.57810 | 94° | 75km/h | 8729m | -2.7m/s | -36.8°C | 27.4% | 330.2hPa | 2.5V | 00:00:00 | 00:00:00 | 00:00:00 | |
| KRY50SP-1 | 2026-09-01 18:25:16 | 52.21546 | 15.57747 | 96° | 77km/h | 8735m | -2.7m/s | -36.9°C | 26.9% | 329.9hPa | 2.5V | 07:53:00 | 00:00:00 | 00:00:00 | |
| EDDB2-11 | 2026-09-01 18:25:14 | 52.21550 | 15.57653 | 94° | 75km/h | 8743m | -2.7m/s | -36.9°C | 25.6% | 329.5hPa | 2.5V | 00:00:00 | 00:00:00 | 00:00:00 | |
| KRY50SP-1 | 2026-09-01 18:25:11 | 52.21553 | 15.57589 | 95° | 77km/h | 8748m | -2.7m/s | -36.9°C | 24.5% | 329.3hPa | 2.5V | 07:53:00 | 00:00:00 | 00:00:00 | |
| DB0DAN | 2026-09-01 18:25:10 | 52.21556 | 15.57526 | 94° | 73km/h | 8754m | -2.7m/s | -37°C | 23.5% | 329hPa | 2.5V | 00:00:00 | 00:00:00 | 00:00:00 | |
| SP6BVK | 2026-09-01 18:25:05 | 52.21561 | 15.57400 | 95° | 77km/h | 8764m | -2.6m/s | -37.0°C | 21.7% | 328.5hPa | 2.6V | 07:53:00 | 00:00:00 | 00:00:00 | |
| 13BRC | 2026-09-01 18:25:03 | 52.21564 | 15.57336 | 95° | 77km/h | 8770m | -2.7m/s | -37.1°C | 20.9% | 328.3hPa | 2.6V | 07:53:00 | 00:00:00 | 00:00:00 | |
| KRY50SP-1 | 2026-09-01 18:24:59 | 52.21570 | 15.57208 | 96° | 78km/h | 8780m | -2.7m/s | -37.2°C | 20.7% | 327.7hPa | 2.6V | 07:53:00 | 00:00:00 | 00:00:00 | |
| DB0DAN | 2026-09-01 18:24:55 | 52.21578 | 15.57046 | 94° | 75km/h | 8793m | -2.7m/s | -37.3°C | 20.3% | 327.12hPa | 2.6V | 00:00:00 | 00:00:00 | 00:00:00 | |
| SONDE2-12 | 2026-09-01 18:24:52 | 52.21582 | 15.56949 | 93° | 78km/h | 8801m | -2.6m/s | -37.4°C | 20.8% | 326.7hPa | 2.5V | 00:00:00 | 00:00:00 | 00:00:00 | |
| EDDB2-12 | 2026-09-01 18:24:48 | 52.21586 | 15.56819 | 93° | 78km/h | 8812m | -2.7m/s | -37.5°C | 19.6% | 326.3hPa | 2.5V | 00:00:00 | 00:00:00 | 00:00:00 | |
| KRY50SP-1 | 2026-09-01 18:24:47 | 52.21586 | 15.56819 | 94° | 80km/h | 8812m | -2.7m/s | -37.5°C | 19.6% | 326.3hPa | 2.5V | 07:53:00 | 00:00:00 | 00:00:00 | |
| SP6BVK | 2026-09-01 18:24:45 | 52.21588 | 15.56753 | 94° | 78km/h | 8817m | -2.6m/s | -37.5°C | 19.3% | 326.1hPa | 2.5V | 07:53:00 | 00:00:00 | 00:00:00 | |
| EDDB2-11 | 2026-09-01 18:24:43 | 52.21592 | 15.56655 | 93° | 78km/h | 8825m | -2.5m/s | -37.6°C | 18.9% | 325.6hPa | 2.5V | 00:00:00 | 00:00:00 | 00:00:00 | |
| 13BRC | 2026-09-01 18:24:42 | 52.21592 | 15.56655 | 94° | 78km/h | 8825m | -2.5m/s | -37.6°C | 18.9% | 325.7hPa | 2.5V | 07:54:00 | 00:00:00 | 00:00:00 | |
| KRY50SP-1 | 2026-09-01 18:24:41 | 52.21593 | 15.56623 | 94° | 80km/h | 8827m | -2.5m/s | -37.6°C | 18.7% | 325.6hPa | 2.5V | 07:54:00 | 00:00:00 | 00:00:00 | |
| DB0DAN | 2026-09-01 18:24:40 | 52.21595 | 15.56557 | 93° | 75km/h | 8832m | -2.5m/s | -37.6°C | 18.1% | 325.28hPa | 2.5V | 00:00:00 | 00:00:00 | 00:00:00 | |
| KRY50SP-1 | 2026-09-01 18:24:36 | 52.21598 | 15.56460 | 94° | 78km/h | 8840m | -2.6m/s | -37.7°C | 17.4% | 324.9hPa | 2.5V | 07:54:00 | 00:00:00 | 00:00:00 | |
| KRY50SP-1 | 2026-09-01 18:24:31 | 52.21603 | 15.56264 | 93° | 80km/h | 8855m | -2.5m/s | -37.8°C | 15.1% | 324.2hPa | 2.5V | 07:54:00 | 00:00:00 | 00:00:00 | |
| DB0DAN | 2026-09-01 18:24:25 | 52.21608 | 15.56068 | 92° | 77km/h | 8870m | -2.6m/s | -37.9°C | 13.5% | 323.49hPa | 2.5V | 00:00:00 | 00:00:00 | 00:00:00 | |
| SONDE2-12 | 2026-09-01 18:24:21 | 52.21610 | 15.55937 | 91° | 78km/h | 8880m | -2.5m/s | -38.0°C | 14.3% | 323.0hPa | 2.6V | 00:00:00 | 00:00:00 | 00:00:00 | |
| EDDB2-12 | 2026-09-01 18:24:17 | 52.21613 | 15.55806 | 91° | 78km/h | 8890m | -2.5m/s | -38.1°C | 14.5% | 322.6hPa | 2.6V | 00:00:00 | 00:00:00 | 00:00:00 | |
| KRY50SP-1 | 2026-09-01 18:24:13 | 52.21614 | 15.55707 | 92° | 80km/h | 8897m | -2.5m/s | -38.1°C | 15.0% | 322.2hPa | 2.6V | 07:54:00 | 00:00:00 | 00:00:00 | |
| EDDB2-11 | 2026-09-01 18:24:12 | 52.21615 | 15.55642 | 91° | 78km/h | 8902m | -2.4m/s | -38.2°C | 15.2% | 322.0hPa | 2.6V | 00:00:00 | 00:00:00 | 00:00:00 | |
| DB0DAN | 2026-09-01 18:24:10 | 52.21617 | 15.55576 | 92° | 77km/h | 8907m | -2.4m/s | -38.2°C | 15.5% | 321.76hPa | 2.6V | 00:00:00 | 00:00:00 | 00:00:00 | |
| KRY50SP-1 | 2026-09-01 18:24:08 | 52.21617 | 15.55543 | 93° | 80km/h | 8909m | -2.3m/s | -38.2°C | 15.7% | 321.7hPa | 2.6V | 07:54:00 | 00:00:00 | 00:00:00 | |
| SP3BTT-10 | 2026-09-01 18:24:06 | 52.21619 | 15.55444 | 92° | 82km/h | 8917m | -2.4m/s | -38.2°C | 19.1% | 321.3hPa | 2.6V | 07:54:00 | 00:00:00 | 00:00:00 | |
| SP6BVK | 2026-09-01 18:24:04 | 52.21619 | 15.55378 | 92° | 80km/h | 8921m | -2.4m/s | -38.3°C | 17.2% | 321.1hPa | 2.6V | 07:54:00 | 00:00:00 | 00:00:00 | |
| KRY50SP-1 | 2026-09-01 18:24:02 | 52.21620 | 15.55345 | 92° | 80km/h | 8924m | -2.4m/s | -38.4°C | 17.4% | 321.0hPa | 2.6V | 07:54:00 | 00:00:00 | 00:00:00 | |
| 13BRC | 2026-09-01 18:24:01 | 52.21620 | 15.55312 | 92° | 80km/h | 8926m | -2.4m/s | -38.4°C | 17.5% | 320.9hPa | 2.6V | 07:54:00 | 00:00:00 | 00:00:00 | |
| KRY50SP-1 | 2026-09-01 18:23:56 | 52.21622 | 15.55147 | 92° | 80km/h | 8938m | -2.4m/s | -38.5°C | 17.4% | 320.4hPa | 2.6V | 07:54:00 | 00:00:00 | 00:00:00 | |
| DB0DAN | 2026-09-01 18:23:55 | 52.21622 | 15.55080 | 91° | 77km/h | 8943m | -2.4m/s | -38.5°C | 17.5% | 320.07hPa | 2.6V | 00:00:00 | 00:00:00 | 00:00:00 | |
| SONDE2-12 | 2026-09-01 18:23:50 | 52.21624 | 15.54914 | 91° | 80km/h | 8955m | -2.3m/s | -38.6°C | 18.8% | 319.6hPa | 2.6V | 00:00:00 | 00:00:00 | 00:00:00 | |
| KRY50SP-1 | 2026-09-01 18:23:46 | 52.21625 | 15.54780 | 92° | 80km/h | 8964m | -2.4m/s | -38.7°C | 18.4% | 319.1hPa | 2.6V | 07:55:00 | 00:00:00 | 00:00:00 | |
| SP6BVK | 2026-09-01 18:23:42 | 52.21626 | 15.54680 | 92° | 80km/h | 8971m | -2.4m/s | -38.8°C | 18.5% | 318.9hPa | 2.6V | 07:55:00 | 00:00:00 | 00:00:00 | |
| DB0DAN | 2026-09-01 18:23:40 | 52.21627 | 15.54581 | 91° | 77km/h | 8978m | -2.3m/s | -38.8°C | 18.6% | 318.52hPa | 2.6V | 00:00:00 | 00:00:00 | 00:00:00 | |
| KRY50SP-1 | 2026-09-01 18:23:34 | 52.21628 | 15.54414 | 92° | 82km/h | 8989m | -2.3m/s | -38.9°C | 18.8% | 318.0hPa | 2.6V | 07:55:00 | 00:00:00 | 00:00:00 | |
| KRY50SP-1 | 2026-09-01 18:23:29 | 52.21629 | 15.54246 | 92° | 82km/h | 9001m | -2.4m/s | -39.0°C | 19.2% | 317.5hPa | 2.6V | 07:55:00 | 00:00:00 | 00:00:00 | |
| DB0DAN | 2026-09-01 18:23:25 | 52.21630 | 15.54078 | 91° | 78km/h | 9012m | -2.3m/s | -39.2°C | 19.4% | 316.97hPa | 2.6V | 00:00:00 | 00:00:00 | 00:00:00 | |
| SONDE2-12 | 2026-09-01 18:23:19 | 52.21632 | 15.53875 | 90° | 80km/h | 9026m | -2.2m/s | -39.3°C | 20.4% | 316.3hPa | 2.6V | 00:00:00 | 00:00:00 | 00:00:00 | |
| KRY50SP-1 | 2026-09-01 18:23:14 | 52.21633 | 15.53740 | 92° | 82km/h | 9034m | -2.2m/s | -39.4°C | 19.9% | 315.9hPa | 2.6V | 07:55:00 | 00:00:00 | 00:00:00 | |
| EDDB2-11 | 2026-09-01 18:23:10 | 52.21635 | 15.53570 | 91° | 82km/h | 9045m | -2.3m/s | -39.5°C | 20.5% | 315.4hPa | 2.6V | 00:00:00 | 00:00:00 | 00:00:00 | |
| KRY50SP-1 | 2026-09-01 18:23:08 | 52.21635 | 15.53536 | 91° | 82km/h | 9047m | -2.1m/s | -39.5°C | 20.6% | 315.3hPa | 2.6V | 07:55:00 | 00:00:00 | 00:00:00 | |
| KRY50SP-1 | 2026-09-01 18:23:02 | 52.21636 | 15.53334 | 92° | 82km/h | 9061m | -2.1m/s | -39.6°C | 21.1% | 314.7hPa | 2.6V | 07:56:00 | 00:00:00 | 00:00:00 | |
| SP6BVK | 2026-09-01 18:23:01 | 52.21637 | 15.53301 | 92° | 82km/h | 9063m | -2.1m/s | -39.6°C | 21.1% | 314.6hPa | 2.6V | 07:56:00 | 00:00:00 | 00:00:00 | |
| 13BRC | 2026-09-01 18:22:59 | 52.21638 | 15.53233 | 92° | 80km/h | 9067m | -2.2m/s | -39.7°C | 21.2% | 314.4hPa | 2.6V | 07:56:00 | 00:00:00 | 00:00:00 | |
| KRY50SP-1 | 2026-09-01 18:22:56 | 52.21639 | 15.53132 | 92° | 82km/h | 9074m | -2.2m/s | -39.7°C | 21.6% | 314.1hPa | 2.6V | 07:56:00 | 00:00:00 | 00:00:00 | |
| DB0DAN | 2026-09-01 18:22:55 | 52.21640 | 15.53065 | 91° | 78km/h | 9078m | -2.2m/s | -39.8°C | 21.7% | 313.87hPa | 2.6V | 00:00:00 | 00:00:00 | 00:00:00 | |
| SONDE2-12 | 2026-09-01 18:22:48 | 52.21643 | 15.52799 | 91° | 80km/h | 9095m | -2.2m/s | -39.9°C | 23.7% | 313.1hPa | 2.6V | 00:00:00 | 00:00:00 | 00:00:00 | |
| KRY50SP-1 | 2026-09-01 18:22:45 | 52.21643 | 15.52765 | 92° | 80km/h | 9097m | -2.2m/s | -40.0°C | 22.9% | 313.0hPa | 2.6V | 07:56:00 | 00:00:00 | 00:00:00 | |
| EDDB2-12 | 2026-09-01 18:22:44 | 52.21644 | 15.52666 | 91° | 80km/h | 9103m | -2.2m/s | -40.0°C | 23.2% | 312.8hPa | 2.6V | 00:00:00 | 00:00:00 | 00:00:00 | |
| SP6BVK | 2026-09-01 18:22:41 | 52.21645 | 15.52633 | 92° | 80km/h | 9106m | -2.2m/s | -40.0°C | 23.2% | 312.6hPa | 2.6V | 07:56:00 | 00:00:00 | 00:00:00 | |
| DB0DAN | 2026-09-01 18:22:40 | 52.21645 | 15.52567 | 91° | 77km/h | 9110m | -2.1m/s | -40.1°C | 23.2% | 312.44hPa | 2.6V | 00:00:00 | 00:00:00 | 00:00:00 | |
| EDDB2-11 | 2026-09-01 18:22:39 | 52.21645 | 15.52534 | 90° | 80km/h | 9112m | -2.1m/s | -40.1°C | 23.2% | 312.3hPa | 2.5V | 00:00:00 | 00:00:00 | 00:00:00 | |
| 13BRC | 2026-09-01 18:22:38 | 52.21645 | 15.52534 | 91° | 82km/h | 9112m | -2.1m/s | -40.1°C | 23.2% | 312.3hPa | 2.5V | 07:56:00 | 00:00:00 | 00:00:00 | |
| SP3BTT-10 | 2026-09-01 18:22:36 | 52.21646 | 15.52434 | 91° | 80km/h | 9119m | -2.1m/s | -40.1°C | 26.1% | 312.0hPa | 2.5V | 00:00:00 | 00:00:00 | 00:00:00 | |
| KRY50SP-1 | 2026-09-01 18:22:33 | 52.21646 | 15.52367 | 91° | 80km/h | 9123m | -2.2m/s | -40.2°C | 23.2% | 311.8hPa | 2.6V | 07:56:00 | 00:00:00 | 00:00:00 | |
| KRY50SP-1 | 2026-09-01 18:22:27 | 52.21647 | 15.52170 | 92° | 80km/h | 9136m | -2.2m/s | -40.3°C | 23.4% | 311.2hPa | 2.6V | 07:56:00 | 00:00:00 | 00:00:00 | |
| DB0DAN | 2026-09-01 18:22:25 | 52.21648 | 15.52071 | 91° | 77km/h | 9142m | -2.1m/s | -40.4°C | 23.4% | 310.98hPa | 2.6V | 00:00:00 | 00:00:00 | 00:00:00 | |
| SONDE2-12 | 2026-09-01 18:22:17 | 52.21649 | 15.51808 | 90° | 77km/h | 9160m | -2.2m/s | -40.5°C | 23.9% | 310.2hPa | 2.5V | 00:00:00 | 00:00:00 | 00:00:00 | |
| KRY50SP-1 | 2026-09-01 18:22:16 | 52.21649 | 15.51808 | 92° | 78km/h | 9160m | -2.2m/s | -40.5°C | 22.9% | 310.2hPa | 2.5V | 07:56:00 | 00:00:00 | 00:00:00 | |
| EDDB2-12 | 2026-09-01 18:22:13 | 52.21652 | 15.51646 | 91° | 78km/h | 9171m | -2.3m/s | -40.6°C | 22.6% | 309.7hPa | 2.5V | 00:00:00 | 00:00:00 | 00:00:00 | |
| KRY50SP-1 | 2026-09-01 18:22:10 | 52.21652 | 15.51612 | 92° | 80km/h | 9173m | -2.1m/s | -40.6°C | 22.5% | 309.6hPa | 2.5V | 07:56:00 | 00:00:00 | 00:00:00 | |
| EDDB2-11 | 2026-09-01 18:22:08 | 52.21653 | 15.51513 | 90° | 80km/h | 9179m | -2.2m/s | -40.7°C | 22.3% | 309.3hPa | 2.5V | 00:00:00 | 00:00:00 | 00:00:00 | |
| KRY50SP-1 | 2026-09-01 18:22:05 | 52.21653 | 15.51446 | 91° | 80km/h | 9184m | -2.2m/s | -40.7°C | 22.2% | 309.1hPa | 2.5V | 07:56:00 | 00:00:00 | 00:00:00 | |
| SONDE2-12 | 2026-09-01 18:21:46 | 52.21654 | 15.50776 | 89° | 82km/h | 9228m | -2.2m/s | -41.1°C | 21.8% | 307.1hPa | 2.5V | 00:00:00 | 00:00:00 | 00:00:00 | |
| KRY50SP-1 | 2026-09-01 18:21:43 | 52.21654 | 15.50709 | 92° | 82km/h | 9232m | -2.2m/s | -41.1°C | 20.8% | 306.9hPa | 2.5V | 07:56:00 | 00:00:00 | 00:00:00 | |
| EDDB2-12 | 2026-09-01 18:21:42 | 52.21655 | 15.50607 | 91° | 82km/h | 9239m | -2.2m/s | -41.2°C | 20.7% | 306.6hPa | 2.5V | 00:00:00 | 00:00:00 | 00:00:00 | |
| SP6BVK | 2026-09-01 18:21:39 | 52.21656 | 15.50572 | 92° | 84km/h | 9241m | -2.3m/s | -41.2°C | 20.8% | 306.5hPa | 2.5V | 07:56:00 | 00:00:00 | 00:00:00 | |
| 13BRC | 2026-09-01 18:21:38 | 52.21656 | 15.50538 | 92° | 84km/h | 9244m | -2.2m/s | -41.2°C | 20.8% | 306.4hPa | 2.5V | 07:56:00 | 00:00:00 | 00:00:00 | |
| EDDB2-11 | 2026-09-01 18:21:37 | 52.21657 | 15.50469 | 90° | 82km/h | 9248m | -2.2m/s | -41.2°C | 20.9% | 306.2hPa | 2.5V | 00:00:00 | 00:00:00 | 00:00:00 | |
| KRY50SP-1 | 2026-09-01 18:21:32 | 52.21658 | 15.50332 | 91° | 82km/h | 9257m | -2.3m/s | -41.3°C | 21.1% | 305.8hPa | 2.5V | 07:56:00 | 00:00:00 | 00:00:00 | |
| SONDE2-12 | 2026-09-01 18:21:15 | 52.21658 | 15.49726 | 91° | 80km/h | 9298m | -2.4m/s | -41.6°C | 20.6% | 303.9hPa | 2.5V | 00:00:00 | 00:00:00 | 00:00:00 | |
| KRY50SP-1 | 2026-09-01 18:21:10 | 52.21660 | 15.49591 | 93° | 84km/h | 9308m | -2.4m/s | -41.7°C | 19.1% | 303.5hPa | 2.5V | 07:57:00 | 00:00:00 | 00:00:00 | |
| DAC517 | 2026-09-01 18:21:09 | 52.21660 | 15.49557 | 91° | 84km/h | 9310m | -2.5m/s | -41.7°C | 18.9% | 303.3hPa | 2.5V | 00:00:00 | 00:00:00 | 00:00:00 | |
| SP3BTT-10 | 2026-09-01 18:21:06 | 52.21659 | 15.49420 | 88° | 82km/h | 9320m | -2.4m/s | -41.7°C | 21.2% | 302.9hPa | 2.5V | 00:00:00 | 00:00:00 | 00:00:00 | |
| KRY50SP-1 | 2026-09-01 18:21:04 | 52.21658 | 15.49387 | 89° | 80km/h | 9322m | -2.4m/s | -41.8°C | 18.4% | 302.8hPa | 2.5V | 07:57:00 | 00:00:00 | 00:00:00 | |
| SP3WXH-11 | 2026-09-01 18:20:46 | 52.21655 | 15.48759 | 91° | 75km/h | 9370m | -2.7m/s | -42.2°C | 22.4% | 300.7hPa | 2.5V | 00:00:00 | 00:00:00 | 00:00:00 | |
| SONDE2-12 | 2026-09-01 18:20:44 | 52.21658 | 15.48661 | 92° | 84km/h | 9378m | -2.6m/s | -42.2°C | 23.2% | 300.3hPa | 2.5V | 00:00:00 | 00:00:00 | 00:00:00 | |
| DAC517 | 2026-09-01 18:20:43 | 52.21657 | 15.48695 | 95° | 82km/h | 9375m | -2.7m/s | -42.2°C | 22.3% | 300.5hPa | 2.5V | 00:00:00 | 00:00:00 | 00:00:00 | |
| KRY50SP-1 | 2026-09-01 18:20:41 | 52.21659 | 15.48626 | 93° | 86km/h | 9380m | -2.6m/s | -42.2°C | 22.3% | 300.2hPa | 2.5V | 07:57:00 | 00:00:00 | 00:00:00 | |
| EDDB2-12 | 2026-09-01 18:20:40 | 52.21659 | 15.48516 | 87° | 89km/h | 9388m | -2.7m/s | -42.3°C | 22.1% | 299.9hPa | 2.5V | 00:00:00 | 00:00:00 | 00:00:00 | |
| SP6BVK | 2026-09-01 18:20:37 | 52.21657 | 15.48479 | 86° | 91km/h | 9391m | -3.0m/s | -42.3°C | 22.1% | 299.8hPa | 2.5V | 07:57:00 | 00:00:00 | 00:00:00 | |
| 13BRC | 2026-09-01 18:20:36 | 52.21655 | 15.48442 | 84° | 88km/h | 9394m | -3.3m/s | -42.3°C | 22.1% | 299.6hPa | 2.5V | 07:57:00 | 00:00:00 | 00:00:00 | |
| EDDB2-11 | 2026-09-01 18:20:35 | 52.21649 | 15.48375 | 81° | 78km/h | 9401m | -3.3m/s | -42.4°C | 21.9% | 299.3hPa | 2.5V | 00:00:00 | 00:00:00 | 00:00:00 | |
| KRY50SP-1 | 2026-09-01 18:20:30 | 52.21642 | 15.48254 | 93° | 71km/h | 9414m | -3.3m/s | -42.5°C | 21.8% | 298.7hPa | 2.5V | 07:57:00 | 00:00:00 | 00:00:00 | |
| SONDE2-12 | 2026-09-01 18:20:13 | 52.21630 | 15.47582 | 89° | 91km/h | 9481m | -3.3m/s | -43.0°C | 24.1% | 295.7hPa | 2.5V | 00:00:00 | 00:00:00 | 00:00:00 | |
| KRY50SP-1 | 2026-09-01 18:20:08 | 52.21627 | 15.47505 | 86° | 93km/h | 9488m | -3.5m/s | -43.1°C | 23.0% | 295.5hPa | 2.5V | 07:58:00 | 00:00:00 | 00:00:00 | |
| EDDB2-11 | 2026-09-01 18:20:04 | 52.21610 | 15.47325 | 77° | 80km/h | 9506m | -3.5m/s | -43.2°C | 23.2% | 294.6hPa | 2.5V | 00:00:00 | 00:00:00 | 00:00:00 | |
| KRY50SP-1 | 2026-09-01 18:20:03 | 52.21610 | 15.47325 | 79° | 80km/h | 9506m | -3.5m/s | -43.2°C | 23.2% | 294.6hPa | 2.5V | 07:58:00 | 00:00:00 | 00:00:00 | |
| DAC517 | 2026-09-01 18:19:57 | 52.21600 | 15.47143 | 94° | 78km/h | 9527m | -3.5m/s | -43.4°C | 23.7% | 293.8hPa | 2.5V | 00:00:00 | 00:00:00 | 00:00:00 | |
| SP6BVK | 2026-09-01 18:19:56 | 52.21601 | 15.47110 | 95° | 82km/h | 9530m | -3.4m/s | -43.4°C | 23.7% | 293.6hPa | 2.5V | 07:58:00 | 00:00:00 | 00:00:00 | |
| DB0DAN | 2026-09-01 18:19:55 | 52.21604 | 15.47040 | 92° | 86km/h | 9537m | -3.6m/s | -43.5°C | 23.8% | 293.27hPa | 2.5V | 00:00:00 | 00:00:00 | 00:00:00 | |
| SP3WXH-11 | 2026-09-01 18:19:44 | 52.21578 | 15.46656 | 88° | 73km/h | 9577m | -3.4m/s | -43.8°C | 30.0% | 291.6hPa | 2.6V | 00:00:00 | 00:00:00 | 00:00:00 | |
| SONDE2-12 | 2026-09-01 18:19:42 | 52.21579 | 15.46559 | 92° | 84km/h | 9587m | -3.7m/s | -43.8°C | 32.9% | 291.1hPa | 2.6V | 00:00:00 | 00:00:00 | 00:00:00 | |
| DB0DAN | 2026-09-01 18:19:40 | 52.21580 | 15.46524 | 92° | 84km/h | 9591m | -3.5m/s | -43.8°C | 31.8% | 290.94hPa | 2.6V | 00:00:00 | 00:00:00 | 00:00:00 | |
| EDDB2-12 | 2026-09-01 18:19:37 | 52.21579 | 15.46409 | 85° | 95km/h | 9602m | -3.6m/s | -43.9°C | 32.1% | 290.5hPa | 2.6V | 00:00:00 | 00:00:00 | 00:00:00 | |
| SP6BVK | 2026-09-01 18:19:36 | 52.21577 | 15.46371 | 84° | 95km/h | 9605m | -3.6m/s | -44.0°C | 32.1% | 290.4hPa | 2.6V | 07:59:00 | 00:00:00 | 00:00:00 | |
| DAC517 | 2026-09-01 18:19:35 | 52.21577 | 15.46371 | 84° | 95km/h | 9605m | -3.6m/s | -44.0°C | 32.1% | 290.4hPa | 2.6V | 00:00:00 | 00:00:00 | 00:00:00 | |
| KRY50SP-1 | 2026-09-01 18:19:34 | 52.21573 | 15.46332 | 82° | 93km/h | 9609m | -3.6m/s | -44.0°C | 32.1% | 290.2hPa | 2.6V | 07:59:00 | 00:00:00 | 00:00:00 | |
| EDDB2-11 | 2026-09-01 18:19:33 | 52.21561 | 15.46225 | 77° | 82km/h | 9619m | -3.7m/s | -44.1°C | 31.3% | 289.7hPa | 2.6V | 00:00:00 | 00:00:00 | 00:00:00 | |
| KRY50SP-1 | 2026-09-01 18:19:29 | 52.21553 | 15.46160 | 81° | 77km/h | 9627m | -3.7m/s | -44.2°C | 30.8% | 289.4hPa | 2.6V | 07:59:00 | 00:00:00 | 00:00:00 | |
| DB0DAN | 2026-09-01 18:19:25 | 52.21549 | 15.46005 | 93° | 78km/h | 9645m | -3.7m/s | -44.3°C | 30.1% | 288.64hPa | 2.6V | 00:00:00 | 00:00:00 | 00:00:00 | |
| SONDE2-12 | 2026-09-01 18:19:11 | 52.21522 | 15.45451 | 93° | 82km/h | 9703m | -3.5m/s | -44.8°C | 33.3% | 286.1hPa | 2.5V | 00:00:00 | 00:00:00 | 00:00:00 | |
| DB0DAN | 2026-09-01 18:19:10 | 52.21521 | 15.45484 | 93° | 75km/h | 9699m | -3.6m/s | -44.8°C | 31.6% | 286.29hPa | 2.5V | 00:00:00 | 00:00:00 | 00:00:00 | |
| KRY50SP-1 | 2026-09-01 18:19:07 | 52.21523 | 15.45416 | 93° | 88km/h | 9707m | -3.7m/s | -44.8°C | 32.1% | 285.9hPa | 2.5V | 07:59:00 | 00:00:00 | 00:00:00 | |
| EDDB2-12 | 2026-09-01 18:19:06 | 52.21523 | 15.45340 | 88° | 93km/h | 9714m | -3.5m/s | -44.9°C | 32.4% | 285.6hPa | 2.5V | 00:00:00 | 00:00:00 | 00:00:00 | |
| KRY50SP-1 | 2026-09-01 18:19:01 | 52.21512 | 15.45186 | 80° | 91km/h | 9728m | -3.9m/s | -45.0°C | 32.9% | 285.1hPa | 2.5V | 07:59:00 | 00:00:00 | 00:00:00 | |
| DB0DAN | 2026-09-01 18:18:55 | 52.21488 | 15.44960 | 88° | 69km/h | 9755m | -3.8m/s | -45.2°C | 33.7% | 283.87hPa | 2.5V | 00:00:00 | 00:00:00 | 00:00:00 | |
| SP6BVK | 2026-09-01 18:18:54 | 52.21488 | 15.44960 | 89° | 73km/h | 9755m | -3.8m/s | -45.2°C | 33.7% | 283.9hPa | 2.6V | 07:59:00 | 00:00:00 | 00:00:00 | |
| 13BRC | 2026-09-01 18:18:53 | 52.21488 | 15.44930 | 92° | 75km/h | 9759m | -3.9m/s | -45.3°C | 33.9% | 283.7hPa | 2.6V | 07:59:00 | 00:00:00 | 00:00:00 | |
| SP3BTT-10 | 2026-09-01 18:18:51 | 52.21491 | 15.44831 | 93° | 86km/h | 9770m | -3.7m/s | -45.3°C | 38.8% | 283.2hPa | 2.6V | 07:59:00 | 00:00:00 | 00:00:00 | |
| KRY50SP-1 | 2026-09-01 18:18:50 | 52.21491 | 15.44831 | 94° | 86km/h | 9770m | -3.8m/s | -45.4°C | 34.4% | 283.2hPa | 2.6V | 07:59:00 | 00:00:00 | 00:00:00 | |
| KRY50SP-1 | 2026-09-01 18:18:44 | 52.21480 | 15.44606 | 79° | 89km/h | 9793m | -3.8m/s | -45.6°C | 35.1% | 282.3hPa | 2.6V | 08:00:00 | 00:00:00 | 00:00:00 | |
| SP3WXH-11 | 2026-09-01 18:18:42 | 52.21466 | 15.44505 | 77° | 77km/h | 9804m | -3.7m/s | -45.7°C | 35.8% | 281.9hPa | 2.6V | 00:00:00 | 00:00:00 | 00:00:00 | |
| DB0DAN | 2026-09-01 18:18:40 | 52.21459 | 15.44445 | 81° | 69km/h | 9811m | -3.8m/s | -45.7°C | 36.3% | 281.57hPa | 2.6V | 00:00:00 | 00:00:00 | 00:00:00 | |
| SONDE2-12 | 2026-09-01 18:18:40 | 52.21457 | 15.44416 | 84° | 69km/h | 9815m | -3.8m/s | -45.8°C | 38.4% | 281.3hPa | 2.6V | 00:00:00 | 00:00:00 | 00:00:00 | |
| DL2RXE-15 | 2026-09-01 18:18:39 | 52.21459 | 15.44445 | 82° | 73km/h | 9812m | -3.8m/s | -45.7°C | 36.4% | 281.6hPa | 2.6V | 00:00:00 | 00:00:00 | 00:00:00 | |
| KRY50SP-1 | 2026-09-01 18:18:38 | 52.21457 | 15.44416 | 86° | 71km/h | 9815m | -3.8m/s | -45.8°C | 36.6% | 281.3hPa | 2.6V | 08:00:00 | 00:00:00 | 00:00:00 | |
| EDDB2-12 | 2026-09-01 18:18:35 | 52.21457 | 15.44291 | 92° | 82km/h | 9830m | -3.7m/s | -45.9°C | 38.7% | 280.7hPa | 2.6V | 00:00:00 | 00:00:00 | 00:00:00 | |
| SP6BVK | 2026-09-01 18:18:34 | 52.21457 | 15.44291 | 94° | 82km/h | 9830m | -3.7m/s | -45.9°C | 38.7% | 280.7hPa | 2.6V | 08:00:00 | 00:00:00 | 00:00:00 | |
| 13BRC | 2026-09-01 18:18:33 | 52.21458 | 15.44220 | 90° | 89km/h | 9837m | -3.8m/s | -46.0°C | 39.4% | 280.4hPa | 2.6V | 08:00:00 | 00:00:00 | 00:00:00 | |
| EDDB2-11 | 2026-09-01 18:18:31 | 52.21452 | 15.44107 | 81° | 91km/h | 9848m | -3.7m/s | -46.0°C | 39.0% | 280.0hPa | 2.6V | 00:00:00 | 00:00:00 | 00:00:00 | |
| OE3JTB-15 | 2026-09-01 18:18:30 | 52.21452 | 15.44107 | 82° | 86km/h | 9848m | -3.6m/s | -46.0°C | 43.8% | 279.9hPa | 2.6V | 00:00:00 | 00:00:00 | 00:00:00 | |
| KRY50SP-1 | 2026-09-01 18:18:27 | 52.21444 | 15.44034 | 79° | 88km/h | 9856m | -3.8m/s | -46.1°C | 39.0% | 279.6hPa | 2.6V | 08:00:00 | 00:00:00 | 00:00:00 | |
| DB0DAN | 2026-09-01 18:18:25 | 52.21429 | 15.43934 | 76° | 73km/h | 9867m | -3.8m/s | -46.2°C | 39.2% | 279.12hPa | 2.6V | 00:00:00 | 00:00:00 | 00:00:00 | |
| KRY50SP-1 | 2026-09-01 18:18:22 | 52.21421 | 15.43874 | 82° | 71km/h | 9875m | -3.8m/s | -46.2°C | 39.5% | 278.8hPa | 2.5V | 08:00:00 | 00:00:00 | 00:00:00 | |
| DL2RXE-15 | 2026-09-01 18:18:18 | 52.21418 | 15.43754 | 93° | 78km/h | 9890m | -3.7m/s | -46.4°C | 38.9% | 278.2hPa | 2.5V | 00:00:00 | 00:00:00 | 00:00:00 | |
| KRY50SP-1 | 2026-09-01 18:18:16 | 52.21419 | 15.43686 | 93° | 86km/h | 9897m | -3.9m/s | -46.4°C | 38.0% | 277.9hPa | 2.5V | 08:00:00 | 00:00:00 | 00:00:00 | |
| SP6BVK | 2026-09-01 18:18:13 | 52.21419 | 15.43574 | 89° | 93km/h | 9910m | -4.2m/s | -46.5°C | 37.4% | 277.4hPa | 2.5V | 08:00:00 | 00:00:00 | 00:00:00 | |
| 13BRC | 2026-09-01 18:18:11 | 52.21416 | 15.43497 | 85° | 95km/h | 9918m | -4.0m/s | -46.6°C | 37.4% | 277.1hPa | 2.5V | 08:00:00 | 00:00:00 | 00:00:00 | |
| DB0DAN | 2026-09-01 18:18:10 | 52.21409 | 15.43421 | 79° | 86km/h | 9926m | -3.9m/s | -46.6°C | 37% | 276.71hPa | 2.5V | 00:00:00 | 00:00:00 | 00:00:00 | |
| SONDE2-12 | 2026-09-01 18:18:09 | 52.21399 | 15.43352 | 77° | 80km/h | 9933m | -3.7m/s | -46.7°C | 38.6% | 276.4hPa | 2.5V | 00:00:00 | 00:00:00 | 00:00:00 | |
| SP3BTT-10 | 2026-09-01 18:18:07 | 52.21395 | 15.43320 | 79° | 88km/h | 9937m | -3.8m/s | -46.7°C | 41.0% | 276.2hPa | 2.5V | 00:00:00 | 00:00:00 | 00:00:00 | |
| KRY50SP-1 | 2026-09-01 18:18:05 | 52.21391 | 15.43289 | 82° | 75km/h | 9941m | -3.6m/s | -46.8°C | 35.8% | 276.1hPa | 2.5V | 08:00:00 | 00:00:00 | 00:00:00 | |
| EDDB2-12 | 2026-09-01 18:18:04 | 52.21388 | 15.43229 | 87° | 73km/h | 9948m | -3.8m/s | -46.8°C | 35.0% | 275.8hPa | 2.5V | 00:00:00 | 00:00:00 | 00:00:00 | |
| EDDB2-11 | 2026-09-01 18:18:00 | 52.21389 | 15.43060 | 90° | 91km/h | 9967m | -3.8m/s | -46.9°C | 32.8% | 275.0hPa | 2.5V | 00:00:00 | 00:00:00 | 00:00:00 | |
| KRY50SP-1 | 2026-09-01 18:17:59 | 52.21389 | 15.43097 | 93° | 88km/h | 9963m | -3.8m/s | -46.9°C | 33.0% | 275.1hPa | 2.5V | 08:00:00 | 00:00:00 | 00:00:00 | |
| DL2RXE-15 | 2026-09-01 18:17:56 | 52.21388 | 15.42982 | 88° | 97km/h | 9975m | -3.9m/s | -47.0°C | 32.6% | 274.7hPa | 2.5V | 00:00:00 | 00:00:00 | 00:00:00 | |
| DB0DAN | 2026-09-01 18:17:55 | 52.21384 | 15.42903 | 82° | 91km/h | 9983m | -4m/s | -47°C | 32.4% | 274.3hPa | 2.5V | 00:00:00 | 00:00:00 | 00:00:00 | |
| SP6BVK | 2026-09-01 18:17:53 | 52.21380 | 15.42864 | 81° | 95km/h | 9987m | -3.9m/s | -47.0°C | 32.6% | 274.2hPa | 2.6V | 08:01:00 | 00:00:00 | 00:00:00 | |
| 13BRC | 2026-09-01 18:17:51 | 52.21371 | 15.42790 | 78° | 89km/h | 9995m | -4.3m/s | -47.1°C | 32.7% | 273.9hPa | 2.6V | 08:01:00 | 00:00:00 | 00:00:00 | |
| KRY50SP-1 | 2026-09-01 18:17:47 | 52.21354 | 15.42658 | 83° | 77km/h | 10011m | -4.0m/s | -47.3°C | 32.7% | 273.2hPa | 2.6V | 08:01:00 | 00:00:00 | 00:00:00 | |
| DAC517 | 2026-09-01 18:17:46 | 52.21351 | 15.42627 | 87° | 77km/h | 10015m | -3.7m/s | -47.3°C | 32.8% | 273.0hPa | 2.6V | 00:00:00 | 00:00:00 | 00:00:00 | |
| KRY50SP-1 | 2026-09-01 18:17:42 | 52.21351 | 15.42488 | 91° | 91km/h | 10029m | -3.7m/s | -47.4°C | 33.1% | 272.4hPa | 2.6V | 08:01:00 | 00:00:00 | 00:00:00 | |
| DB0DAN | 2026-09-01 18:17:40 | 52.21349 | 15.42371 | 86° | 93km/h | 10041m | -4m/s | -47.5°C | 32.8% | 271.96hPa | 2.6V | 00:00:00 | 00:00:00 | 00:00:00 | |
| SONDE2-12 | 2026-09-01 18:17:38 | 52.21335 | 15.42212 | 78° | 95km/h | 10057m | -3.8m/s | -47.7°C | 33.7% | 271.3hPa | 2.5V | 00:00:00 | 00:00:00 | 00:00:00 | |
| KRY50SP-1 | 2026-09-01 18:17:36 | 52.21340 | 15.42251 | 81° | 97km/h | 10053m | -4.0m/s | -47.6°C | 32.3% | 271.4hPa | 2.5V | 08:01:00 | 00:00:00 | 00:00:00 | |
| EDDB2-12 | 2026-09-01 18:17:33 | 52.21319 | 15.42102 | 75° | 86km/h | 10068m | -3.9m/s | -47.8°C | 31.5% | 270.8hPa | 2.5V | 00:00:00 | 00:00:00 | 00:00:00 | |
| OE3JTB-15 | 2026-09-01 18:17:32 | 52.21313 | 15.42068 | 77° | 86km/h | 10072m | -4.1m/s | -47.8°C | 36.0% | 270.6hPa | 2.5V | 00:00:00 | 02:07:55 | 00:00:00 | |
| KRY50SP-1 | 2026-09-01 18:17:31 | 52.21313 | 15.42068 | 77° | 84km/h | 10072m | -4.2m/s | -47.8°C | 31.4% | 270.6hPa | 2.5V | 08:01:00 | 00:00:00 | 00:00:00 | |
| DL2RXE-15 | 2026-09-01 18:17:30 | 52.21309 | 15.42035 | 78° | 80km/h | 10077m | -4.1m/s | -47.8°C | 31.3% | 270.5hPa | 2.5V | 00:00:00 | 00:00:00 | 00:00:00 | |
| EDDB2-11 | 2026-09-01 18:17:29 | 52.21300 | 15.41940 | 86° | 77km/h | 10088m | -3.8m/s | -47.9°C | 30.4% | 270.0hPa | 2.5V | 00:00:00 | 00:00:00 | 00:00:00 | |
| KRY50SP-1 | 2026-09-01 18:17:26 | 52.21299 | 15.41908 | 90° | 80km/h | 10092m | -3.9m/s | -48.0°C | 29.7% | 269.9hPa | 2.5V | 08:01:00 | 00:00:00 | 00:00:00 | |
| DB0DAN | 2026-09-01 18:17:25 | 52.21299 | 15.41839 | 90° | 84km/h | 10100m | -3.9m/s | -48°C | 29% | 269.54hPa | 2.5V | 00:00:00 | 00:00:00 | 00:00:00 | |
| SP3BTT-10 | 2026-09-01 18:17:21 | 52.21293 | 15.41684 | 83° | 89km/h | 10115m | -3.7m/s | -47.9°C | 32.3% | 268.8hPa | 2.5V | 00:00:00 | 00:00:00 | 00:00:00 | |
| KRY50SP-1 | 2026-09-01 18:17:20 | 52.21293 | 15.41684 | 83° | 99km/h | 10115m | -3.7m/s | -48.0°C | 27.9% | 268.9hPa | 2.5V | 08:01:00 | 00:00:00 | 00:00:00 | |
| KRY50SP-1 | 2026-09-01 18:17:15 | 52.21268 | 15.41495 | 76° | 88km/h | 10134m | -3.9m/s | -48.1°C | 28.2% | 268.1hPa | 2.5V | 08:01:00 | 00:00:00 | 00:00:00 | |
| SP6BVK | 2026-09-01 18:17:11 | 52.21247 | 15.41362 | 79° | 78km/h | 10151m | -4.0m/s | -48.2°C | 28.5% | 267.5hPa | 2.5V | 08:01:00 | 00:00:00 | 00:00:00 | |
| DB0DAN | 2026-09-01 18:17:10 | 52.21240 | 15.41299 | 81° | 73km/h | 10159m | -4m/s | -48.3°C | 28.4% | 267.14hPa | 2.5V | 00:00:00 | 00:00:00 | 00:00:00 | |
| SONDE2-12 | 2026-09-01 18:17:06 | 52.21232 | 15.41169 | 87° | 82km/h | 10175m | -4.1m/s | -48.4°C | 29.9% | 266.5hPa | 2.5V | 00:00:00 | 00:00:00 | 00:00:00 | |
| KRY50SP-1 | 2026-09-01 18:17:04 | 52.21231 | 15.41134 | 89° | 86km/h | 10179m | -4.0m/s | -48.4°C | 28.4% | 266.3hPa | 2.5V | 08:02:00 | 00:00:00 | 00:00:00 | |
| OE3JTB-15 | 2026-09-01 18:17:03 | 52.21230 | 15.41062 | 88° | 89km/h | 10187m | -4.0m/s | -48.5°C | 32.9% | 265.9hPa | 2.5V | 00:00:00 | 00:00:00 | 00:00:00 | |
| EDDB2-12 | 2026-09-01 18:17:02 | 52.21228 | 15.41024 | 86° | 93km/h | 10191m | -3.9m/s | -48.6°C | 28.5% | 265.9hPa | 2.5V | 00:00:00 | 00:00:00 | 00:00:00 | |
| EDDB2-11 | 2026-09-01 18:16:58 | 52.21214 | 15.40826 | 79° | 97km/h | 10211m | -4.1m/s | -48.7°C | 29.1% | 265.0hPa | 2.5V | 00:00:00 | 00:00:00 | 00:00:00 | |
| DAC517 | 2026-09-01 18:16:57 | 52.21218 | 15.40866 | 82° | 99km/h | 10207m | -4.2m/s | -48.7°C | 29.1% | 265.2hPa | 2.5V | 00:00:00 | 00:00:00 | 00:00:00 | |
| DB0DAN | 2026-09-01 18:16:55 | 52.21204 | 15.40747 | 77° | 93km/h | 10219m | -4m/s | -48.8°C | 29.3% | 264.74hPa | 2.5V | 00:00:00 | 00:00:00 | 00:00:00 | |
| AA1-15 | 2026-09-01 18:16:53 | 52.21192 | 15.40671 | 75° | 93km/h | 10227m | -4m/s | -48.8°C | 36.8% | 264.4hPa | 2.5V | 08:02:03 | 02:07:16 | 00:00:00 | |
| SP6BVK | 2026-09-01 18:16:50 | 52.21180 | 15.40599 | 75° | 88km/h | 10235m | -4.1m/s | -48.9°C | 30.0% | 264.0hPa | 2.6V | 08:02:00 | 00:00:00 | 00:00:00 | |
| 13BRC | 2026-09-01 18:16:49 | 52.21173 | 15.40565 | 75° | 86km/h | 10239m | -4.1m/s | -49.0°C | 30.1% | 263.9hPa | 2.6V | 08:02:00 | 00:00:00 | 00:00:00 | |
| KRY50SP-1 | 2026-09-01 18:16:42 | 52.21147 | 15.40341 | 87° | 80km/h | 10267m | -4.1m/s | -49.2°C | 31.6% | 262.7hPa | 2.6V | 08:02:00 | 00:00:00 | 00:00:00 | |
| DB0DAN | 2026-09-01 18:16:40 | 52.21144 | 15.40238 | 88° | 84km/h | 10279m | -4m/s | -49.3°C | 32% | 262.26hPa | 2.6V | 00:00:00 | 00:00:00 | 00:00:00 | |
| SONDE2-12 | 2026-09-01 18:16:35 | 52.21136 | 15.40045 | 82° | 99km/h | 10300m | -4.1m/s | -49.5°C | 33.7% | 261.4hPa | 2.6V | 00:00:00 | 00:00:00 | 00:00:00 | |
| AA1-15 | 2026-09-01 18:16:34 | 52.21133 | 15.40005 | 81° | 99km/h | 10304m | -4.2m/s | -49.5°C | 39.4% | 261.3hPa | 2.6V | 08:02:03 | 02:06:57 | 00:00:00 | |
| KRY50SP-1 | 2026-09-01 18:16:32 | 52.21128 | 15.39965 | 80° | 99km/h | 10308m | -4.0m/s | -49.6°C | 32.1% | 261.1hPa | 2.5V | 08:02:00 | 00:00:00 | 00:00:00 | |
| 13BRC | 2026-09-01 18:16:29 | 52.21111 | 15.39851 | 75° | 89km/h | 10320m | -3.8m/s | -49.7°C | 32.0% | 260.6hPa | 2.5V | 08:02:00 | 00:00:00 | 00:00:00 | |
| KRY50SP-1 | 2026-09-01 18:16:27 | 52.21099 | 15.39782 | 75° | 84km/h | 10328m | -4.1m/s | -49.8°C | 32.4% | 260.3hPa | 2.5V | 08:02:00 | 00:00:00 | 00:00:00 | |
| DB0DAN | 2026-09-01 18:16:25 | 52.21084 | 15.39687 | 78° | 73km/h | 10340m | -4m/s | -49.9°C | 32.4% | 259.84hPa | 2.5V | 00:00:00 | 00:00:00 | 00:00:00 | |
| AA1-15 | 2026-09-01 18:16:17 | 52.21071 | 15.39426 | 89° | 89km/h | 10372m | -4m/s | -50.1°C | 42% | 258.5hPa | 2.6V | 08:02:03 | 02:06:40 | 00:00:00 | |
| KRY50SP-1 | 2026-09-01 18:16:17 | 52.21071 | 15.39425 | 90° | 89km/h | 10372m | -4.0m/s | -50.1°C | 34.5% | 258.5hPa | 2.5V | 08:02:00 | 00:00:00 | 00:00:00 | |
| DL2RXE-15 | 2026-09-01 18:16:14 | 52.21069 | 15.39349 | 87° | 95km/h | 10380m | -4.0m/s | -50.2°C | 35.4% | 258.2hPa | 2.5V | 08:02:00 | 00:00:00 | 00:00:00 | |
| DAC517 | 2026-09-01 18:16:12 | 52.21064 | 15.39270 | 82° | 97km/h | 10388m | -4.0m/s | -50.3°C | 36.0% | 257.9hPa | 2.5V | 08:02:00 | 00:00:00 | 00:00:00 | |
| KRY50SP-1 | 2026-09-01 18:16:11 | 52.21059 | 15.39232 | 80° | 95km/h | 10392m | -4.0m/s | -50.4°C | 36.5% | 257.7hPa | 2.5V | 08:02:00 | 00:00:00 | 00:00:00 | |
| DB0DAN | 2026-09-01 18:16:10 | 52.21048 | 15.39158 | 74° | 86km/h | 10400m | -3.6m/s | -50.4°C | 37% | 257.45hPa | 2.5V | 00:00:00 | 00:00:00 | 00:00:00 | |
| AA1-15 | 2026-09-01 18:16:07 | 52.21030 | 15.39057 | 74° | 80km/h | 10412m | -4.2m/s | -50.5°C | 45.8% | 257.1hPa | 2.5V | 08:05:27 | 02:06:30 | 00:00:00 | |
| SONDE2-12 | 2026-09-01 18:16:04 | 52.21016 | 15.38966 | 77° | 73km/h | 10424m | -4.2m/s | -50.6°C | 40.2% | 256.5hPa | 2.5V | 00:00:00 | 00:00:00 | 00:00:00 | |
| AA1-15 | 2026-09-01 18:15:53 | 52.20993 | 15.38591 | 79° | 95km/h | 10469m | -4.1m/s | -51°C | 48.3% | 254.8hPa | 2.5V | 08:05:27 | 02:06:16 | 00:00:00 | |
| DAC517 | 2026-09-01 18:15:52 | 52.20988 | 15.38553 | 78° | 95km/h | 10473m | -4.0m/s | -51.0°C | 40.4% | 254.6hPa | 2.5V | 08:02:00 | 00:00:00 | 00:00:00 | |
| SONDE2-12 | 2026-09-01 18:15:33 | 52.20912 | 15.37916 | 76° | 93km/h | 10550m | -4.0m/s | -51.5°C | 43.1% | 251.6hPa | 2.5V | 00:00:00 | 00:00:00 | 00:00:00 | |
| KRY50SP-1 | 2026-09-01 18:15:32 | 52.20911 | 15.37916 | 77° | 95km/h | 10550m | -4.0m/s | -51.5°C | 40.7% | 251.6hPa | 2.5V | 08:02:00 | 00:00:00 | 00:00:00 | |
| DAC517 | 2026-09-01 18:15:30 | 52.20899 | 15.37842 | 74° | 91km/h | 10558m | -4.3m/s | -51.6°C | 40.8% | 251.3hPa | 2.5V | 08:02:00 | 00:00:00 | 00:00:00 | |
| EDDB2-12 | 2026-09-01 18:15:29 | 52.20884 | 15.37773 | 70° | 84km/h | 10566m | -4.1m/s | -51.6°C | 40.8% | 251.0hPa | 2.5V | 00:00:00 | 00:00:00 | 00:00:00 | |
| 13BRC | 2026-09-01 18:15:27 | 52.20877 | 15.37740 | 71° | 82km/h | 10570m | -4.1m/s | -51.7°C | 40.8% | 250.8hPa | 2.5V | 08:02:00 | 00:00:00 | 00:00:00 | |
| KRY50SP-1 | 2026-09-01 18:15:26 | 52.20870 | 15.37710 | 71° | 78km/h | 10574m | -4.0m/s | -51.7°C | 41.0% | 250.7hPa | 2.5V | 08:02:00 | 00:00:00 | 00:00:00 | |
| DB0DAN | 2026-09-01 18:15:25 | 52.20859 | 15.37651 | 75° | 69km/h | 10582m | -4.1m/s | -51.8°C | 41.2% | 250.39hPa | 2.5V | 00:00:00 | 00:00:00 | 00:00:00 | |
| AA1-15 | 2026-09-01 18:15:17 | 52.20840 | 15.37392 | 83° | 93km/h | 10614m | -4.1m/s | -52°C | 47.5% | 249.2hPa | 2.5V | 08:05:27 | 02:05:40 | 00:00:00 | |
| KRY50SP-1 | 2026-09-01 18:15:15 | 52.20836 | 15.37353 | 82° | 95km/h | 10618m | -4.0m/s | -52.0°C | 39.4% | 249.0hPa | 2.5V | 08:03:00 | 00:00:00 | 00:00:00 | |
| DL2RXE-15 | 2026-09-01 18:15:14 | 52.20832 | 15.37315 | 80° | 95km/h | 10622m | -3.9m/s | -52.0°C | 39.4% | 248.8hPa | 2.5V | 08:03:00 | 00:00:00 | 00:00:00 | |
| KRY50SP-1 | 2026-09-01 18:15:11 | 52.20807 | 15.37165 | 72° | 91km/h | 10638m | -4.3m/s | -52.2°C | 40.0% | 248.2hPa | 2.5V | 08:03:00 | 00:00:00 | 00:00:00 | |
| DAC517 | 2026-09-01 18:15:10 | 52.20807 | 15.37165 | 72° | 91km/h | 10638m | -4.3m/s | -52.2°C | 40.0% | 248.2hPa | 2.5V | 08:03:00 | 00:00:00 | 00:00:00 | |
| DB0DAN | 2026-09-01 18:15:10 | 52.20800 | 15.37131 | 69° | 84km/h | 10642m | -4.1m/s | -52.2°C | 40.1% | 248.08hPa | 2.6V | 00:00:00 | 00:00:00 | 00:00:00 | |
| SP6BVK | 2026-09-01 18:15:09 | 52.20799 | 15.37131 | 70° | 88km/h | 10643m | -4.1m/s | -52.2°C | 40.1% | 248.1hPa | 2.5V | 08:03:00 | 00:00:00 | 00:00:00 | |
| SP3BTT-10 | 2026-09-01 18:15:08 | 52.20777 | 15.37036 | 70° | 82km/h | 10655m | -3.9m/s | -52.2°C | 47.2% | 247.6hPa | 2.5V | 00:00:00 | 00:00:00 | 00:00:00 | |
| OE3JTB-15 | 2026-09-01 18:15:07 | 52.20777 | 15.37036 | 70° | 84km/h | 10655m | -3.9m/s | -52.2°C | 47.2% | 247.6hPa | 2.5V | 00:00:00 | 00:00:00 | 00:00:00 | |
| KRY50SP-1 | 2026-09-01 18:15:04 | 52.20766 | 15.36977 | 76° | 73km/h | 10663m | -4.1m/s | -52.4°C | 41.7% | 247.4hPa | 2.5V | 08:03:00 | 00:00:00 | 00:00:00 | |
| EDDB2-12 | 2026-09-01 18:14:58 | 52.20747 | 15.36750 | 83° | 91km/h | 10690m | -3.8m/s | -52.6°C | 42.8% | 246.2hPa | 2.5V | 00:00:00 | 00:00:00 | 00:00:00 | |
| DB0DAN | 2026-09-01 18:14:55 | 52.20735 | 15.36634 | 77° | 93km/h | 10702m | -4.1m/s | -52.7°C | 42.6% | 245.77hPa | 2.5V | 00:00:00 | 00:00:00 | 00:00:00 | |
| EDDB2-11 | 2026-09-01 18:14:54 | 52.20722 | 15.36557 | 73° | 95km/h | 10710m | -4.2m/s | -52.8°C | 42.9% | 245.6hPa | 2.5V | 00:00:00 | 00:00:00 | 00:00:00 | |
| KRY50SP-1 | 2026-09-01 18:14:53 | 52.20729 | 15.36595 | 76° | 97km/h | 10706m | -4.2m/s | -52.7°C | 42.7% | 245.7hPa | 2.5V | 08:03:00 | 00:00:00 | 00:00:00 | |
| DAC517 | 2026-09-01 18:14:49 | 52.20699 | 15.36449 | 70° | 88km/h | 10723m | -3.9m/s | -52.9°C | 43.3% | 245.1hPa | 2.5V | 08:03:00 | 00:00:00 | 00:00:00 | |
| KRY50SP-1 | 2026-09-01 18:14:48 | 52.20691 | 15.36417 | 70° | 84km/h | 10727m | -3.9m/s | -52.9°C | 43.5% | 244.9hPa | 2.5V | 08:03:00 | 00:00:00 | 00:00:00 | |
| 13BRC | 2026-09-01 18:14:47 | 52.20677 | 15.36356 | 73° | 75km/h | 10735m | -4.0m/s | -53.0°C | 43.6% | 244.6hPa | 2.5V | 08:03:00 | 00:00:00 | 00:00:00 | |
| KRY50SP-1 | 2026-09-01 18:14:43 | 52.20664 | 15.36267 | 82° | 75km/h | 10746m | -3.8m/s | -53.0°C | 43.0% | 244.1hPa | 2.5V | 08:03:00 | 00:00:00 | 00:00:00 | |
| DB0DAN | 2026-09-01 18:14:40 | 52.20655 | 15.36137 | 85° | 82km/h | 10762m | -4.2m/s | -53.1°C | 42.9% | 243.52hPa | 2.5V | 00:00:00 | 00:00:00 | 00:00:00 | |
| AA1-15 | 2026-09-01 18:14:40 | 52.20655 | 15.36137 | 85° | 86km/h | 10762m | -4.2m/s | -53.1°C | 51.6% | 243.5hPa | 2.5V | 08:05:27 | 02:05:03 | 00:00:00 | |
| SONDE2-12 | 2026-09-01 18:14:31 | 52.20610 | 15.35800 | 69° | 86km/h | 10797m | -3.8m/s | -53.5°C | 49.3% | 242.2hPa | 2.6V | 00:00:00 | 00:00:00 | 00:00:00 | |
| DAC517 | 2026-09-01 18:14:29 | 52.20603 | 15.35767 | 71° | 82km/h | 10801m | -3.9m/s | -53.5°C | 46.9% | 242.0hPa | 2.6V | 00:00:00 | 00:00:00 | 00:00:00 | |
| SP6BVK | 2026-09-01 18:14:28 | 52.20596 | 15.35736 | 72° | 78km/h | 10805m | -3.9m/s | -53.5°C | 47.1% | 241.9hPa | 2.6V | 08:04:00 | 00:00:00 | 00:00:00 | |
| EDDB2-12 | 2026-09-01 18:14:27 | 52.20584 | 15.35676 | 75° | 73km/h | 10813m | -4.0m/s | -53.6°C | 47.2% | 241.6hPa | 2.6V | 00:00:00 | 00:00:00 | 00:00:00 | |
| DL2RXE-15 | 2026-09-01 18:14:26 | 52.20584 | 15.35676 | 76° | 73km/h | 10813m | -4.0m/s | -53.6°C | 47.2% | 241.6hPa | 2.6V | 08:04:00 | 00:00:00 | 00:00:00 | |
| DB0DAN | 2026-09-01 18:14:25 | 52.20577 | 15.35617 | 81° | 69km/h | 10821m | -4m/s | -53.7°C | 47.5% | 241.36hPa | 2.6V | 00:00:00 | 00:00:00 | 00:00:00 | |
| EDDB2-11 | 2026-09-01 18:14:23 | 52.20571 | 15.35523 | 86° | 80km/h | 10833m | -4.0m/s | -53.7°C | 47.7% | 240.9hPa | 2.5V | 00:00:00 | 00:00:00 | 00:00:00 | |
| SP3BTT-10 | 2026-09-01 18:14:21 | 52.20569 | 15.35488 | 87° | 86km/h | 10837m | -4.0m/s | -53.7°C | 54.9% | 240.7hPa | 2.5V | 00:00:00 | 00:00:00 | 00:00:00 | |
| KRY50SP-1 | 2026-09-01 18:14:16 | 52.20561 | 15.35339 | 83° | 97km/h | 10853m | -4.1m/s | -53.9°C | 49.2% | 240.1hPa | 2.5V | 08:04:00 | 00:00:00 | 00:00:00 | |
| KRY50SP-1 | 2026-09-01 18:14:11 | 52.20532 | 15.35150 | 73° | 88km/h | 10873m | -4.0m/s | -54.2°C | 50.1% | 239.4hPa | 2.5V | 08:04:00 | 00:00:00 | 00:00:00 | |
| DB0DAN | 2026-09-01 18:14:10 | 52.20519 | 15.35085 | 71° | 75km/h | 10880m | -3.8m/s | -54.2°C | 50.2% | 239.07hPa | 2.5V | 00:00:00 | 00:00:00 | 00:00:00 | |
| SONDE2-12 | 2026-09-01 18:14:00 | 52.20489 | 15.34770 | 84° | 91km/h | 10920m | -3.9m/s | -54.6°C | 55.2% | 237.6hPa | 2.5V | 00:00:00 | 00:00:00 | 00:00:00 | |
| EDDB2-12 | 2026-09-01 18:13:56 | 52.20472 | 15.34615 | 75° | 95km/h | 10936m | -3.9m/s | -54.7°C | 51.6% | 237.1hPa | 2.5V | 00:00:00 | 00:00:00 | 00:00:00 | |
| DB0DAN | 2026-09-01 18:13:55 | 52.20466 | 15.34578 | 74° | 89km/h | 10940m | -4.1m/s | -54.7°C | 51.6% | 236.89hPa | 2.5V | 00:00:00 | 00:00:00 | 00:00:00 | |
| EDDB2-11 | 2026-09-01 18:13:52 | 52.20438 | 15.34440 | 69° | 80km/h | 10956m | -3.9m/s | -54.8°C | 50.9% | 236.3hPa | 2.6V | 00:00:00 | 00:00:00 | 00:00:00 | |
| KRY50SP-1 | 2026-09-01 18:13:51 | 52.20445 | 15.34473 | 71° | 84km/h | 10952m | -3.9m/s | -54.8°C | 50.8% | 236.4hPa | 2.6V | 08:04:00 | 00:00:00 | 00:00:00 | |
| DAC517 | 2026-09-01 18:13:47 | 52.20420 | 15.34351 | 76° | 71km/h | 10968m | -4.1m/s | -54.9°C | 50.5% | 235.8hPa | 2.6V | 00:00:00 | 00:00:00 | 00:00:00 | |
| SP6BVK | 2026-09-01 18:13:46 | 52.20416 | 15.34323 | 79° | 71km/h | 10972m | -4.0m/s | -55.0°C | 50.4% | 235.7hPa | 2.6V | 08:04:00 | 00:00:00 | 00:00:00 | |
| KRY50SP-1 | 2026-09-01 18:13:45 | 52.20412 | 15.34294 | 82° | 71km/h | 10976m | -4.0m/s | -55.0°C | 50.3% | 235.5hPa | 2.6V | 08:04:00 | 00:00:00 | 00:00:00 | |
| 13BRC | 2026-09-01 18:13:43 | 52.20408 | 15.34234 | 87° | 77km/h | 10984m | -3.9m/s | -55.1°C | 50.2% | 235.2hPa | 2.6V | 08:04:00 | 00:00:00 | 00:00:00 | |
| DB0DAN | 2026-09-01 18:13:40 | 52.20403 | 15.34096 | 85° | 88km/h | 10999m | -4m/s | -55.1°C | 50% | 234.7hPa | 2.6V | 00:00:00 | 00:00:00 | 00:00:00 | |
| SONDE2-12 | 2026-09-01 18:13:29 | 52.20345 | 15.33717 | 78° | 69km/h | 11042m | -3.9m/s | -55.5°C | 55.5% | 233.1hPa | 2.6V | 00:00:00 | 00:00:00 | 00:00:00 | |
| KRY50SP-1 | 2026-09-01 18:13:28 | 52.20345 | 15.33717 | 79° | 71km/h | 11042m | -3.9m/s | -55.5°C | 52.2% | 233.1hPa | 2.6V | 08:05:00 | 00:00:00 | 00:00:00 | |
| DB0DAN | 2026-09-01 18:13:25 | 52.20337 | 15.33599 | 87° | 73km/h | 11058m | -4m/s | -55.6°C | 51.1% | 232.52hPa | 2.6V | 00:00:00 | 00:00:00 | 00:00:00 | |
| EDDB2-12 | 2026-09-01 18:13:25 | 52.20337 | 15.33599 | 87° | 75km/h | 11058m | -4.0m/s | -55.6°C | 51.1% | 232.5hPa | 2.5V | 00:00:00 | 00:00:00 | 00:00:00 | |
| DAC517 | 2026-09-01 18:13:23 | 52.20336 | 15.33567 | 89° | 80km/h | 11062m | -3.9m/s | -55.6°C | 50.6% | 232.4hPa | 2.5V | 08:05:00 | 00:00:00 | 00:00:00 | |
| KRY50SP-1 | 2026-09-01 18:13:22 | 52.20335 | 15.33533 | 90° | 82km/h | 11066m | -4.2m/s | -55.6°C | 50.5% | 232.2hPa | 2.5V | 08:05:00 | 00:00:00 | 00:00:00 | |
| EDDB2-11 | 2026-09-01 18:13:21 | 52.20334 | 15.33426 | 87° | 91km/h | 11079m | -4.4m/s | -55.7°C | 51.0% | 231.8hPa | 2.5V | 00:00:00 | 00:00:00 | 00:00:00 | |
| KRY50SP-1 | 2026-09-01 18:13:16 | 52.20327 | 15.33310 | 82° | 97km/h | 11092m | -4.2m/s | -55.8°C | 51.6% | 231.3hPa | 2.5V | 08:05:00 | 00:00:00 | 00:00:00 | |
| KRY50SP-1 | 2026-09-01 18:13:11 | 52.20300 | 15.33129 | 75° | 80km/h | 11112m | -3.8m/s | -56.0°C | 51.6% | 230.6hPa | 2.5V | 08:05:00 | 00:00:00 | 00:00:00 | |
| DB0DAN | 2026-09-01 18:13:10 | 52.20291 | 15.33068 | 79° | 69km/h | 11119m | -3.7m/s | -56°C | 51.4% | 230.34hPa | 2.5V | 00:00:00 | 00:00:00 | 00:00:00 | |
| SONDE2-12 | 2026-09-01 18:12:58 | 52.20285 | 15.32663 | 83° | 95km/h | 11168m | -3.8m/s | -56.1°C | 53.4% | 228.5hPa | 2.5V | 00:00:00 | 00:00:00 | 00:00:00 | |
| DB0DAN | 2026-09-01 18:12:55 | 52.20273 | 15.32552 | 77° | 82km/h | 11179m | -3.9m/s | -56.3°C | 49.7% | 228.13hPa | 2.5V | 00:00:00 | 00:00:00 | 00:00:00 | |
| AA1-15 | 2026-09-01 18:12:47 | 52.20252 | 15.32310 | 92° | 75km/h | 11212m | -4.1m/s | -56.4°C | 54.6% | 226.9hPa | 2.5V | 08:06:18 | 02:03:10 | 00:00:00 | |
| SP6BVK | 2026-09-01 18:12:44 | 52.20254 | 15.32245 | 95° | 82km/h | 11220m | -4.0m/s | -56.5°C | 45.6% | 226.7hPa | 2.5V | 08:06:00 | 00:00:00 | 00:00:00 | |
| OE3JTB-15 | 2026-09-01 18:12:42 | 52.20256 | 15.32136 | 90° | 86km/h | 11232m | -4.1m/s | -56.5°C | 51.7% | 226.2hPa | 2.5V | 00:00:00 | 00:00:00 | 00:00:00 | |
| DB0DAN | 2026-09-01 18:12:40 | 52.20254 | 15.32058 | 86° | 91km/h | 11240m | -4.2m/s | -56.6°C | 44.1% | 225.95hPa | 2.6V | 00:00:00 | 00:00:00 | 00:00:00 | |
| AA1-15 | 2026-09-01 18:12:33 | 52.20230 | 15.31807 | 82° | 75km/h | 11270m | -3.8m/s | -56.8°C | 53.8% | 224.9hPa | 2.5V | 08:06:18 | 02:02:56 | 00:00:00 | |
| SONDE2-12 | 2026-09-01 18:12:27 | 52.20229 | 15.31627 | 95° | 77km/h | 11294m | -4.4m/s | -56.8°C | 47.8% | 224.1hPa | 2.5V | 00:00:00 | 00:00:00 | 00:00:00 | |
| DB0DAN | 2026-09-01 18:12:25 | 52.20233 | 15.31562 | 96° | 80km/h | 11303m | -4.5m/s | -56.9°C | 44.5% | 223.72hPa | 2.5V | 00:00:00 | 00:00:00 | 00:00:00 | |
| AA1-15 | 2026-09-01 18:12:23 | 52.20238 | 15.31490 | 95° | 91km/h | 11311m | -4.2m/s | -56.9°C | 53.8% | 223.4hPa | 2.6V | 08:06:18 | 02:02:46 | 00:00:00 | |
| AA1-15 | 2026-09-01 18:12:12 | 52.20219 | 15.31097 | 85° | 71km/h | 11357m | -4.3m/s | -57.1°C | 57.6% | 221.9hPa | 2.5V | 08:06:18 | 02:02:35 | 00:00:00 | |
| DB0DAN | 2026-09-01 18:12:10 | 52.20218 | 15.31039 | 91° | 66km/h | 11366m | -4.3m/s | -57.2°C | 49.6% | 221.55hPa | 2.5V | 00:00:00 | 00:00:00 | 00:00:00 | |
| AA1-15 | 2026-09-01 18:12:01 | 52.20242 | 15.30743 | 95° | 93km/h | 11405m | -4.3m/s | -57.4°C | 55.3% | 220.2hPa | 2.5V | 08:06:18 | 02:02:24 | 00:00:00 | |
| SONDE2-12 | 2026-09-01 18:11:56 | 52.20238 | 15.30558 | 83° | 80km/h | 11425m | -3.9m/s | -57.5°C | 50.6% | 219.5hPa | 2.5V | 00:00:00 | 00:00:00 | 00:00:00 | |
| DB0DAN | 2026-09-01 18:11:55 | 52.20236 | 15.30526 | 85° | 71km/h | 11429m | -3.9m/s | -57.5°C | 46.8% | 219.37hPa | 2.5V | 00:00:00 | 00:00:00 | 00:00:00 | |
| AA1-15 | 2026-09-01 18:11:50 | 52.20237 | 15.30382 | 98° | 69km/h | 11450m | -4.2m/s | -57.4°C | 49.9% | 218.7hPa | 2.5V | 08:07:09 | 02:02:13 | 00:00:00 | |
| EDDB2-11 | 2026-09-01 18:11:47 | 52.20248 | 15.30295 | 103° | 75km/h | 11462m | -4.4m/s | -57.4°C | 41.0% | 218.2hPa | 2.6V | 00:00:00 | 00:00:00 | 00:00:00 | |
| KRY50SP-1 | 2026-09-01 18:11:45 | 52.20252 | 15.30264 | 104° | 80km/h | 11467m | -4.4m/s | -57.4°C | 40.7% | 218.0hPa | 2.6V | 08:07:00 | 00:00:00 | 00:00:00 | |
| OE3JTB-15 | 2026-09-01 18:11:44 | 52.20261 | 15.30197 | 101° | 77km/h | 11475m | -3.9m/s | -57.4°C | 48.0% | 217.7hPa | 2.6V | 00:00:00 | 02:02:07 | 00:00:00 | |
| SP6BVK | 2026-09-01 18:11:42 | 52.20264 | 15.30161 | 98° | 89km/h | 11479m | -3.9m/s | -57.5°C | 40.1% | 217.6hPa | 2.6V | 08:07:00 | 00:00:00 | 00:00:00 | |
| DB0DAN | 2026-09-01 18:11:40 | 52.20268 | 15.30050 | 89° | 86km/h | 11491m | -4.1m/s | -57.5°C | 38.7% | 217.19hPa | 2.6V | 00:00:00 | 00:00:00 | 00:00:00 | |
| AA1-15 | 2026-09-01 18:11:39 | 52.20267 | 15.30013 | 87° | 88km/h | 11495m | -4.4m/s | -57.5°C | 44.5% | 217.1hPa | 2.5V | 08:07:09 | 02:02:02 | 00:00:00 | |
| AA1-15 | 2026-09-01 18:11:29 | 52.20264 | 15.29702 | 103° | 73km/h | 11537m | -4m/s | -57.1°C | 41.3% | 215.6hPa | 2.5V | 08:07:09 | 02:01:52 | 00:00:00 | |
| KRY50SP-1 | 2026-09-01 18:11:28 | 52.20264 | 15.29702 | 104° | 73km/h | 11537m | -4.0m/s | -57.1°C | 35.0% | 215.6hPa | 2.6V | 08:07:00 | 00:00:00 | 00:00:00 | |
| DL2RXE-15 | 2026-09-01 18:11:27 | 52.20268 | 15.29672 | 105° | 77km/h | 11541m | -4.2m/s | -57.0°C | 34.3% | 215.5hPa | 2.6V | 00:00:00 | 00:00:00 | 00:00:00 | |
| DB0DAN | 2026-09-01 18:11:25 | 52.20284 | 15.29577 | 105° | 80km/h | 11555m | -4.9m/s | -57°C | 32.2% | 214.96hPa | 2.6V | 00:00:00 | 00:00:00 | 00:00:00 | |
| SONDE2-12 | 2026-09-01 18:11:25 | 52.20284 | 15.29577 | 105° | 82km/h | 11555m | -4.9m/s | -57.0°C | 34.4% | 215.0hPa | 2.5V | 00:00:00 | 00:00:00 | 00:00:00 | |
| KRY50SP-1 | 2026-09-01 18:11:23 | 52.20290 | 15.29543 | 105° | 86km/h | 11560m | -5.0m/s | -57.0°C | 31.9% | 214.8hPa | 2.5V | 08:07:00 | 00:00:00 | 00:00:00 | |
| SP6BVK | 2026-09-01 18:11:22 | 52.20295 | 15.29508 | 104° | 88km/h | 11565m | -5.0m/s | -57.0°C | 31.8% | 214.7hPa | 2.5V | 08:07:00 | 00:00:00 | 00:00:00 | |
| SP3BTT-10 | 2026-09-01 18:11:21 | 52.20304 | 15.29435 | 100° | 82km/h | 11574m | -4.7m/s | -57.0°C | 38.3% | 214.3hPa | 2.5V | 00:00:00 | 00:00:00 | 00:00:00 | |
| DAC517 | 2026-09-01 18:11:19 | 52.20307 | 15.29397 | 97° | 93km/h | 11579m | -4.2m/s | -57.0°C | 31.4% | 214.1hPa | 2.5V | 08:07:00 | 00:00:00 | 00:00:00 | |
| KRY50SP-1 | 2026-09-01 18:11:17 | 52.20310 | 15.29321 | 91° | 91km/h | 11587m | -4.0m/s | -57.0°C | 31.2% | 213.9hPa | 2.5V | 08:07:00 | 00:00:00 | 00:00:00 | |
| AA1-15 | 2026-09-01 18:11:17 | 52.20309 | 15.29285 | 88° | 88km/h | 11591m | -4.3m/s | -57°C | 37.5% | 213.8hPa | 2.5V | 08:07:09 | 02:01:40 | 00:00:00 | |
| EDDB2-11 | 2026-09-01 18:11:16 | 52.20308 | 15.29249 | 86° | 84km/h | 11595m | -4.5m/s | -57.1°C | 30.8% | 213.6hPa | 2.5V | 00:00:00 | 00:00:00 | 00:00:00 | |
| KRY50SP-1 | 2026-09-01 18:11:12 | 52.20304 | 15.29153 | 88° | 73km/h | 11609m | -4.7m/s | -57.1°C | 30.2% | 213.2hPa | 2.5V | 08:07:00 | 00:00:00 | 00:00:00 | |
| DB0DAN | 2026-09-01 18:11:10 | 52.20306 | 15.29067 | 98° | 66km/h | 11623m | -4.4m/s | -57.1°C | 29.4% | 212.72hPa | 2.5V | 00:00:00 | 00:00:00 | 00:00:00 | |
| AA1-15 | 2026-09-01 18:11:04 | 52.20333 | 15.28873 | 100° | 91km/h | 11647m | -4.1m/s | -56.9°C | 33.4% | 211.9hPa | 2.6V | 08:08:51 | 02:01:27 | 00:00:00 | |
| DB0NH | 2026-09-01 18:11:03 | 52.20336 | 15.28835 | 98° | 78km/h | 11652m | -4.1m/s | -56.8°C | 34.3% | 211.7hPa | 2.6V | 08:07:00 | 02:01:26 | 00:00:00 | |
| SP6BVK | 2026-09-01 18:11:01 | 52.20338 | 15.28797 | 95° | 93km/h | 11656m | -4.1m/s | -56.8°C | 27.8% | 211.6hPa | 2.5V | 08:08:00 | 00:00:00 | 00:00:00 | |
| SP3WXH-11 | 2026-09-01 18:10:56 | 52.20335 | 15.28584 | 85° | 77km/h | 11681m | -4.5m/s | -56.7°C | 25.2% | 210.8hPa | 2.5V | 00:00:00 | 00:00:00 | 00:00:00 | |
| DB0DAN | 2026-09-01 18:10:55 | 52.20333 | 15.28553 | 85° | 71km/h | 11685m | -4.4m/s | -56.7°C | 24.8% | 210.62hPa | 2.5V | 00:00:00 | 00:00:00 | 00:00:00 | |
| SONDE2-12 | 2026-09-01 18:10:54 | 52.20332 | 15.28523 | 86° | 71km/h | 11690m | -4.6m/s | -56.6°C | 26.1% | 210.5hPa | 2.6V | 00:00:00 | 00:00:00 | 00:00:00 | |
| AA1-15 | 2026-09-01 18:10:53 | 52.20331 | 15.28494 | 87° | 69km/h | 11694m | -4.4m/s | -56.6°C | 30.5% | 210.3hPa | 2.6V | 08:08:51 | 02:01:16 | 00:00:00 | |
| EDDB2-12 | 2026-09-01 18:10:50 | 52.20331 | 15.28412 | 95° | 64km/h | 11708m | -4.7m/s | -56.6°C | 24.0% | 209.9hPa | 2.6V | 00:00:00 | 00:00:00 | 00:00:00 | |
| EDDB2-11 | 2026-09-01 18:10:45 | 52.20347 | 15.28265 | 99° | 82km/h | 11730m | -4.3m/s | -56.2°C | 22.9% | 209.1hPa | 2.6V | 00:00:00 | 00:00:00 | 00:00:00 | |
| AA1-15 | 2026-09-01 18:10:42 | 52.20354 | 15.28158 | 91° | 89km/h | 11742m | -4m/s | -56.2°C | 28.6% | 208.7hPa | 2.6V | 08:08:51 | 02:01:05 | 00:00:00 | |
| DB0DAN | 2026-09-01 18:10:40 | 52.20352 | 15.28086 | 85° | 82km/h | 11750m | -4.2m/s | -56.1°C | 21.8% | 208.53hPa | 2.5V | 00:00:00 | 00:00:00 | 00:00:00 | |
| AA1-15 | 2026-09-01 18:10:32 | 52.20330 | 15.27847 | 87° | 62km/h | 11787m | -4.2m/s | -56.2°C | 27.4% | 207.3hPa | 2.6V | 08:08:51 | 02:00:55 | 00:00:00 | |
| KRY50SP-1 | 2026-09-01 18:10:31 | 52.20330 | 15.27847 | 88° | 62km/h | 11787m | -4.2m/s | -56.2°C | 21.3% | 207.3hPa | 2.5V | 08:08:00 | 00:00:00 | 00:00:00 | |
| DB0DAN | 2026-09-01 18:10:25 | 52.20338 | 15.27636 | 89° | 82km/h | 11814m | -3.9m/s | -56.4°C | 21.2% | 206.4hPa | 2.5V | 00:00:00 | 00:00:00 | 00:00:00 | |
| SONDE2-12 | 2026-09-01 18:10:23 | 52.20336 | 15.27565 | 83° | 84km/h | 11822m | -4.1m/s | -56.4°C | 21.8% | 206.2hPa | 2.5V | 00:00:00 | 00:00:00 | 00:00:00 | |
| EDDB2-12 | 2026-09-01 18:10:19 | 52.20320 | 15.27432 | 75° | 80km/h | 11839m | -4.6m/s | -56.3°C | 18.8% | 205.6hPa | 2.5V | 00:00:00 | 00:00:00 | 00:00:00 | |
| 13BRC | 2026-09-01 18:10:18 | 52.20320 | 15.27432 | 76° | 80km/h | 11839m | -4.6m/s | -56.3°C | 18.8% | 205.6hPa | 2.5V | 08:08:00 | 00:00:00 | 00:00:00 | |
| DAC517 | 2026-09-01 18:10:16 | 52.20309 | 15.27369 | 74° | 77km/h | 11848m | -5.0m/s | -56.3°C | 18.4% | 205.3hPa | 2.5V | 08:08:00 | 00:00:00 | 00:00:00 | |
| EDDB2-11 | 2026-09-01 18:10:14 | 52.20293 | 15.27283 | 75° | 69km/h | 11863m | -4.1m/s | -56.5°C | 18.9% | 204.8hPa | 2.5V | 00:00:00 | 00:00:00 | 00:00:00 | |
| DB0DAN | 2026-09-01 18:10:10 | 52.20286 | 15.27165 | 91° | 75km/h | 11877m | -3.6m/s | -56.6°C | 19.2% | 204.36hPa | 2.5V | 00:00:00 | 00:00:00 | 00:00:00 | |
| KRY50SP-1 | 2026-09-01 18:10:08 | 52.20286 | 15.27132 | 92° | 82km/h | 11880m | -3.8m/s | -56.6°C | 19.1% | 204.2hPa | 2.6V | 08:08:00 | 00:00:00 | 00:00:00 | |
| DB0NH | 2026-09-01 18:10:03 | 52.20281 | 15.26917 | 83° | 89km/h | 11904m | -4.1m/s | -56.5°C | 22.0% | 203.4hPa | 2.6V | 00:00:00 | 02:00:26 | 00:00:00 | |
| SONCRA | 2026-09-01 18:09:59 | 52.20263 | 15.26764 | 75° | 95km/h | 11921m | -4.6m/s | -56.2°C | 15.2% | 202.9hPa | 2.6V | 00:00:00 | 00:00:00 | 00:00:00 | |
| SP6BVK | 2026-09-01 18:09:58 | 52.20262 | 15.26764 | 76° | 97km/h | 11921m | -4.6m/s | -56.2°C | 15.2% | 202.9hPa | 2.6V | 08:08:00 | 00:00:00 | 00:00:00 | |
| 13BRC | 2026-09-01 18:09:57 | 52.20256 | 15.26726 | 75° | 95km/h | 11925m | -4.7m/s | -56.0°C | 14.8% | 202.8hPa | 2.6V | 08:08:00 | 00:00:00 | 00:00:00 | |
| DAC517 | 2026-09-01 18:09:56 | 52.20249 | 15.26688 | 73° | 93km/h | 11930m | -4.8m/s | -55.8°C | 14.4% | 202.7hPa | 2.6V | 08:08:00 | 00:00:00 | 00:00:00 | |
| DB0DAN | 2026-09-01 18:09:55 | 52.20234 | 15.26617 | 71° | 84km/h | 11939m | -4.6m/s | -55.8°C | 14.2% | 202.33hPa | 2.6V | 00:00:00 | 00:00:00 | 00:00:00 | |
| SONDE2-12 | 2026-09-01 18:09:52 | 52.20216 | 15.26523 | 77° | 73km/h | 11952m | -3.7m/s | -55.8°C | 14.6% | 202.0hPa | 2.6V | 00:00:00 | 00:00:00 | 00:00:00 | |
| AA1-15 | 2026-09-01 18:09:50 | 52.20212 | 15.26462 | 86° | 75km/h | 11959m | -3.9m/s | -55.7°C | 17% | 201.8hPa | 2.6V | 08:08:51 | 02:00:13 | 00:00:00 | |
| EDDB2-12 | 2026-09-01 18:09:48 | 52.20210 | 15.26397 | 89° | 82km/h | 11967m | -4.4m/s | -55.6°C | 12.7% | 201.5hPa | 2.5V | 00:00:00 | 00:00:00 | 00:00:00 | |
| KRY50SP-1 | 2026-09-01 18:09:46 | 52.20210 | 15.26362 | 91° | 86km/h | 11972m | -4.5m/s | -55.7°C | 12.5% | 201.4hPa | 2.5V | 08:08:00 | 00:00:00 | 00:00:00 | |
| EDDB2-11 | 2026-09-01 18:09:43 | 52.20207 | 15.26208 | 83° | 100km/h | 11989m | -4.2m/s | -55.5°C | 11.5% | 200.8hPa | 2.5V | 00:00:00 | 00:00:00 | 00:00:00 | |
| DB0DAN | 2026-09-01 18:09:40 | 52.20193 | 15.26083 | 76° | 99km/h | 12002m | -4.1m/s | -55.4°C | 10.9% | 200.38hPa | 2.5V | 00:00:00 | 00:00:00 | 00:00:00 | |
| AA1-15 | 2026-09-01 18:09:39 | 52.20186 | 15.26042 | 74° | 100km/h | 12006m | -4.3m/s | -55.4°C | 13.6% | 200.2hPa | 2.5V | 08:08:51 | 02:00:02 | 00:00:00 | |
| AA1-15 | 2026-09-01 18:09:28 | 52.20148 | 15.25672 | 92° | 84km/h | 12052m | -4.7m/s | -54.4°C | 10.5% | 198.8hPa | 2.6V | 08:08:51 | 01:59:51 | 00:00:00 | |
| DB0DAN | 2026-09-01 18:09:25 | 52.20151 | 15.25564 | 92° | 88km/h | 12066m | -4.7m/s | -54.3°C | 7.7% | 198.37hPa | 2.5V | 00:00:00 | 00:00:00 | 00:00:00 | |
| SONDE2-12 | 2026-09-01 18:09:21 | 52.20151 | 15.25404 | 87° | 99km/h | 12084m | -4.1m/s | -54.0°C | 7.8% | 197.8hPa | 2.5V | 00:00:00 | 00:00:00 | 00:00:00 | |
| AA1-15 | 2026-09-01 18:09:18 | 52.20143 | 15.25287 | 81° | 88km/h | 12095m | -3.5m/s | -53.7°C | 8.9% | 197.5hPa | 2.5V | 08:09:42 | 01:59:41 | 00:00:00 | |
| EDDB2-12 | 2026-09-01 18:09:17 | 52.20140 | 15.25253 | 81° | 80km/h | 12099m | -3.7m/s | -53.6°C | 6.9% | 197.4hPa | 2.6V | 00:00:00 | 00:00:00 | 00:00:00 | |
| SP6BVK | 2026-09-01 18:09:16 | 52.20140 | 15.25253 | 82° | 82km/h | 12099m | -3.7m/s | -53.6°C | 6.9% | 197.4hPa | 2.6V | 08:09:00 | 00:00:00 | 00:00:00 | |
| DAC517 | 2026-09-01 18:09:15 | 52.20137 | 15.25220 | 84° | 78km/h | 12102m | -3.7m/s | -53.5°C | 6.8% | 197.3hPa | 2.6V | 08:09:00 | 00:00:00 | 00:00:00 | |
| KRY50SP-1 | 2026-09-01 18:09:13 | 52.20134 | 15.25159 | 89° | 73km/h | 12110m | -4.0m/s | -53.4°C | 6.4% | 197.0hPa | 2.6V | 08:09:00 | 00:00:00 | 00:00:00 | |
| EDDB2-11 | 2026-09-01 18:09:12 | 52.20135 | 15.25098 | 93° | 73km/h | 12119m | -4.4m/s | -53.2°C | 6.1% | 196.8hPa | 2.6V | 00:00:00 | 00:00:00 | 00:00:00 | |
| DB0DAN | 2026-09-01 18:09:10 | 52.20139 | 15.25037 | 98° | 73km/h | 12128m | -4.7m/s | -53°C | 5.8% | 196.43hPa | 2.6V | 00:00:00 | 00:00:00 | 00:00:00 | |
| AA1-15 | 2026-09-01 18:09:07 | 52.20149 | 15.24937 | 99° | 88km/h | 12141m | -4.3m/s | -52.9°C | 7.6% | 196hPa | 2.5V | 08:09:42 | 01:59:30 | 00:00:00 | |
| AA1-15 | 2026-09-01 18:08:57 | 52.20140 | 15.24589 | 85° | 71km/h | 12180m | -4.3m/s | -52.8°C | 7.2% | 194.9hPa | 2.5V | 08:09:42 | 01:59:20 | 00:00:00 | |
| DB0DAN | 2026-09-01 18:08:55 | 52.20138 | 15.24532 | 88° | 64km/h | 12189m | -4.2m/s | -52.8°C | 5.3% | 194.61hPa | 2.5V | 00:00:00 | 00:00:00 | 00:00:00 | |
| SONDE2-12 | 2026-09-01 18:08:50 | 52.20143 | 15.24402 | 99° | 62km/h | 12212m | -4.7m/s | -52.7°C | 5.4% | 193.9hPa | 2.6V | 00:00:00 | 00:00:00 | 00:00:00 | |
| AA1-15 | 2026-09-01 18:08:46 | 52.20157 | 15.24291 | 99° | 77km/h | 12229m | -3.9m/s | -52.9°C | 6.6% | 193.4hPa | 2.6V | 08:09:42 | 01:59:09 | 00:00:00 | |
| EDDB2-12 | 2026-09-01 18:08:46 | 52.20159 | 15.24259 | 95° | 78km/h | 12233m | -3.6m/s | -53.0°C | 5.3% | 193.3hPa | 2.5V | 00:00:00 | 00:00:00 | 00:00:00 | |
| OE3JTB-15 | 2026-09-01 18:08:44 | 52.20160 | 15.24225 | 92° | 75km/h | 12237m | -3.5m/s | -52.9°C | 8.3% | 193.1hPa | 2.5V | 08:09:00 | 00:00:00 | 00:00:00 | |
| KRY50SP-1 | 2026-09-01 18:08:42 | 52.20160 | 15.24191 | 89° | 84km/h | 12240m | -3.7m/s | -53.0°C | 5.2% | 193.1hPa | 2.5V | 08:09:00 | 00:00:00 | 00:00:00 | |
| DB0DAN | 2026-09-01 18:08:40 | 52.20154 | 15.24091 | 82° | 77km/h | 12253m | -4.5m/s | -53°C | 4.9% | 192.73hPa | 2.5V | 00:00:00 | 00:00:00 | 00:00:00 | |
| AA1-15 | 2026-09-01 18:08:35 | 52.20137 | 15.23943 | 77° | 64km/h | 12276m | -4.6m/s | -52.9°C | 5.4% | 192hPa | 2.5V | 08:10:33 | 01:58:58 | 00:00:00 | |
| DAC517 | 2026-09-01 18:08:34 | 52.20137 | 15.23942 | 78° | 64km/h | 12277m | -4.6m/s | -52.9°C | 4.4% | 192.0hPa | 2.6V | 08:10:00 | 00:00:00 | 00:00:00 | |
| DB0NH | 2026-09-01 18:08:33 | 52.20131 | 15.23893 | 82° | 69km/h | 12286m | -4.6m/s | -52.7°C | 7.2% | 191.7hPa | 2.6V | 00:00:00 | 01:58:56 | 00:00:00 | |
| DL2RXE-15 | 2026-09-01 18:08:32 | 52.20131 | 15.23893 | 82° | 57km/h | 12286m | -4.7m/s | -52.8°C | 4.3% | 191.7hPa | 2.6V | 08:10:00 | 00:00:00 | 00:00:00 | |
| KRY50SP-1 | 2026-09-01 18:08:31 | 52.20130 | 15.23870 | 87° | 55km/h | 12290m | -4.3m/s | -52.7°C | 4.3% | 191.6hPa | 2.6V | 08:10:00 | 00:00:00 | 00:00:00 | |
| KRY50SP-1 | 2026-09-01 18:08:26 | 52.20139 | 15.23743 | 100° | 73km/h | 12311m | -4.2m/s | -52.7°C | 4.2% | 191.0hPa | 2.6V | 08:10:00 | 00:00:00 | 00:00:00 | |
| DB0DAN | 2026-09-01 18:08:25 | 52.20144 | 15.23681 | 94° | 75km/h | 12319m | -4.5m/s | -52.7°C | 4.1% | 190.74hPa | 2.6V | 00:00:00 | 00:00:00 | 00:00:00 | |
| AA1-15 | 2026-09-01 18:08:24 | 52.20145 | 15.23648 | 90° | 78km/h | 12323m | -4.1m/s | -52.7°C | 4.7% | 190.6hPa | 2.6V | 08:10:33 | 01:58:47 | 00:00:00 | |
| SONDE2-12 | 2026-09-01 18:08:19 | 52.20131 | 15.23500 | 75° | 66km/h | 12343m | -4.1m/s | -52.5°C | 4.0% | 190.1hPa | 2.6V | 00:00:00 | 00:00:00 | 00:00:00 | |
| AA1-15 | 2026-09-01 18:08:13 | 52.20103 | 15.23330 | 77° | 80km/h | 12368m | -4.2m/s | -52.3°C | 4.4% | 189.3hPa | 2.6V | 08:10:33 | 01:58:36 | 00:00:00 | |
| DB0DAN | 2026-09-01 18:08:10 | 52.20093 | 15.23232 | 85° | 75km/h | 12380m | -3.5m/s | -52.4°C | 3.8% | 188.98hPa | 2.5V | 00:00:00 | 00:00:00 | 00:00:00 | |
| AA1-15 | 2026-09-01 18:08:02 | 52.20084 | 15.23020 | 80° | 57km/h | 12408m | -3.7m/s | -52.4°C | 4.2% | 188.1hPa | 2.5V | 08:10:33 | 01:58:25 | 00:00:00 | |
| KRY50SP-1 | 2026-09-01 18:07:58 | 52.20073 | 15.22951 | 74° | 60km/h | 12419m | -3.6m/s | -52.4°C | 3.6% | 187.8hPa | 2.5V | 08:10:00 | 00:00:00 | 00:00:00 | |
| DB0DAN | 2026-09-01 18:07:55 | 52.20053 | 15.22846 | 74° | 69km/h | 12434m | -3.7m/s | -52.5°C | 3.7% | 187.4hPa | 2.5V | 00:00:00 | 00:00:00 | 00:00:00 | |
| AA1-15 | 2026-09-01 18:07:52 | 52.20039 | 15.22757 | 80° | 75km/h | 12445m | -3.3m/s | -52.6°C | 4.3% | 187.1hPa | 2.5V | 08:10:33 | 01:58:15 | 00:00:00 | |
| SONDE2-12 | 2026-09-01 18:07:48 | 52.20029 | 15.22640 | 82° | 69km/h | 12458m | -3.3m/s | -52.6°C | 4.1% | 186.7hPa | 2.5V | 00:00:00 | 00:00:00 | 00:00:00 | |
| AA1-15 | 2026-09-01 18:07:41 | 52.20018 | 15.22432 | 85° | 71km/h | 12484m | -3.9m/s | -52°C | 4.5% | 186hPa | 2.5V | 08:11:24 | 01:58:04 | 00:00:00 | |
| AA1-15 | 2026-09-01 18:07:31 | 52.19984 | 15.22143 | 83° | 77km/h | 12524m | -4.2m/s | -52.1°C | 4.5% | 184.8hPa | 2.6V | 08:11:24 | 01:57:54 | 00:00:00 | |
| KRY50SP-1 | 2026-09-01 18:07:28 | 52.19982 | 15.22051 | 94° | 75km/h | 12535m | -3.7m/s | -52.1°C | 3.8% | 184.5hPa | 2.6V | 08:11:00 | 00:00:00 | 00:00:00 | |
| DAC517 | 2026-09-01 18:07:26 | 52.19983 | 15.22021 | 95° | 73km/h | 12539m | -4.6m/s | -52.0°C | 3.7% | 184.4hPa | 2.6V | 00:00:00 | 00:00:00 | 00:00:00 | |
| DB0DAN | 2026-09-01 18:07:25 | 52.19987 | 15.21962 | 97° | 68km/h | 12548m | -4.3m/s | -52°C | 3.6% | 184.13hPa | 2.6V | 00:00:00 | 00:00:00 | 00:00:00 | |
| AA1-15 | 2026-09-01 18:07:20 | 52.19993 | 15.21826 | 86° | 62km/h | 12568m | -4m/s | -52.2°C | 4.3% | 183.5hPa | 2.6V | 08:11:24 | 01:57:43 | 00:00:00 | |
| SP3BTT-10 | 2026-09-01 18:07:20 | 52.19992 | 15.21826 | 86° | 66km/h | 12568m | -4.0m/s | -52.2°C | 6.4% | 183.5hPa | 2.5V | 00:00:00 | 00:00:00 | 00:00:00 | |
| SP3WXH-11 | 2026-09-01 18:07:19 | 52.19991 | 15.21800 | 81° | 62km/h | 12572m | -3.4m/s | -52.2°C | 3.7% | 183.4hPa | 2.5V | 00:00:00 | 00:00:00 | 00:00:00 | |
| OE3JTB-15 | 2026-09-01 18:07:17 | 52.19984 | 15.21747 | 77° | 69km/h | 12579m | -3.5m/s | -52.2°C | 6.3% | 183.2hPa | 2.5V | 00:00:00 | 00:00:00 | 00:00:00 | |
| DL2RXE-15 | 2026-09-01 18:07:15 | 52.19980 | 15.21719 | 77° | 71km/h | 12582m | -3.7m/s | -52.3°C | 3.5% | 183.2hPa | 2.6V | 00:00:00 | 00:00:00 | 00:00:00 | |
| KRY50SP-1 | 2026-09-01 18:07:13 | 52.19969 | 15.21633 | 84° | 71km/h | 12594m | -3.5m/s | -52.3°C | 3.5% | 182.8hPa | 2.6V | 08:11:00 | 00:00:00 | 00:00:00 | |
| SP6BVK | 2026-09-01 18:07:12 | 52.19969 | 15.21633 | 84° | 71km/h | 12594m | -3.5m/s | -52.3°C | 3.5% | 182.8hPa | 2.6V | 08:11:00 | 00:00:00 | 00:00:00 | |
| DB0DAN | 2026-09-01 18:07:10 | 52.19968 | 15.21546 | 94° | 68km/h | 12604m | -3.2m/s | -52.2°C | 3.4% | 182.56hPa | 2.6V | 00:00:00 | 00:00:00 | 00:00:00 | |
| AA1-15 | 2026-09-01 18:07:09 | 52.19970 | 15.21517 | 97° | 71km/h | 12607m | -3.6m/s | -52.1°C | 3.8% | 182.5hPa | 2.5V | 08:11:24 | 01:57:32 | 00:00:00 | |
| AA1-15 | 2026-09-01 18:06:58 | 52.19963 | 15.21214 | 80° | 71km/h | 12649m | -4.3m/s | -52.3°C | 3.3% | 181.3hPa | 2.5V | 08:11:24 | 01:57:21 | 00:00:00 | |
| KRY50SP-1 | 2026-09-01 18:06:56 | 52.19960 | 15.21186 | 82° | 69km/h | 12654m | -4.2m/s | -52.3°C | 3.0% | 181.2hPa | 2.6V | 08:11:00 | 00:00:00 | 00:00:00 | |
| DB0DAN | 2026-09-01 18:06:55 | 52.19956 | 15.21130 | 84° | 64km/h | 12661m | -3.2m/s | -52.3°C | 3% | 180.98hPa | 2.6V | 00:00:00 | 00:00:00 | 00:00:00 | |
| AA1-15 | 2026-09-01 18:06:47 | 52.19944 | 15.20924 | 83° | 60km/h | 12692m | -4.8m/s | -52.3°C | 2.9% | 180.1hPa | 2.5V | 08:12:15 | 01:57:10 | 00:00:00 | |
| SONDE2-12 | 2026-09-01 18:06:46 | 52.19940 | 15.20875 | 80° | 60km/h | 12700m | -3.5m/s | -52.3°C | 2.9% | 179.9hPa | 2.6V | 00:00:00 | 00:00:00 | 00:00:00 | |
| DAC517 | 2026-09-01 18:06:45 | 52.19942 | 15.20900 | 83° | 60km/h | 12696m | -4.1m/s | -52.3°C | 2.8% | 180.0hPa | 2.6V | 00:00:00 | 00:00:00 | 00:00:00 | |
| DB0DAN | 2026-09-01 18:06:40 | 52.19923 | 15.20743 | 77° | 66km/h | 12719m | -4.2m/s | -52.4°C | 2.7% | 179.35hPa | 2.6V | 00:00:00 | 00:00:00 | 00:00:00 | |
| AA1-15 | 2026-09-01 18:06:36 | 52.19907 | 15.20628 | 78° | 73km/h | 12735m | -4.3m/s | -52.6°C | 2.6% | 178.9hPa | 2.6V | 08:12:15 | 01:56:59 | 00:00:00 | |
| DM0DOS-11 | 2026-09-01 18:06:35 | 52.19890 | 15.20454 | 84° | 69km/h | 12757m | -3.7m/s | -52.6°C | 5.2% | 178.3hPa | 2.6V | 08:11:49 | 01:56:53 | 00:00:00 | |
| AA1-15 | 2026-09-01 18:06:26 | 52.19884 | 15.20339 | 86° | 69km/h | 12773m | -4m/s | -52.7°C | 2.4% | 177.9hPa | 2.6V | 08:12:15 | 01:56:49 | 00:00:00 | |
| DB0DAN | 2026-09-01 18:06:25 | 52.19883 | 15.20311 | 85° | 68km/h | 12777m | -4.2m/s | -52.7°C | 2.6% | 177.74hPa | 2.6V | 00:00:00 | 00:00:00 | 00:00:00 | |
| DAC517 | 2026-09-01 18:06:24 | 52.19882 | 15.20311 | 86° | 71km/h | 12777m | -4.2m/s | -52.7°C | 2.6% | 177.7hPa | 2.6V | 00:00:00 | 00:00:00 | 00:00:00 | |
| KRY50SP-1 | 2026-09-01 18:06:20 | 52.19876 | 15.20196 | 86° | 71km/h | 12792m | -4.1m/s | -52.8°C | 2.5% | 177.3hPa | 2.6V | 08:12:00 | 00:00:00 | 00:00:00 | |
| DM0DOS-11 | 2026-09-01 18:06:17 | 52.19869 | 15.20051 | 86° | 71km/h | 12811m | -3.6m/s | -52.7°C | 5% | 176.8hPa | 2.6V | 08:12:03 | 01:56:39 | 00:00:00 | |
| AA1-15 | 2026-09-01 18:06:15 | 52.19868 | 15.20021 | 87° | 71km/h | 12815m | -4m/s | -52.7°C | 2.1% | 176.7hPa | 2.6V | 08:12:15 | 01:56:38 | 00:00:00 | |
| SONDE2-12 | 2026-09-01 18:06:15 | 52.19867 | 15.19992 | 87° | 71km/h | 12819m | -4.1m/s | -52.6°C | 2.5% | 176.6hPa | 2.6V | 00:00:00 | 00:00:00 | 00:00:00 | |
| 13BRC | 2026-09-01 18:06:11 | 52.19865 | 15.19933 | 89° | 71km/h | 12826m | -3.5m/s | -52.5°C | 2.3% | 176.4hPa | 2.6V | 08:12:00 | 00:00:00 | 00:00:00 | |
| DB0DAN | 2026-09-01 18:06:10 | 52.19864 | 15.19874 | 88° | 68km/h | 12834m | -3.9m/s | -52.5°C | 2.3% | 176.18hPa | 2.6V | 00:00:00 | 00:00:00 | 00:00:00 | |
| SP6BVK | 2026-09-01 18:06:09 | 52.19864 | 15.19874 | 89° | 71km/h | 12834m | -3.9m/s | -52.5°C | 2.3% | 176.2hPa | 2.6V | 08:12:00 | 00:00:00 | 00:00:00 | |
| KRY50SP-1 | 2026-09-01 18:06:08 | 52.19864 | 15.19845 | 89° | 71km/h | 12838m | -3.6m/s | -52.5°C | 2.3% | 176.1hPa | 2.6V | 08:12:00 | 00:00:00 | 00:00:00 | |
| EDDB2-11 | 2026-09-01 18:06:06 | 52.19861 | 15.19760 | 86° | 68km/h | 12849m | -3.8m/s | -52.5°C | 2.2% | 175.8hPa | 2.6V | 00:00:00 | 00:00:00 | 00:00:00 | |
| DM0DOS-11 | 2026-09-01 18:06:05 | 52.19860 | 15.19598 | 92° | 66km/h | 12872m | -4m/s | -52.4°C | 4.8% | 175.1hPa | 2.6V | 08:12:19 | 01:56:23 | 00:00:00 | |
| AA1-15 | 2026-09-01 18:06:04 | 52.19860 | 15.19705 | 88° | 64km/h | 12856m | -4m/s | -52.5°C | 1.8% | 175.6hPa | 2.5V | 08:12:15 | 01:56:27 | 00:00:00 | |
| DB0NH | 2026-09-01 18:06:03 | 52.19859 | 15.19679 | 89° | 68km/h | 12860m | -3.4m/s | -52.4°C | 4.7% | 175.4hPa | 2.6V | 00:00:00 | 01:56:26 | 00:00:00 | |
| KRY50SP-1 | 2026-09-01 18:05:57 | 52.19862 | 15.19542 | 96° | 71km/h | 12879m | -3.3m/s | -52.4°C | 2.2% | 174.9hPa | 2.6V | 08:13:00 | 00:00:00 | 00:00:00 | |
| DB0DAN | 2026-09-01 18:05:55 | 52.19868 | 15.19452 | 97° | 73km/h | 12891m | -3.9m/s | -52.4°C | 2.2% | 174.64hPa | 2.6V | 00:00:00 | 00:00:00 | 00:00:00 | |
| DM0DOS-11 | 2026-09-01 18:05:55 | 52.19876 | 15.19309 | 92° | 62km/h | 12910m | -3.8m/s | -52.4°C | 4.6% | 174.1hPa | 2.6V | 08:12:29 | 01:56:13 | 00:00:00 | |
| AA1-15 | 2026-09-01 18:05:53 | 52.19872 | 15.19391 | 95° | 73km/h | 12898m | -3.9m/s | -52.5°C | 1.6% | 174.4hPa | 2.5V | 08:13:06 | 01:56:16 | 00:00:00 | |
| SONCRA | 2026-09-01 18:05:51 | 52.19876 | 15.19259 | 89° | 58km/h | 12918m | -4.1m/s | -52.4°C | 2.0% | 173.9hPa | 2.6V | 00:00:00 | 00:00:00 | 00:00:00 | |
| SP3WXH-11 | 2026-09-01 18:05:46 | 52.19876 | 15.19210 | 91° | 60km/h | 12926m | -3.9m/s | -52.4°C | 2.0% | 173.7hPa | 2.6V | 00:00:00 | 00:00:00 | 00:00:00 | |
| DM0DOS-11 | 2026-09-01 18:05:45 | 52.19880 | 15.19047 | 91° | 71km/h | 12949m | -4m/s | -52°C | 4.4% | 173.1hPa | 2.6V | 08:12:39 | 01:56:03 | 00:00:00 | |
| SONDE2-12 | 2026-09-01 18:05:44 | 52.19878 | 15.19131 | 92° | 66km/h | 12938m | -3.9m/s | -52.3°C | 2.2% | 173.4hPa | 2.6V | 00:00:00 | 00:00:00 | 00:00:00 | |
| AA1-15 | 2026-09-01 18:05:42 | 52.19879 | 15.19104 | 93° | 68km/h | 12941m | -3.9m/s | -52.2°C | 1.4% | 173.3hPa | 2.6V | 08:13:06 | 01:56:05 | 00:00:00 | |
| DB0DAN | 2026-09-01 18:05:40 | 52.19880 | 15.19047 | 92° | 68km/h | 12949m | -4m/s | -52°C | 1.9% | 173.07hPa | 2.6V | 00:00:00 | 00:00:00 | 00:00:00 | |
| EDDB2-12 | 2026-09-01 18:05:39 | 52.19880 | 15.19017 | 89° | 71km/h | 12953m | -4.2m/s | -51.9°C | 1.9% | 173.0hPa | 2.6V | 00:00:00 | 00:00:00 | 00:00:00 | |
| OE3JTB-15 | 2026-09-01 18:05:36 | 52.19877 | 15.18931 | 85° | 60km/h | 12965m | -4.0m/s | -51.8°C | 4.4% | 172.6hPa | 2.6V | 00:00:00 | 00:00:00 | 00:00:00 | |
| DM0DOS-11 | 2026-09-01 18:05:35 | 52.19865 | 15.18779 | 84° | 55km/h | 12989m | -4m/s | -51.6°C | 4.3% | 172hPa | 2.6V | 08:12:49 | 01:55:53 | 00:00:00 | |
| AA1-15 | 2026-09-01 18:05:31 | 52.19867 | 15.18803 | 83° | 58km/h | 12985m | -4m/s | -51.6°C | 1.2% | 172.1hPa | 2.6V | 08:13:06 | 01:55:54 | 00:00:00 | |
| 13BRC | 2026-09-01 18:05:30 | 52.19867 | 15.18803 | 84° | 58km/h | 12985m | -4.0m/s | -51.6°C | 1.9% | 172.1hPa | 2.6V | 08:13:00 | 00:00:00 | 00:00:00 | |
| SP6BVK | 2026-09-01 18:05:28 | 52.19864 | 15.18757 | 89° | 53km/h | 12993m | -3.8m/s | -51.6°C | 1.8% | 171.9hPa | 2.6V | 08:13:00 | 00:00:00 | 00:00:00 | |
| DM0DOS-11 | 2026-09-01 18:05:25 | 52.19872 | 15.18526 | 85° | 73km/h | 13031m | -4.1m/s | -50.9°C | 4.1% | 170.9hPa | 2.6V | 08:12:59 | 01:55:43 | 00:00:00 | |
| AA1-15 | 2026-09-01 18:05:21 | 52.19871 | 15.18526 | 85° | 73km/h | 13031m | -4.1m/s | -50.9°C | 1% | 170.9hPa | 2.6V | 08:13:06 | 01:55:43 | 00:00:00 | |
| SONCRA | 2026-09-01 18:05:20 | 52.19871 | 15.18526 | 85° | 73km/h | 13031m | -4.1m/s | -50.9°C | 1.7% | 170.9hPa | 2.6V | 00:00:00 | 00:00:00 | 00:00:00 | |
| KRY50SP-1 | 2026-09-01 18:05:18 | 52.19869 | 15.18496 | 83° | 73km/h | 13035m | -4.0m/s | -50.9°C | 1.7% | 170.8hPa | 2.6V | 08:13:00 | 00:00:00 | 00:00:00 | |
| DL2RXE-15 | 2026-09-01 18:05:17 | 52.19866 | 15.18467 | 79° | 71km/h | 13039m | -3.9m/s | -50.7°C | 1.6% | 170.7hPa | 2.6V | 00:00:00 | 00:00:00 | 00:00:00 | |
| DM0DOS-11 | 2026-09-01 18:05:15 | 52.19833 | 15.18284 | 81° | 44km/h | 13070m | -3.9m/s | -50.3°C | 3.8% | 169.8hPa | 2.6V | 08:13:09 | 01:55:33 | 00:00:00 | |
| SONDE2-12 | 2026-09-01 18:05:13 | 52.19839 | 15.18321 | 72° | 49km/h | 13063m | -4.0m/s | -50.4°C | 1.7% | 170.0hPa | 2.5V | 00:00:00 | 00:00:00 | 00:00:00 | |
| AA1-15 | 2026-09-01 18:05:09 | 52.19832 | 15.18267 | 88° | 44km/h | 13074m | -3.8m/s | -50.3°C | 0.8% | 169.7hPa | 2.5V | 08:14:48 | 01:55:32 | 00:00:00 | |
| EDDB2-12 | 2026-09-01 18:05:08 | 52.19832 | 15.18248 | 94° | 46km/h | 13078m | -3.8m/s | -50.3°C | 1.5% | 169.6hPa | 2.6V | 00:00:00 | 00:00:00 | 00:00:00 | |
| OE3JTB-15 | 2026-09-01 18:05:07 | 52.19834 | 15.18229 | 99° | 62km/h | 13082m | -3.9m/s | -50.2°C | 3.8% | 169.5hPa | 2.6V | 00:00:00 | 01:55:30 | 00:00:00 | |
| DAC517 | 2026-09-01 18:05:06 | 52.19834 | 15.18229 | 99° | 51km/h | 13082m | -4.0m/s | -50.3°C | 1.6% | 169.5hPa | 2.6V | 08:13:00 | 00:00:00 | 00:00:00 | |
| DM0DOS-11 | 2026-09-01 18:05:05 | 52.19836 | 15.18043 | 79° | 71km/h | 13108m | -3.7m/s | -50.3°C | 3.8% | 168.8hPa | 2.6V | 08:13:19 | 01:55:23 | 00:00:00 | |
| AA1-15 | 2026-09-01 18:04:58 | 52.19827 | 15.17988 | 72° | 68km/h | 13115m | -3.7m/s | -50.4°C | 0.8% | 168.7hPa | 2.6V | 08:14:48 | 01:55:21 | 00:00:00 | |
| KRY50SP-1 | 2026-09-01 18:04:56 | 52.19822 | 15.17962 | 70° | 64km/h | 13119m | -4.0m/s | -50.4°C | 1.6% | 168.6hPa | 2.6V | 08:13:00 | 00:00:00 | 00:00:00 | |
| DM0DOS-11 | 2026-09-01 18:04:55 | 52.19794 | 15.17828 | 88° | 44km/h | 13146m | -3.7m/s | -50.4°C | 3.8% | 167.8hPa | 2.6V | 08:13:29 | 01:55:13 | 00:00:00 | |
| DB0DAN | 2026-09-01 18:04:55 | 52.19810 | 15.17918 | 66° | 53km/h | 13127m | -3.9m/s | -50.5°C | 1.6% | 168.35hPa | 2.6V | 00:00:00 | 00:00:00 | 00:00:00 | |
| AA1-15 | 2026-09-01 18:04:47 | 52.19796 | 15.17765 | 95° | 60km/h | 13157m | -3.6m/s | -50.4°C | 0.8% | 167.6hPa | 2.6V | 08:14:48 | 01:55:10 | 00:00:00 | |
| SP6BVK | 2026-09-01 18:04:46 | 52.19796 | 15.17765 | 96° | 60km/h | 13157m | -3.6m/s | -50.4°C | 1.6% | 167.6hPa | 2.6V | 08:13:00 | 00:00:00 | 00:00:00 | |
| DAC517 | 2026-09-01 18:04:45 | 52.19797 | 15.17740 | 95° | 64km/h | 13161m | -3.7m/s | -50.5°C | 1.6% | 167.5hPa | 2.6V | 08:13:00 | 00:00:00 | 00:00:00 | |
| DM0DOS-11 | 2026-09-01 18:04:44 | 52.19780 | 15.17538 | 70° | 69km/h | 13188m | -4.2m/s | -50.5°C | 3.8% | 166.8hPa | 2.6V | 08:13:40 | 01:55:02 | 00:00:00 | |
| SONDE2-12 | 2026-09-01 18:04:42 | 52.19790 | 15.17595 | 77° | 73km/h | 13180m | -4.0m/s | -50.5°C | 1.6% | 167.0hPa | 2.6V | 00:00:00 | 00:00:00 | 00:00:00 | |
| DB0DAN | 2026-09-01 18:04:40 | 52.19786 | 15.17565 | 74° | 69km/h | 13184m | -4.1m/s | -50.5°C | 1.5% | 166.86hPa | 2.6V | 00:00:00 | 00:00:00 | 00:00:00 | |
| AA1-15 | 2026-09-01 18:04:36 | 52.19763 | 15.17466 | 68° | 55km/h | 13200m | -3.5m/s | -50.6°C | 0.8% | 166.5hPa | 2.7V | 08:14:48 | 01:54:59 | 00:00:00 | |
| DM0DOS-11 | 2026-09-01 18:04:34 | 52.19754 | 15.17323 | 96° | 58km/h | 13226m | -3.9m/s | -50.6°C | 3.8% | 165.8hPa | 2.6V | 08:13:50 | 01:54:52 | 00:00:00 | |
| AA1-15 | 2026-09-01 18:04:26 | 52.19759 | 15.17243 | 93° | 71km/h | 13238m | -3.9m/s | -50.6°C | 0.6% | 165.5hPa | 2.6V | 08:14:48 | 01:54:49 | 00:00:00 | |
| DB0DAN | 2026-09-01 18:04:25 | 52.19759 | 15.17212 | 91° | 73km/h | 13242m | -3.9m/s | -50.6°C | 1.5% | 165.43hPa | 2.6V | 00:00:00 | 00:00:00 | 00:00:00 | |
| DAC517 | 2026-09-01 18:04:24 | 52.19759 | 15.17212 | 92° | 75km/h | 13242m | -3.9m/s | -50.6°C | 1.5% | 165.4hPa | 2.6V | 08:13:00 | 00:00:00 | 00:00:00 | |
| DM0DOS-11 | 2026-09-01 18:04:24 | 52.19741 | 15.17023 | 72° | 71km/h | 13265m | -3.5m/s | -50.5°C | 3.7% | 164.8hPa | 2.6V | 08:14:00 | 01:54:42 | 00:00:00 | |
| KRY50SP-1 | 2026-09-01 18:04:22 | 52.19757 | 15.17148 | 86° | 80km/h | 13250m | -4.0m/s | -50.6°C | 1.4% | 165.2hPa | 2.6V | 08:13:00 | 00:00:00 | 00:00:00 | |
| SP3BTT-10 | 2026-09-01 18:04:20 | 52.19747 | 15.17052 | 75° | 68km/h | 13262m | -3.7m/s | -50.4°C | 3.7% | 164.9hPa | 2.6V | 00:00:00 | 00:00:00 | 00:00:00 | |
| KRY50SP-1 | 2026-09-01 18:04:17 | 52.19736 | 15.16997 | 72° | 66km/h | 13269m | -3.6m/s | -50.6°C | 1.5% | 164.8hPa | 2.6V | 08:14:00 | 00:00:00 | 00:00:00 | |
| DM0DOS-11 | 2026-09-01 18:04:14 | 52.19727 | 15.16778 | 92° | 73km/h | 13303m | -3.8m/s | -50.4°C | 3.7% | 163.9hPa | 2.6V | 08:14:10 | 01:54:32 | 00:00:00 | |
| SONDE2-12 | 2026-09-01 18:04:11 | 52.19725 | 15.16807 | 94° | 68km/h | 13299m | -3.8m/s | -50.3°C | 1.5% | 164.0hPa | 2.6V | 00:00:00 | 00:00:00 | 00:00:00 | |
| DB0DAN | 2026-09-01 18:04:10 | 52.19725 | 15.16807 | 94° | 66km/h | 13299m | -3.8m/s | -50.3°C | 1.5% | 163.99hPa | 2.6V | 00:00:00 | 00:00:00 | 00:00:00 | |
| AA1-15 | 2026-09-01 18:04:05 | 52.19723 | 15.16647 | 83° | 84km/h | 13318m | -3.9m/s | -50°C | 0.4% | 163.5hPa | 2.6V | 08:14:48 | 01:54:28 | 00:00:00 | |
| DAC517 | 2026-09-01 18:04:04 | 52.19723 | 15.16647 | 83° | 84km/h | 13318m | -3.9m/s | -50.0°C | 1.4% | 163.5hPa | 2.6V | 00:00:00 | 00:00:00 | 00:00:00 | |
| DB0NH | 2026-09-01 18:04:02 | 52.19710 | 15.16548 | 74° | 68km/h | 13330m | -4.0m/s | -49.9°C | 3.5% | 163.2hPa | 2.6V | 00:00:00 | 01:54:25 | 00:00:00 | |
| DL2RXE-15 | 2026-09-01 18:04:00 | 52.19705 | 15.16518 | 72° | 75km/h | 13334m | -3.9m/s | -49.9°C | 1.3% | 163.1hPa | 2.6V | 00:00:00 | 00:00:00 | 00:00:00 | |
| DB0DAN | 2026-09-01 18:03:55 | 52.19677 | 15.16374 | 83° | 51km/h | 13357m | -3.9m/s | -50°C | 1.4% | 162.56hPa | 2.6V | 00:00:00 | 00:00:00 | 00:00:00 | |
| DM0DOS-11 | 2026-09-01 18:03:54 | 52.19679 | 15.16215 | 89° | 78km/h | 13379m | -3.6m/s | -49.9°C | 3.4% | 162hPa | 2.6V | 08:14:30 | 01:54:12 | 00:00:00 | |
| AA1-15 | 2026-09-01 18:03:54 | 52.19676 | 15.16352 | 89° | 55km/h | 13361m | -3.9m/s | -50°C | 0.4% | 162.4hPa | 2.6V | 08:14:48 | 01:54:17 | 00:00:00 | |
| SONCRA | 2026-09-01 18:03:47 | 52.19674 | 15.16113 | 80° | 84km/h | 13391m | -3.9m/s | -49.9°C | 1.3% | 161.7hPa | 2.6V | 00:00:00 | 00:00:00 | 00:00:00 | |
| DM0DOS-11 | 2026-09-01 18:03:44 | 52.19640 | 15.15912 | 78° | 57km/h | 13418m | -3.9m/s | -50.1°C | 3.6% | 161hPa | 2.6V | 08:14:40 | 01:54:02 | 00:00:00 | |
| AA1-15 | 2026-09-01 18:03:43 | 52.19659 | 15.16016 | 73° | 77km/h | 13402m | -3.9m/s | -50°C | 0.4% | 161.4hPa | 2.6V | 08:14:48 | 01:54:06 | 00:00:00 | |
| SP3WXH-11 | 2026-09-01 18:03:42 | 52.19653 | 15.15987 | 71° | 69km/h | 13406m | -4.0m/s | -50.1°C | 1.4% | 161.3hPa | 2.6V | 00:00:00 | 00:00:00 | 00:00:00 | |
| DB0DAN | 2026-09-01 18:03:40 | 52.19643 | 15.15935 | 74° | 58km/h | 13414m | -3.9m/s | -50.1°C | 1.4% | 161.16hPa | 2.6V | 00:00:00 | 00:00:00 | 00:00:00 | |
| SONDE2-12 | 2026-09-01 18:03:40 | 52.19640 | 15.15912 | 78° | 57km/h | 13418m | -3.9m/s | -50.2°C | 1.4% | 161.0hPa | 2.6V | 00:00:00 | 00:00:00 | 00:00:00 | |
| DL2RXE-15 | 2026-09-01 18:03:39 | 52.19643 | 15.15935 | 75° | 60km/h | 13414m | -3.9m/s | -50.1°C | 1.4% | 161.2hPa | 2.6V | 00:00:00 | 00:00:00 | 00:00:00 | |
| KRY50SP-1 | 2026-09-01 18:03:38 | 52.19640 | 15.15912 | 79° | 57km/h | 13418m | -3.9m/s | -50.2°C | 1.4% | 161.0hPa | 2.6V | 08:14:00 | 00:00:00 | 00:00:00 | |
| SP3BTT-10 | 2026-09-01 18:03:36 | 52.19635 | 15.15844 | 91° | 66km/h | 13430m | -3.9m/s | -50.1°C | 3.6% | 160.7hPa | 2.6V | 08:14:00 | 00:00:00 | 00:00:00 | |
| EDDB2-12 | 2026-09-01 18:03:35 | 52.19636 | 15.15820 | 93° | 58km/h | 13434m | -4.0m/s | -50.2°C | 1.3% | 160.7hPa | 2.6V | 00:00:00 | 00:00:00 | 00:00:00 | |
| DM0DOS-11 | 2026-09-01 18:03:34 | 52.19645 | 15.15645 | 91° | 82km/h | 13458m | -3.9m/s | -50.3°C | 3.6% | 160.1hPa | 2.6V | 08:14:50 | 01:53:52 | 00:00:00 | |
| AA1-15 | 2026-09-01 18:03:32 | 52.19641 | 15.15740 | 96° | 71km/h | 13446m | -4.1m/s | -50.3°C | 0.4% | 160.3hPa | 2.6V | 08:14:48 | 01:53:55 | 00:00:00 | |
| DB0NH | 2026-09-01 18:03:32 | 52.19640 | 15.15740 | 97° | 71km/h | 13446m | -4.0m/s | -50.2°C | 3.5% | 160.3hPa | 2.6V | 00:00:00 | 01:53:55 | 00:00:00 | |
| EDDB2-11 | 2026-09-01 18:03:31 | 52.19642 | 15.15710 | 95° | 75km/h | 13450m | -4.0m/s | -50.3°C | 1.3% | 160.3hPa | 2.6V | 00:00:00 | 00:00:00 | 00:00:00 | |
| 13BRC | 2026-09-01 18:03:29 | 52.19645 | 15.15645 | 92° | 82km/h | 13458m | -3.9m/s | -50.3°C | 1.4% | 160.1hPa | 2.6V | 08:15:00 | 00:00:00 | 00:00:00 | |
| KRY50SP-1 | 2026-09-01 18:03:27 | 52.19645 | 15.15611 | 90° | 84km/h | 13461m | -3.9m/s | -50.3°C | 1.3% | 160.0hPa | 2.6V | 08:15:00 | 00:00:00 | 00:00:00 | |
| DB0DAN | 2026-09-01 18:03:25 | 52.19640 | 15.15509 | 82° | 75km/h | 13473m | -3.9m/s | -50.4°C | 1.4% | 159.69hPa | 2.6V | 00:00:00 | 00:00:00 | 00:00:00 | |
| DM0DOS-11 | 2026-09-01 18:03:24 | 52.19627 | 15.15349 | 89° | 57km/h | 13497m | -3.9m/s | -50.2°C | 3.5% | 159.1hPa | 2.6V | 08:15:00 | 01:53:42 | 00:00:00 | |
| AA1-15 | 2026-09-01 18:03:21 | 52.19629 | 15.15396 | 83° | 60km/h | 13489m | -4m/s | -50.3°C | 0.4% | 159.3hPa | 2.6V | 08:15:39 | 01:53:44 | 00:00:00 | |
| KRY50SP-1 | 2026-09-01 18:03:17 | 52.19628 | 15.15303 | 97° | 57km/h | 13505m | -4.0m/s | -50.1°C | 1.3% | 158.9hPa | 2.6V | 08:15:00 | 00:00:00 | 00:00:00 | |
| SONCRA | 2026-09-01 18:03:16 | 52.19633 | 15.15256 | 101° | 60km/h | 13513m | -4.1m/s | -50.1°C | 1.3% | 158.7hPa | 2.6V | 00:00:00 | 00:00:00 | 00:00:00 | |
| DM0DOS-11 | 2026-09-01 18:03:14 | 52.19653 | 15.15078 | 94° | 82km/h | 13537m | -3.8m/s | -50.1°C | 3.5% | 158.1hPa | 2.6V | 08:15:10 | 01:53:32 | 00:00:00 | |
| DAC517 | 2026-09-01 18:03:12 | 52.19640 | 15.15203 | 104° | 69km/h | 13521m | -4.1m/s | -50.1°C | 1.3% | 158.5hPa | 2.6V | 08:15:00 | 00:00:00 | 00:00:00 | |
| KRY50SP-1 | 2026-09-01 18:03:11 | 52.19644 | 15.15174 | 103° | 75km/h | 13525m | -3.8m/s | -50.1°C | 1.3% | 158.4hPa | 2.6V | 08:15:00 | 00:00:00 | 00:00:00 | |
| DB0DAN | 2026-09-01 18:03:10 | 52.19651 | 15.15112 | 97° | 77km/h | 13533m | -3.9m/s | -50.1°C | 1.3% | 158.24hPa | 2.6V | 00:00:00 | 00:00:00 | 00:00:00 | |
| AA1-15 | 2026-09-01 18:03:10 | 52.19651 | 15.15112 | 97° | 80km/h | 13533m | -3.9m/s | -50.1°C | 0.4% | 158.2hPa | 2.6V | 08:15:39 | 01:53:33 | 00:00:00 | |
| SONDE2-12 | 2026-09-01 18:03:09 | 52.19653 | 15.15045 | 90° | 82km/h | 13541m | -3.9m/s | -50.1°C | 1.4% | 158.0hPa | 2.7V | 00:00:00 | 00:00:00 | 00:00:00 | |
| 13BRC | 2026-09-01 18:03:08 | 52.19653 | 15.15078 | 95° | 82km/h | 13537m | -3.8m/s | -50.1°C | 1.3% | 158.1hPa | 2.7V | 08:15:00 | 00:00:00 | 00:00:00 | |
| KRY50SP-1 | 2026-09-01 18:03:05 | 52.19652 | 15.14978 | 86° | 78km/h | 13549m | -4.0m/s | -50.2°C | 1.3% | 157.8hPa | 2.7V | 08:15:00 | 00:00:00 | 00:00:00 | |
| DM0DOS-11 | 2026-09-01 18:03:04 | 52.19638 | 15.14795 | 91° | 51km/h | 13578m | -4.2m/s | -50.2°C | 3.5% | 157.2hPa | 2.7V | 08:15:20 | 01:53:22 | 00:00:00 | |
| AA1-15 | 2026-09-01 18:03:00 | 52.19638 | 15.14817 | 86° | 53km/h | 13574m | -4.2m/s | -50.2°C | 0.4% | 157.3hPa | 2.7V | 08:15:39 | 01:53:23 | 00:00:00 | |
| EDDB2-11 | 2026-09-01 18:03:00 | 52.19638 | 15.14817 | 86° | 53km/h | 13574m | -4.2m/s | -50.2°C | 1.3% | 157.3hPa | 2.6V | 00:00:00 | 00:00:00 | 00:00:00 | |
| DB0DAN | 2026-09-01 18:02:55 | 52.19648 | 15.14709 | 108° | 57km/h | 13595m | -4.2m/s | -50.4°C | 1.3% | 156.74hPa | 2.6V | 00:00:00 | 00:00:00 | 00:00:00 | |
| DM0DOS-11 | 2026-09-01 18:02:54 | 52.19683 | 15.14541 | 104° | 82km/h | 13621m | -4.5m/s | -50.6°C | 3.6% | 156.1hPa | 2.7V | 08:15:30 | 01:53:12 | 00:00:00 | |
| AA1-15 | 2026-09-01 18:02:49 | 52.19683 | 15.14541 | 105° | 82km/h | 13622m | -4.5m/s | -50.6°C | 0.4% | 156.1hPa | 2.7V | 08:15:39 | 01:53:12 | 00:00:00 | |
| SONCRA | 2026-09-01 18:02:45 | 52.19693 | 15.14381 | 86° | 68km/h | 13642m | -3.8m/s | -50.9°C | 1.4% | 155.6hPa | 2.7V | 00:00:00 | 00:00:00 | 00:00:00 | |
| DM0DOS-11 | 2026-09-01 18:02:44 | 52.19691 | 15.14267 | 96° | 47km/h | 13663m | -4.6m/s | -50.7°C | 3.6% | 155.1hPa | 2.7V | 08:15:40 | 01:53:02 | 00:00:00 | |
| OE3JTB-15 | 2026-09-01 18:02:42 | 52.19691 | 15.14330 | 87° | 58km/h | 13650m | -4.1m/s | -50.7°C | 3.6% | 155.4hPa | 2.6V | 00:00:00 | 00:00:00 | 00:00:00 | |
| SP6BVK | 2026-09-01 18:02:41 | 52.19691 | 15.14330 | 87° | 57km/h | 13650m | -4.2m/s | -50.8°C | 1.4% | 155.5hPa | 2.6V | 08:15:00 | 00:00:00 | 00:00:00 | |
| DB0DAN | 2026-09-01 18:02:40 | 52.19690 | 15.14287 | 92° | 47km/h | 13658m | -4.5m/s | -50.7°C | 1.4% | 155.21hPa | 2.6V | 00:00:00 | 00:00:00 | 00:00:00 | |
| AA1-15 | 2026-09-01 18:02:38 | 52.19693 | 15.14248 | 102° | 47km/h | 13668m | -4.6m/s | -50.7°C | 0.4% | 155hPa | 2.7V | 08:16:30 | 01:53:01 | 00:00:00 | |
| SONDE2-12 | 2026-09-01 18:02:38 | 52.19696 | 15.14229 | 108° | 47km/h | 13672m | -4.4m/s | -50.6°C | 1.4% | 154.9hPa | 2.6V | 00:00:00 | 00:00:00 | 00:00:00 | |
| DAC517 | 2026-09-01 18:02:37 | 52.19693 | 15.14248 | 103° | 47km/h | 13668m | -4.6m/s | -50.7°C | 1.3% | 155.0hPa | 2.6V | 08:16:00 | 00:00:00 | 00:00:00 | |
| DM0DOS-11 | 2026-09-01 18:02:34 | 52.19740 | 15.14028 | 97° | 77km/h | 13705m | -4m/s | -50.4°C | 3.6% | 154.1hPa | 2.6V | 08:15:50 | 01:52:52 | 00:00:00 | |
| AA1-15 | 2026-09-01 18:02:28 | 52.19742 | 15.13997 | 94° | 75km/h | 13709m | -4.2m/s | -50.3°C | 0.4% | 154hPa | 2.7V | 08:16:30 | 01:52:51 | 00:00:00 | |
| 13BRC | 2026-09-01 18:02:27 | 52.19741 | 15.13997 | 95° | 75km/h | 13710m | -4.2m/s | -50.3°C | 1.3% | 154.0hPa | 2.6V | 08:16:00 | 00:00:00 | 00:00:00 | |
| DB0DAN | 2026-09-01 18:02:25 | 52.19741 | 15.13909 | 85° | 64km/h | 13722m | -4.4m/s | -50.2°C | 1.2% | 153.7hPa | 2.6V | 00:00:00 | 00:00:00 | 00:00:00 | |
| DM0DOS-11 | 2026-09-01 18:02:24 | 52.19735 | 15.13777 | 99° | 44km/h | 13749m | -4.2m/s | -50.4°C | 3.5% | 153.1hPa | 2.6V | 08:16:00 | 01:52:42 | 00:00:00 | |
| AA1-15 | 2026-09-01 18:02:17 | 52.19742 | 15.13741 | 111° | 49km/h | 13757m | -4.2m/s | -50.4°C | 0.4% | 152.9hPa | 2.7V | 08:16:30 | 01:52:40 | 00:00:00 | |
| DM0DOS-11 | 2026-09-01 18:02:14 | 52.19778 | 15.13530 | 92° | 77km/h | 13791m | -4.4m/s | -50.7°C | 3.5% | 152.1hPa | 2.6V | 08:16:10 | 01:52:32 | 00:00:00 | |
| SONCRA | 2026-09-01 18:02:14 | 52.19764 | 15.13650 | 108° | 69km/h | 13774m | -4.3m/s | -50.5°C | 1.3% | 152.5hPa | 2.6V | 00:00:00 | 00:00:00 | 00:00:00 | |
| OE3JTB-15 | 2026-09-01 18:02:13 | 52.19764 | 15.13650 | 109° | 66km/h | 13774m | -4.2m/s | -50.5°C | 3.5% | 152.4hPa | 2.6V | 00:00:00 | 01:52:36 | 00:00:00 | |
| KRY50SP-1 | 2026-09-01 18:02:12 | 52.19764 | 15.13650 | 109° | 69km/h | 13774m | -4.3m/s | -50.5°C | 1.3% | 152.5hPa | 2.6V | 08:16:00 | 00:00:00 | 00:00:00 | |
| DB0DAN | 2026-09-01 18:02:10 | 52.19776 | 15.13562 | 96° | 73km/h | 13787m | -4.3m/s | -50.6°C | 1.3% | 152.19hPa | 2.6V | 00:00:00 | 00:00:00 | 00:00:00 | |
| AA1-15 | 2026-09-01 18:02:06 | 52.19775 | 15.13439 | 83° | 71km/h | 13805m | -4.8m/s | -50.9°C | 0.4% | 151.8hPa | 2.7V | 08:16:30 | 01:52:29 | 00:00:00 | |
| EDDB2-12 | 2026-09-01 18:02:02 | 52.19767 | 15.13341 | 86° | 49km/h | 13823m | -3.8m/s | -51.1°C | 1.3% | 151.4hPa | 2.7V | 00:00:00 | 00:00:00 | 00:00:00 | |
| KRY50SP-1 | 2026-09-01 18:02:01 | 52.19767 | 15.13341 | 88° | 49km/h | 13823m | -3.8m/s | -51.1°C | 1.3% | 151.4hPa | 2.7V | 08:16:00 | 00:00:00 | 00:00:00 | |
| EDDB2-11 | 2026-09-01 18:01:58 | 52.19778 | 15.13243 | 108° | 53km/h | 13843m | -4.7m/s | -51.3°C | 1.3% | 150.9hPa | 2.7V | 00:00:00 | 00:00:00 | 00:00:00 | |
| DB0DAN | 2026-09-01 18:01:55 | 52.19787 | 15.13199 | 106° | 57km/h | 13853m | -4.6m/s | -51.4°C | 1.4% | 150.68hPa | 2.7V | 00:00:00 | 00:00:00 | 00:00:00 | |
| AA1-15 | 2026-09-01 18:01:55 | 52.19787 | 15.13199 | 106° | 60km/h | 13853m | -4.6m/s | -51.4°C | 0.5% | 150.7hPa | 2.7V | 08:16:30 | 01:52:18 | 00:00:00 | |
| DM0DOS-11 | 2026-09-01 18:01:54 | 52.19798 | 15.13036 | 90° | 69km/h | 13879m | -4.9m/s | -51.3°C | 3.7% | 150.1hPa | 2.7V | 08:16:30 | 01:52:12 | 00:00:00 | |
| KRY50SP-1 | 2026-09-01 18:01:49 | 52.19797 | 15.13065 | 92° | 69km/h | 13874m | -4.8m/s | -51.4°C | 1.3% | 150.2hPa | 2.6V | 08:16:00 | 00:00:00 | 00:00:00 | |
| 13BRC | 2026-09-01 18:01:45 | 52.19799 | 15.12951 | 94° | 68km/h | 13894m | -4.3m/s | -51.3°C | 1.3% | 149.7hPa | 2.6V | 08:17:00 | 00:00:00 | 00:00:00 | |
| DM0DOS-11 | 2026-09-01 18:01:44 | 52.19808 | 15.12765 | 94° | 64km/h | 13925m | -4.5m/s | -51.4°C | 3.7% | 149hPa | 2.6V | 08:16:40 | 01:52:02 | 00:00:00 | |
| AA1-15 | 2026-09-01 18:01:44 | 52.19801 | 15.12896 | 95° | 68km/h | 13902m | -4.8m/s | -51.3°C | 0.4% | 149.5hPa | 2.6V | 08:17:21 | 01:52:07 | 00:00:00 | |
| OE3JTB-15 | 2026-09-01 18:01:44 | 52.19801 | 15.12896 | 96° | 69km/h | 13903m | -4.8m/s | -51.3°C | 3.6% | 149.5hPa | 2.6V | 00:00:00 | 00:00:00 | 00:00:00 | |
| SONCRA | 2026-09-01 18:01:43 | 52.19804 | 15.12842 | 94° | 64km/h | 13911m | -4.0m/s | -51.3°C | 1.3% | 149.3hPa | 2.6V | 00:00:00 | 00:00:00 | 00:00:00 | |
| DB0DAN | 2026-09-01 18:01:40 | 52.19807 | 15.12790 | 96° | 60km/h | 13921m | -4.9m/s | -51.4°C | 1.4% | 149.1hPa | 2.6V | 00:00:00 | 00:00:00 | 00:00:00 | |
| KRY50SP-1 | 2026-09-01 18:01:37 | 52.19809 | 15.12738 | 94° | 64km/h | 13929m | -3.8m/s | -51.4°C | 1.4% | 148.9hPa | 2.6V | 08:17:00 | 00:00:00 | 00:00:00 | |
| SONDE2-11 | 2026-09-01 18:01:36 | 52.19811 | 15.12608 | 89° | 66km/h | 13953m | -4.5m/s | -51.4°C | 1.4% | 148.4hPa | 2.6V | 00:00:00 | 00:00:00 | 00:00:00 | |
| SONDE2-12 | 2026-09-01 18:01:35 | 52.19811 | 15.12661 | 90° | 62km/h | 13943m | -5.0m/s | -51.4°C | 1.5% | 148.6hPa | 2.6V | 00:00:00 | 00:00:00 | 00:00:00 | |
| DM0DOS-11 | 2026-09-01 18:01:34 | 52.19808 | 15.12489 | 88° | 77km/h | 13971m | -4.7m/s | -51.3°C | 3.7% | 147.9hPa | 2.6V | 08:16:50 | 01:51:52 | 00:00:00 | |
| DAC517 | 2026-09-01 18:01:33 | 52.19811 | 15.12634 | 91° | 64km/h | 13948m | -4.8m/s | -51.4°C | 1.4% | 148.5hPa | 2.6V | 00:00:00 | 00:00:00 | 00:00:00 | |
| KRY50SP-1 | 2026-09-01 18:01:31 | 52.19810 | 15.12580 | 89° | 69km/h | 13957m | -4.3m/s | -51.3°C | 1.4% | 148.3hPa | 2.6V | 08:17:00 | 00:00:00 | 00:00:00 | |
| DF8AY | 2026-09-01 18:01:27 | 52.19807 | 15.12426 | 88° | 77km/h | 13980m | -4.9m/s | -51.3°C | 0.4% | 147.7hPa | 2.6V | 08:17:21 | 01:51:50 | 00:00:00 | |
| DB0DAN | 2026-09-01 18:01:25 | 52.19806 | 15.12364 | 88° | 69km/h | 13989m | -4.5m/s | -51.4°C | 1.3% | 147.57hPa | 2.7V | 00:00:00 | 00:00:00 | 00:00:00 | |
| DM0DOS-11 | 2026-09-01 18:01:24 | 52.19796 | 15.12192 | 83° | 71km/h | 14018m | -5.2m/s | -51.5°C | 3.8% | 146.9hPa | 2.6V | 08:17:00 | 01:51:42 | 00:00:00 | |
| SP3BTT-10 | 2026-09-01 18:01:20 | 52.19797 | 15.12221 | 84° | 66km/h | 14013m | -4.8m/s | -51.4°C | 3.8% | 147.0hPa | 2.7V | 00:00:00 | 00:00:00 | 00:00:00 | |
| SP6BVK | 2026-09-01 18:01:19 | 52.19797 | 15.12221 | 84° | 69km/h | 14013m | -4.9m/s | -51.5°C | 1.4% | 147.0hPa | 2.7V | 08:17:00 | 00:00:00 | 00:00:00 | |
| OE3JTB-15 | 2026-09-01 18:01:15 | 52.19787 | 15.12067 | 86° | 69km/h | 14038m | -4.4m/s | -51.5°C | 3.8% | 146.3hPa | 2.7V | 00:00:00 | 00:00:00 | 00:00:00 | |
| DM0DOS-11 | 2026-09-01 18:01:14 | 52.19774 | 15.11875 | 80° | 73km/h | 14067m | -5.1m/s | -51.5°C | 3.8% | 145.8hPa | 2.7V | 08:17:10 | 01:51:32 | 00:00:00 | |
| KRY50SP-1 | 2026-09-01 18:01:13 | 52.19786 | 15.12033 | 87° | 80km/h | 14042m | -4.8m/s | -51.5°C | 1.4% | 146.3hPa | 2.6V | 08:17:00 | 00:00:00 | 00:00:00 | |
| DB0DAN | 2026-09-01 18:01:10 | 52.19777 | 15.11905 | 81° | 71km/h | 14062m | -5m/s | -51.5°C | 1.4% | 145.89hPa | 2.6V | 00:00:00 | 00:00:00 | 00:00:00 | |
| DB0NH | 2026-09-01 18:01:10 | 52.19777 | 15.11905 | 82° | 73km/h | 14062m | -4.9m/s | -51.5°C | 3.9% | 145.8hPa | 2.6V | 08:17:00 | 01:51:33 | 00:00:00 | |
| DAC517 | 2026-09-01 18:01:09 | 52.19777 | 15.11905 | 82° | 75km/h | 14062m | -5.0m/s | -51.5°C | 1.4% | 145.9hPa | 2.6V | 00:00:00 | 00:00:00 | 00:00:00 | |
| SP3WXH-11 | 2026-09-01 18:01:07 | 52.19768 | 15.11817 | 80° | 69km/h | 14077m | -5.3m/s | -51.4°C | 1.4% | 145.6hPa | 2.6V | 00:00:00 | 00:00:00 | 00:00:00 | |
| DM0DOS-11 | 2026-09-01 18:01:04 | 52.19752 | 15.11592 | 87° | 73km/h | 14118m | -4.7m/s | -50.5°C | 3.6% | 144.6hPa | 2.6V | 08:17:20 | 01:51:22 | 00:00:00 | |
| KRY50SP-1 | 2026-09-01 18:01:01 | 52.19756 | 15.11679 | 85° | 68km/h | 14103m | -5.6m/s | -51.1°C | 1.4% | 145.0hPa | 2.6V | 08:17:00 | 00:00:00 | 00:00:00 | |
| DL1XH-west | 2026-09-01 18:00:58 | 52.19752 | 15.11562 | 90° | 75km/h | 14123m | -4.8m/s | 0°C | 0% | 0hPa | 2.6V | 08:17:21 | 01:51:21 | 00:00:00 | |
| DF8AY | 2026-09-01 18:00:53 | 52.19754 | 15.11422 | 91° | 60km/h | 14149m | -4.9m/s | -50.6°C | 0.4% | 144hPa | 2.6V | 08:18:12 | 01:51:16 | 00:00:00 | |
| KRY50SP-1 | 2026-09-01 18:00:50 | 52.19753 | 15.11375 | 88° | 57km/h | 14159m | -5.1m/s | -50.6°C | 1.3% | 143.8hPa | 2.6V | 08:18:00 | 00:00:00 | 00:00:00 | |
| DM0DOS-11 | 2026-09-01 18:00:47 | 52.19755 | 15.11156 | 96° | 75km/h | 14199m | -5m/s | -50.8°C | 3.6% | 142.9hPa | 2.6V | 08:17:36 | 01:51:06 | 00:00:00 | |
| DAC517 | 2026-09-01 18:00:46 | 52.19750 | 15.11276 | 90° | 68km/h | 14180m | -4.9m/s | -50.8°C | 1.3% | 143.3hPa | 2.6V | 08:18:00 | 00:00:00 | 00:00:00 | |
| OE3JTB-15 | 2026-09-01 18:00:45 | 52.19751 | 15.11217 | 95° | 66km/h | 14189m | -4.6m/s | -50.8°C | 3.6% | 143.1hPa | 2.6V | 00:00:00 | 01:51:08 | 00:00:00 | |
| 13BRC | 2026-09-01 18:00:44 | 52.19751 | 15.11217 | 95° | 73km/h | 14189m | -4.6m/s | -50.8°C | 1.3% | 143.1hPa | 2.6V | 08:18:00 | 00:00:00 | 00:00:00 | |
| AA1-15 | 2026-09-01 18:00:40 | 52.19759 | 15.11065 | 92° | 69km/h | 14214m | -5.2m/s | -50.8°C | 0.5% | 142.5hPa | 2.6V | 08:18:12 | 01:51:03 | 00:00:00 | |
| DB0DAN | 2026-09-01 18:00:40 | 52.19759 | 15.11065 | 92° | 66km/h | 14214m | -5.2m/s | -50.8°C | 1.3% | 142.53hPa | 2.6V | 00:00:00 | 00:00:00 | 00:00:00 | |
| KRY50SP-1 | 2026-09-01 18:00:39 | 52.19759 | 15.11065 | 93° | 69km/h | 14214m | -5.2m/s | -50.8°C | 1.3% | 142.5hPa | 2.7V | 08:18:00 | 00:00:00 | 00:00:00 | |
| DM0DOS-11 | 2026-09-01 18:00:37 | 52.19752 | 15.10891 | 90° | 57km/h | 14249m | -4.9m/s | -50.9°C | 3.7% | 141.8hPa | 2.7V | 08:17:46 | 01:50:56 | 00:00:00 | |
| DL2RXE-15 | 2026-09-01 18:00:35 | 52.19755 | 15.10962 | 84° | 58km/h | 14233m | -5.4m/s | -50.8°C | 1.3% | 142.2hPa | 2.6V | 00:00:00 | 00:00:00 | 00:00:00 | |
| SONDE2-12 | 2026-09-01 18:00:33 | 52.19752 | 15.10891 | 90° | 57km/h | 14249m | -4.9m/s | -50.9°C | 1.4% | 141.8hPa | 2.6V | 00:00:00 | 00:00:00 | 00:00:00 | |
| DF8AY | 2026-09-01 18:00:31 | 52.19755 | 15.10842 | 99° | 62km/h | 14258m | -4.9m/s | -50.9°C | 0.5% | 141.6hPa | 2.6V | 08:18:12 | 01:50:54 | 00:00:00 | |
| AA1-15 | 2026-09-01 18:00:29 | 52.19761 | 15.10789 | 104° | 69km/h | 14268m | -5.2m/s | -50.9°C | 0.4% | 141.3hPa | 2.6V | 08:18:12 | 01:50:52 | 00:00:00 | |
| KRY50SP-1 | 2026-09-01 18:00:27 | 52.19766 | 15.10760 | 105° | 75km/h | 14273m | -5.1m/s | -50.9°C | 1.4% | 141.2hPa | 2.7V | 08:18:00 | 00:00:00 | 00:00:00 | |
| DM0DOS-11 | 2026-09-01 18:00:26 | 52.19780 | 15.10537 | 84° | 69km/h | 14319m | -5.8m/s | -51.2°C | 3.6% | 140.3hPa | 2.7V | 08:17:58 | 01:50:44 | 00:00:00 | |
| DB0DAN | 2026-09-01 18:00:25 | 52.19779 | 15.10665 | 99° | 78km/h | 14289m | -7.4m/s | -51°C | 1.4% | 140.89hPa | 2.7V | 00:00:00 | 00:00:00 | 00:00:00 | |
| DF8AY | 2026-09-01 18:00:20 | 52.19779 | 15.10509 | 84° | 62km/h | 14324m | -5.3m/s | -51.2°C | 0.5% | 140.2hPa | 2.7V | 08:18:12 | 01:50:43 | 00:00:00 | |
| AA1-15 | 2026-09-01 18:00:19 | 52.19777 | 15.10485 | 85° | 55km/h | 14330m | -5.4m/s | -51.2°C | 0.5% | 140hPa | 2.6V | 08:18:12 | 01:50:42 | 00:00:00 | |
| SP6BVK | 2026-09-01 18:00:16 | 52.19778 | 15.10444 | 99° | 47km/h | 14341m | -6.0m/s | -51.2°C | 1.3% | 139.8hPa | 2.6V | 08:18:00 | 00:00:00 | 00:00:00 | |
| DM0DOS-11 | 2026-09-01 18:00:16 | 52.19798 | 15.10309 | 98° | 68km/h | 14376m | -5.1m/s | -51.2°C | 3.7% | 139.1hPa | 2.6V | 08:18:08 | 01:50:34 | 00:00:00 | |
| KRY50SP-1 | 2026-09-01 18:00:15 | 52.19780 | 15.10424 | 104° | 47km/h | 14347m | -6.1m/s | -51.2°C | 1.3% | 139.6hPa | 2.6V | 08:18:00 | 00:00:00 | 00:00:00 | |
| DL2RXE-15 | 2026-09-01 18:00:14 | 52.19783 | 15.10404 | 107° | 51km/h | 14354m | -6.3m/s | -51.3°C | 1.4% | 139.5hPa | 2.6V | 00:00:00 | 00:00:00 | 00:00:00 | |
| DB0DAN | 2026-09-01 18:00:10 | 52.19800 | 15.10281 | 97° | 68km/h | 14381m | -5.3m/s | -51.3°C | 1.4% | 138.95hPa | 2.6V | 00:00:00 | 00:00:00 | 00:00:00 | |
| DF8AY | 2026-09-01 18:00:09 | 52.19802 | 15.10252 | 97° | 73km/h | 14387m | -5.2m/s | -51.3°C | 0.5% | 138.8hPa | 2.7V | 08:18:12 | 01:50:32 | 00:00:00 | |
| AA1-15 | 2026-09-01 18:00:08 | 52.19804 | 15.10222 | 97° | 73km/h | 14391m | -4.3m/s | -51.3°C | 0.5% | 138.8hPa | 2.7V | 08:18:12 | 01:50:31 | 00:00:00 | |
| KRY50SP-1 | 2026-09-01 18:00:05 | 52.19809 | 15.10162 | 98° | 73km/h | 14402m | -6.0m/s | -51.4°C | 1.3% | 138.5hPa | 2.6V | 08:19:00 | 00:00:00 | 00:00:00 | |
| DF8AY | 2026-09-01 17:59:59 | 52.19818 | 15.09967 | 91° | 62km/h | 14441m | -5.6m/s | -51.4°C | 0.5% | 137.7hPa | 2.6V | 08:19:03 | 01:50:22 | 00:00:00 | |
| AA1-15 | 2026-09-01 17:59:57 | 52.19818 | 15.09917 | 89° | 60km/h | 14452m | -5.5m/s | -51.3°C | 0.5% | 137.4hPa | 2.7V | 08:19:03 | 01:50:20 | 00:00:00 | |
| SP6BVK | 2026-09-01 17:59:56 | 52.19818 | 15.09917 | 90° | 60km/h | 14452m | -5.5m/s | -51.3°C | 1.4% | 137.4hPa | 2.6V | 08:19:00 | 00:00:00 | 00:00:00 | |
| DB0DAN | 2026-09-01 17:59:55 | 52.19817 | 15.09869 | 88° | 55km/h | 14463m | -5.7m/s | -51.3°C | 1.3% | 137.21hPa | 2.6V | 00:00:00 | 00:00:00 | 00:00:00 | |
| DF8AY | 2026-09-01 17:59:49 | 52.19822 | 15.09740 | 102° | 51km/h | 14497m | -5.6m/s | -51.4°C | 0.5% | 136.5hPa | 2.7V | 08:19:03 | 01:50:12 | 00:00:00 | |
| DL2RXE-15 | 2026-09-01 17:59:46 | 52.19829 | 15.09697 | 106° | 55km/h | 14508m | -5.7m/s | -51.5°C | 1.4% | 136.2hPa | 2.6V | 00:00:00 | 00:00:00 | 00:00:00 | |
| KRY50SP-1 | 2026-09-01 17:59:43 | 52.19840 | 15.09629 | 107° | 60km/h | 14526m | -5.6m/s | -51.5°C | 1.4% | 135.9hPa | 2.6V | 08:19:00 | 00:00:00 | 00:00:00 | |
| 13BRC | 2026-09-01 17:59:42 | 52.19845 | 15.09606 | 106° | 62km/h | 14531m | -5.7m/s | -51.5°C | 1.4% | 135.8hPa | 2.6V | 08:19:00 | 00:00:00 | 00:00:00 | |
| OE3JTB-15 | 2026-09-01 17:59:41 | 52.19853 | 15.09556 | 104° | 58km/h | 14543m | -5.6m/s | -51.5°C | 3.8% | 135.5hPa | 2.6V | 00:00:00 | 00:00:00 | 00:00:00 | |
| DB0DAN | 2026-09-01 17:59:40 | 52.19856 | 15.09530 | 101° | 62km/h | 14548m | -5.6m/s | -51.6°C | 1.4% | 135.44hPa | 2.6V | 00:00:00 | 00:00:00 | 00:00:00 | |
| KRY50SP-1 | 2026-09-01 17:59:38 | 52.19859 | 15.09504 | 101° | 64km/h | 14554m | -5.6m/s | -51.6°C | 1.3% | 135.3hPa | 2.6V | 08:19:00 | 00:00:00 | 00:00:00 | |
| AA1-15 | 2026-09-01 17:59:35 | 52.19866 | 15.09396 | 92° | 68km/h | 14576m | -5.5m/s | -51.4°C | 0.5% | 134.9hPa | 2.6V | 08:19:03 | 01:49:58 | 00:00:00 | |
| SP3WXH-11 | 2026-09-01 17:59:34 | 52.19866 | 15.09369 | 90° | 68km/h | 14582m | -5.7m/s | -51.4°C | 1.3% | 134.7hPa | 2.7V | 00:00:00 | 00:00:00 | 00:00:00 | |
| KRY50SP-1 | 2026-09-01 17:59:32 | 52.19866 | 15.09340 | 90° | 68km/h | 14587m | -5.5m/s | -51.4°C | 1.3% | 134.6hPa | 2.7V | 08:19:00 | 00:00:00 | 00:00:00 | |
| SONDE2-12 | 2026-09-01 17:59:31 | 52.19865 | 15.09284 | 86° | 69km/h | 14599m | -5.9m/s | -51.4°C | 1.4% | 134.4hPa | 2.7V | 00:00:00 | 00:00:00 | 00:00:00 | |
| KRY50SP-1 | 2026-09-01 17:59:27 | 52.19860 | 15.09199 | 83° | 68km/h | 14617m | -6.0m/s | -51.5°C | 1.4% | 134.0hPa | 2.7V | 08:19:00 | 00:00:00 | 00:00:00 | |
| DL2RXE-15 | 2026-09-01 17:59:25 | 52.19855 | 15.09147 | 82° | 62km/h | 14629m | -5.7m/s | -51.6°C | 1.3% | 133.8hPa | 2.7V | 00:00:00 | 00:00:00 | 00:00:00 | |
| KRY50SP-1 | 2026-09-01 17:59:21 | 52.19845 | 15.09056 | 83° | 51km/h | 14651m | -5.5m/s | -51.7°C | 1.4% | 133.3hPa | 2.7V | 08:19:00 | 00:00:00 | 00:00:00 | |
| DF8AY | 2026-09-01 17:59:18 | 52.19841 | 15.08977 | 88° | 46km/h | 14672m | -5.6m/s | -51.6°C | 0.5% | 132.8hPa | 2.7V | 08:19:03 | 01:49:41 | 00:00:00 | |
| AA1-15 | 2026-09-01 17:59:13 | 52.19846 | 15.08877 | 101° | 55km/h | 14700m | -5.4m/s | -51.2°C | 0.4% | 132.3hPa | 2.7V | 08:19:54 | 01:49:36 | 00:00:00 | |
| DF8AY | 2026-09-01 17:59:09 | 52.19864 | 15.08756 | 104° | 66km/h | 14727m | -5.6m/s | -51.2°C | 0.5% | 131.7hPa | 2.6V | 08:19:54 | 01:49:31 | 00:00:00 | |
| AA1-15 | 2026-09-01 17:59:02 | 52.19881 | 15.08586 | 92° | 71km/h | 14761m | -5.4m/s | -51.3°C | 0.5% | 131.1hPa | 2.6V | 08:19:54 | 01:49:25 | 00:00:00 | |
| SONDE2-12 | 2026-09-01 17:59:00 | 52.19881 | 15.08529 | 87° | 68km/h | 14772m | -5.5m/s | -51.3°C | 1.4% | 130.8hPa | 2.7V | 00:00:00 | 00:00:00 | 00:00:00 | |
| DF8AY | 2026-09-01 17:58:57 | 52.19877 | 15.08446 | 84° | 64km/h | 14788m | -5.5m/s | -51.2°C | 0.5% | 130.6hPa | 2.7V | 08:19:54 | 01:49:20 | 00:00:00 | |
| EDDB2-12 | 2026-09-01 17:58:56 | 52.19875 | 15.08420 | 83° | 62km/h | 14793m | -5.5m/s | -51.1°C | 1.3% | 130.4hPa | 2.6V | 00:00:00 | 00:00:00 | 00:00:00 | |
| DB0DAN | 2026-09-01 17:58:55 | 52.19873 | 15.08395 | 83° | 57km/h | 14799m | -5.6m/s | -51°C | 1.3% | 130.29hPa | 2.6V | 00:00:00 | 00:00:00 | 00:00:00 | |
| AA1-15 | 2026-09-01 17:58:51 | 52.19866 | 15.08304 | 83° | 53km/h | 14821m | -5.5m/s | -50.9°C | 0.4% | 129.8hPa | 2.7V | 08:19:54 | 01:49:14 | 00:00:00 | |
| DF8AY | 2026-09-01 17:58:47 | 52.19861 | 15.08224 | 86° | 46km/h | 14843m | -5.7m/s | -50.9°C | 0.4% | 129.4hPa | 2.6V | 08:19:54 | 01:49:10 | 00:00:00 | |
| KRY50SP-1 | 2026-09-01 17:58:42 | 52.19860 | 15.08153 | 97° | 42km/h | 14866m | -5.9m/s | -50.9°C | 1.2% | 129.0hPa | 2.6V | 08:19:00 | 00:00:00 | 00:00:00 | |
| DB0DAN | 2026-09-01 17:58:40 | 52.19867 | 15.08102 | 105° | 42km/h | 14883m | -5.6m/s | -50.9°C | 1.2% | 128.61hPa | 2.6V | 00:00:00 | 00:00:00 | 00:00:00 | |
| AA1-15 | 2026-09-01 17:58:40 | 52.19867 | 15.08102 | 105° | 44km/h | 14883m | -5.6m/s | -50.9°C | 0.4% | 128.6hPa | 2.6V | 08:19:54 | 01:49:03 | 00:00:00 | |
| DF8AY | 2026-09-01 17:58:35 | 52.19885 | 15.08002 | 106° | 57km/h | 14911m | -5.6m/s | -51.2°C | 0.4% | 128.1hPa | 2.6V | 08:19:54 | 01:48:58 | 00:00:00 | |
| AA1-15 | 2026-09-01 17:58:29 | 52.19905 | 15.07855 | 99° | 64km/h | 14944m | -5.7m/s | -51.4°C | 0.4% | 127.4hPa | 2.7V | 08:19:54 | 01:48:52 | 00:00:00 | |
| DM0DOS-11 | 2026-09-01 17:58:27 | 52.19915 | 15.07672 | 92° | 62km/h | 14984m | -5.6m/s | -51.6°C | 3.7% | 126.7hPa | 2.7V | 08:19:57 | 01:48:45 | 00:00:00 | |
| DB0DAN | 2026-09-01 17:58:25 | 52.19912 | 15.07750 | 94° | 60km/h | 14967m | -5.5m/s | -51.5°C | 1.3% | 126.99hPa | 2.6V | 00:00:00 | 00:00:00 | 00:00:00 | |
| DF8AY | 2026-09-01 17:58:23 | 52.19914 | 15.07697 | 93° | 62km/h | 14978m | -5.6m/s | -51.5°C | 0.5% | 126.7hPa | 2.7V | 08:20:45 | 01:48:46 | 00:00:00 | |
| AA1-15 | 2026-09-01 17:58:19 | 52.19916 | 15.07597 | 92° | 60km/h | 15000m | -5.5m/s | -51.5°C | 0.5% | 126.3hPa | 2.6V | 08:21:36 | 01:48:42 | 00:00:00 | |
| DF8AY | 2026-09-01 17:58:13 | 52.19915 | 15.07453 | 86° | 57km/h | 15033m | -5.6m/s | -51.6°C | 0.4% | 125.7hPa | 2.6V | 08:20:45 | 01:48:36 | 00:00:00 | |
| OE3JTB-15 | 2026-09-01 17:58:13 | 52.19915 | 15.07453 | 86° | 42km/h | 15034m | -5.5m/s | -51.5°C | 3.7% | 125.6hPa | 2.7V | 00:00:00 | 00:00:00 | 00:00:00 | |
| DB0DAN | 2026-09-01 17:58:10 | 52.19911 | 15.07385 | 83° | 51km/h | 15051m | -5.8m/s | -51.6°C | 1.3% | 125.36hPa | 2.7V | 00:00:00 | 00:00:00 | 00:00:00 | |
| AA1-15 | 2026-09-01 17:58:08 | 52.19908 | 15.07343 | 83° | 51km/h | 15062m | -5.7m/s | -51.6°C | 0.4% | 125.1hPa | 2.7V | 08:21:36 | 01:48:31 | 00:00:00 | |
| DL2RXE-15 | 2026-09-01 17:58:07 | 52.19908 | 15.07343 | 84° | 51km/h | 15062m | -5.7m/s | -51.6°C | 1.3% | 125.1hPa | 2.6V | 00:00:00 | 00:00:00 | 00:00:00 | |
| DM0DOS-11 | 2026-09-01 17:58:05 | 52.19897 | 15.07192 | 85° | 42km/h | 15108m | -5.8m/s | -51.6°C | 3.7% | 124.2hPa | 2.6V | 08:20:19 | 01:48:23 | 00:00:00 | |
| DF8AY | 2026-09-01 17:58:02 | 52.19899 | 15.07227 | 84° | 44km/h | 15096m | -5.7m/s | -51.6°C | 0.4% | 124.5hPa | 2.7V | 08:20:45 | 01:48:25 | 00:00:00 | |
| SONDE2-12 | 2026-09-01 17:57:58 | 52.19896 | 15.07159 | 87° | 38km/h | 15120m | -5.9m/s | -51.6°C | 1.3% | 124.0hPa | 2.6V | 00:00:00 | 00:00:00 | 00:00:00 | |
| AA1-15 | 2026-09-01 17:57:57 | 52.19895 | 15.07143 | 88° | 38km/h | 15125m | -6m/s | -51.5°C | 0.4% | 123.9hPa | 2.6V | 08:21:36 | 01:48:20 | 00:00:00 | |
| DB0DAN | 2026-09-01 17:57:55 | 52.19895 | 15.07111 | 91° | 37km/h | 15137m | -5.8m/s | -51.6°C | 1.3% | 123.71hPa | 2.7V | 00:00:00 | 00:00:00 | 00:00:00 | |
| DF8AY | 2026-09-01 17:57:51 | 52.19898 | 15.07048 | 97° | 38km/h | 15160m | -5.7m/s | -51.6°C | 0.3% | 123.2hPa | 2.6V | 08:20:45 | 01:48:14 | 00:00:00 | |
| AA1-15 | 2026-09-01 17:57:46 | 52.19905 | 15.06977 | 99° | 31km/h | 15190m | -6m/s | -51.4°C | 0.3% | 122.7hPa | 2.6V | 08:21:36 | 01:48:09 | 00:00:00 | |
| DM0DOS-11 | 2026-09-01 17:57:45 | 52.19905 | 15.06902 | 79° | 33km/h | 15225m | -5.8m/s | -51.1°C | 3.5% | 122hPa | 2.7V | 08:20:39 | 01:48:03 | 00:00:00 | |
| DF8AY | 2026-09-01 17:57:41 | 52.19906 | 15.06915 | 83° | 31km/h | 15220m | -5.8m/s | -51.1°C | 0.3% | 122.1hPa | 2.7V | 08:20:45 | 01:48:04 | 00:00:00 | |
| DB0DAN | 2026-09-01 17:57:40 | 52.19905 | 15.06902 | 79° | 31km/h | 15225m | -5.8m/s | -51.1°C | 1.2% | 122.01hPa | 2.7V | 00:00:00 | 00:00:00 | 00:00:00 | |
| DB0NH | 2026-09-01 17:57:38 | 52.19901 | 15.06875 | 75° | 44km/h | 15237m | -5.3m/s | -51.1°C | 3.6% | 121.7hPa | 2.6V | 00:00:00 | 01:48:01 | 00:00:00 | |
| 13BRC | 2026-09-01 17:57:37 | 52.19901 | 15.06875 | 75° | 37km/h | 15237m | -5.3m/s | -51.2°C | 1.2% | 121.8hPa | 2.6V | 08:20:00 | 00:00:00 | 00:00:00 | |
| DM0DOS-11 | 2026-09-01 17:57:36 | 52.19882 | 15.06745 | 82° | 46km/h | 15280m | -5.7m/s | -51.2°C | 3.6% | 121hPa | 2.6V | 08:30:00 | 01:47:53 | 00:00:00 | |
| AA1-15 | 2026-09-01 17:57:35 | 52.19893 | 15.06830 | 74° | 40km/h | 15252m | -5.3m/s | -51.2°C | 0.3% | 121.5hPa | 2.7V | 08:21:36 | 01:47:58 | 00:00:00 | |
| DF8AY | 2026-09-01 17:57:31 | 52.19884 | 15.06763 | 81° | 44km/h | 15275m | -5.6m/s | -51.3°C | 0.4% | 121.1hPa | 2.6V | 08:22:27 | 01:47:54 | 00:00:00 | |
| DF8AY | 2026-09-01 17:57:20 | 52.19863 | 15.06561 | 72° | 42km/h | 15338m | -5.7m/s | -51.5°C | 0.4% | 119.9hPa | 2.7V | 08:22:27 | 01:47:43 | 00:00:00 | |
| DL1XH-west | 2026-09-01 17:57:17 | 52.19852 | 15.06513 | 68° | 42km/h | 15355m | -5.9m/s | -51.5°C | 0.3% | 119.6hPa | 2.6V | 08:22:27 | 01:47:40 | 00:00:00 | |
| AA1-15 | 2026-09-01 17:57:14 | 52.19839 | 15.06465 | 66° | 42km/h | 15373m | -5.9m/s | -51.6°C | 0.3% | 119.3hPa | 2.7V | 08:21:36 | 01:47:37 | 00:00:00 | |
| KRY50SP-1 | 2026-09-01 17:57:14 | 52.19839 | 15.06465 | 67° | 42km/h | 15373m | -5.9m/s | -51.6°C | 1.2% | 119.3hPa | 2.6V | 08:21:00 | 00:00:00 | 00:00:00 | |
| SP6BVK | 2026-09-01 17:57:13 | 52.19839 | 15.06465 | 67° | 42km/h | 15373m | -5.9m/s | -51.6°C | 1.2% | 119.3hPa | 2.6V | 08:21:00 | 00:00:00 | 00:00:00 | |
| DB0DAN | 2026-09-01 17:57:10 | 52.19821 | 15.06397 | 67° | 46km/h | 15396m | -5.8m/s | -51.6°C | 1.2% | 118.85hPa | 2.6V | 00:00:00 | 00:00:00 | 00:00:00 | |
| DF8AY | 2026-09-01 17:57:09 | 52.19816 | 15.06379 | 68° | 49km/h | 15402m | -6m/s | -51.6°C | 0.4% | 118.8hPa | 2.6V | 08:22:27 | 01:47:32 | 00:00:00 | |
| DL1XH-west | 2026-09-01 17:57:03 | 52.19792 | 15.06253 | 78° | 57km/h | 15438m | -6m/s | -51.8°C | 0.4% | 118.1hPa | 2.6V | 08:22:27 | 01:47:26 | 00:00:00 | |
| AA1-15 | 2026-09-01 17:57:00 | 52.19786 | 15.06185 | 84° | 55km/h | 15455m | -6m/s | -52°C | 0.4% | 117.8hPa | 2.7V | 08:21:36 | 01:47:23 | 00:00:00 | |
| DF8AY | 2026-09-01 17:56:58 | 52.19783 | 15.06142 | 86° | 51km/h | 15467m | -5.8m/s | -52°C | 0.4% | 117.5hPa | 2.7V | 08:22:27 | 01:47:21 | 00:00:00 | |
| S3001 | 2026-09-01 17:56:56 | 52.19782 | 15.06102 | 87° | 46km/h | 15479m | -5.9m/s | -52.1°C | 1.3% | 117.4hPa | 2.6V | 00:00:00 | 00:00:00 | 00:00:00 | |
| DB0DAN | 2026-09-01 17:56:55 | 52.19782 | 15.06083 | 88° | 44km/h | 15485m | -6.1m/s | -52°C | 1.3% | 117.24hPa | 2.6V | 00:00:00 | 00:00:00 | 00:00:00 | |
| DL1XH-west | 2026-09-01 17:56:53 | 52.19781 | 15.06047 | 88° | 42km/h | 15497m | -5.9m/s | -52°C | 0.4% | 117hPa | 2.7V | 08:22:27 | 01:47:16 | 00:00:00 | |
| AA1-15 | 2026-09-01 17:56:48 | 52.19779 | 15.05966 | 87° | 37km/h | 15526m | -5.8m/s | -51.9°C | 0.5% | 116.5hPa | 2.6V | 08:21:36 | 01:47:11 | 00:00:00 | |
| DF8AY | 2026-09-01 17:56:47 | 52.19778 | 15.05951 | 87° | 37km/h | 15531m | -5.9m/s | -51.9°C | 0.4% | 116.4hPa | 2.6V | 08:22:27 | 01:47:10 | 00:00:00 | |
| DAC517 | 2026-09-01 17:56:47 | 52.19778 | 15.05951 | 88° | 37km/h | 15531m | -5.9m/s | -51.9°C | 1.3% | 116.4hPa | 2.6V | 08:21:00 | 00:00:00 | 00:00:00 | |
| OE3JTB-15 | 2026-09-01 17:56:45 | 52.19777 | 15.05922 | 89° | 42km/h | 15543m | -5.7m/s | -51.8°C | 3.8% | 116.2hPa | 2.6V | 00:00:00 | 00:00:00 | 00:00:00 | |
| KRY50SP-1 | 2026-09-01 17:56:42 | 52.19777 | 15.05893 | 91° | 35km/h | 15555m | -5.7m/s | -51.7°C | 1.2% | 116.0hPa | 2.6V | 08:21:00 | 00:00:00 | 00:00:00 | |
| DB0DAN | 2026-09-01 17:56:40 | 52.19778 | 15.05851 | 94° | 33km/h | 15572m | -5.7m/s | -51.6°C | 1.2% | 115.68hPa | 2.6V | 00:00:00 | 00:00:00 | 00:00:00 | |
| DL1XH-west | 2026-09-01 17:56:37 | 52.19780 | 15.05809 | 94° | 35km/h | 15589m | -5.6m/s | -51.7°C | 0.5% | 115.4hPa | 2.7V | 08:22:27 | 01:47:00 | 00:00:00 | |
| DF8AY | 2026-09-01 17:56:36 | 52.19780 | 15.05795 | 93° | 37km/h | 15594m | -5.7m/s | -51.7°C | 0.4% | 115.3hPa | 2.6V | 08:22:27 | 01:46:59 | 00:00:00 | |
| 13BRC | 2026-09-01 17:56:35 | 52.19780 | 15.05795 | 94° | 37km/h | 15595m | -5.7m/s | -51.7°C | 1.3% | 115.3hPa | 2.7V | 08:22:00 | 00:00:00 | 00:00:00 | |
| SONCRA | 2026-09-01 17:56:32 | 52.19780 | 15.05729 | 87° | 44km/h | 15617m | -5.4m/s | -51.8°C | 1.2% | 114.9hPa | 2.7V | 00:00:00 | 00:00:00 | 00:00:00 | |
| KRY50SP-1 | 2026-09-01 17:56:31 | 52.19780 | 15.05710 | 88° | 47km/h | 15622m | -5.5m/s | -51.8°C | 1.2% | 114.8hPa | 2.7V | 08:22:00 | 00:00:00 | 00:00:00 | |
| DL2RXE-15 | 2026-09-01 17:56:27 | 52.19777 | 15.05649 | 87° | 53km/h | 15639m | -5.6m/s | -51.7°C | 1.2% | 114.5hPa | 2.7V | 00:00:00 | 00:00:00 | 00:00:00 | |
| DB0DAN | 2026-09-01 17:56:25 | 52.19774 | 15.05584 | 84° | 51km/h | 15656m | -5.8m/s | -51.7°C | 1.2% | 114.16hPa | 2.7V | 00:00:00 | 00:00:00 | 00:00:00 | |
| DL1XH-west | 2026-09-01 17:56:25 | 52.19774 | 15.05584 | 84° | 53km/h | 15656m | -5.8m/s | -51.7°C | 0.3% | 114.2hPa | 2.7V | 08:22:27 | 01:46:48 | 00:00:00 | |
| DL1XH-west | 2026-09-01 17:56:13 | 52.19737 | 15.05391 | 69° | 37km/h | 15715m | -5.1m/s | -52°C | 0.4% | 113.2hPa | 2.6V | 08:22:27 | 01:46:36 | 00:00:00 | |
| SP6BVK | 2026-09-01 17:56:12 | 52.19737 | 15.05390 | 70° | 37km/h | 15715m | -5.1m/s | -52.0°C | 1.2% | 113.2hPa | 2.7V | 08:22:00 | 00:00:00 | 00:00:00 | |
| DB0DAN | 2026-09-01 17:56:10 | 52.19728 | 15.05348 | 73° | 37km/h | 15729m | -4.9m/s | -52°C | 1.2% | 112.89hPa | 2.7V | 00:00:00 | 00:00:00 | 00:00:00 | |
| DF8AY | 2026-09-01 17:56:08 | 52.19723 | 15.05318 | 73° | 38km/h | 15739m | -4.9m/s | -51.9°C | 0.3% | 112.7hPa | 2.6V | 08:22:27 | 01:46:31 | 00:00:00 | |
| DB0NH | 2026-09-01 17:56:08 | 52.19723 | 15.05318 | 74° | 44km/h | 15739m | -4.8m/s | -51.9°C | 3.7% | 112.7hPa | 2.6V | 00:00:00 | 01:46:31 | 00:00:00 | |
| DL2RXE-15 | 2026-09-01 17:56:06 | 52.19720 | 15.05303 | 75° | 38km/h | 15744m | -4.8m/s | -51.9°C | 1.2% | 112.7hPa | 2.6V | 00:00:00 | 00:00:00 | 00:00:00 | |
| DAC517 | 2026-09-01 17:56:05 | 52.19717 | 15.05288 | 72° | 38km/h | 15748m | -4.8m/s | -51.9°C | 1.2% | 112.6hPa | 2.6V | 08:22:00 | 00:00:00 | 00:00:00 | |
| SP3BTT-10 | 2026-09-01 17:56:04 | 52.19710 | 15.05258 | 67° | 51km/h | 15758m | -4.4m/s | -51.5°C | 3.6% | 112.3hPa | 2.6V | 00:00:00 | 00:00:00 | 00:00:00 | |
| KRY50SP-1 | 2026-09-01 17:56:03 | 52.19710 | 15.05258 | 68° | 38km/h | 15758m | -4.5m/s | -51.5°C | 1.1% | 112.4hPa | 2.6V | 08:22:00 | 00:00:00 | 00:00:00 | |
| DL1XH1-15 | 2026-09-01 17:56:02 | 52.19698 | 15.05214 | 64° | 40km/h | 15772m | -4.6m/s | -51.3°C | 3.6% | 112.2hPa | 2.6V | 08:22:18 | 01:46:24 | 00:00:00 | |
| DL1XH-west | 2026-09-01 17:56:02 | 52.19702 | 15.05229 | 64° | 40km/h | 15768m | -4.5m/s | -51.3°C | 0.3% | 112.2hPa | 2.7V | 08:22:27 | 01:46:25 | 00:00:00 | |
| AA1-15 | 2026-09-01 17:55:58 | 52.19685 | 15.05168 | 68° | 42km/h | 15787m | -4.8m/s | -51.4°C | 0.3% | 111.9hPa | 2.6V | 08:22:27 | 01:46:21 | 00:00:00 | |
| SP3WXH-11 | 2026-09-01 17:55:57 | 52.19678 | 15.05135 | 71° | 44km/h | 15796m | -4.7m/s | -51.3°C | 1.1% | 111.7hPa | 2.7V | 00:00:00 | 00:00:00 | 00:00:00 | |
| DB0DAN | 2026-09-01 17:55:55 | 52.19675 | 15.05118 | 74° | 42km/h | 15801m | -4.7m/s | -51.2°C | 1.2% | 111.65hPa | 2.7V | 00:00:00 | 00:00:00 | 00:00:00 | |
| SONDE2-12 | 2026-09-01 17:55:54 | 52.19671 | 15.05100 | 73° | 44km/h | 15806m | -5.1m/s | -51.1°C | 1.2% | 111.6hPa | 2.7V | 00:00:00 | 00:00:00 | 00:00:00 | |
| DF8AY | 2026-09-01 17:55:54 | 52.19671 | 15.05100 | 74° | 46km/h | 15805m | -5.1m/s | -51.1°C | 0.2% | 111.6hPa | 2.6V | 08:22:27 | 01:46:17 | 00:00:00 | |
| DL1XH-west | 2026-09-01 17:55:51 | 52.19661 | 15.05047 | 71° | 46km/h | 15820m | -4.9m/s | -51.1°C | 0.2% | 111.3hPa | 2.7V | 08:23:18 | 01:46:14 | 00:00:00 | |
| AA1-15 | 2026-09-01 17:55:47 | 52.19643 | 15.04978 | 63° | 47km/h | 15840m | -5.2m/s | -51.2°C | 0.2% | 111hPa | 2.6V | 08:23:18 | 01:46:10 | 00:00:00 | |
| EDDB2-11 | 2026-09-01 17:55:45 | 52.19632 | 15.04942 | 62° | 47km/h | 15851m | -5.0m/s | -51.2°C | 1.1% | 110.8hPa | 2.6V | 00:00:00 | 00:00:00 | 00:00:00 | |
| DF8AY | 2026-09-01 17:55:43 | 52.19621 | 15.04906 | 65° | 49km/h | 15861m | -5m/s | -51.3°C | 0.3% | 110.6hPa | 2.6V | 08:23:18 | 01:46:06 | 00:00:00 | |
| KRY50SP-1 | 2026-09-01 17:55:42 | 52.19621 | 15.04906 | 66° | 49km/h | 15861m | -5.0m/s | -51.3°C | 1.2% | 110.6hPa | 2.7V | 08:23:00 | 00:00:00 | 00:00:00 | |
| DB0DAN | 2026-09-01 17:55:40 | 52.19606 | 15.04846 | 68° | 53km/h | 15876m | -5m/s | -51.3°C | 1.1% | 110.37hPa | 2.7V | 00:00:00 | 00:00:00 | 00:00:00 | |
| DL1XH-west | 2026-09-01 17:55:40 | 52.19606 | 15.04846 | 68° | 55km/h | 15876m | -5m/s | -51.3°C | 0.2% | 110.4hPa | 2.7V | 08:23:18 | 01:46:03 | 00:00:00 | |
| AA1-15 | 2026-09-01 17:55:36 | 52.19587 | 15.04760 | 72° | 55km/h | 15897m | -5.6m/s | -51.5°C | 0.3% | 110hPa | 2.6V | 08:23:18 | 01:45:59 | 00:00:00 | |
| DL1XH1-15 | 2026-09-01 17:55:33 | 52.19566 | 15.04655 | 71° | 53km/h | 15927m | -6.1m/s | -51.6°C | 3.7% | 109.5hPa | 2.6V | 08:22:48 | 01:45:54 | 00:00:00 | |
| DF8AY | 2026-09-01 17:55:33 | 52.19574 | 15.04696 | 71° | 53km/h | 15915m | -5.9m/s | -51.6°C | 0.3% | 109.7hPa | 2.7V | 08:23:18 | 01:45:56 | 00:00:00 | |
| DL1XH-west | 2026-09-01 17:55:30 | 52.19562 | 15.04634 | 73° | 53km/h | 15933m | -6.2m/s | -51.7°C | 0.3% | 109.4hPa | 2.6V | 08:23:18 | 01:45:53 | 00:00:00 | |
| AA1-15 | 2026-09-01 17:55:25 | 52.19543 | 15.04528 | 75° | 53km/h | 15967m | -6.8m/s | -51.2°C | 0.3% | 108.9hPa | 2.7V | 08:23:18 | 01:45:48 | 00:00:00 | |
| DF8AY | 2026-09-01 17:55:23 | 52.19536 | 15.04486 | 76° | 51km/h | 15980m | -6.7m/s | -51°C | 0.1% | 108.6hPa | 2.6V | 08:23:18 | 01:45:46 | 00:00:00 | |
| DL1XH-west | 2026-09-01 17:55:19 | 52.19525 | 15.04410 | 79° | 44km/h | 16006m | -6.7m/s | -51°C | 0.2% | 108.2hPa | 2.6V | 08:23:18 | 01:45:42 | 00:00:00 | |
| AA1-15 | 2026-09-01 17:55:14 | 52.19513 | 15.04322 | 76° | 44km/h | 16040m | -6.9m/s | -51.1°C | 0.2% | 107.6hPa | 2.6V | 08:23:18 | 01:45:37 | 00:00:00 | |
| DF8AY | 2026-09-01 17:55:13 | 52.19510 | 15.04305 | 76° | 44km/h | 16047m | -6.8m/s | -51.1°C | 0.2% | 107.5hPa | 2.6V | 08:23:18 | 01:45:36 | 00:00:00 | |
| DL1XH-west | 2026-09-01 17:55:09 | 52.19500 | 15.04232 | 78° | 46km/h | 16074m | -6.6m/s | -51.1°C | 0.3% | 107.1hPa | 2.7V | 08:23:18 | 01:45:32 | 00:00:00 | |
| DB0NH | 2026-09-01 17:55:08 | 52.19497 | 15.04214 | 79° | 49km/h | 16081m | -6.4m/s | -51.1°C | 3.6% | 106.9hPa | 2.7V | 00:00:00 | 01:45:31 | 00:00:00 | |
| DL1XH1-15 | 2026-09-01 17:55:07 | 52.19479 | 15.04111 | 66° | 44km/h | 16120m | -6.5m/s | -51°C | 3.6% | 106.3hPa | 2.7V | 08:23:17 | 01:45:25 | 00:00:00 | |
| AA1-15 | 2026-09-01 17:55:03 | 52.19483 | 15.04128 | 69° | 42km/h | 16113m | -6.3m/s | -51°C | 0.3% | 106.4hPa | 2.7V | 08:23:18 | 01:45:26 | 00:00:00 | |
| DF8AY | 2026-09-01 17:55:02 | 52.19479 | 15.04111 | 67° | 44km/h | 16120m | -6.5m/s | -51°C | 0.2% | 106.3hPa | 2.7V | 08:23:18 | 01:45:25 | 00:00:00 | |
| DL1XH-west | 2026-09-01 17:54:59 | 52.19463 | 15.04058 | 61° | 51km/h | 16139m | -6.8m/s | -51°C | 0.2% | 106hPa | 2.6V | 08:24:09 | 01:45:22 | 00:00:00 | |
| DL2RXE-15 | 2026-09-01 17:54:57 | 52.19456 | 15.04039 | 63° | 55km/h | 16146m | -7.1m/s | -51.0°C | 1.1% | 105.9hPa | 2.7V | 08:24:00 | 00:00:00 | 00:00:00 | |
| DB0DAN | 2026-09-01 17:54:55 | 52.19436 | 15.03975 | 63° | 57km/h | 16169m | -9.2m/s | -51°C | 1.1% | 105.52hPa | 2.7V | 00:00:00 | 00:00:00 | 00:00:00 | |
| AA1-15 | 2026-09-01 17:54:52 | 52.19415 | 15.03913 | 62° | 53km/h | 16197m | -8.9m/s | -51°C | 0.1% | 105.1hPa | 2.6V | 08:25:00 | 01:45:15 | 00:00:00 | |
| DL1XH-west | 2026-09-01 17:54:48 | 52.19391 | 15.03843 | 58° | 47km/h | 16229m | -8.1m/s | -51°C | 0.2% | 104.6hPa | 2.6V | 08:24:09 | 01:45:11 | 00:00:00 | |
| EDDB2-12 | 2026-09-01 17:54:48 | 52.19384 | 15.03826 | 60° | 49km/h | 16237m | -8.3m/s | -51.0°C | 1.1% | 104.4hPa | 2.7V | 00:00:00 | 00:00:00 | 00:00:00 | |
| DL1XH1-15 | 2026-09-01 17:54:47 | 52.19358 | 15.03731 | 67° | 49km/h | 16277m | -8m/s | -51°C | 3.5% | 103.8hPa | 2.7V | 08:23:37 | 01:45:05 | 00:00:00 | |
| AA1-15 | 2026-09-01 17:54:42 | 52.19358 | 15.03731 | 68° | 51km/h | 16277m | -8m/s | -51°C | 0.2% | 103.8hPa | 2.7V | 08:25:00 | 01:45:05 | 00:00:00 | |
| DF8AY | 2026-09-01 17:54:41 | 52.19354 | 15.03712 | 68° | 51km/h | 16285m | -7.9m/s | -51°C | 0.2% | 103.7hPa | 2.7V | 08:24:09 | 01:45:04 | 00:00:00 | |
| DB0DAN | 2026-09-01 17:54:40 | 52.19349 | 15.03693 | 69° | 47km/h | 16293m | -7.9m/s | -51.1°C | 1.1% | 103.54hPa | 2.6V | 00:00:00 | 00:00:00 | 00:00:00 | |
| DL1XH-west | 2026-09-01 17:54:37 | 52.19334 | 15.03635 | 67° | 51km/h | 16316m | -7.6m/s | -51.1°C | 0.2% | 103.2hPa | 2.7V | 08:24:09 | 01:45:00 | 00:00:00 | |
| AA1-15 | 2026-09-01 17:54:31 | 52.19302 | 15.03519 | 66° | 51km/h | 16361m | -7.7m/s | -51.3°C | 0.2% | 102.5hPa | 2.7V | 08:25:00 | 01:44:54 | 00:00:00 | |
| DF8AY | 2026-09-01 17:54:30 | 52.19297 | 15.03499 | 65° | 53km/h | 16369m | -7.6m/s | -51.3°C | 0.3% | 102.4hPa | 2.7V | 08:24:09 | 01:44:53 | 00:00:00 | |
| DL1XH-west | 2026-09-01 17:54:27 | 52.19275 | 15.03420 | 65° | 53km/h | 16399m | -7.8m/s | -51.2°C | 0.2% | 101.9hPa | 2.6V | 08:24:09 | 01:44:49 | 00:00:00 | |
| DB0DAN | 2026-09-01 17:54:25 | 52.19269 | 15.03400 | 66° | 51km/h | 16407m | -7.5m/s | -51.2°C | 1.1% | 101.73hPa | 2.7V | 00:00:00 | 00:00:00 | 00:00:00 | |
| SONDE2-12 | 2026-09-01 17:54:21 | 52.19247 | 15.03318 | 66° | 55km/h | 16437m | -7.4m/s | -51.3°C | 1.2% | 101.3hPa | 2.6V | 00:00:00 | 00:00:00 | 00:00:00 | |
| DF8AY | 2026-09-01 17:54:19 | 52.19236 | 15.03275 | 69° | 57km/h | 16452m | -7.5m/s | -51.3°C | 0.2% | 101hPa | 2.6V | 08:24:09 | 01:44:42 | 00:00:00 | |
| AA1-15 | 2026-09-01 17:54:17 | 52.19227 | 15.03231 | 71° | 57km/h | 16467m | -7.2m/s | -51.2°C | 0.2% | 100.8hPa | 2.7V | 08:25:00 | 01:44:40 | 00:00:00 | |
| EDDB2-12 | 2026-09-01 17:54:17 | 52.19222 | 15.03208 | 73° | 57km/h | 16474m | -7.3m/s | -51.2°C | 1.1% | 100.7hPa | 2.6V | 00:00:00 | 00:00:00 | 00:00:00 | |
| DL1XH1-15 | 2026-09-01 17:54:16 | 52.19199 | 15.03071 | 75° | 58km/h | 16517m | -7.6m/s | -51.2°C | 3.6% | 100hPa | 2.6V | 08:24:09 | 01:44:33 | 00:00:00 | |
| DL1XH-west | 2026-09-01 17:54:16 | 52.19222 | 15.03208 | 74° | 57km/h | 16474m | -7.3m/s | -51.2°C | 0.2% | 100.7hPa | 2.7V | 08:24:09 | 01:44:39 | 00:00:00 | |
| KRY50SP-1 | 2026-09-01 17:54:14 | 52.19218 | 15.03185 | 75° | 58km/h | 16481m | -7.3m/s | -51.2°C | 1.1% | 100.6hPa | 2.6V | 08:24:00 | 00:00:00 | 00:00:00 | |
| 13BRC | 2026-09-01 17:54:12 | 52.19210 | 15.03140 | 76° | 57km/h | 16496m | -7.0m/s | -51.2°C | 1.1% | 100.4hPa | 2.6V | 08:24:00 | 00:00:00 | 00:00:00 | |
| DB0DAN | 2026-09-01 17:54:10 | 52.19199 | 15.03071 | 75° | 55km/h | 16517m | -7.6m/s | -51.2°C | 1.1% | 100.01hPa | 2.6V | 00:00:00 | 00:00:00 | 00:00:00 | |
| DF8AY | 2026-09-01 17:54:09 | 52.19195 | 15.03048 | 75° | 57km/h | 16524m | -7.2m/s | -51.2°C | 0.2% | 99.9hPa | 2.6V | 08:25:00 | 01:44:32 | 00:00:00 | |
| DL1XH-west | 2026-09-01 17:54:06 | 52.19185 | 15.02980 | 77° | 57km/h | 16546m | -7.1m/s | -51°C | 0.2% | 99.6hPa | 2.7V | 08:27:33 | 01:44:29 | 00:00:00 | |
| AA1-15 | 2026-09-01 17:54:01 | 52.19172 | 15.02866 | 80° | 57km/h | 16582m | -7m/s | -50.6°C | 0.2% | 99hPa | 2.6V | 08:25:00 | 01:44:24 | 00:00:00 | |
| DF8AY | 2026-09-01 17:53:57 | 52.19161 | 15.02780 | 79° | 49km/h | 16612m | -7.1m/s | -50.7°C | 0.2% | 98.6hPa | 2.6V | 08:25:00 | 01:44:20 | 00:00:00 | |
| SONCRA | 2026-09-01 17:53:57 | 52.19161 | 15.02780 | 79° | 49km/h | 16612m | -7.1m/s | -50.7°C | 1.0% | 98.6hPa | 2.6V | 00:00:00 | 00:00:00 | 00:00:00 | |
| DB0DAN | 2026-09-01 17:53:55 | 52.19156 | 15.02741 | 75° | 46km/h | 16626m | -7m/s | -50.6°C | 1% | 98.39hPa | 2.6V | 00:00:00 | 00:00:00 | 00:00:00 | |
| DL1XH-west | 2026-09-01 17:53:55 | 52.19156 | 15.02741 | 75° | 47km/h | 16626m | -7m/s | -50.6°C | 0.1% | 98.4hPa | 2.6V | 08:27:33 | 01:44:18 | 00:00:00 | |
| AA1-15 | 2026-09-01 17:53:50 | 52.19137 | 15.02653 | 71° | 47km/h | 16663m | -7.9m/s | -50.8°C | 0.1% | 97.8hPa | 2.6V | 08:25:00 | 01:44:13 | 00:00:00 | |
| SONDE2-12 | 2026-09-01 17:53:50 | 52.19137 | 15.02653 | 71° | 46km/h | 16663m | -7.9m/s | -50.8°C | 1.1% | 97.8hPa | 2.7V | 00:00:00 | 00:00:00 | 00:00:00 | |
| DF8AY | 2026-09-01 17:53:46 | 52.19121 | 15.02574 | 72° | 53km/h | 16695m | -8.7m/s | -50.8°C | 0.1% | 97.4hPa | 2.7V | 08:25:00 | 01:44:09 | 00:00:00 | |
| DL1XH1-15 | 2026-09-01 17:53:45 | 52.19096 | 15.02444 | 73° | 55km/h | 16741m | -7.3m/s | -51°C | 3.5% | 96.7hPa | 2.7V | 08:24:39 | 01:44:03 | 00:00:00 | |
| DL1XH-west | 2026-09-01 17:53:45 | 52.19117 | 15.02553 | 72° | 55km/h | 16703m | -7.8m/s | -50.8°C | 0.1% | 97.2hPa | 2.6V | 08:27:33 | 01:44:08 | 00:00:00 | |
| DB0DAN | 2026-09-01 17:53:40 | 52.19096 | 15.02444 | 74° | 53km/h | 16741m | -7.3m/s | -51°C | 1.1% | 96.66hPa | 2.7V | 00:00:00 | 00:00:00 | 00:00:00 | |
| AA1-15 | 2026-09-01 17:53:39 | 52.19092 | 15.02423 | 75° | 55km/h | 16748m | -7.5m/s | -51.1°C | 0.2% | 96.5hPa | 2.6V | 08:25:00 | 01:44:02 | 00:00:00 | |
| DF8AY | 2026-09-01 17:53:35 | 52.19079 | 15.02340 | 78° | 51km/h | 16777m | -7.2m/s | -51.2°C | 0.3% | 96.1hPa | 2.7V | 08:25:00 | 01:43:58 | 00:00:00 | |
| DL1XH-west | 2026-09-01 17:53:34 | 52.19076 | 15.02320 | 79° | 51km/h | 16785m | -7.7m/s | -51.2°C | 0.2% | 96hPa | 2.7V | 08:27:33 | 01:43:57 | 00:00:00 | |
| AA1-15 | 2026-09-01 17:53:28 | 52.19066 | 15.02194 | 86° | 53km/h | 16829m | -7.2m/s | -51.2°C | 0.2% | 95.3hPa | 2.7V | 08:25:00 | 01:43:51 | 00:00:00 | |
| DB0DAN | 2026-09-01 17:53:25 | 52.19065 | 15.02130 | 92° | 49km/h | 16851m | -7.8m/s | -51.2°C | 1.1% | 95.02hPa | 2.6V | 00:00:00 | 00:00:00 | 00:00:00 | |
| DF8AY | 2026-09-01 17:53:24 | 52.19066 | 15.02109 | 94° | 51km/h | 16859m | -7.9m/s | -51.1°C | 0.2% | 94.9hPa | 2.7V | 08:25:00 | 01:43:47 | 00:00:00 | |
| DL1XH-west | 2026-09-01 17:53:23 | 52.19067 | 15.02088 | 96° | 51km/h | 16867m | -7m/s | -51°C | 0.2% | 94.8hPa | 2.7V | 08:27:33 | 01:43:46 | 00:00:00 | |
| SONDE2-12 | 2026-09-01 17:53:19 | 52.19073 | 15.02008 | 97° | 46km/h | 16897m | -7.6m/s | -50.9°C | 1.1% | 94.3hPa | 2.7V | 00:00:00 | 00:00:00 | 00:00:00 | |
| AA1-15 | 2026-09-01 17:53:17 | 52.19076 | 15.01972 | 98° | 44km/h | 16912m | -7.8m/s | -50.9°C | 0.2% | 94.2hPa | 2.7V | 08:26:42 | 01:43:40 | 00:00:00 | |
| DF8AY | 2026-09-01 17:53:12 | 52.19085 | 15.01888 | 100° | 42km/h | 16951m | -7.8m/s | -50.2°C | 0.1% | 93.6hPa | 2.6V | 08:25:51 | 01:43:35 | 00:00:00 | |
| DB0DAN | 2026-09-01 17:53:10 | 52.19088 | 15.01854 | 99° | 40km/h | 16967m | -8.2m/s | -50.2°C | 1% | 93.37hPa | 2.7V | 00:00:00 | 00:00:00 | 00:00:00 | |
| AA1-15 | 2026-09-01 17:53:06 | 52.19094 | 15.01786 | 98° | 42km/h | 16999m | -8.1m/s | -50.1°C | 0% | 92.9hPa | 2.6V | 08:26:42 | 01:43:29 | 00:00:00 | |
| DF8AY | 2026-09-01 17:53:02 | 52.19100 | 15.01721 | 99° | 38km/h | 17031m | -7.9m/s | -50.4°C | 0.1% | 92.5hPa | 2.6V | 08:25:51 | 01:43:25 | 00:00:00 | |
| DAC517 | 2026-09-01 17:53:01 | 52.19100 | 15.01721 | 100° | 38km/h | 17032m | -7.9m/s | -50.4°C | 1.0% | 92.4hPa | 2.6V | 08:25:00 | 00:00:00 | 00:00:00 | |
| DO3MHA-11 | 2026-09-01 17:53:00 | 52.19102 | 15.01689 | 99° | 38km/h | 17047m | -7.8m/s | -50.5°C | 3.3% | 92.2hPa | 2.6V | 00:00:00 | 01:43:23 | 00:00:00 | |
| KRY50SP-1 | 2026-09-01 17:52:57 | 52.19105 | 15.01657 | 98° | 40km/h | 17063m | -8.0m/s | -50.7°C | 1.0% | 92.0hPa | 2.6V | 08:25:00 | 00:00:00 | 00:00:00 | |
| DB0DAN | 2026-09-01 17:52:55 | 52.19107 | 15.01608 | 91° | 38km/h | 17087m | -7.9m/s | -50.8°C | 1% | 91.7hPa | 2.6V | 00:00:00 | 00:00:00 | 00:00:00 | |
| AA1-15 | 2026-09-01 17:52:55 | 52.19107 | 15.01608 | 91° | 40km/h | 17087m | -7.9m/s | -50.8°C | 0.1% | 91.7hPa | 2.6V | 08:26:42 | 01:43:18 | 00:00:00 | |
| DF8AY | 2026-09-01 17:52:51 | 52.19107 | 15.01542 | 90° | 40km/h | 17119m | -7.7m/s | -51°C | 0.2% | 91.2hPa | 2.7V | 08:25:51 | 01:43:14 | 00:00:00 | |
| SP3WXH-11 | 2026-09-01 17:52:51 | 52.19107 | 15.01526 | 88° | 38km/h | 17127m | -8.4m/s | -50.9°C | 1.0% | 91.1hPa | 2.7V | 00:00:00 | 00:00:00 | 00:00:00 | |
| S3001 | 2026-09-01 17:52:48 | 52.19106 | 15.01478 | 85° | 38km/h | 17152m | -8.2m/s | -50.7°C | 1.0% | 90.8hPa | 2.7V | 00:00:00 | 00:00:00 | 00:00:00 | |
| AA1-15 | 2026-09-01 17:52:44 | 52.19102 | 15.01429 | 82° | 44km/h | 17176m | -7.9m/s | -50.8°C | 0.2% | 90.4hPa | 2.7V | 08:26:42 | 01:43:07 | 00:00:00 | |
| DF8AY | 2026-09-01 17:52:41 | 52.19097 | 15.01372 | 81° | 49km/h | 17200m | -8.1m/s | -50.9°C | 0.3% | 90.1hPa | 2.6V | 08:25:51 | 01:43:04 | 00:00:00 | |
| DB0DAN | 2026-09-01 17:52:40 | 52.19095 | 15.01352 | 81° | 47km/h | 17207m | -8.3m/s | -51°C | 1% | 90hPa | 2.6V | 00:00:00 | 00:00:00 | 00:00:00 | |
| AA1-15 | 2026-09-01 17:52:33 | 52.19085 | 15.01209 | 85° | 49km/h | 17266m | -8.3m/s | -51.3°C | 0.3% | 89.1hPa | 2.7V | 08:26:42 | 01:42:56 | 00:00:00 | |
| DF8AY | 2026-09-01 17:52:31 | 52.19083 | 15.01169 | 87° | 47km/h | 17283m | -8.6m/s | -51°C | 0.3% | 89hPa | 2.6V | 08:25:51 | 01:42:54 | 00:00:00 | |
| DF8AY | 2026-09-01 17:52:20 | 52.19093 | 15.00976 | 90° | 40km/h | 17370m | -8.1m/s | -49.5°C | 0.1% | 87.7hPa | 2.7V | 08:26:42 | 01:42:43 | 00:00:00 | |
| DO3MHA-11 | 2026-09-01 17:52:19 | 52.19092 | 15.00959 | 88° | 37km/h | 17378m | -8.2m/s | -49.5°C | 3.4% | 87.6hPa | 2.6V | 00:00:00 | 01:42:42 | 00:00:00 | |
| SP3BTT-10 | 2026-09-01 17:52:18 | 52.19092 | 15.00943 | 86° | 29km/h | 17387m | -8.9m/s | -49.4°C | 3.4% | 87.5hPa | 2.6V | 00:00:00 | 00:00:00 | 00:00:00 | |
| S3001 | 2026-09-01 17:52:17 | 52.19091 | 15.00911 | 89° | 38km/h | 17404m | -8.3m/s | -49.4°C | 1.0% | 87.3hPa | 2.6V | 00:00:00 | 00:00:00 | 00:00:00 | |
| NBG1-10 | 2026-09-01 17:52:16 | 52.19091 | 15.00911 | 90° | 27km/h | 17404m | -8.2m/s | 0°C | 0% | 0hPa | 2.6V | 00:00:00 | 01:42:39 | 00:00:00 | |
| DB0DAN | 2026-09-01 17:52:10 | 52.19096 | 15.00826 | 104° | 33km/h | 17455m | -8.4m/s | -49.3°C | 0.9% | 86.63hPa | 2.6V | 00:00:00 | 00:00:00 | 00:00:00 | |
| DF8AY | 2026-09-01 17:52:09 | 52.19098 | 15.00812 | 104° | 35km/h | 17463m | -8.5m/s | -49.3°C | 0.1% | 86.5hPa | 2.7V | 08:26:42 | 01:42:32 | 00:00:00 | |
| DL1XH-west | 2026-09-01 17:52:00 | 52.19098 | 15.00675 | 86° | 35km/h | 17541m | -9.4m/s | -48.8°C | 0.1% | 85.5hPa | 2.6V | 08:27:33 | 01:42:23 | 00:00:00 | |
| DF8AY | 2026-09-01 17:51:58 | 52.19097 | 15.00648 | 94° | 31km/h | 17558m | -8.6m/s | -48.7°C | 0% | 85.2hPa | 2.7V | 08:26:42 | 01:42:21 | 00:00:00 | |
| DO3MHA-11 | 2026-09-01 17:51:58 | 52.19097 | 15.00647 | 94° | 33km/h | 17558m | -8.6m/s | -48.6°C | 3.1% | 85.2hPa | 2.7V | 00:00:00 | 01:42:21 | 00:00:00 | |
| DB0DAN | 2026-09-01 17:51:55 | 52.19100 | 15.00609 | 95° | 31km/h | 17585m | -9.1m/s | -48.5°C | 0.9% | 84.91hPa | 2.6V | 00:00:00 | 00:00:00 | 00:00:00 | |
| AA1-15 | 2026-09-01 17:51:54 | 52.19100 | 15.00595 | 93° | 35km/h | 17594m | -8.5m/s | -48.5°C | 0% | 84.8hPa | 2.6V | 08:26:42 | 01:42:17 | 00:00:00 | |
| DF8AY | 2026-09-01 17:51:48 | 52.19097 | 15.00510 | 86° | 31km/h | 17644m | -8.1m/s | -48.3°C | 0% | 84.2hPa | 2.6V | 08:26:42 | 01:42:11 | 00:00:00 | |
| S3001 | 2026-09-01 17:51:46 | 52.19097 | 15.00475 | 94° | 27km/h | 17671m | -9.0m/s | -48.5°C | 0.9% | 83.8hPa | 2.7V | 00:00:00 | 00:00:00 | 00:00:00 | |
| DL1XH-west | 2026-09-01 17:51:44 | 52.19097 | 15.00463 | 90° | 27km/h | 17680m | -9m/s | -48.5°C | 0% | 83.7hPa | 2.7V | 08:27:33 | 01:42:07 | 00:00:00 | |
| SP6BVK | 2026-09-01 17:51:42 | 52.19097 | 15.00452 | 90° | 26km/h | 17689m | -8.2m/s | -48.6°C | 0.9% | 83.6hPa | 2.7V | 08:26:00 | 00:00:00 | 00:00:00 | |
| DB0DAN | 2026-09-01 17:51:40 | 52.19096 | 15.00422 | 78° | 22km/h | 17715m | -8.6m/s | -48.7°C | 0.9% | 83.27hPa | 2.7V | 00:00:00 | 00:00:00 | 00:00:00 | |
| AA1-15 | 2026-09-01 17:51:37 | 52.19092 | 15.00395 | 73° | 22km/h | 17741m | -8.6m/s | -48.7°C | 0% | 83hPa | 2.6V | 08:26:42 | 01:42:00 | 00:00:00 | |
| DL1XH-west | 2026-09-01 17:51:31 | 52.19083 | 15.00346 | 75° | 24km/h | 17792m | -8.7m/s | -49°C | 0% | 82.3hPa | 2.7V | 08:27:33 | 01:41:54 | 00:00:00 | |
| DF8AY | 2026-09-01 17:51:27 | 52.19075 | 15.00309 | 64° | 26km/h | 17827m | -8.5m/s | -49.1°C | 0% | 81.9hPa | 2.7V | 08:28:24 | 01:41:50 | 00:00:00 | |
| AA1-15 | 2026-09-01 17:51:26 | 52.19073 | 15.00300 | 62° | 26km/h | 17835m | -8.5m/s | -49.1°C | 0% | 81.8hPa | 2.7V | 08:27:33 | 01:41:49 | 00:00:00 | |
| DL1XH-west | 2026-09-01 17:51:21 | 52.19057 | 15.00257 | 58° | 24km/h | 17879m | -8.7m/s | -49.2°C | 0% | 81.2hPa | 2.7V | 08:27:33 | 01:41:44 | 00:00:00 | |
| DF8AY | 2026-09-01 17:51:17 | 52.19043 | 15.00222 | 56° | 27km/h | 17913m | -8.2m/s | -49.4°C | 0% | 80.8hPa | 2.6V | 08:28:24 | 01:41:40 | 00:00:00 | |
| AA1-15 | 2026-09-01 17:51:15 | 52.19035 | 15.00204 | 52° | 29km/h | 17930m | -8.5m/s | -49.5°C | 0% | 80.6hPa | 2.7V | 08:27:33 | 01:41:38 | 00:00:00 | |
| DL1XH1-15 | 2026-09-01 17:51:15 | 52.19019 | 15.00174 | 48° | 33km/h | 17955m | -8.7m/s | -49.7°C | 3.2% | 80.3hPa | 2.6V | 08:27:07 | 01:41:35 | 00:00:00 | |
| SONDE2-11 | 2026-09-01 17:51:15 | 52.19030 | 15.00194 | 49° | 29km/h | 17938m | -8.6m/s | -49.6°C | 0.9% | 80.5hPa | 2.6V | 00:00:00 | 00:00:00 | 00:00:00 | |
| S3001 | 2026-09-01 17:51:14 | 52.19030 | 15.00194 | 49° | 29km/h | 17938m | -8.6m/s | -49.6°C | 0.9% | 80.5hPa | 2.6V | 00:00:00 | 00:00:00 | 00:00:00 | |
| DB0DAN | 2026-09-01 17:51:10 | 52.19007 | 15.00154 | 46° | 33km/h | 17973m | -8.2m/s | -49.7°C | 0.9% | 80.12hPa | 2.6V | 00:00:00 | 00:00:00 | 00:00:00 | |
| DL1XH-west | 2026-09-01 17:51:10 | 52.19007 | 15.00154 | 46° | 35km/h | 17973m | -8.2m/s | -49.7°C | 0% | 80.1hPa | 2.6V | 08:27:33 | 01:41:33 | 00:00:00 | |
| DF8AY | 2026-09-01 17:51:06 | 52.18984 | 15.00116 | 47° | 31km/h | 18005m | -8.1m/s | -50°C | 0% | 79.7hPa | 2.6V | 08:28:24 | 01:41:29 | 00:00:00 | |
| AA1-15 | 2026-09-01 17:51:05 | 52.18979 | 15.00106 | 47° | 31km/h | 18014m | -8.6m/s | -50°C | 0% | 79.6hPa | 2.6V | 08:27:33 | 01:41:28 | 00:00:00 | |
| DL1XH-west | 2026-09-01 17:50:59 | 52.18947 | 15.00043 | 52° | 37km/h | 18064m | -8.2m/s | -50.3°C | 0.1% | 79hPa | 2.6V | 08:27:33 | 01:41:22 | 00:00:00 | |
| DL1XH1-15 | 2026-09-01 17:50:58 | 52.18909 | 14.99953 | 58° | 40km/h | 18121m | -8.3m/s | -50.6°C | 3.4% | 78.3hPa | 2.6V | 08:27:27 | 01:41:15 | 00:00:00 | |
| DO3MHA-11 | 2026-09-01 17:50:58 | 52.18941 | 15.00031 | 53° | 38km/h | 18073m | -8.1m/s | -50.3°C | 3.3% | 78.8hPa | 2.6V | 08:27:00 | 01:41:21 | 00:00:00 | |
| DAC517 | 2026-09-01 17:50:57 | 52.18941 | 15.00031 | 54° | 37km/h | 18073m | -8.1m/s | -50.3°C | 1.0% | 78.9hPa | 2.7V | 08:27:00 | 00:00:00 | 00:00:00 | |
| DB0DAN | 2026-09-01 17:50:55 | 52.18925 | 14.99993 | 56° | 37km/h | 18097m | -7.9m/s | -50.5°C | 1% | 78.59hPa | 2.7V | 00:00:00 | 00:00:00 | 00:00:00 | |
| DF8AY | 2026-09-01 17:50:55 | 52.18925 | 14.99993 | 56° | 38km/h | 18097m | -7.9m/s | -50.5°C | 0.1% | 78.6hPa | 2.7V | 08:28:24 | 01:41:18 | 00:00:00 | |
| AA1-15 | 2026-09-01 17:50:54 | 52.18919 | 14.99980 | 57° | 38km/h | 18105m | -8.3m/s | -50.5°C | 0.1% | 78.5hPa | 2.6V | 08:27:33 | 01:41:17 | 00:00:00 | |
| DL1XH-west | 2026-09-01 17:50:48 | 52.18888 | 14.99895 | 60° | 42km/h | 18154m | -8.4m/s | -50.5°C | 0.1% | 77.9hPa | 2.6V | 08:27:33 | 01:41:11 | 00:00:00 | |
| DO3MHA-11 | 2026-09-01 17:50:48 | 52.18888 | 14.99895 | 61° | 42km/h | 18155m | -8.4m/s | -50.5°C | 3.4% | 77.8hPa | 2.6V | 00:00:00 | 01:41:11 | 00:00:00 | |
| DL1XH1-15 | 2026-09-01 17:50:47 | 52.18860 | 14.99801 | 69° | 44km/h | 18205m | -8.5m/s | -50.7°C | 3.4% | 77.3hPa | 2.6V | 08:27:37 | 01:41:05 | 00:00:00 | |
| SP3WXH-11 | 2026-09-01 17:50:46 | 52.18878 | 14.99865 | 63° | 42km/h | 18171m | -8.5m/s | -50.6°C | 1.0% | 77.7hPa | 2.6V | 00:00:00 | 00:00:00 | 00:00:00 | |
| SONDE2-12 | 2026-09-01 17:50:44 | 52.18864 | 14.99817 | 67° | 42km/h | 18197m | -8.7m/s | -50.7°C | 1.0% | 77.4hPa | 2.6V | 00:00:00 | 00:00:00 | 00:00:00 | |
| AA1-15 | 2026-09-01 17:50:43 | 52.18864 | 14.99817 | 67° | 42km/h | 18197m | -8.7m/s | -50.7°C | 0.1% | 77.4hPa | 2.6V | 08:28:24 | 01:41:06 | 00:00:00 | |
| DB0DAN | 2026-09-01 17:50:40 | 52.18852 | 14.99766 | 69° | 44km/h | 18222m | -8.8m/s | -50.8°C | 1% | 77.07hPa | 2.6V | 00:00:00 | 00:00:00 | 00:00:00 | |
| DL1XH-west | 2026-09-01 17:50:37 | 52.18840 | 14.99712 | 71° | 47km/h | 18248m | -8.6m/s | -50.9°C | 0.1% | 76.8hPa | 2.7V | 08:28:24 | 01:41:00 | 00:00:00 | |
| DL1XH1-15 | 2026-09-01 17:50:35 | 52.18824 | 14.99623 | 76° | 42km/h | 18290m | -8.4m/s | -51°C | 3.5% | 76.3hPa | 2.7V | 08:27:47 | 01:40:55 | 00:00:00 | |
| AA1-15 | 2026-09-01 17:50:32 | 52.18824 | 14.99623 | 77° | 42km/h | 18290m | -8.4m/s | -51°C | 0.2% | 76.3hPa | 2.7V | 08:28:24 | 01:40:55 | 00:00:00 | |
| DF8AY | 2026-09-01 17:50:31 | 52.18821 | 14.99606 | 76° | 44km/h | 18299m | -8.4m/s | -51°C | 0.3% | 76.2hPa | 2.6V | 08:28:24 | 01:40:54 | 00:00:00 | |
| DL1XH-west | 2026-09-01 17:50:26 | 52.18812 | 14.99514 | 84° | 46km/h | 18341m | -8.4m/s | -51.1°C | 0.2% | 75.7hPa | 2.7V | 08:28:24 | 01:40:49 | 00:00:00 | |
| KRY50SP-1 | 2026-09-01 17:50:25 | 52.18812 | 14.99514 | 85° | 46km/h | 18342m | -8.4m/s | -51.1°C | 1.0% | 75.7hPa | 2.7V | 08:28:00 | 00:00:00 | 00:00:00 | |
| DO3MHA-11 | 2026-09-01 17:50:24 | 52.18809 | 14.99477 | 84° | 44km/h | 18358m | -8.3m/s | -51.0°C | 3.5% | 75.4hPa | 2.7V | 00:00:00 | 01:40:47 | 00:00:00 | |
| DL1XH1-15 | 2026-09-01 17:50:22 | 52.18805 | 14.99423 | 83° | 44km/h | 18383m | -8.8m/s | -51°C | 3.6% | 75.2hPa | 2.7V | 08:27:58 | 01:40:44 | 00:00:00 | |
| AA1-15 | 2026-09-01 17:50:21 | 52.18805 | 14.99423 | 83° | 44km/h | 18384m | -8.8m/s | -51°C | 0.2% | 75.2hPa | 2.7V | 08:28:24 | 01:40:44 | 00:00:00 | |
| DF8AY | 2026-09-01 17:50:20 | 52.18804 | 14.99405 | 83° | 44km/h | 18392m | -8.7m/s | -51.1°C | 0.3% | 75.1hPa | 2.7V | 08:28:24 | 01:40:43 | 00:00:00 | |
| DL1XH-west | 2026-09-01 17:50:16 | 52.18799 | 14.99335 | 87° | 44km/h | 18427m | -8.5m/s | -51°C | 0.2% | 74.7hPa | 2.6V | 08:28:24 | 01:40:39 | 00:00:00 | |
| SP3WXH-11 | 2026-09-01 17:50:15 | 52.18799 | 14.99317 | 90° | 42km/h | 18436m | -8.6m/s | -51.1°C | 1.0% | 74.6hPa | 2.7V | 00:00:00 | 00:00:00 | 00:00:00 | |
| KRY50SP-1 | 2026-09-01 17:50:14 | 52.18799 | 14.99317 | 92° | 44km/h | 18436m | -8.6m/s | -51.1°C | 1.0% | 74.6hPa | 2.7V | 08:28:00 | 00:00:00 | 00:00:00 | |
| SONDE2-11 | 2026-09-01 17:50:13 | 52.18801 | 14.99265 | 93° | 42km/h | 18461m | -8.2m/s | -50.9°C | 1.0% | 74.3hPa | 2.7V | 00:00:00 | 00:00:00 | 00:00:00 | |
| S3001 | 2026-09-01 17:50:12 | 52.18801 | 14.99265 | 93° | 42km/h | 18461m | -8.2m/s | -50.9°C | 1.0% | 74.3hPa | 2.7V | 00:00:00 | 00:00:00 | 00:00:00 | |
| DL1XH1-15 | 2026-09-01 17:50:11 | 52.18803 | 14.99197 | 91° | 38km/h | 18496m | -8.7m/s | -50.9°C | 3.6% | 73.9hPa | 2.7V | 08:28:11 | 01:40:31 | 00:00:00 | |
| DF8AY | 2026-09-01 17:50:10 | 52.18802 | 14.99230 | 94° | 42km/h | 18478m | -8.8m/s | -50.9°C | 0.2% | 74.1hPa | 2.7V | 08:28:24 | 01:40:33 | 00:00:00 | |
| DL1XH-west | 2026-09-01 17:50:05 | 52.18803 | 14.99153 | 88° | 35km/h | 18523m | -9.2m/s | -50.7°C | 0.2% | 73.6hPa | 2.6V | 08:28:24 | 01:40:28 | 00:00:00 | |
| DF8AY | 2026-09-01 17:50:00 | 52.18800 | 14.99081 | 85° | 35km/h | 18568m | -8.9m/s | -50.4°C | 0.2% | 73.1hPa | 2.6V | 08:28:24 | 01:40:23 | 00:00:00 | |
| AA1-15 | 2026-09-01 17:49:59 | 52.18799 | 14.99067 | 85° | 33km/h | 18577m | -9.2m/s | -50.3°C | 0.1% | 73hPa | 2.6V | 08:28:24 | 01:40:22 | 00:00:00 | |
| DL1XH1-15 | 2026-09-01 17:49:58 | 52.18794 | 14.98989 | 82° | 24km/h | 18637m | -9m/s | 0°C | 0% | 0hPa | 2.7V | 08:30:00 | 01:40:15 | 00:00:00 | |
| DB0DAN | 2026-09-01 17:49:55 | 52.18796 | 14.99020 | 83° | 26km/h | 18612m | -8.1m/s | -50.2°C | 0.9% | 72.57hPa | 2.6V | 00:00:00 | 00:00:00 | 00:00:00 | |
| DL1XH-west | 2026-09-01 17:49:55 | 52.18796 | 14.99020 | 83° | 26km/h | 18612m | -8.1m/s | -50.2°C | 0% | 72.6hPa | 2.6V | 08:28:24 | 01:40:18 | 00:00:00 | |
| DF8AY | 2026-09-01 17:49:50 | 52.18793 | 14.98969 | 87° | 24km/h | 18654m | -8.7m/s | -50.3°C | 0.1% | 72.1hPa | 2.7V | 08:29:15 | 01:40:13 | 00:00:00 | |
| AA1-15 | 2026-09-01 17:49:48 | 52.18793 | 14.98948 | 94° | 26km/h | 18672m | -9.2m/s | -50.3°C | 0.1% | 71.9hPa | 2.6V | 08:29:15 | 01:40:11 | 00:00:00 | |
| DJ2DS-15 | 2026-09-01 17:49:48 | 52.18793 | 14.98948 | 95° | 24km/h | 18672m | -9.1m/s | -50.3°C | 3.3% | 71.8hPa | 2.7V | 00:00:00 | 01:40:11 | 00:00:00 | |
| KRY50SP-1 | 2026-09-01 17:49:47 | 52.18793 | 14.98948 | 95° | 26km/h | 18672m | -9.2m/s | -50.3°C | 0.9% | 71.9hPa | 2.7V | 08:29:00 | 00:00:00 | 00:00:00 | |
| DL1XH1-15 | 2026-09-01 17:49:46 | 52.18798 | 14.98894 | 100° | 29km/h | 18719m | -9.4m/s | 0°C | 0% | 0hPa | 2.7V | 08:30:00 | 01:40:06 | 00:00:00 | |
| DL1XH-west | 2026-09-01 17:49:45 | 52.18796 | 14.98917 | 100° | 26km/h | 18700m | -10.3m/s | -50.3°C | 0.1% | 71.6hPa | 2.7V | 08:29:15 | 01:40:08 | 00:00:00 | |
| SONDE2-12 | 2026-09-01 17:49:42 | 52.18800 | 14.98872 | 98° | 26km/h | 18738m | -9.8m/s | -50.3°C | 1.0% | 71.2hPa | 2.6V | 00:00:00 | 00:00:00 | 00:00:00 | |
| DB0DAN | 2026-09-01 17:49:40 | 52.18801 | 14.98861 | 98° | 26km/h | 18746m | -8.8m/s | -50.4°C | 0.9% | 71.07hPa | 2.6V | 00:00:00 | 00:00:00 | 00:00:00 | |
| DF8AY | 2026-09-01 17:49:39 | 52.18802 | 14.98850 | 98° | 27km/h | 18755m | -8.9m/s | -50.5°C | 0.1% | 71hPa | 2.7V | 08:29:15 | 01:40:02 | 00:00:00 | |
| AA1-15 | 2026-09-01 17:49:37 | 52.18803 | 14.98830 | 95° | 22km/h | 18773m | -9.4m/s | -50.5°C | 0.1% | 70.8hPa | 2.6V | 08:29:15 | 01:40:00 | 00:00:00 | |
| DL1XH-west | 2026-09-01 17:49:34 | 52.18805 | 14.98804 | 99° | 18km/h | 18800m | -9.6m/s | -50.7°C | 0.2% | 70.5hPa | 2.7V | 08:29:15 | 01:39:57 | 00:00:00 | |
| DL1XH1-15 | 2026-09-01 17:49:34 | 52.18806 | 14.98797 | 105° | 18km/h | 18810m | -8.7m/s | 0°C | 0% | 0hPa | 2.7V | 08:30:00 | 01:39:56 | 00:00:00 | |
| EDDB2-11 | 2026-09-01 17:49:33 | 52.18806 | 14.98797 | 105° | 18km/h | 18810m | -8.7m/s | -50.8°C | 0.9% | 70.4hPa | 2.7V | 00:00:00 | 00:00:00 | 00:00:00 | |
| DO3MHA-11 | 2026-09-01 17:49:31 | 52.18810 | 14.98782 | 123° | 27km/h | 18827m | -8.2m/s | -50.9°C | 3.4% | 70.1hPa | 2.7V | 00:00:00 | 01:39:54 | 00:00:00 | |
| DH0BRO-15 | 2026-09-01 17:49:29 | 52.18812 | 14.98775 | 123° | 22km/h | 18835m | -8.7m/s | 0°C | 0% | 0hPa | 2.7V | 00:00:00 | 00:00:00 | 00:00:00 | |
| DL1XH1-15 | 2026-09-01 17:49:28 | 52.18835 | 14.98686 | 91° | 31km/h | 18916m | -10.5m/s | 0°C | 0% | 0hPa | 2.7V | 08:30:00 | 01:39:45 | 00:00:00 | |
| AA1-15 | 2026-09-01 17:49:26 | 52.18827 | 14.98737 | 115° | 33km/h | 18873m | -12.9m/s | -51.1°C | 0.1% | 69.7hPa | 2.6V | 08:29:15 | 01:39:49 | 00:00:00 | |
| DL1XH-west | 2026-09-01 17:49:24 | 52.18833 | 14.98712 | 105° | 33km/h | 18895m | -10.2m/s | -51.2°C | 0.2% | 69.5hPa | 2.6V | 08:29:15 | 01:39:47 | 00:00:00 | |
| DF8AY | 2026-09-01 17:49:22 | 52.18836 | 14.98686 | 92° | 31km/h | 18916m | -10.5m/s | -51.4°C | 0.2% | 69.2hPa | 2.7V | 08:29:15 | 01:39:45 | 00:00:00 | |
| AA1-15 | 2026-09-01 17:49:16 | 52.18829 | 14.98637 | 93° | 13km/h | 18974m | -10.2m/s | -51.7°C | 0.2% | 68.7hPa | 2.7V | 08:29:15 | 01:39:39 | 00:00:00 | |
| DL1XH1-15 | 2026-09-01 17:49:15 | 52.18833 | 14.98620 | 122° | 22km/h | 19003m | -9.6m/s | 0°C | 0% | 0hPa | 2.6V | 08:30:00 | 01:39:36 | 00:00:00 | |
| DL1XH-west | 2026-09-01 17:49:13 | 52.18833 | 14.98620 | 122° | 22km/h | 19003m | -9.6m/s | -51.7°C | 0.2% | 68.4hPa | 2.6V | 08:29:15 | 01:39:36 | 00:00:00 | |
| SONDE2-11 | 2026-09-01 17:49:11 | 52.18845 | 14.98592 | 120° | 33km/h | 19030m | -9.2m/s | -51.8°C | 1.0% | 68.1hPa | 2.7V | 00:00:00 | 00:00:00 | 00:00:00 | |
| DB0DAN | 2026-09-01 17:49:10 | 52.18845 | 14.98592 | 120° | 33km/h | 19030m | -9.2m/s | -51.8°C | 1% | 68.08hPa | 2.7V | 00:00:00 | 00:00:00 | 00:00:00 | |
| S3001 | 2026-09-01 17:49:10 | 52.18845 | 14.98592 | 120° | 33km/h | 19030m | -9.2m/s | -51.8°C | 1.0% | 68.1hPa | 2.7V | 00:00:00 | 00:00:00 | 00:00:00 | |
| KRY50SP-1 | 2026-09-01 17:49:09 | 52.18845 | 14.98592 | 121° | 33km/h | 19030m | -9.2m/s | -51.8°C | 1.0% | 68.1hPa | 2.7V | 08:29:00 | 00:00:00 | 00:00:00 | |
| DL1XH1-15 | 2026-09-01 17:49:08 | 52.18859 | 14.98520 | 97° | 16km/h | 19097m | -9.2m/s | 0°C | 0% | 0hPa | 2.7V | 08:30:00 | 01:39:26 | 00:00:00 | |
| DF8AY | 2026-09-01 17:49:06 | 52.18856 | 14.98544 | 102° | 24km/h | 19069m | -9.3m/s | -52.1°C | 0.2% | 67.6hPa | 2.6V | 08:29:15 | 01:39:29 | 00:00:00 | |
| AA1-15 | 2026-09-01 17:49:05 | 52.18858 | 14.98535 | 102° | 22km/h | 19078m | -9.6m/s | -52.2°C | 0.2% | 67.6hPa | 2.7V | 08:29:15 | 01:39:28 | 00:00:00 | |
| DL1XH-west | 2026-09-01 17:49:03 | 52.18859 | 14.98520 | 97° | 16km/h | 19097m | -9.2m/s | -52.3°C | 0.3% | 67.3hPa | 2.7V | 18:12:15 | 01:39:26 | 00:00:00 | |
| EDDB2-11 | 2026-09-01 17:49:02 | 52.18859 | 14.98513 | 92° | 16km/h | 19106m | -8.6m/s | -52.3°C | 1.0% | 67.3hPa | 2.7V | 00:00:00 | 00:00:00 | 00:00:00 | |
| DO3MHA-11 | 2026-09-01 17:49:01 | 52.18860 | 14.98506 | 94° | 22km/h | 19115m | -9.3m/s | -52.3°C | 3.6% | 67.1hPa | 2.7V | 00:00:00 | 01:39:24 | 00:00:00 | |
| 13BRC | 2026-09-01 17:49:00 | 52.18860 | 14.98506 | 95° | 16km/h | 19115m | -9.4m/s | -52.3°C | 1.0% | 67.2hPa | 2.7V | 00:00:00 | 00:00:00 | 00:00:00 | |
| DL1XH1-15 | 2026-09-01 17:48:58 | 52.18871 | 14.98422 | 109° | 26km/h | 19202m | -9.9m/s | 0°C | 0% | 0hPa | 2.7V | 08:30:00 | 01:39:15 | 00:00:00 | |
| DF8AY | 2026-09-01 17:48:56 | 52.18864 | 14.98465 | 99° | 26km/h | 19162m | -10.4m/s | -52.6°C | 0.4% | 66.7hPa | 2.6V | 18:12:15 | 01:39:19 | 00:00:00 | |
| DB0DAN | 2026-09-01 17:48:55 | 52.18865 | 14.98454 | 103° | 27km/h | 19173m | -10.1m/s | -52.7°C | 1.1% | 66.58hPa | 2.6V | 00:00:00 | 00:00:00 | 00:00:00 | |
| AA1-15 | 2026-09-01 17:48:54 | 52.18867 | 14.98443 | 104° | 27km/h | 19183m | -9.8m/s | -52.8°C | 0.4% | 66.5hPa | 2.7V | 18:12:15 | 01:39:17 | 00:00:00 | |
| DL1XH-west | 2026-09-01 17:48:52 | 52.18871 | 14.98422 | 110° | 26km/h | 19202m | -9.9m/s | -52.9°C | 0.4% | 66.3hPa | 2.7V | 18:12:15 | 01:39:15 | 00:00:00 | |
| DO3MHA-11 | 2026-09-01 17:48:51 | 52.18873 | 14.98412 | 109° | 16km/h | 19213m | -10.5m/s | -52.9°C | 3.9% | 66.1hPa | 2.6V | 00:00:00 | 01:39:14 | 00:00:00 | |
| DAC517 | 2026-09-01 17:48:50 | 52.18872 | 14.98412 | 109° | 26km/h | 19213m | -10.5m/s | -53.0°C | 1.1% | 66.2hPa | 2.6V | 00:00:00 | 00:00:00 | 00:00:00 | |
| DL1XH1-15 | 2026-09-01 17:48:47 | 52.18891 | 14.98355 | 130° | 11km/h | 19299m | -10.6m/s | 0°C | 0% | 0hPa | 2.6V | 08:30:00 | 01:39:05 | 00:00:00 | |
| DF8AY | 2026-09-01 17:48:45 | 52.18886 | 14.98366 | 125° | 13km/h | 19270m | -8.4m/s | -53.3°C | 0.5% | 65.6hPa | 2.7V | 18:12:15 | 01:39:08 | 00:00:00 | |
| AA1-15 | 2026-09-01 17:48:43 | 52.18889 | 14.98359 | 128° | 11km/h | 19289m | -9.8m/s | -53.2°C | 0.5% | 65.4hPa | 2.6V | 18:12:15 | 01:39:06 | 00:00:00 | |
| DL1XH-west | 2026-09-01 17:48:41 | 52.18893 | 14.98352 | 143° | 11km/h | 19310m | -11.7m/s | -52.8°C | 0.4% | 65.2hPa | 2.7V | 18:12:15 | 01:39:04 | 00:00:00 | |
| SONDE2-12 | 2026-09-01 17:48:40 | 52.18899 | 14.98347 | 150° | 16km/h | 19333m | -11.4m/s | -52.8°C | 1.2% | 65.0hPa | 2.6V | 00:00:00 | 00:00:00 | 00:00:00 | |
| S3001 | 2026-09-01 17:48:39 | 52.18899 | 14.98347 | 150° | 16km/h | 19333m | -11.4m/s | -52.8°C | 1.1% | 65.0hPa | 2.6V | 00:00:00 | 00:00:00 | 00:00:00 | |
| DB0NH | 2026-09-01 17:48:38 | 52.18903 | 14.98343 | 150° | 13km/h | 19344m | -11.1m/s | -52.7°C | 3.9% | 64.8hPa | 2.6V | 00:00:00 | 01:39:01 | 00:00:00 | |
| DL1XH1-15 | 2026-09-01 17:48:37 | 52.18926 | 14.98314 | 128° | 7km/h | 19415m | -12.2m/s | 0°C | 0% | 0hPa | 2.6V | 08:30:00 | 01:38:55 | 00:00:00 | |
| DF8AY | 2026-09-01 17:48:34 | 52.18921 | 14.98323 | 140° | 20km/h | 19391m | -12.1m/s | -52.5°C | 0.4% | 64.4hPa | 2.7V | 18:12:15 | 01:38:57 | 00:00:00 | |
| AA1-15 | 2026-09-01 17:48:32 | 52.18926 | 14.98314 | 128° | 7km/h | 19415m | -12.2m/s | -52.4°C | 0.4% | 64.2hPa | 2.6V | 18:12:15 | 01:38:55 | 00:00:00 | |
| DL1XH-west | 2026-09-01 17:48:30 | 52.18928 | 14.98310 | 100° | 5km/h | 19440m | -12.2m/s | -52.2°C | 0.3% | 64hPa | 2.7V | 18:12:15 | 01:38:53 | 00:00:00 | |
| DF8AY | 2026-09-01 17:48:24 | 52.18922 | 14.98297 | 50° | 7km/h | 19529m | -18.1m/s | -51.8°C | 0.2% | 63.1hPa | 2.7V | 18:12:15 | 01:38:47 | 00:00:00 | |
| AA1-15 | 2026-09-01 17:48:21 | 52.18918 | 14.98289 | 47° | 11km/h | 19580m | -14.8m/s | -52°C | 0.2% | 62.6hPa | 2.6V | 18:12:15 | 01:38:44 | 00:00:00 | |
| DL1XH-west | 2026-09-01 17:48:20 | 52.18917 | 14.98285 | 52° | 13km/h | 19593m | -11.6m/s | -52.1°C | 0.3% | 62.4hPa | 2.6V | 18:12:15 | 01:38:43 | 00:00:00 | |
| DF8AY | 2026-09-01 17:48:13 | 52.18900 | 14.98256 | 54° | 15km/h | 19677m | -11.5m/s | -52.3°C | 0.3% | 61.6hPa | 2.7V | 18:12:15 | 01:38:36 | 00:00:00 | |
| DB0DAN | 2026-09-01 17:48:10 | 52.18893 | 14.98239 | 63° | 18km/h | 19710m | -10.7m/s | -52.5°C | 1% | 61.31hPa | 2.6V | 00:00:00 | 00:00:00 | 00:00:00 | |
| AA1-15 | 2026-09-01 17:48:10 | 52.18893 | 14.98239 | 63° | 18km/h | 19710m | -10.7m/s | -52.5°C | 0.3% | 61.3hPa | 2.6V | 18:12:15 | 01:38:33 | 00:00:00 | |
| DL1XH-west | 2026-09-01 17:48:09 | 52.18891 | 14.98233 | 56° | 18km/h | 19720m | -10.4m/s | -52.5°C | 0.4% | 61.2hPa | 2.6V | 18:12:15 | 01:38:32 | 00:00:00 | |
| SONDE2-12 | 2026-09-01 17:48:09 | 52.18888 | 14.98226 | 58° | 18km/h | 19730m | -9.5m/s | -52.6°C | 1.1% | 61.1hPa | 2.6V | 00:00:00 | 00:00:00 | 00:00:00 | |
| DF8AY | 2026-09-01 17:48:03 | 52.18871 | 14.98191 | 47° | 24km/h | 19789m | -12.4m/s | -52.8°C | 0.4% | 60.6hPa | 2.6V | 18:12:15 | 01:38:26 | 00:00:00 | |
| AA1-15 | 2026-09-01 17:47:59 | 52.18853 | 14.98161 | 47° | 24km/h | 19837m | -11.6m/s | -53°C | 0.4% | 60.1hPa | 2.6V | 18:12:15 | 01:38:22 | 00:00:00 | |
| DL1XH-west | 2026-09-01 17:47:58 | 52.18849 | 14.98154 | 49° | 26km/h | 19849m | -12.1m/s | -52.8°C | 0.4% | 60hPa | 2.6V | 18:12:15 | 01:38:21 | 00:00:00 | |
| DF8AY | 2026-09-01 17:47:52 | 52.18824 | 14.98100 | 58° | 29km/h | 19914m | -12.3m/s | -52.9°C | 0.4% | 59.4hPa | 2.6V | 18:12:15 | 01:38:15 | 00:00:00 | |
| DL1XH-west | 2026-09-01 17:47:48 | 52.18808 | 14.98060 | 55° | 29km/h | 19937m | 5.5m/s | -53°C | 0.4% | 59.2hPa | 2.6V | 18:12:15 | 01:38:11 | 00:00:00 | |
| DF8AY | 2026-09-01 17:47:47 | 52.18779 | 14.98005 | 49° | 27km/h | 19904m | 4.2m/s | -52.8°C | 0.3% | 59.4hPa | 2.6V | 18:12:15 | 01:38:05 | 00:00:00 | |
| AA1-15 | 2026-09-01 17:47:37 | 52.18758 | 14.97957 | 56° | 26km/h | 19878m | 5.2m/s | -52.8°C | 0.4% | 59.7hPa | 2.6V | 18:12:15 | 01:38:00 | 00:00:00 | |
| DF8AY | 2026-09-01 17:47:31 | 52.18734 | 14.97911 | 44° | 24km/h | 19847m | 5.8m/s | -53.1°C | 0.5% | 60hPa | 2.6V | 18:12:15 | 01:37:54 | 00:00:00 | |
| DL1XH-west | 2026-09-01 17:47:29 | 52.18724 | 14.97896 | 38° | 29km/h | 19836m | 5.5m/s | -53°C | 0.4% | 60.1hPa | 2.6V | 18:12:15 | 01:37:52 | 00:00:00 | |
| AA1-15 | 2026-09-01 17:47:26 | 52.18706 | 14.97873 | 42° | 33km/h | 19820m | 5.2m/s | -52.9°C | 0.4% | 60.2hPa | 2.6V | 18:12:15 | 01:37:49 | 00:00:00 | |
| DB0DAN | 2026-09-01 17:47:25 | 52.18701 | 14.97864 | 46° | 29km/h | 19816m | 3.4m/s | -52.9°C | 1.1% | 60.25hPa | 2.6V | 00:00:00 | 00:00:00 | 00:00:00 | |
| DF8AY | 2026-09-01 17:47:20 | 52.18681 | 14.97824 | 62° | 18km/h | 19790m | 3.9m/s | -52.8°C | 0.4% | 60.5hPa | 2.6V | 18:12:15 | 01:37:43 | 00:00:00 | |
| AA1-15 | 2026-09-01 17:47:15 | 52.18670 | 14.97796 | 46° | 18km/h | 19765m | 3.5m/s | -52.7°C | 0.4% | 60.7hPa | 2.6V | 18:12:15 | 01:37:38 | 00:00:00 | |
| SONCRA | 2026-09-01 17:47:13 | 52.18663 | 14.97786 | 40° | 18km/h | 19755m | 4.5m/s | -52.7°C | 1.1% | 60.8hPa | 2.7V | 00:00:00 | 00:00:00 | 00:00:00 | |
| DB0DAN | 2026-09-01 17:47:10 | 52.18652 | 14.97767 | 50° | 20km/h | 19740m | 4.5m/s | -52.6°C | 1.1% | 60.99hPa | 2.7V | 00:00:00 | 00:00:00 | 00:00:00 | |
| DF8AY | 2026-09-01 17:47:10 | 52.18652 | 14.97767 | 50° | 22km/h | 19740m | 4.5m/s | -52.6°C | 0.4% | 61hPa | 2.7V | 18:12:15 | 01:37:33 | 00:00:00 | |
| SONDE2-12 | 2026-09-01 17:47:06 | 52.18639 | 14.97743 | 54° | 16km/h | 19720m | 4.9m/s | -52.5°C | 1.2% | 61.2hPa | 2.6V | 00:00:00 | 00:00:00 | 00:00:00 | |
| AA1-15 | 2026-09-01 17:47:04 | 52.18634 | 14.97733 | 43° | 15km/h | 19709m | 4.8m/s | -52.4°C | 0.4% | 61.3hPa | 2.6V | 18:12:15 | 01:37:27 | 00:00:00 | |
| DF8AY | 2026-09-01 17:46:59 | 52.18623 | 14.97714 | 39° | 13km/h | 19683m | 5.1m/s | -52.3°C | 0.3% | 61.5hPa | 2.7V | 18:12:15 | 01:37:22 | 00:00:00 | |
| EDDB2-11 | 2026-09-01 17:46:58 | 52.18621 | 14.97711 | 43° | 13km/h | 19678m | 5.9m/s | -52.3°C | 1.0% | 61.6hPa | 2.7V | 00:00:00 | 00:00:00 | 00:00:00 | |
| DB0DAN | 2026-09-01 17:46:55 | 52.18613 | 14.97697 | 40° | 15km/h | 19663m | 5.7m/s | -52.4°C | 1.1% | 61.68hPa | 2.7V | 00:00:00 | 00:00:00 | 00:00:00 | |
| AA1-15 | 2026-09-01 17:46:54 | 52.18610 | 14.97693 | 41° | 16km/h | 19658m | 5.1m/s | -52.4°C | 0.4% | 61.8hPa | 2.7V | 18:12:15 | 01:37:17 | 00:00:00 | |
| DL1XH-west | 2026-09-01 17:46:49 | 52.18597 | 14.97673 | 34° | 11km/h | 19632m | 4.9m/s | -52.2°C | 0.4% | 62hPa | 2.7V | 18:12:15 | 01:37:12 | 00:00:00 | |
| D01LWL | 2026-09-01 17:46:48 | 52.18595 | 14.97671 | 38° | 11km/h | 19626m | 5.6m/s | -52.1°C | 1.0% | 62.0hPa | 2.7V | 00:00:00 | 00:00:00 | 00:00:00 | |
| AA1-15 | 2026-09-01 17:46:43 | 52.18581 | 14.97658 | 30° | 15km/h | 19601m | 5.8m/s | -52.2°C | 0.4% | 62.3hPa | 2.7V | 18:12:15 | 01:37:06 | 00:00:00 | |
| DB0DAN | 2026-09-01 17:46:40 | 52.18573 | 14.97650 | 26° | 11km/h | 19585m | 5m/s | -52.1°C | 1% | 62.46hPa | 2.6V | 00:00:00 | 00:00:00 | 00:00:00 | |
| DF8AY | 2026-09-01 17:46:39 | 52.18570 | 14.97647 | 34° | 11km/h | 19580m | 5.8m/s | -52.1°C | 0.3% | 62.5hPa | 2.7V | 18:12:15 | 01:37:02 | 00:00:00 | |
| SONDE2-12 | 2026-09-01 17:46:35 | 52.18561 | 14.97637 | 25° | 9km/h | 19560m | 3.6m/s | -52.1°C | 1.1% | 62.7hPa | 2.7V | 00:00:00 | 00:00:00 | 00:00:00 | |
| DL1XH-west | 2026-09-01 17:46:33 | 52.18556 | 14.97632 | 42° | 13km/h | 19548m | 6.8m/s | -52.1°C | 0.3% | 62.8hPa | 2.7V | 18:12:15 | 01:36:56 | 00:00:00 | |
| AA1-15 | 2026-09-01 17:46:32 | 52.18554 | 14.97629 | 43° | 13km/h | 19543m | 4.6m/s | -52.1°C | 0.3% | 62.9hPa | 2.7V | 18:12:15 | 01:36:55 | 00:00:00 | |
| DF8AY | 2026-09-01 17:46:29 | 52.18547 | 14.97620 | 48° | 7km/h | 19526m | 4.4m/s | -52°C | 0.3% | 63hPa | 2.6V | 18:12:15 | 01:36:52 | 00:00:00 | |
| DO3MHA-11 | 2026-09-01 17:46:29 | 52.18547 | 14.97620 | 49° | 7km/h | 19526m | 4.3m/s | -52.0°C | 3.7% | 63.0hPa | 2.6V | 00:00:00 | 01:36:52 | 00:00:00 | |
| DAC517 | 2026-09-01 17:46:27 | 52.18546 | 14.97618 | 75° | 7km/h | 19521m | 6.6m/s | -52.0°C | 1.0% | 63.1hPa | 2.6V | 00:00:00 | 00:00:00 | 00:00:00 | |
| DB0DAN | 2026-09-01 17:46:25 | 52.18548 | 14.97609 | 119° | 5km/h | 19504m | 6.2m/s | -52.1°C | 1% | 63.24hPa | 2.6V | 00:00:00 | 00:00:00 | 00:00:00 | |
| DL1XH-west | 2026-09-01 17:46:23 | 52.18550 | 14.97604 | 114° | 7km/h | 19493m | 6.5m/s | -52.2°C | 0.3% | 63.4hPa | 2.6V | 18:12:15 | 01:36:46 | 00:00:00 | |
| AA1-15 | 2026-09-01 17:46:21 | 52.18552 | 14.97597 | 111° | 9km/h | 19482m | 5m/s | -52.3°C | 0.3% | 63.4hPa | 2.7V | 18:12:15 | 01:36:44 | 00:00:00 | |
| DF8AY | 2026-09-01 17:46:18 | 52.18552 | 14.97591 | 86° | 5km/h | 19465m | 5.3m/s | -52.3°C | 0.3% | 63.6hPa | 2.6V | 18:12:15 | 01:36:41 | 00:00:00 | |
| AA1-15 | 2026-09-01 17:46:11 | 52.18564 | 14.97572 | 150° | 13km/h | 19427m | 6.2m/s | -52.6°C | 0.3% | 64hPa | 2.7V | 18:12:15 | 01:36:34 | 00:00:00 | |
| DF8AY | 2026-09-01 17:46:08 | 52.18574 | 14.97564 | 154° | 15km/h | 19410m | 4.4m/s | -52.7°C | 0.4% | 64.2hPa | 2.6V | 18:12:15 | 01:36:31 | 00:00:00 | |
| SONDE2-12 | 2026-09-01 17:46:04 | 52.18585 | 14.97558 | 163° | 11km/h | 19389m | 5.6m/s | -52.8°C | 1.1% | 64.4hPa | 2.7V | 00:00:00 | 00:00:00 | 00:00:00 | |
| DL1XH-west | 2026-09-01 17:46:00 | 52.18594 | 14.97555 | 159° | 11km/h | 19368m | 6.6m/s | -53°C | 0.5% | 64.6hPa | 2.7V | 18:12:15 | 01:36:23 | 00:00:00 | |
| DF8AY | 2026-09-01 17:45:57 | 52.18603 | 14.97547 | 157° | 15km/h | 19352m | 5.1m/s | -53°C | 0.4% | 64.7hPa | 2.6V | 18:12:15 | 01:36:20 | 00:00:00 | |
| DL1XH-west | 2026-09-01 17:45:50 | 52.18626 | 14.97514 | 119° | 13km/h | 19316m | 5.1m/s | -53.4°C | 0.6% | 65.1hPa | 2.6V | 18:12:15 | 01:36:13 | 00:00:00 | |
| AA1-15 | 2026-09-01 17:45:49 | 52.18628 | 14.97509 | 120° | 15km/h | 19310m | 6.5m/s | -53.5°C | 0.5% | 65.2hPa | 2.7V | 18:12:15 | 01:36:12 | 00:00:00 | |
| DO3MHA-11 | 2026-09-01 17:45:49 | 52.18627 | 14.97509 | 120° | 24km/h | 19310m | 6.4m/s | -53.5°C | 4.0% | 65.1hPa | 2.6V | 00:00:00 | 01:36:12 | 00:00:00 | |
| DJ2DS-15 | 2026-09-01 17:45:46 | 52.18634 | 14.97493 | 125° | 24km/h | 19295m | 4.2m/s | -53.4°C | 4.0% | 65.3hPa | 2.6V | 00:00:00 | 01:36:09 | 00:00:00 | |
| DAC517 | 2026-09-01 17:45:45 | 52.18634 | 14.97493 | 126° | 16km/h | 19295m | 4.2m/s | -53.5°C | 1.2% | 65.3hPa | 2.6V | 00:00:00 | 00:00:00 | 00:00:00 | |
| DB0DAN | 2026-09-01 17:45:40 | 52.18654 | 14.97445 | 124° | 26km/h | 19262m | 5.9m/s | -53.3°C | 1.2% | 65.66hPa | 2.6V | 00:00:00 | 00:00:00 | 00:00:00 | |
| AA1-15 | 2026-09-01 17:45:39 | 52.18658 | 14.97436 | 120° | 26km/h | 19257m | 4.7m/s | -53.2°C | 0.5% | 65.7hPa | 2.6V | 18:12:15 | 01:36:02 | 00:00:00 | |
| DF8AY | 2026-09-01 17:45:38 | 52.18661 | 14.97428 | 117° | 22km/h | 19251m | 6.1m/s | -53.2°C | 0.5% | 65.8hPa | 2.7V | 18:12:15 | 01:36:01 | 00:00:00 | |
| SONDE2-12 | 2026-09-01 17:45:33 | 52.18667 | 14.97385 | 93° | 20km/h | 19226m | 6.5m/s | -53.0°C | 1.2% | 66.0hPa | 2.6V | 00:00:00 | 00:00:00 | 00:00:00 | |
| DL1XH-west | 2026-09-01 17:45:29 | 52.18669 | 14.97346 | 99° | 27km/h | 19205m | 4.3m/s | 0°C | 0% | 0hPa | 2.6V | 18:12:15 | 01:35:52 | 00:00:00 | |
| DF8AY | 2026-09-01 17:45:28 | 52.18671 | 14.97336 | 102° | 26km/h | 19200m | 6.3m/s | -52.8°C | 0.4% | 66.3hPa | 2.6V | 18:12:15 | 01:35:51 | 00:00:00 | |
| DO3MHA-11 | 2026-09-01 17:45:28 | 52.18671 | 14.97336 | 103° | 22km/h | 19200m | 6.3m/s | -52.8°C | 3.9% | 66.2hPa | 2.6V | 00:00:00 | 01:35:51 | 00:00:00 | |
| DB0DAN | 2026-09-01 17:45:25 | 52.18676 | 14.97308 | 115° | 24km/h | 19184m | 5.9m/s | -52.7°C | 1.1% | 66.45hPa | 2.6V | 00:00:00 | 00:00:00 | 00:00:00 | |
| DL1XH-west | 2026-09-01 17:45:18 | 52.18692 | 14.97252 | 103° | 22km/h | 19146m | 6m/s | 0°C | 0% | 0hPa | 2.6V | 18:12:15 | 01:35:41 | 00:00:00 | |
| AA1-15 | 2026-09-01 17:45:17 | 52.18693 | 14.97243 | 102° | 22km/h | 19141m | 4.9m/s | -52.4°C | 0.5% | 66.9hPa | 2.6V | 18:12:15 | 01:35:40 | 00:00:00 | |
| DF8AY | 2026-09-01 17:45:16 | 52.18694 | 14.97233 | 104° | 24km/h | 19135m | 6.3m/s | -52.4°C | 0.4% | 66.9hPa | 2.7V | 18:12:15 | 01:35:39 | 00:00:00 | |
| 13BRC | 2026-09-01 17:45:14 | 52.18696 | 14.97223 | 107° | 27km/h | 19130m | 4.9m/s | -52.4°C | 1.1% | 67.0hPa | 2.7V | 00:00:00 | 00:00:00 | 00:00:00 | |
| KRY50SP-1 | 2026-09-01 17:45:12 | 52.18699 | 14.97202 | 101° | 26km/h | 19119m | 5.2m/s | -52.3°C | 1.1% | 67.1hPa | 2.7V | 00:00:00 | 00:00:00 | 00:00:00 | |
| DB0DAN | 2026-09-01 17:45:10 | 52.18704 | 14.97172 | 109° | 24km/h | 19104m | 4.9m/s | -52.2°C | 1.1% | 67.27hPa | 2.7V | 00:00:00 | 00:00:00 | 00:00:00 | |
| DL1XH-west | 2026-09-01 17:45:08 | 52.18708 | 14.97155 | 108° | 20km/h | 19093m | 3.8m/s | 0°C | 0% | 0hPa | 2.6V | 18:12:15 | 01:35:31 | 00:00:00 | |
| DF8AY | 2026-09-01 17:45:06 | 52.18711 | 14.97139 | 114° | 22km/h | 19083m | 4.9m/s | -52.1°C | 0.3% | 67.5hPa | 2.6V | 18:12:15 | 01:35:29 | 00:00:00 | |
| SONDE2-12 | 2026-09-01 17:45:02 | 52.18719 | 14.97104 | 109° | 26km/h | 19060m | 5.4m/s | -51.9°C | 1.1% | 67.7hPa | 2.6V | 00:00:00 | 00:00:00 | 00:00:00 | |
| DF8AY | 2026-09-01 17:44:56 | 52.18730 | 14.97037 | 102° | 27km/h | 19027m | 6.5m/s | -51.9°C | 0.4% | 68.1hPa | 2.6V | 18:12:15 | 01:35:19 | 00:00:00 | |
| DB0DAN | 2026-09-01 17:44:55 | 52.18731 | 14.97027 | 102° | 22km/h | 19021m | 4.6m/s | -51.8°C | 1% | 68.14hPa | 2.6V | 00:00:00 | 00:00:00 | 00:00:00 | |
| AA1-15 | 2026-09-01 17:44:55 | 52.18731 | 14.97027 | 102° | 24km/h | 19021m | 4.6m/s | -51.8°C | 0.3% | 68.1hPa | 2.6V | 18:12:15 | 01:35:18 | 00:00:00 | |
| DL1XH-west | 2026-09-01 17:44:54 | 52.18732 | 14.97018 | 106° | 22km/h | 19016m | 5.7m/s | 0°C | 0% | 0hPa | 2.7V | 18:12:15 | 01:35:17 | 00:00:00 | |
| DF8AY | 2026-09-01 17:44:45 | 52.18753 | 14.96932 | 110° | 29km/h | 18967m | 6.4m/s | -51.6°C | 0.4% | 68.7hPa | 2.7V | 18:12:15 | 01:35:08 | 00:00:00 | |
| AA1-15 | 2026-09-01 17:44:44 | 52.18756 | 14.96920 | 111° | 31km/h | 18961m | 4.7m/s | -51.5°C | 0.4% | 68.8hPa | 2.7V | 18:12:15 | 01:35:07 | 00:00:00 | |
| D01LWL | 2026-09-01 17:44:44 | 52.18758 | 14.96909 | 109° | 29km/h | 18957m | 4.9m/s | -51.5°C | 1.0% | 68.8hPa | 2.6V | 00:00:00 | 00:00:00 | 00:00:00 | |
| DB0DAN | 2026-09-01 17:44:40 | 52.18765 | 14.96879 | 113° | 22km/h | 18941m | 6.2m/s | -51.4°C | 1% | 68.97hPa | 2.6V | 00:00:00 | 00:00:00 | 00:00:00 | |
| DF8AY | 2026-09-01 17:44:34 | 52.18778 | 14.96832 | 115° | 24km/h | 18908m | 4.6m/s | -51.2°C | 0.3% | 69.3hPa | 2.7V | 18:12:15 | 01:34:57 | 00:00:00 | |
| AA1-15 | 2026-09-01 17:44:33 | 52.18781 | 14.96823 | 119° | 24km/h | 18903m | 5.6m/s | -51.1°C | 0.3% | 69.4hPa | 2.7V | 18:12:15 | 01:34:56 | 00:00:00 | |
| 13BRC | 2026-09-01 17:44:32 | 52.18780 | 14.96823 | 120° | 24km/h | 18903m | 5.6m/s | -51.1°C | 1.0% | 69.4hPa | 2.6V | 00:00:00 | 00:00:00 | 00:00:00 | |
| SONDE2-11 | 2026-09-01 17:44:31 | 52.18787 | 14.96805 | 117° | 26km/h | 18892m | 6.6m/s | -51.1°C | 1.0% | 69.5hPa | 2.6V | 00:00:00 | 00:00:00 | 00:00:00 | |
| SP6BVK | 2026-09-01 17:44:30 | 52.18786 | 14.96805 | 118° | 27km/h | 18892m | 6.6m/s | -51.1°C | 1.0% | 69.5hPa | 2.6V | 00:00:00 | 00:00:00 | 00:00:00 | |
| KRY50SP-1 | 2026-09-01 17:44:28 | 52.18792 | 14.96785 | 116° | 26km/h | 18882m | 6.0m/s | -51.0°C | 1.0% | 69.6hPa | 2.6V | 00:00:00 | 00:00:00 | 00:00:00 | |
| DB0DAN | 2026-09-01 17:44:25 | 52.18801 | 14.96748 | 107° | 22km/h | 18861m | 4.5m/s | -50.9°C | 1% | 69.83hPa | 2.6V | 00:00:00 | 00:00:00 | 00:00:00 | |
| DF8AY | 2026-09-01 17:44:23 | 52.18805 | 14.96731 | 114° | 22km/h | 18850m | 3.8m/s | -50.9°C | 0.3% | 70hPa | 2.7V | 18:12:15 | 01:34:46 | 00:00:00 | |
| AA1-15 | 2026-09-01 17:44:22 | 52.18807 | 14.96723 | 112° | 24km/h | 18845m | 6.5m/s | -50.9°C | 0.3% | 70hPa | 2.7V | 18:12:15 | 01:34:45 | 00:00:00 | |
| AA1-15 | 2026-09-01 17:44:12 | 52.18828 | 14.96628 | 100° | 27km/h | 18790m | 3.9m/s | -50.5°C | 0.2% | 70.6hPa | 2.7V | 18:12:15 | 01:34:35 | 00:00:00 | |
| DF8AY | 2026-09-01 17:44:07 | 52.18843 | 14.96523 | 98° | 27km/h | 18738m | 5.5m/s | -50.4°C | 0.2% | 71.2hPa | 2.7V | 18:12:15 | 01:34:25 | 00:00:00 | |
| AA1-15 | 2026-09-01 17:44:01 | 52.18844 | 14.96512 | 98° | 26km/h | 18733m | 5.1m/s | -50.4°C | 0.2% | 71.2hPa | 2.7V | 18:12:15 | 01:34:24 | 00:00:00 | |
| SONDE2-12 | 2026-09-01 17:44:00 | 52.18845 | 14.96501 | 98° | 26km/h | 18728m | 5.4m/s | -50.4°C | 1.0% | 71.3hPa | 2.7V | 00:00:00 | 00:00:00 | 00:00:00 | |
| DF8AY | 2026-09-01 17:43:51 | 52.18851 | 14.96406 | 94° | 24km/h | 18681m | 4.5m/s | -50.4°C | 0.2% | 71.8hPa | 2.7V | 18:12:15 | 01:34:14 | 00:00:00 | |
| AA1-15 | 2026-09-01 17:43:50 | 52.18851 | 14.96396 | 93° | 26km/h | 18676m | 5.9m/s | -50.4°C | 0.1% | 71.9hPa | 2.7V | 18:12:15 | 01:34:13 | 00:00:00 | |
| DF8AY | 2026-09-01 17:43:41 | 52.18849 | 14.96300 | 85° | 33km/h | 18629m | 6m/s | -50.3°C | 0.2% | 72.3hPa | 2.6V | 18:12:15 | 01:34:04 | 00:00:00 | |
| DB0DAN | 2026-09-01 17:43:40 | 52.18848 | 14.96287 | 84° | 33km/h | 18624m | 4.5m/s | -50.2°C | 1% | 72.47hPa | 2.7V | 00:00:00 | 00:00:00 | 00:00:00 | |
| AA1-15 | 2026-09-01 17:43:39 | 52.18847 | 14.96272 | 84° | 35km/h | 18619m | 5.8m/s | -50.2°C | 0.2% | 72.5hPa | 2.7V | 18:12:15 | 01:34:02 | 00:00:00 | |
| DF8AY | 2026-09-01 17:43:30 | 52.18838 | 14.96167 | 86° | 24km/h | 18572m | 5.2m/s | -50.6°C | 0.2% | 73hPa | 2.7V | 18:12:15 | 01:33:53 | 00:00:00 | |
| SONDE2-12 | 2026-09-01 17:43:29 | 52.18838 | 14.96156 | 88° | 26km/h | 18568m | 4.0m/s | -50.6°C | 1.1% | 73.0hPa | 2.6V | 00:00:00 | 00:00:00 | 00:00:00 | |
| AA1-15 | 2026-09-01 17:43:28 | 52.18838 | 14.96145 | 86° | 27km/h | 18563m | 5.5m/s | -50.6°C | 0.2% | 73.1hPa | 2.6V | 18:12:15 | 01:33:51 | 00:00:00 | |
| DB0DAN | 2026-09-01 17:43:25 | 52.18837 | 14.96104 | 93° | 37km/h | 18548m | 5m/s | -50.7°C | 1% | 73.27hPa | 2.7V | 00:00:00 | 00:00:00 | 00:00:00 | |
| DF8AY | 2026-09-01 17:43:19 | 52.18839 | 14.96014 | 96° | 33km/h | 18519m | 3.9m/s | -51°C | 0.3% | 73.6hPa | 2.7V | 18:12:15 | 01:33:42 | 00:00:00 | |
| AA1-15 | 2026-09-01 17:43:17 | 52.18840 | 14.95986 | 90° | 35km/h | 18509m | 4.2m/s | -51°C | 0.2% | 73.7hPa | 2.6V | 18:12:15 | 01:33:40 | 00:00:00 | |
| KRY50SP-1 | 2026-09-01 17:43:16 | 52.18840 | 14.95986 | 91° | 35km/h | 18509m | 4.2m/s | -51.0°C | 1.0% | 73.7hPa | 2.6V | 00:00:00 | 00:00:00 | 00:00:00 | |
| DB0DAN | 2026-09-01 17:43:10 | 52.18845 | 14.95868 | 94° | 38km/h | 18475m | 4.4m/s | -51.2°C | 1% | 74.1hPa | 2.6V | 00:00:00 | 00:00:00 | 00:00:00 | |
| DF8AY | 2026-09-01 17:43:09 | 52.18845 | 14.95852 | 92° | 38km/h | 18469m | 6.3m/s | -51.3°C | 0.3% | 74.1hPa | 2.7V | 18:12:15 | 01:33:32 | 00:00:00 | |
| AA1-15 | 2026-09-01 17:43:06 | 52.18845 | 14.95805 | 90° | 38km/h | 18455m | 4.1m/s | -51.2°C | 0.3% | 74.3hPa | 2.6V | 18:12:15 | 01:33:29 | 00:00:00 | |
| DF8AY | 2026-09-01 17:42:58 | 52.18836 | 14.95660 | 85° | 46km/h | 18416m | 4.3m/s | -51.5°C | 0.3% | 74.8hPa | 2.7V | 18:12:15 | 01:33:21 | 00:00:00 | |
| S3001 | 2026-09-01 17:42:57 | 52.18835 | 14.95642 | 88° | 44km/h | 18411m | 5.6m/s | -51.5°C | 1.1% | 74.8hPa | 2.6V | 00:00:00 | 00:00:00 | 00:00:00 | |
| DB0DAN | 2026-09-01 17:42:55 | 52.18835 | 14.95607 | 87° | 40km/h | 18401m | 6.3m/s | -51.5°C | 1.1% | 74.95hPa | 2.6V | 00:00:00 | 00:00:00 | 00:00:00 | |
| AA1-15 | 2026-09-01 17:42:55 | 52.18835 | 14.95607 | 87° | 42km/h | 18401m | 6.3m/s | -51.5°C | 0.4% | 75hPa | 2.6V | 18:12:15 | 01:33:18 | 00:00:00 | |
| DF8AY | 2026-09-01 17:42:47 | 52.18824 | 14.95477 | 79° | 42km/h | 18360m | 5.3m/s | -51.4°C | 0.3% | 75.4hPa | 2.7V | 18:12:15 | 01:33:10 | 00:00:00 | |
| DJ2DS-15 | 2026-09-01 17:42:44 | 52.18816 | 14.95426 | 74° | 42km/h | 18345m | 4.7m/s | 0°C | 0% | 0hPa | 2.6V | 00:00:00 | 01:33:07 | 00:00:00 | |
| AA1-15 | 2026-09-01 17:42:44 | 52.18816 | 14.95426 | 73° | 44km/h | 18345m | 4.7m/s | -51.3°C | 0.3% | 75.6hPa | 2.6V | 18:12:15 | 01:33:07 | 00:00:00 | |
| KRY50SP-1 | 2026-09-01 17:42:43 | 52.18816 | 14.95426 | 74° | 44km/h | 18345m | 4.7m/s | -51.3°C | 1.1% | 75.6hPa | 2.6V | 00:00:00 | 00:00:00 | 00:00:00 | |
| DB0DAN | 2026-09-01 17:42:40 | 52.18805 | 14.95358 | 74° | 38km/h | 18324m | 5.4m/s | -51.2°C | 1.1% | 75.8hPa | 2.6V | 00:00:00 | 00:00:00 | 00:00:00 | |
| DF8AY | 2026-09-01 17:42:36 | 52.18794 | 14.95292 | 71° | 44km/h | 18303m | 5.9m/s | -51.3°C | 0.3% | 76.1hPa | 2.7V | 18:12:15 | 01:32:59 | 00:00:00 | |
| AA1-15 | 2026-09-01 17:42:33 | 52.18783 | 14.95240 | 70° | 44km/h | 18288m | 4.2m/s | -51.3°C | 0.3% | 76.2hPa | 2.7V | 18:12:15 | 01:32:56 | 00:00:00 | |
| SONDE2-12 | 2026-09-01 17:42:27 | 52.18758 | 14.95144 | 64° | 38km/h | 18257m | 5.3m/s | -51.1°C | 1.1% | 76.6hPa | 2.7V | 00:00:00 | 00:00:00 | 00:00:00 | |
| DF8AY | 2026-09-01 17:42:26 | 52.18754 | 14.95129 | 65° | 42km/h | 18251m | 6.4m/s | -51.1°C | 0.2% | 76.7hPa | 2.7V | 18:12:15 | 01:32:49 | 00:00:00 | |
| DB0DAN | 2026-09-01 17:42:25 | 52.18749 | 14.95113 | 67° | 42km/h | 18245m | 5.5m/s | -51°C | 1.1% | 76.77hPa | 2.6V | 00:00:00 | 00:00:00 | 00:00:00 | |
| AA1-15 | 2026-09-01 17:42:22 | 52.18735 | 14.95066 | 61° | 40km/h | 18229m | 4.7m/s | -50.9°C | 0.3% | 77hPa | 2.7V | 18:12:15 | 01:32:45 | 00:00:00 | |
| DF8AY | 2026-09-01 17:42:15 | 52.18702 | 14.94967 | 61° | 40km/h | 18193m | 4.2m/s | -50.9°C | 0.3% | 77.4hPa | 2.7V | 18:12:15 | 01:32:38 | 00:00:00 | |
| AA1-15 | 2026-09-01 17:42:11 | 52.18682 | 14.94912 | 60° | 40km/h | 18171m | 3.8m/s | -50.8°C | 0.3% | 77.6hPa | 2.7V | 18:12:15 | 01:32:34 | 00:00:00 | |
| DF8AY | 2026-09-01 17:42:06 | 52.18648 | 14.94835 | 51° | 38km/h | 18139m | 6.2m/s | -50.7°C | 0.3% | 78hPa | 2.6V | 18:12:15 | 01:32:28 | 00:00:00 | |
| AA1-15 | 2026-09-01 17:42:00 | 52.18618 | 14.94773 | 53° | 37km/h | 18112m | 4.2m/s | -50.7°C | 0.3% | 78.4hPa | 2.7V | 18:12:15 | 01:32:23 | 00:00:00 | |
| SONDE2-12 | 2026-09-01 17:41:56 | 52.18598 | 14.94724 | 53° | 33km/h | 18092m | 5.6m/s | -50.6°C | 1.1% | 78.6hPa | 2.6V | 00:00:00 | 00:00:00 | 00:00:00 | |
| DF8AY | 2026-09-01 17:41:54 | 52.18588 | 14.94703 | 53° | 31km/h | 18082m | 6.3m/s | -50.5°C | 0.3% | 78.7hPa | 2.6V | 18:12:15 | 01:32:17 | 00:00:00 | |
| AA1-15 | 2026-09-01 17:41:50 | 52.18568 | 14.94667 | 42° | 29km/h | 18060m | 5.6m/s | -50.4°C | 0.3% | 79hPa | 2.7V | 18:12:15 | 01:32:13 | 00:00:00 | |
| EDDB2-11 | 2026-09-01 17:41:48 | 52.18552 | 14.94642 | 42° | 27km/h | 18044m | 6.2m/s | -50.3°C | 1.0% | 79.2hPa | 2.7V | 00:00:00 | 00:00:00 | 00:00:00 | |
| DF8AY | 2026-09-01 17:41:44 | 52.18537 | 14.94617 | 54° | 31km/h | 18028m | 4.3m/s | -50.1°C | 0.3% | 79.4hPa | 2.7V | 18:12:15 | 01:32:07 | 00:00:00 | |
| DJ2DS-15 | 2026-09-01 17:41:44 | 52.18537 | 14.94617 | 55° | 24km/h | 18028m | 4.2m/s | 0°C | 0% | 0hPa | 2.7V | 00:00:00 | 01:32:07 | 00:00:00 | |
| DB0DAN | 2026-09-01 17:41:40 | 52.18518 | 14.94576 | 54° | 31km/h | 18007m | 6.5m/s | -50°C | 1% | 79.61hPa | 2.7V | 00:00:00 | 00:00:00 | 00:00:00 | |
| AA1-15 | 2026-09-01 17:41:39 | 52.18513 | 14.94564 | 56° | 35km/h | 18001m | 4.7m/s | -50°C | 0.2% | 79.7hPa | 2.6V | 18:12:15 | 01:32:02 | 00:00:00 | |
| DF8AY | 2026-09-01 17:41:33 | 52.18487 | 14.94509 | 55° | 24km/h | 17969m | 6.4m/s | -49.8°C | 0.2% | 80.1hPa | 2.6V | 18:12:15 | 01:31:56 | 00:00:00 | |
| AA1-15 | 2026-09-01 17:41:28 | 52.18467 | 14.94467 | 52° | 27km/h | 17939m | 4.7m/s | -49.6°C | 0.2% | 80.5hPa | 2.6V | 18:12:15 | 01:31:51 | 00:00:00 | |
| 13BRC | 2026-09-01 17:41:27 | 52.18467 | 14.94467 | 53° | 27km/h | 17939m | 4.7m/s | -49.6°C | 1.0% | 80.5hPa | 2.7V | 00:00:00 | 00:00:00 | 00:00:00 | |
| DB0DAN | 2026-09-01 17:41:25 | 52.18456 | 14.94438 | 62° | 26km/h | 17923m | 4.7m/s | -49.5°C | 1% | 80.63hPa | 2.7V | 00:00:00 | 00:00:00 | 00:00:00 | |
| DF8AY | 2026-09-01 17:41:23 | 52.18450 | 14.94419 | 63° | 24km/h | 17913m | 4.5m/s | -49.4°C | 0.2% | 80.8hPa | 2.7V | 18:12:15 | 01:31:46 | 00:00:00 | |
| AA1-15 | 2026-09-01 17:41:17 | 52.18438 | 14.94379 | 59° | 15km/h | 17882m | 3.4m/s | -49.3°C | 0.2% | 81.2hPa | 2.6V | 18:12:15 | 01:31:40 | 00:00:00 | |
| DF8AY | 2026-09-01 17:41:13 | 52.18426 | 14.94357 | 53° | 22km/h | 17862m | 6.2m/s | -49.1°C | 0.1% | 81.4hPa | 2.6V | 18:12:15 | 01:31:36 | 00:00:00 | |
| KRY50SP-1 | 2026-09-01 17:41:12 | 52.18426 | 14.94357 | 54° | 22km/h | 17862m | 6.2m/s | -49.1°C | 1.0% | 81.4hPa | 2.7V | 00:00:00 | 00:00:00 | 00:00:00 | |
| DB0DAN | 2026-09-01 17:41:10 | 52.18417 | 14.94331 | 60° | 24km/h | 17846m | 4.9m/s | -49.1°C | 1% | 81.6hPa | 2.7V | 00:00:00 | 00:00:00 | 00:00:00 | |
| DL1XH-west | 2026-09-01 17:41:10 | 52.18417 | 14.94331 | 60° | 26km/h | 17846m | 4.9m/s | -49.1°C | 0.2% | 81.6hPa | 2.7V | 18:12:15 | 01:31:33 | 00:00:00 | |
| AA1-15 | 2026-09-01 17:41:06 | 52.18408 | 14.94296 | 73° | 22km/h | 17827m | 5.5m/s | -49.1°C | 0.2% | 81.8hPa | 2.6V | 18:12:15 | 01:31:29 | 00:00:00 | |
| DF8AY | 2026-09-01 17:41:03 | 52.18403 | 14.94274 | 73° | 16km/h | 17811m | 5.1m/s | -49°C | 0.2% | 82hPa | 2.7V | 18:12:15 | 01:31:26 | 00:00:00 | |
| SP3BTT-10 | 2026-09-01 17:41:03 | 52.18403 | 14.94273 | 74° | 29km/h | 17811m | 5.0m/s | -49.0°C | 3.4% | 82.0hPa | 2.6V | 00:00:00 | 00:00:00 | 00:00:00 | |
| DJ2DS-15 | 2026-09-01 17:41:02 | 52.18402 | 14.94267 | 65° | 16km/h | 17805m | 7.0m/s | -49.0°C | -1.0% | 82.1hPa | 2.6V | 00:00:00 | 00:00:00 | 00:00:00 | |
| SONCRA | 2026-09-01 17:41:01 | 52.18397 | 14.94256 | 52° | 15km/h | 17794m | 6.4m/s | -48.9°C | 1.0% | 82.3hPa | 2.6V | 00:00:00 | 00:00:00 | 00:00:00 | |
| SP3WXH-11 | 2026-09-01 17:40:57 | 52.18390 | 14.94241 | 52° | 18km/h | 17777m | 5.8m/s | -48.8°C | 1.0% | 82.5hPa | 2.6V | 00:00:00 | 00:00:00 | 00:00:00 | |
| DB0DAN | 2026-09-01 17:40:55 | 52.18385 | 14.94226 | 73° | 18km/h | 17765m | 7.4m/s | -48.7°C | 1% | 82.64hPa | 2.6V | 00:00:00 | 00:00:00 | 00:00:00 | |
| AA1-15 | 2026-09-01 17:40:55 | 52.18385 | 14.94226 | 73° | 20km/h | 17765m | 7.4m/s | -48.7°C | 0.2% | 82.6hPa | 2.6V | 18:12:15 | 01:31:18 | 00:00:00 | |
| SONDE2-12 | 2026-09-01 17:40:54 | 52.18384 | 14.94218 | 84° | 22km/h | 17759m | 4.7m/s | -48.7°C | 1.0% | 82.7hPa | 2.7V | 00:00:00 | 00:00:00 | 00:00:00 | |
| DL1XH-west | 2026-09-01 17:40:53 | 52.18384 | 14.94209 | 87° | 24km/h | 17753m | 6.6m/s | -48.7°C | 0.1% | 82.8hPa | 2.7V | 18:12:15 | 01:31:16 | 00:00:00 | |
| DF8AY | 2026-09-01 17:40:52 | 52.18384 | 14.94199 | 91° | 24km/h | 17748m | 4.5m/s | -48.6°C | 0.1% | 82.8hPa | 2.7V | 18:12:15 | 01:31:15 | 00:00:00 | |
| EDDB2-12 | 2026-09-01 17:40:50 | 52.18385 | 14.94172 | 89° | 20km/h | 17731m | 6.7m/s | -48.6°C | 1.0% | 83.0hPa | 2.7V | 00:00:00 | 00:00:00 | 00:00:00 | |
| DM0DOS-11 | 2026-09-01 17:40:49 | 52.18384 | 14.94163 | 79° | 20km/h | 17724m | 5.9m/s | -48.7°C | 3.2% | 83.1hPa | 2.7V | 08:30:00 | 01:31:11 | 00:00:00 | |
| DF8AY | 2026-09-01 17:40:46 | 52.18376 | 14.94106 | 78° | 27km/h | 17686m | 5.8m/s | -48.4°C | 0.1% | 83.6hPa | 2.6V | 18:12:15 | 01:31:04 | 00:00:00 | |
| AA1-15 | 2026-09-01 17:40:45 | 52.18381 | 14.94140 | 81° | 16km/h | 17707m | 4.8m/s | -48.6°C | 0.1% | 83.4hPa | 2.6V | 18:12:15 | 01:31:08 | 00:00:00 | |
| DL1XH-west | 2026-09-01 17:40:43 | 52.18379 | 14.94125 | 74° | 22km/h | 17697m | 6.7m/s | -48.5°C | 0.1% | 83.5hPa | 2.7V | 18:12:15 | 01:31:06 | 00:00:00 | |
| DB0DAN | 2026-09-01 17:40:40 | 52.18375 | 14.94094 | 81° | 27km/h | 17681m | 5.4m/s | -48.4°C | 1% | 83.71hPa | 2.6V | 00:00:00 | 00:00:00 | 00:00:00 | |
| AA1-15 | 2026-09-01 17:40:34 | 52.18368 | 14.94021 | 85° | 31km/h | 17646m | 6.2m/s | -48.3°C | 0.1% | 84.1hPa | 2.6V | 18:12:15 | 01:30:57 | 00:00:00 | |
| DL1XH-west | 2026-09-01 17:40:31 | 52.18367 | 14.93985 | 88° | 29km/h | 17630m | 3.7m/s | -48.3°C | 0.1% | 84.3hPa | 2.7V | 18:12:15 | 01:30:54 | 00:00:00 | |
| DF8AY | 2026-09-01 17:40:30 | 52.18366 | 14.93973 | 85° | 29km/h | 17625m | 6.5m/s | -48.3°C | 0.1% | 84.4hPa | 2.6V | 18:12:15 | 01:30:53 | 00:00:00 | |
| SONCRA | 2026-09-01 17:40:29 | 52.18365 | 14.93960 | 80° | 33km/h | 17619m | 5.3m/s | -48.3°C | 1.0% | 84.5hPa | 2.6V | 00:00:00 | 00:00:00 | 00:00:00 | |
| KRY50SP-1 | 2026-09-01 17:40:27 | 52.18364 | 14.93946 | 79° | 35km/h | 17614m | 4.7m/s | -48.3°C | 1.0% | 84.6hPa | 2.6V | 00:00:00 | 00:00:00 | 00:00:00 | |
| DB0DAN | 2026-09-01 17:40:25 | 52.18357 | 14.93905 | 73° | 35km/h | 17599m | 6.1m/s | -48.3°C | 0.9% | 84.72hPa | 2.6V | 00:00:00 | 00:00:00 | 00:00:00 | |
| AA1-15 | 2026-09-01 17:40:23 | 52.18352 | 14.93876 | 73° | 37km/h | 17588m | 4.5m/s | -48.3°C | 0% | 84.8hPa | 2.7V | 18:12:15 | 01:30:46 | 00:00:00 | |
| DL1XH-west | 2026-09-01 17:40:21 | 52.18348 | 14.93847 | 85° | 35km/h | 17579m | 4.4m/s | -48.3°C | 0% | 85hPa | 2.6V | 18:12:15 | 01:30:44 | 00:00:00 | |
| DF8AY | 2026-09-01 17:40:19 | 52.18347 | 14.93818 | 86° | 38km/h | 17569m | 5.4m/s | -48.3°C | 0% | 85.1hPa | 2.6V | 18:12:15 | 01:30:42 | 00:00:00 | |
| EDDB2-12 | 2026-09-01 17:40:19 | 52.18346 | 14.93802 | 84° | 37km/h | 17564m | 5.0m/s | -48.3°C | 0.9% | 85.2hPa | 2.6V | 00:00:00 | 00:00:00 | 00:00:00 | |
| DL1XH1-15 | 2026-09-01 17:40:18 | 52.18339 | 14.93744 | 75° | 38km/h | 17543m | 4.3m/s | 0°C | 0% | 0hPa | 2.6V | 08:30:00 | 01:30:37 | 00:00:00 | |
| AA1-15 | 2026-09-01 17:40:13 | 52.18337 | 14.93729 | 75° | 37km/h | 17538m | 6.5m/s | -48.5°C | 0% | 85.5hPa | 2.6V | 18:12:15 | 01:30:36 | 00:00:00 | |
| DL1XH-west | 2026-09-01 17:40:11 | 52.18330 | 14.93682 | 81° | 38km/h | 17522m | 4.3m/s | -48.4°C | 0% | 85.7hPa | 2.6V | 18:12:15 | 01:30:33 | 00:00:00 | |
| DB0DAN | 2026-09-01 17:40:10 | 52.18330 | 14.93682 | 80° | 37km/h | 17522m | 4.3m/s | -48.4°C | 1% | 85.73hPa | 2.6V | 00:00:00 | 00:00:00 | 00:00:00 | |
| DF8AY | 2026-09-01 17:40:09 | 52.18329 | 14.93667 | 82° | 37km/h | 17517m | 6m/s | -48.5°C | 0% | 85.8hPa | 2.6V | 18:12:15 | 01:30:32 | 00:00:00 | |
| AA1-15 | 2026-09-01 17:40:02 | 52.18323 | 14.93566 | 81° | 35km/h | 17481m | 5.2m/s | -48.7°C | 0% | 86.2hPa | 2.6V | 18:12:15 | 01:30:25 | 00:00:00 | |
| DL1XH-west | 2026-09-01 17:40:00 | 52.18320 | 14.93538 | 85° | 33km/h | 17471m | 5.4m/s | -48.9°C | 0.1% | 86.4hPa | 2.7V | 18:12:15 | 01:30:23 | 00:00:00 | |
| DF8AY | 2026-09-01 17:39:58 | 52.18319 | 14.93509 | 86° | 37km/h | 17461m | 5.7m/s | -48.8°C | 0% | 86.5hPa | 2.6V | 18:12:15 | 01:30:21 | 00:00:00 | |
| SP3WXH-11 | 2026-09-01 17:39:55 | 52.18318 | 14.93465 | 86° | 35km/h | 17445m | 3.8m/s | -48.9°C | 1.0% | 86.8hPa | 2.6V | 00:00:00 | 00:00:00 | 00:00:00 | |
| DL1XH1-15 | 2026-09-01 17:39:52 | 52.18309 | 14.93377 | 77° | 37km/h | 17414m | 4.2m/s | 0°C | 0% | 0hPa | 2.6V | 08:30:00 | 01:30:12 | 00:00:00 | |
| SONDE2-12 | 2026-09-01 17:39:52 | 52.18314 | 14.93420 | 80° | 35km/h | 17430m | 6.3m/s | -48.9°C | 1.0% | 87.0hPa | 2.7V | 00:00:00 | 00:00:00 | 00:00:00 | |
| AA1-15 | 2026-09-01 17:39:51 | 52.18313 | 14.93406 | 78° | 35km/h | 17424m | 4.3m/s | -48.9°C | 0.1% | 87hPa | 2.7V | 18:12:15 | 01:30:14 | 00:00:00 | |
| DL1XH-west | 2026-09-01 17:39:50 | 52.18311 | 14.93392 | 78° | 37km/h | 17419m | 6.1m/s | -48.9°C | 0.1% | 87.1hPa | 2.7V | 18:12:15 | 01:30:13 | 00:00:00 | |
| DF8AY | 2026-09-01 17:39:48 | 52.18307 | 14.93363 | 81° | 35km/h | 17410m | 4.8m/s | -48.9°C | 0.1% | 87.2hPa | 2.6V | 18:12:15 | 01:30:11 | 00:00:00 | |
| EDDB2-12 | 2026-09-01 17:39:48 | 52.18306 | 14.93349 | 84° | 33km/h | 17404m | 5.4m/s | -48.9°C | 1.0% | 87.3hPa | 2.7V | 00:00:00 | 00:00:00 | 00:00:00 | |
| KRY50SP-1 | 2026-09-01 17:39:47 | 52.18307 | 14.93362 | 82° | 35km/h | 17410m | 4.8m/s | -48.9°C | 1.0% | 87.2hPa | 2.7V | 00:00:00 | 00:00:00 | 00:00:00 | |
| 13BRC | 2026-09-01 17:39:44 | 52.18305 | 14.93322 | 90° | 33km/h | 17395m | 5.4m/s | -48.9°C | 1.0% | 87.4hPa | 2.7V | 00:00:00 | 00:00:00 | 00:00:00 | |
| DL2RXE-15 | 2026-09-01 17:39:43 | 52.18305 | 14.93308 | 89° | 33km/h | 17390m | 4.8m/s | -49.0°C | 1.0% | 87.5hPa | 2.7V | 00:00:00 | 00:00:00 | 00:00:00 | |
| SP6BVK | 2026-09-01 17:39:42 | 52.18304 | 14.93295 | 89° | 31km/h | 17385m | 5.4m/s | -49.0°C | 1.0% | 87.5hPa | 2.7V | 00:00:00 | 00:00:00 | 00:00:00 | |
| DB0DAN | 2026-09-01 17:39:40 | 52.18304 | 14.93257 | 87° | 31km/h | 17369m | 5.4m/s | -49.1°C | 1% | 87.75hPa | 2.7V | 00:00:00 | 00:00:00 | 00:00:00 | |
| AA1-15 | 2026-09-01 17:39:40 | 52.18304 | 14.93257 | 87° | 33km/h | 17369m | 5.4m/s | -49.1°C | 0.1% | 87.8hPa | 2.7V | 18:12:15 | 01:30:03 | 00:00:00 | |
| DL1XH-west | 2026-09-01 17:39:39 | 52.18304 | 14.93244 | 89° | 33km/h | 17364m | 4.6m/s | -49.1°C | 0.1% | 87.8hPa | 2.7V | 18:12:15 | 01:30:02 | 00:00:00 | |
| DF8AY | 2026-09-01 17:39:38 | 52.18304 | 14.93216 | 94° | 37km/h | 17354m | 3.7m/s | -49.1°C | 0% | 88hPa | 2.6V | 18:12:15 | 01:30:00 | 00:00:00 | |
| AA1-15 | 2026-09-01 17:39:29 | 52.18307 | 14.93077 | 85° | 46km/h | 17310m | 6.9m/s | -49°C | 0% | 88.5hPa | 2.6V | 18:12:15 | 01:29:52 | 00:00:00 | |
| DL1XH-west | 2026-09-01 17:39:28 | 52.18305 | 14.93058 | 83° | 46km/h | 17304m | 4.1m/s | -49°C | 0% | 88.6hPa | 2.6V | 18:12:15 | 01:29:51 | 00:00:00 | |
| DF8AY | 2026-09-01 17:39:27 | 52.18304 | 14.93039 | 82° | 49km/h | 17299m | 6.3m/s | -49.1°C | 0% | 88.7hPa | 2.6V | 18:12:15 | 01:29:50 | 00:00:00 | |
| DB0DAN | 2026-09-01 17:39:25 | 52.18300 | 14.92999 | 82° | 46km/h | 17289m | 6.3m/s | -49.1°C | 0.9% | 88.82hPa | 2.7V | 00:00:00 | 00:00:00 | 00:00:00 | |
| SONDE2-12 | 2026-09-01 17:39:21 | 52.18296 | 14.92924 | 84° | 47km/h | 17267m | 5.3m/s | -49.4°C | 1.0% | 89.1hPa | 2.6V | 00:00:00 | 00:00:00 | 00:00:00 | |
| DL1XH-west | 2026-09-01 17:39:18 | 52.18291 | 14.92863 | 81° | 53km/h | 17252m | 6.2m/s | -50.6°C | 0.2% | 89.3hPa | 2.6V | 18:12:15 | 01:29:41 | 00:00:00 | |
| DF8AY | 2026-09-01 17:39:16 | 52.18287 | 14.92819 | 82° | 57km/h | 17242m | 5.4m/s | -50.8°C | 0.4% | 89.5hPa | 2.6V | 18:12:15 | 01:29:39 | 00:00:00 | |
| KRY50SP-1 | 2026-09-01 17:39:14 | 52.18282 | 14.92772 | 81° | 60km/h | 17233m | 5.6m/s | -50.8°C | 1.1% | 89.6hPa | 2.6V | 00:00:00 | 00:00:00 | 00:00:00 | |
| DB0DAN | 2026-09-01 17:39:10 | 52.18269 | 14.92677 | 75° | 51km/h | 17212m | 5.2m/s | -50.7°C | 1.1% | 89.89hPa | 2.6V | 00:00:00 | 00:00:00 | 00:00:00 | |
| AA1-15 | 2026-09-01 17:39:07 | 52.18258 | 14.92614 | 75° | 51km/h | 17197m | 6.7m/s | -50.7°C | 0.3% | 90.1hPa | 2.6V | 18:12:15 | 01:29:30 | 00:00:00 | |
| DL1XH-west | 2026-09-01 17:39:06 | 52.18255 | 14.92594 | 76° | 49km/h | 17191m | 3.9m/s | -50.7°C | 0.3% | 90.2hPa | 2.6V | 18:12:15 | 01:29:29 | 00:00:00 | |
| AA1-15 | 2026-09-01 17:38:57 | 52.18227 | 14.92413 | 76° | 44km/h | 17145m | 4.4m/s | -50.4°C | 0.3% | 90.8hPa | 2.6V | 18:12:15 | 01:29:20 | 00:00:00 | |
| DL1XH-west | 2026-09-01 17:38:56 | 52.18224 | 14.92396 | 75° | 44km/h | 17140m | 5.5m/s | -50.4°C | 0.2% | 90.9hPa | 2.6V | 18:12:15 | 01:29:19 | 00:00:00 | |
| DB0DAN | 2026-09-01 17:38:55 | 52.18222 | 14.92378 | 75° | 42km/h | 17135m | 4.8m/s | -50.4°C | 1.1% | 90.93hPa | 2.6V | 00:00:00 | 00:00:00 | 00:00:00 | |
| SONDE2-12 | 2026-09-01 17:38:50 | 52.18209 | 14.92290 | 79° | 46km/h | 17111m | 4.1m/s | -50.4°C | 1.1% | 91.3hPa | 2.6V | 00:00:00 | 00:00:00 | 00:00:00 | |
| AA1-15 | 2026-09-01 17:38:46 | 52.18203 | 14.92216 | 84° | 46km/h | 17091m | 4.6m/s | -50.7°C | 0.3% | 91.5hPa | 2.6V | 18:12:15 | 01:29:09 | 00:00:00 | |
| DL1XH-west | 2026-09-01 17:38:45 | 52.18202 | 14.92198 | 87° | 44km/h | 17086m | 5.2m/s | -50.7°C | 0.3% | 91.6hPa | 2.6V | 18:12:15 | 01:29:08 | 00:00:00 | |
| DB0DAN | 2026-09-01 17:38:40 | 52.18198 | 14.92106 | 87° | 42km/h | 17062m | 4.9m/s | -50.5°C | 1.1% | 91.96hPa | 2.6V | 00:00:00 | 00:00:00 | 00:00:00 | |
| AA1-15 | 2026-09-01 17:38:36 | 52.18194 | 14.92033 | 87° | 44km/h | 17043m | 5.9m/s | -50.4°C | 0.3% | 92.2hPa | 2.6V | 18:12:15 | 01:28:59 | 00:00:00 | |
| DL1XH-west | 2026-09-01 17:38:35 | 52.18194 | 14.92015 | 87° | 42km/h | 17038m | 4m/s | -50.3°C | 0.3% | 92.3hPa | 2.6V | 18:12:15 | 01:28:58 | 00:00:00 | |
| DF8AY | 2026-09-01 17:38:34 | 52.18193 | 14.91998 | 85° | 42km/h | 17033m | 5.8m/s | -50.3°C | 0.3% | 92.4hPa | 2.7V | 18:12:15 | 01:28:57 | 00:00:00 | |
| DO3MHA-11 | 2026-09-01 17:38:32 | 52.18191 | 14.91965 | 87° | 44km/h | 17024m | 6.0m/s | 0°C | 0% | 0hPa | 2.7V | 00:00:00 | 01:28:55 | 00:00:00 | |
| D01LWL | 2026-09-01 17:38:31 | 52.18191 | 14.91949 | 88° | 38km/h | 17019m | 4.0m/s | -50.2°C | 1.1% | 92.6hPa | 2.7V | 00:00:00 | 00:00:00 | 00:00:00 | |
| DL1XH1-15 | 2026-09-01 17:38:27 | 52.18190 | 14.91804 | 92° | 49km/h | 16979m | 5.7m/s | 0°C | 0% | 0hPa | 2.7V | 08:30:00 | 01:28:46 | 00:00:00 | |
| DAC517 | 2026-09-01 17:38:27 | 52.18190 | 14.91899 | 91° | 42km/h | 17004m | 6.2m/s | -50.1°C | 1.1% | 92.8hPa | 2.6V | 00:00:00 | 00:00:00 | 00:00:00 | |
| DB0DAN | 2026-09-01 17:38:25 | 52.18190 | 14.91843 | 89° | 46km/h | 16989m | 3.9m/s | -50.1°C | 1% | 93hPa | 2.6V | 00:00:00 | 00:00:00 | 00:00:00 | |
| AA1-15 | 2026-09-01 17:38:25 | 52.18190 | 14.91843 | 89° | 47km/h | 16989m | 3.9m/s | -50.1°C | 0.2% | 93hPa | 2.6V | 18:12:15 | 01:28:48 | 00:00:00 | |
| DL1XH-west | 2026-09-01 17:38:24 | 52.18190 | 14.91824 | 90° | 49km/h | 16985m | 4.5m/s | -50°C | 0.2% | 93.1hPa | 2.6V | 18:12:15 | 01:28:47 | 00:00:00 | |
| DO3MHA-11 | 2026-09-01 17:38:22 | 52.18190 | 14.91783 | 92° | 47km/h | 16976m | 3.1m/s | 0°C | 0% | 0hPa | 2.7V | 00:00:00 | 01:28:45 | 00:00:00 | |
| SP6BVK | 2026-09-01 17:38:21 | 52.18190 | 14.91764 | 91° | 47km/h | 16972m | 5.1m/s | -50.0°C | 1.0% | 93.3hPa | 2.7V | 00:00:00 | 00:00:00 | 00:00:00 | |
| KRY50SP-1 | 2026-09-01 17:38:20 | 52.18190 | 14.91764 | 91° | 47km/h | 16972m | 5.1m/s | -50.0°C | 1.0% | 93.3hPa | 2.7V | 00:00:00 | 00:00:00 | 00:00:00 | |
| SONDE2-11 | 2026-09-01 17:38:19 | 52.18189 | 14.91705 | 91° | 47km/h | 16957m | 4.3m/s | -50.0°C | 1.1% | 93.5hPa | 2.7V | 00:00:00 | 00:00:00 | 00:00:00 | |
| S3001 | 2026-09-01 17:38:18 | 52.18189 | 14.91705 | 91° | 47km/h | 16957m | 4.3m/s | -50.0°C | 1.1% | 93.5hPa | 2.7V | 00:00:00 | 00:00:00 | 00:00:00 | |
| DL1XH1-15 | 2026-09-01 17:38:15 | 52.18192 | 14.91610 | 95° | 46km/h | 16933m | 6.1m/s | 0°C | 0% | 0hPa | 2.7V | 08:30:00 | 01:28:36 | 00:00:00 | |
| DL1XH-west | 2026-09-01 17:38:14 | 52.18191 | 14.91629 | 96° | 46km/h | 16938m | 3.8m/s | -50.3°C | 0.2% | 93.8hPa | 2.6V | 18:12:15 | 01:28:37 | 00:00:00 | |
| DF8AY | 2026-09-01 17:38:13 | 52.18192 | 14.91610 | 95° | 46km/h | 16933m | 6.1m/s | -50.3°C | 0.3% | 93.8hPa | 2.7V | 18:12:15 | 01:28:36 | 00:00:00 | |
| DL1XH-west | 2026-09-01 17:38:03 | 52.18199 | 14.91390 | 92° | 53km/h | 16884m | 5.2m/s | -50.8°C | 0.3% | 94.5hPa | 2.6V | 18:12:15 | 01:28:26 | 00:00:00 | |
| DL2RXE-15 | 2026-09-01 17:38:03 | 52.18199 | 14.91390 | 93° | 53km/h | 16884m | 5.2m/s | -50.8°C | 1.1% | 94.5hPa | 2.7V | 00:00:00 | 00:00:00 | 00:00:00 | |
| D01LWL | 2026-09-01 17:38:00 | 52.18201 | 14.91326 | 93° | 49km/h | 16869m | 3.5m/s | -51.2°C | 1.1% | 94.8hPa | 2.7V | 00:00:00 | 00:00:00 | 00:00:00 | |
| SP6BVK | 2026-09-01 17:37:59 | 52.18201 | 14.91327 | 95° | 49km/h | 16869m | 3.5m/s | -51.2°C | 1.1% | 94.8hPa | 2.7V | 00:00:00 | 00:00:00 | 00:00:00 | |
| KRY50SP-1 | 2026-09-01 17:37:58 | 52.18202 | 14.91306 | 95° | 51km/h | 16865m | 4.9m/s | -51.3°C | 1.1% | 94.8hPa | 2.7V | 00:00:00 | 00:00:00 | 00:00:00 | |
| DB0DAN | 2026-09-01 17:37:55 | 52.18203 | 14.91218 | 85° | 53km/h | 16848m | 3m/s | -51.3°C | 1.1% | 95.05hPa | 2.7V | 00:00:00 | 00:00:00 | 00:00:00 | |
| DL1XH-west | 2026-09-01 17:37:52 | 52.18199 | 14.91151 | 81° | 53km/h | 16832m | 5.6m/s | -51.3°C | 0.4% | 95.2hPa | 2.6V | 18:12:15 | 01:28:15 | 00:00:00 | |
| SP3WXH-11 | 2026-09-01 17:37:51 | 52.18196 | 14.91129 | 78° | 51km/h | 16827m | 3.8m/s | -51.3°C | 1.1% | 95.3hPa | 2.6V | 00:00:00 | 00:00:00 | 00:00:00 | |
| DL1XH1-15 | 2026-09-01 17:37:49 | 52.18188 | 14.91063 | 77° | 55km/h | 16812m | 6m/s | 0°C | 0% | 0hPa | 2.6V | 08:30:00 | 01:28:11 | 00:00:00 | |
| SONDE2-11 | 2026-09-01 17:37:48 | 52.18185 | 14.91041 | 75° | 55km/h | 16807m | 4.4m/s | -51.3°C | 1.2% | 95.6hPa | 2.7V | 00:00:00 | 00:00:00 | 00:00:00 | |
| S3001 | 2026-09-01 17:37:47 | 52.18185 | 14.91041 | 75° | 55km/h | 16807m | 4.4m/s | -51.3°C | 1.2% | 95.6hPa | 2.7V | 00:00:00 | 00:00:00 | 00:00:00 | |
| DL1XH-west | 2026-09-01 17:37:41 | 52.18160 | 14.90905 | 71° | 58km/h | 16779m | 4.6m/s | -51.1°C | 0.3% | 96.1hPa | 2.7V | 18:12:15 | 01:28:04 | 00:00:00 | |
| DB0DAN | 2026-09-01 17:37:40 | 52.18155 | 14.90882 | 70° | 55km/h | 16774m | 5.3m/s | -51.1°C | 1.1% | 96.13hPa | 2.7V | 00:00:00 | 00:00:00 | 00:00:00 | |
| DF8AY | 2026-09-01 17:37:31 | 52.18107 | 14.90677 | 67° | 62km/h | 16731m | 5.7m/s | -51°C | 0.3% | 96.8hPa | 2.7V | 18:12:15 | 01:27:54 | 00:00:00 | |
| DL1XH-west | 2026-09-01 17:37:30 | 52.18101 | 14.90654 | 66° | 60km/h | 16727m | 4m/s | -50.9°C | 0.4% | 96.8hPa | 2.6V | 18:12:15 | 01:27:53 | 00:00:00 | |
| DF8AY | 2026-09-01 17:37:21 | 52.18056 | 14.90460 | 72° | 51km/h | 16682m | 4.1m/s | -50.9°C | 0.3% | 97.5hPa | 2.7V | 18:12:15 | 01:27:44 | 00:00:00 | |
| AA1-15 | 2026-09-01 17:37:20 | 52.18052 | 14.90439 | 72° | 53km/h | 16677m | 5.6m/s | -50.9°C | 0.3% | 97.6hPa | 2.7V | 18:12:15 | 01:27:43 | 00:00:00 | |
| DL1XH-west | 2026-09-01 17:37:19 | 52.18048 | 14.90418 | 73° | 53km/h | 16673m | 3.4m/s | -50.9°C | 0.3% | 97.7hPa | 2.6V | 18:12:15 | 01:27:42 | 00:00:00 | |
| DL1XH1-15 | 2026-09-01 17:37:18 | 52.18026 | 14.90291 | 75° | 55km/h | 16642m | 4.5m/s | 0°C | 0% | 0hPa | 2.6V | 08:30:00 | 01:27:36 | 00:00:00 | |
| SONDE2-12 | 2026-09-01 17:37:17 | 52.18041 | 14.90377 | 74° | 51km/h | 16662m | 4.9m/s | -50.8°C | 1.2% | 97.8hPa | 2.7V | 00:00:00 | 00:00:00 | 00:00:00 | |
| DF8AY | 2026-09-01 17:37:11 | 52.18019 | 14.90247 | 75° | 57km/h | 16634m | 5.2m/s | -50.7°C | 0.3% | 98.2hPa | 2.7V | 18:12:15 | 01:27:34 | 00:00:00 | |
| DB0DAN | 2026-09-01 17:37:10 | 52.18015 | 14.90224 | 75° | 57km/h | 16629m | 4m/s | -50.7°C | 1.1% | 98.3hPa | 2.7V | 00:00:00 | 00:00:00 | 00:00:00 | |
| AA1-15 | 2026-09-01 17:37:10 | 52.18015 | 14.90224 | 75° | 58km/h | 16629m | 4m/s | -50.7°C | 0.3% | 98.3hPa | 2.7V | 18:12:15 | 01:27:33 | 00:00:00 | |
| DL1XH-west | 2026-09-01 17:37:09 | 52.18011 | 14.90201 | 75° | 58km/h | 16624m | 5m/s | -50.8°C | 0.3% | 98.3hPa | 2.6V | 18:12:15 | 01:27:32 | 00:00:00 | |
| DF8AY | 2026-09-01 17:37:00 | 52.17980 | 14.89996 | 75° | 62km/h | 16581m | 4.2m/s | -51.1°C | 0.4% | 99hPa | 2.6V | 18:12:15 | 01:27:23 | 00:00:00 | |
| DL1XH-west | 2026-09-01 17:36:59 | 52.17976 | 14.89972 | 76° | 60km/h | 16577m | 5.2m/s | -51.2°C | 0.4% | 99.1hPa | 2.6V | 18:12:15 | 01:27:22 | 00:00:00 | |
| D01LWL | 2026-09-01 17:36:58 | 52.17969 | 14.89924 | 77° | 60km/h | 16568m | 5.1m/s | -51.3°C | 1.2% | 99.2hPa | 2.7V | 00:00:00 | 00:00:00 | 00:00:00 | |
| KRY50SP-1 | 2026-09-01 17:36:57 | 52.17972 | 14.89948 | 78° | 60km/h | 16572m | 4.0m/s | -51.2°C | 1.1% | 99.1hPa | 2.7V | 00:00:00 | 00:00:00 | 00:00:00 | |
| DB0DAN | 2026-09-01 17:36:55 | 52.17961 | 14.89873 | 76° | 60km/h | 16558m | 4.9m/s | -51.3°C | 1.2% | 99.36hPa | 2.7V | 00:00:00 | 00:00:00 | 00:00:00 | |
| DF8AY | 2026-09-01 17:36:49 | 52.17936 | 14.89723 | 73° | 64km/h | 16529m | 3.8m/s | -51.3°C | 0.4% | 99.8hPa | 2.6V | 18:12:15 | 01:27:12 | 00:00:00 | |
| DL1XH-west | 2026-09-01 17:36:48 | 52.17931 | 14.89698 | 73° | 64km/h | 16524m | 6.2m/s | -51.3°C | 0.4% | 99.9hPa | 2.6V | 18:12:15 | 01:27:11 | 00:00:00 | |
| SONDE2-12 | 2026-09-01 17:36:46 | 52.17915 | 14.89624 | 69° | 60km/h | 16508m | 3.7m/s | -51.2°C | 1.2% | 100.1hPa | 2.7V | 00:00:00 | 00:00:00 | 00:00:00 | |
| S3001 | 2026-09-01 17:36:45 | 52.17915 | 14.89624 | 69° | 60km/h | 16508m | 3.7m/s | -51.2°C | 1.2% | 100.1hPa | 2.7V | 00:00:00 | 00:00:00 | 00:00:00 | |
| DB0DAN | 2026-09-01 17:36:40 | 52.17885 | 14.89508 | 65° | 57km/h | 16484m | 4.3m/s | -51.3°C | 1.1% | 100.54hPa | 2.7V | 00:00:00 | 00:00:00 | 00:00:00 | |
| DF8AY | 2026-09-01 17:36:38 | 52.17871 | 14.89463 | 65° | 62km/h | 16474m | 4.5m/s | -51.4°C | 0.4% | 100.7hPa | 2.6V | 18:12:15 | 01:27:01 | 00:00:00 | |
| DL1XH-west | 2026-09-01 17:36:37 | 52.17864 | 14.89440 | 64° | 62km/h | 16469m | 6.1m/s | -51.3°C | 0.3% | 100.7hPa | 2.7V | 18:12:15 | 01:27:00 | 00:00:00 | |
| DM0DOS-11 | 2026-09-01 17:36:34 | 52.17824 | 14.89267 | 69° | 53km/h | 16428m | 6.2m/s | -51.6°C | 3.6% | 101.4hPa | 2.6V | 08:30:00 | 01:26:52 | 00:00:00 | |
| SP3BTT-10 | 2026-09-01 17:36:33 | 52.17841 | 14.89351 | 71° | 49km/h | 16449m | 6.3m/s | -51.4°C | 3.6% | 101.0hPa | 2.8V | 00:00:00 | 00:00:00 | 00:00:00 | |
| DL1XH1-15 | 2026-09-01 17:36:31 | 52.17813 | 14.89227 | 64° | 55km/h | 16417m | 5.2m/s | 0°C | 0% | 0hPa | 2.8V | 08:30:00 | 01:26:50 | 00:00:00 | |
| DF8AY | 2026-09-01 17:36:28 | 52.17819 | 14.89247 | 66° | 53km/h | 16422m | 4.8m/s | -51.7°C | 0.4% | 101.5hPa | 2.7V | 18:12:15 | 01:26:51 | 00:00:00 | |
| DL1XH-west | 2026-09-01 17:36:27 | 52.17813 | 14.89227 | 65° | 55km/h | 16417m | 5.2m/s | -51.7°C | 0.4% | 101.5hPa | 2.8V | 18:12:15 | 01:26:50 | 00:00:00 | |
| AA1-15 | 2026-09-01 17:36:26 | 52.17807 | 14.89207 | 64° | 57km/h | 16412m | 5.1m/s | -51.7°C | 0.4% | 101.6hPa | 2.7V | 18:12:15 | 01:26:49 | 00:00:00 | |
| DB0DAN | 2026-09-01 17:36:25 | 52.17801 | 14.89186 | 63° | 55km/h | 16407m | 5.1m/s | -51.7°C | 1.2% | 101.69hPa | 2.7V | 00:00:00 | 00:00:00 | 00:00:00 | |
| DM0DOS-11 | 2026-09-01 17:36:24 | 52.17765 | 14.89064 | 68° | 51km/h | 16377m | 3.8m/s | -51.9°C | 3.6% | 102.1hPa | 2.6V | 08:30:00 | 01:26:42 | 00:00:00 | |
| DAC517 | 2026-09-01 17:36:24 | 52.17801 | 14.89186 | 64° | 57km/h | 16407m | 5.1m/s | -51.7°C | 1.2% | 101.7hPa | 2.7V | 00:00:00 | 00:00:00 | 00:00:00 | |
| KRY50SP-1 | 2026-09-01 17:36:23 | 52.17794 | 14.89166 | 63° | 55km/h | 16402m | 5.5m/s | -51.7°C | 1.2% | 101.8hPa | 2.7V | 00:00:00 | 00:00:00 | 00:00:00 | |
| SONCRA | 2026-09-01 17:36:21 | 52.17776 | 14.89104 | 65° | 53km/h | 16386m | 5.0m/s | -51.7°C | 1.2% | 102.0hPa | 2.7V | 00:00:00 | 00:00:00 | 00:00:00 | |
| DL1XH1-15 | 2026-09-01 17:36:19 | 52.17756 | 14.89023 | 70° | 55km/h | 16367m | 3.8m/s | 0°C | 0% | 0hPa | 2.7V | 08:30:00 | 01:26:40 | 00:00:00 | |
| DF8AY | 2026-09-01 17:36:18 | 52.17760 | 14.89044 | 70° | 53km/h | 16372m | 5.8m/s | -52°C | 0.4% | 102.3hPa | 2.6V | 18:12:15 | 01:26:41 | 00:00:00 | |
| DL1XH-west | 2026-09-01 17:36:16 | 52.17751 | 14.89003 | 71° | 53km/h | 16362m | 6.4m/s | -52.3°C | 0.4% | 102.4hPa | 2.7V | 18:12:15 | 01:26:39 | 00:00:00 | |
| SONDE2-12 | 2026-09-01 17:36:15 | 52.17743 | 14.88962 | 72° | 51km/h | 16351m | 6.9m/s | -52.4°C | 1.3% | 102.6hPa | 2.6V | 00:00:00 | 00:00:00 | 00:00:00 | |
| DM0DOS-11 | 2026-09-01 17:36:14 | 52.17720 | 14.88862 | 64° | 51km/h | 16326m | 5.9m/s | -52.4°C | 3.9% | 103hPa | 2.6V | 08:30:00 | 01:26:32 | 00:00:00 | |
| S3001 | 2026-09-01 17:36:14 | 52.17739 | 14.88941 | 72° | 53km/h | 16346m | 4.0m/s | -52.5°C | 1.3% | 102.7hPa | 2.7V | 00:00:00 | 00:00:00 | 00:00:00 | |
| KRY50SP-1 | 2026-09-01 17:36:12 | 52.17739 | 14.88941 | 74° | 53km/h | 16346m | 4.0m/s | -52.5°C | 1.3% | 102.7hPa | 2.7V | 00:00:00 | 00:00:00 | 00:00:00 | |
| DB0DAN | 2026-09-01 17:36:10 | 52.17725 | 14.88881 | 66° | 47km/h | 16331m | 4.8m/s | -52.4°C | 1.3% | 102.89hPa | 2.7V | 00:00:00 | 00:00:00 | 00:00:00 | |
| DL1XH1-15 | 2026-09-01 17:36:08 | 52.17708 | 14.88824 | 61° | 53km/h | 16317m | 5.3m/s | 0°C | 0% | 0hPa | 2.6V | 08:30:00 | 01:26:30 | 00:00:00 | |
| DF8AY | 2026-09-01 17:36:07 | 52.17708 | 14.88823 | 62° | 53km/h | 16317m | 5.3m/s | -52.4°C | 0.5% | 103.1hPa | 2.6V | 18:12:15 | 01:26:30 | 00:00:00 | |
| DL1XH-west | 2026-09-01 17:36:06 | 52.17696 | 14.88786 | 63° | 51km/h | 16307m | 4.4m/s | -52.4°C | 0.5% | 103.3hPa | 2.7V | 18:12:15 | 01:26:28 | 00:00:00 | |
| DF8AY | 2026-09-01 17:35:56 | 52.17658 | 14.88620 | 73° | 46km/h | 16260m | 6.1m/s | -52.2°C | 0.6% | 104hPa | 2.7V | 18:12:15 | 01:26:19 | 00:00:00 | |
| DL1XH-west | 2026-09-01 17:35:55 | 52.17654 | 14.88602 | 73° | 46km/h | 16255m | 4.2m/s | -52.2°C | 0.6% | 104.1hPa | 2.7V | 18:12:15 | 01:26:18 | 00:00:00 | |
| DF8AY | 2026-09-01 17:35:47 | 52.17620 | 14.88454 | 70° | 42km/h | 16207m | 3.9m/s | -52.2°C | 0.6% | 104.9hPa | 2.7V | 18:12:15 | 01:26:09 | 00:00:00 | |
| DL1XH-west | 2026-09-01 17:35:45 | 52.17617 | 14.88438 | 73° | 40km/h | 16203m | 5.4m/s | -52.2°C | 0.6% | 105hPa | 2.6V | 18:12:15 | 01:26:08 | 00:00:00 | |
| DM0DOS-11 | 2026-09-01 17:35:44 | 52.17607 | 14.88345 | 82° | 38km/h | 16171m | 4.2m/s | -52°C | 3.8% | 105.5hPa | 2.6V | 08:30:00 | 01:26:02 | 00:00:00 | |
| AA1-15 | 2026-09-01 17:35:44 | 52.17614 | 14.88422 | 78° | 37km/h | 16197m | 5.7m/s | -52.2°C | 0.6% | 105hPa | 2.6V | 18:12:15 | 01:26:07 | 00:00:00 | |
| SONDE2-12 | 2026-09-01 17:35:44 | 52.17612 | 14.88407 | 81° | 37km/h | 16192m | 5.2m/s | -52.1°C | 1.3% | 105.1hPa | 2.7V | 00:00:00 | 00:00:00 | 00:00:00 | |
| SONDE2-11 | 2026-09-01 17:35:43 | 52.17612 | 14.88407 | 81° | 37km/h | 16192m | 5.2m/s | -52.1°C | 1.3% | 105.1hPa | 2.7V | 00:00:00 | 00:00:00 | 00:00:00 | |
| DB0DAN | 2026-09-01 17:35:40 | 52.17609 | 14.88360 | 83° | 37km/h | 16177m | 5.8m/s | -52°C | 1.3% | 105.39hPa | 2.7V | 00:00:00 | 00:00:00 | 00:00:00 | |
| DF8AY | 2026-09-01 17:35:35 | 52.17602 | 14.88278 | 79° | 44km/h | 16150m | 6.1m/s | -51.9°C | 0.5% | 105.8hPa | 2.7V | 18:12:15 | 01:25:58 | 00:00:00 | |
| DL1XH-west | 2026-09-01 17:35:35 | 52.17599 | 14.88260 | 78° | 46km/h | 16145m | 5.2m/s | -51.8°C | 0.5% | 105.9hPa | 2.7V | 18:12:15 | 01:25:57 | 00:00:00 | |
| AA1-15 | 2026-09-01 17:35:33 | 52.17597 | 14.88241 | 78° | 47km/h | 16139m | 5.2m/s | -51.8°C | 0.5% | 106hPa | 2.6V | 18:12:15 | 01:25:56 | 00:00:00 | |
| DF8AY | 2026-09-01 17:35:30 | 52.17574 | 14.88097 | 74° | 46km/h | 16099m | 5.1m/s | -51.5°C | 0.5% | 106.6hPa | 2.8V | 18:12:15 | 01:25:48 | 00:00:00 | |
| KRY50SP-1 | 2026-09-01 17:35:29 | 52.17588 | 14.88185 | 76° | 44km/h | 16125m | 4.1m/s | -51.7°C | 1.3% | 106.2hPa | 2.8V | 00:00:00 | 00:00:00 | 00:00:00 | |
| DB0DAN | 2026-09-01 17:35:25 | 52.17574 | 14.88097 | 74° | 44km/h | 16099m | 5.1m/s | -51.5°C | 1.2% | 106.63hPa | 2.8V | 00:00:00 | 00:00:00 | 00:00:00 | |
| DL1XH-west | 2026-09-01 17:35:23 | 52.17568 | 14.88059 | 75° | 51km/h | 16088m | 4.5m/s | -51.5°C | 0.5% | 106.8hPa | 2.7V | 18:12:15 | 01:25:46 | 00:00:00 | |
| AA1-15 | 2026-09-01 17:35:22 | 52.17565 | 14.88039 | 75° | 49km/h | 16083m | 5.3m/s | -51.4°C | 0.5% | 106.9hPa | 2.6V | 18:12:15 | 01:25:45 | 00:00:00 | |
| NBG1-10 | 2026-09-01 17:35:19 | 52.17556 | 14.87977 | 78° | 47km/h | 16068m | 3.6m/s | 0°C | 0% | 0hPa | 2.7V | 00:00:00 | 01:25:42 | 00:00:00 | |
| 13BRC | 2026-09-01 17:35:18 | 52.17556 | 14.87977 | 79° | 53km/h | 16068m | 3.6m/s | -51.4°C | 1.3% | 107.2hPa | 2.7V | 00:00:00 | 00:00:00 | 00:00:00 | |
| SP3WXH-11 | 2026-09-01 17:35:16 | 52.17542 | 14.87898 | 70° | 49km/h | 16047m | 5.4m/s | -51.4°C | 1.2% | 107.5hPa | 2.7V | 00:00:00 | 00:00:00 | 00:00:00 | |
| DM0DOS-11 | 2026-09-01 17:35:14 | 52.17515 | 14.87781 | 71° | 53km/h | 16016m | 5.8m/s | -51.3°C | 3.7% | 108hPa | 2.7V | 08:30:00 | 01:25:32 | 00:00:00 | |
| DF8AY | 2026-09-01 17:35:14 | 52.17538 | 14.87879 | 69° | 49km/h | 16042m | 4.8m/s | -51.3°C | 0.4% | 107.6hPa | 2.6V | 18:12:15 | 01:25:37 | 00:00:00 | |
| SONDE2-12 | 2026-09-01 17:35:13 | 52.17529 | 14.87841 | 68° | 49km/h | 16031m | 6.2m/s | -51.3°C | 1.3% | 107.8hPa | 2.7V | 00:00:00 | 00:00:00 | 00:00:00 | |
| DL1XH-west | 2026-09-01 17:35:12 | 52.17529 | 14.87841 | 68° | 49km/h | 16031m | 6.2m/s | -51.3°C | 0.4% | 107.8hPa | 2.7V | 18:12:15 | 01:25:35 | 00:00:00 | |
| AA1-15 | 2026-09-01 17:35:11 | 52.17524 | 14.87822 | 68° | 53km/h | 16025m | 5.1m/s | -51.3°C | 0.4% | 107.9hPa | 2.6V | 18:12:15 | 01:25:34 | 00:00:00 | |
| DB0DAN | 2026-09-01 17:35:10 | 52.17519 | 14.87802 | 70° | 51km/h | 16021m | 4m/s | -51.3°C | 1.2% | 107.93hPa | 2.7V | 00:00:00 | 00:00:00 | 00:00:00 | |
| EDDB2-12 | 2026-09-01 17:35:08 | 52.17511 | 14.87761 | 72° | 53km/h | 16011m | 4.8m/s | -51.3°C | 1.2% | 108.1hPa | 2.6V | 00:00:00 | 00:00:00 | 00:00:00 | |
| KRY50SP-1 | 2026-09-01 17:35:06 | 52.17506 | 14.87739 | 72° | 55km/h | 16005m | 6.6m/s | -51.3°C | 1.2% | 108.2hPa | 2.6V | 00:00:00 | 00:00:00 | 00:00:00 | |
| DM0DOS-11 | 2026-09-01 17:35:04 | 52.17462 | 14.87560 | 64° | 60km/h | 15965m | 6.1m/s | -51.5°C | 3.7% | 108.9hPa | 2.6V | 08:30:00 | 01:25:22 | 00:00:00 | |
| DF8AY | 2026-09-01 17:35:04 | 52.17492 | 14.87674 | 70° | 58km/h | 15989m | 5.4m/s | -51.6°C | 0.4% | 108.5hPa | 2.7V | 18:12:15 | 01:25:27 | 00:00:00 | |
| DL1XH-west | 2026-09-01 17:35:02 | 52.17481 | 14.87627 | 67° | 62km/h | 15979m | 4.4m/s | -51.6°C | 0.5% | 108.6hPa | 2.8V | 18:12:15 | 01:25:25 | 00:00:00 | |
| AA1-15 | 2026-09-01 17:35:00 | 52.17468 | 14.87582 | 66° | 58km/h | 15970m | 3.7m/s | -51.6°C | 0.5% | 108.8hPa | 2.7V | 18:12:15 | 01:25:23 | 00:00:00 | |
| DAC517 | 2026-09-01 17:34:59 | 52.17468 | 14.87582 | 67° | 58km/h | 15970m | 3.7m/s | -51.6°C | 1.3% | 108.8hPa | 2.7V | 00:00:00 | 00:00:00 | 00:00:00 | |
| DB0DAN | 2026-09-01 17:34:55 | 52.17436 | 14.87477 | 63° | 51km/h | 15945m | 5.1m/s | -51.5°C | 1.3% | 109.2hPa | 2.7V | 00:00:00 | 00:00:00 | 00:00:00 | |
| DM0DOS-11 | 2026-09-01 17:34:54 | 52.17403 | 14.87353 | 67° | 55km/h | 15913m | 4.1m/s | -51.4°C | 3.8% | 109.7hPa | 2.6V | 08:30:00 | 01:25:12 | 00:00:00 | |
| DF8AY | 2026-09-01 17:34:53 | 52.17424 | 14.87436 | 65° | 55km/h | 15935m | 4.5m/s | -51.5°C | 0.5% | 109.4hPa | 2.7V | 18:12:15 | 01:25:16 | 00:00:00 | |
| AA1-15 | 2026-09-01 17:34:49 | 52.17403 | 14.87353 | 68° | 55km/h | 15913m | 4.1m/s | -51.4°C | 0.5% | 109.7hPa | 2.6V | 18:12:15 | 01:25:12 | 00:00:00 | |
| SONCRA | 2026-09-01 17:34:48 | 52.17397 | 14.87333 | 67° | 51km/h | 15908m | 6.0m/s | -51.3°C | 1.3% | 109.8hPa | 2.7V | 00:00:00 | 00:00:00 | 00:00:00 | |
| SP3WXH-11 | 2026-09-01 17:34:45 | 52.17376 | 14.87258 | 62° | 46km/h | 15886m | 5.5m/s | -51.3°C | 1.3% | 110.2hPa | 2.7V | 00:00:00 | 00:00:00 | 00:00:00 | |
| DM0DOS-11 | 2026-09-01 17:34:44 | 52.17350 | 14.87172 | 67° | 46km/h | 15862m | 5.1m/s | -51.1°C | 3.7% | 110.6hPa | 2.7V | 08:30:00 | 01:25:02 | 00:00:00 | |
| DF8AY | 2026-09-01 17:34:43 | 52.17370 | 14.87241 | 62° | 46km/h | 15882m | 3.2m/s | -51.2°C | 0.6% | 110.2hPa | 2.6V | 18:12:15 | 01:25:06 | 00:00:00 | |
| SONDE2-12 | 2026-09-01 17:34:42 | 52.17359 | 14.87207 | 64° | 47km/h | 15872m | 3.9m/s | -51.2°C | 1.3% | 110.5hPa | 2.8V | 00:00:00 | 00:00:00 | 00:00:00 | |
| DB0DAN | 2026-09-01 17:34:40 | 52.17354 | 14.87189 | 66° | 44km/h | 15867m | 5.1m/s | -51.1°C | 1.3% | 110.52hPa | 2.8V | 00:00:00 | 00:00:00 | 00:00:00 | |
| AA1-15 | 2026-09-01 17:34:38 | 52.17346 | 14.87154 | 70° | 47km/h | 15858m | 4.4m/s | -51.1°C | 0.4% | 110.7hPa | 2.6V | 18:12:15 | 01:25:01 | 00:00:00 | |
| EDDB2-12 | 2026-09-01 17:34:37 | 52.17341 | 14.87136 | 70° | 47km/h | 15853m | 5.0m/s | -51.0°C | 1.2% | 110.8hPa | 2.7V | 00:00:00 | 00:00:00 | 00:00:00 | |
| 13BRC | 2026-09-01 17:34:36 | 52.17342 | 14.87136 | 72° | 49km/h | 15853m | 5.0m/s | -51.0°C | 1.2% | 110.8hPa | 2.7V | 00:00:00 | 00:00:00 | 00:00:00 | |
| DM0DOS-11 | 2026-09-01 17:34:34 | 52.17311 | 14.86999 | 64° | 38km/h | 15812m | 6.6m/s | -50.8°C | 3.6% | 111.5hPa | 2.7V | 08:30:00 | 01:24:52 | 00:00:00 | |
| DF8AY | 2026-09-01 17:34:32 | 52.17323 | 14.87044 | 70° | 44km/h | 15828m | 4.1m/s | -50.8°C | 0.4% | 111.2hPa | 2.7V | 18:12:15 | 01:24:55 | 00:00:00 | |
| DL1XH-west | 2026-09-01 17:34:29 | 52.17312 | 14.86999 | 64° | 38km/h | 15812m | 6.6m/s | -50.8°C | 0.4% | 111.5hPa | 2.7V | 18:12:15 | 01:24:52 | 00:00:00 | |
| AA1-15 | 2026-09-01 17:34:27 | 52.17304 | 14.86971 | 68° | 35km/h | 15801m | 6.4m/s | -50.8°C | 0.4% | 111.6hPa | 2.7V | 18:12:15 | 01:24:50 | 00:00:00 | |
| DB0DAN | 2026-09-01 17:34:25 | 52.17298 | 14.86943 | 74° | 35km/h | 15790m | 6.4m/s | -50.7°C | 1.2% | 111.83hPa | 2.8V | 00:00:00 | 00:00:00 | 00:00:00 | |
| DM0DOS-11 | 2026-09-01 17:34:24 | 52.17286 | 14.86847 | 79° | 42km/h | 15762m | 4.4m/s | -50.9°C | 3.7% | 112.3hPa | 2.8V | 08:30:00 | 01:24:42 | 00:00:00 | |
| DF8AY | 2026-09-01 17:34:21 | 52.17290 | 14.86881 | 81° | 40km/h | 15772m | 4.5m/s | -50.9°C | 0.5% | 112.2hPa | 2.7V | 18:12:15 | 01:24:44 | 00:00:00 | |
| AA1-15 | 2026-09-01 17:34:17 | 52.17282 | 14.86814 | 76° | 40km/h | 15753m | 3.3m/s | -51.1°C | 0.6% | 112.5hPa | 2.6V | 18:12:15 | 01:24:40 | 00:00:00 | |
| SP3BTT-10 | 2026-09-01 17:34:17 | 52.17282 | 14.86814 | 77° | 42km/h | 15754m | 3.3m/s | -51.1°C | 3.7% | 112.4hPa | 2.8V | 00:00:00 | 00:00:00 | 00:00:00 | |
| 13BRC | 2026-09-01 17:34:15 | 52.17280 | 14.86798 | 73° | 40km/h | 15749m | 5.3m/s | -51.3°C | 1.3% | 112.5hPa | 2.8V | 00:00:00 | 00:00:00 | 00:00:00 | |
| DM0DOS-11 | 2026-09-01 17:34:14 | 52.17257 | 14.86705 | 75° | 33km/h | 15714m | 5.1m/s | -51.9°C | 3.7% | 113.2hPa | 2.8V | 08:30:00 | 01:24:32 | 00:00:00 | |
| SONDE2-12 | 2026-09-01 17:34:11 | 52.17259 | 14.86717 | 68° | 33km/h | 15720m | 4.8m/s | -51.9°C | 1.4% | 113.0hPa | 2.8V | 00:00:00 | 00:00:00 | 00:00:00 | |
| DB0DAN | 2026-09-01 17:34:10 | 52.17259 | 14.86717 | 68° | 33km/h | 15719m | 4.8m/s | -51.9°C | 1.3% | 113.04hPa | 2.8V | 00:00:00 | 00:00:00 | 00:00:00 | |
| AA1-15 | 2026-09-01 17:34:06 | 52.17252 | 14.86664 | 86° | 35km/h | 15699m | 4.4m/s | -51.8°C | 0.6% | 113.4hPa | 2.7V | 18:12:15 | 01:24:29 | 00:00:00 | |
| EDDB2-11 | 2026-09-01 17:34:02 | 52.17252 | 14.86599 | 85° | 42km/h | 15678m | 4.5m/s | -51.8°C | 1.4% | 113.8hPa | 2.7V | 00:00:00 | 00:00:00 | 00:00:00 | |
| KRY50SP-1 | 2026-09-01 17:34:00 | 52.17251 | 14.86582 | 85° | 44km/h | 15674m | 5.1m/s | -51.8°C | 1.3% | 113.8hPa | 2.7V | 00:00:00 | 00:00:00 | 00:00:00 | |
| DAC517 | 2026-09-01 17:33:57 | 52.17247 | 14.86529 | 79° | 42km/h | 15659m | 5.8m/s | -51.9°C | 1.4% | 114.1hPa | 2.7V | 00:00:00 | 00:00:00 | 00:00:00 | |
| DB0DAN | 2026-09-01 17:33:55 | 52.17240 | 14.86481 | 80° | 37km/h | 15644m | 4.8m/s | -51.9°C | 1.4% | 114.37hPa | 2.7V | 00:00:00 | 00:00:00 | 00:00:00 | |
| AA1-15 | 2026-09-01 17:33:55 | 52.17240 | 14.86481 | 80° | 38km/h | 15644m | 4.8m/s | -51.9°C | 0.7% | 114.4hPa | 2.7V | 18:12:15 | 01:24:18 | 00:00:00 | |
| D01LWL | 2026-09-01 17:33:51 | 52.17235 | 14.86417 | 88° | 40km/h | 15625m | 5.5m/s | 0°C | -1.0% | 114.7hPa | 2.7V | 00:00:00 | 00:00:00 | 00:00:00 | |
| KRY50SP-1 | 2026-09-01 17:33:48 | 52.17234 | 14.86382 | 88° | 42km/h | 15615m | 5.3m/s | -51.8°C | 1.3% | 114.9hPa | 2.7V | 00:00:00 | 00:00:00 | 00:00:00 | |
| DM0DOS-11 | 2026-09-01 17:33:47 | 52.17232 | 14.86313 | 82° | 42km/h | 15594m | 4.7m/s | -51.8°C | 3.8% | 115.3hPa | 2.7V | 08:30:00 | 01:24:08 | 00:00:00 | |
| SONCRA | 2026-09-01 17:33:46 | 52.17232 | 14.86313 | 82° | 40km/h | 15594m | 4.7m/s | -51.8°C | 1.3% | 115.3hPa | 2.8V | 00:00:00 | 00:00:00 | 00:00:00 | |
| AA1-15 | 2026-09-01 17:33:44 | 52.17230 | 14.86296 | 83° | 42km/h | 15590m | 4.8m/s | -51.9°C | 0.6% | 115.3hPa | 2.8V | 18:12:15 | 01:24:07 | 00:00:00 | |
| KRY50SP-1 | 2026-09-01 17:33:42 | 52.17229 | 14.86279 | 86° | 42km/h | 15585m | 4.9m/s | -52.0°C | 1.3% | 115.4hPa | 2.7V | 00:00:00 | 00:00:00 | 00:00:00 | |
| DB0DAN | 2026-09-01 17:33:40 | 52.17226 | 14.86228 | 83° | 38km/h | 15569m | 4m/s | -52.1°C | 1.4% | 115.68hPa | 2.7V | 00:00:00 | 00:00:00 | 00:00:00 | |
| SONDE2-12 | 2026-09-01 17:33:40 | 52.17225 | 14.86212 | 84° | 38km/h | 15565m | 6.0m/s | -52.2°C | 1.5% | 115.8hPa | 2.7V | 00:00:00 | 00:00:00 | 00:00:00 | |
| DL1XH-west | 2026-09-01 17:33:34 | 52.17218 | 14.86127 | 82° | 46km/h | 15541m | 4.9m/s | -52.4°C | 0.7% | 116.2hPa | 2.7V | 18:12:15 | 01:23:57 | 00:00:00 | |
| AA1-15 | 2026-09-01 17:33:33 | 52.17216 | 14.86108 | 81° | 47km/h | 15536m | 4.7m/s | -52.5°C | 0.6% | 116.2hPa | 2.7V | 18:12:15 | 01:23:56 | 00:00:00 | |
| DF8AY | 2026-09-01 17:33:26 | 52.17200 | 14.85965 | 83° | 51km/h | 15500m | 5.9m/s | -52.3°C | 0.7% | 116.9hPa | 2.7V | 18:12:15 | 01:23:49 | 00:00:00 | |
| DB0DAN | 2026-09-01 17:33:25 | 52.17198 | 14.85945 | 83° | 47km/h | 15495m | 4.4m/s | -52.3°C | 1.4% | 117.03hPa | 2.7V | 00:00:00 | 00:00:00 | 00:00:00 | |
| AA1-15 | 2026-09-01 17:33:22 | 52.17193 | 14.85887 | 83° | 47km/h | 15480m | 6.1m/s | -52.2°C | 0.6% | 117.3hPa | 2.8V | 18:12:15 | 01:23:45 | 00:00:00 | |
| DL1XH-west | 2026-09-01 17:33:21 | 52.17192 | 14.85868 | 84° | 46km/h | 15475m | 5.2m/s | -52.2°C | 0.7% | 117.4hPa | 2.8V | 18:12:15 | 01:23:44 | 00:00:00 | |
| DF8AY | 2026-09-01 17:33:21 | 52.17187 | 14.85780 | 86° | 40km/h | 15448m | 5m/s | -52.1°C | 0.7% | 117.8hPa | 2.8V | 18:12:15 | 01:23:39 | 00:00:00 | |
| AA1-15 | 2026-09-01 17:33:11 | 52.17183 | 14.85697 | 84° | 40km/h | 15422m | 4.9m/s | -51.9°C | 0.6% | 118.4hPa | 2.8V | 18:12:15 | 01:23:34 | 00:00:00 | |
| DB0DAN | 2026-09-01 17:33:10 | 52.17182 | 14.85680 | 86° | 38km/h | 15417m | 4.8m/s | -51.9°C | 1.4% | 118.39hPa | 2.8V | 00:00:00 | 00:00:00 | 00:00:00 | |
| S3001 | 2026-09-01 17:33:08 | 52.17182 | 14.85632 | 92° | 37km/h | 15403m | 5.2m/s | -51.8°C | 1.3% | 118.7hPa | 2.7V | 00:00:00 | 00:00:00 | 00:00:00 | |
| DM0DOS-11 | 2026-09-01 17:33:05 | 52.17187 | 14.85523 | 93° | 37km/h | 15366m | 5.2m/s | -51.8°C | 3.9% | 119.3hPa | 2.7V | 08:30:00 | 01:23:23 | 00:00:00 | |
| DF8AY | 2026-09-01 17:33:05 | 52.17183 | 14.85601 | 94° | 38km/h | 15394m | 6m/s | -51.8°C | 0.6% | 118.8hPa | 2.7V | 18:12:15 | 01:23:28 | 00:00:00 | |
| DL1XH-west | 2026-09-01 17:33:01 | 52.17186 | 14.85538 | 94° | 38km/h | 15372m | 4.9m/s | -51.7°C | 0.6% | 119.2hPa | 2.7V | 18:12:15 | 01:23:24 | 00:00:00 | |
| AA1-15 | 2026-09-01 17:33:00 | 52.17187 | 14.85523 | 94° | 37km/h | 15366m | 5.2m/s | -51.8°C | 0.6% | 119.3hPa | 2.7V | 18:12:15 | 01:23:23 | 00:00:00 | |
| DB0DAN | 2026-09-01 17:32:55 | 52.17189 | 14.85455 | 91° | 29km/h | 15341m | 6.1m/s | -51.9°C | 1.4% | 119.82hPa | 2.7V | 00:00:00 | 00:00:00 | 00:00:00 | |
| AA1-15 | 2026-09-01 17:32:49 | 52.17197 | 14.85371 | 105° | 38km/h | 15312m | 5.2m/s | -51.7°C | 0.7% | 120.3hPa | 2.7V | 18:12:15 | 01:23:12 | 00:00:00 | |
| SP3BTT-10 | 2026-09-01 17:32:47 | 52.17201 | 14.85340 | 103° | 49km/h | 15302m | 4.9m/s | -51.6°C | 3.8% | 120.5hPa | 2.7V | 00:00:00 | 00:00:00 | 00:00:00 | |
| DM0DOS-11 | 2026-09-01 17:32:45 | 52.17208 | 14.85230 | 91° | 42km/h | 15267m | 3.9m/s | -51.9°C | 3.9% | 121.2hPa | 2.7V | 08:30:00 | 01:23:03 | 00:00:00 | |
| SONCRA | 2026-09-01 17:32:44 | 52.17207 | 14.85278 | 95° | 37km/h | 15281m | 6.4m/s | -51.7°C | 1.3% | 120.9hPa | 2.7V | 00:00:00 | 00:00:00 | 00:00:00 | |
| DB0DAN | 2026-09-01 17:32:40 | 52.17208 | 14.85230 | 91° | 38km/h | 15267m | 3.9m/s | -51.9°C | 1.4% | 121.16hPa | 2.7V | 00:00:00 | 00:00:00 | 00:00:00 | |
| AA1-15 | 2026-09-01 17:32:38 | 52.17209 | 14.85197 | 95° | 42km/h | 15257m | 3.9m/s | -51.9°C | 0.6% | 121.4hPa | 2.7V | 18:12:15 | 01:23:01 | 00:00:00 | |
| SONDE2-12 | 2026-09-01 17:32:37 | 52.17210 | 14.85179 | 95° | 42km/h | 15252m | 5.6m/s | -51.9°C | 1.5% | 121.5hPa | 2.8V | 00:00:00 | 00:00:00 | 00:00:00 | |
| DF8AY | 2026-09-01 17:32:35 | 52.17213 | 14.85142 | 98° | 47km/h | 15242m | 6.3m/s | -51.8°C | 0.7% | 121.7hPa | 2.8V | 18:12:15 | 01:22:58 | 00:00:00 | |
| DL1XH-west | 2026-09-01 17:32:31 | 52.17221 | 14.85064 | 100° | 47km/h | 15223m | 6.3m/s | -51.8°C | 0.7% | 122hPa | 2.8V | 18:12:15 | 01:22:54 | 00:00:00 | |
| AA1-15 | 2026-09-01 17:32:27 | 52.17227 | 14.84987 | 95° | 46km/h | 15203m | 6.5m/s | -51.8°C | 0.7% | 122.4hPa | 2.7V | 18:12:15 | 01:22:50 | 00:00:00 | |
| DB0DAN | 2026-09-01 17:32:25 | 52.17229 | 14.84948 | 91° | 46km/h | 15193m | 5.7m/s | -51.8°C | 1.4% | 122.57hPa | 2.8V | 00:00:00 | 00:00:00 | 00:00:00 | |
| DM0DOS-11 | 2026-09-01 17:32:25 | 52.17230 | 14.84845 | 94° | 53km/h | 15169m | 4.7m/s | -51.7°C | 3.9% | 123hPa | 2.7V | 08:30:00 | 01:22:43 | 00:00:00 | |
| DL1XH-west | 2026-09-01 17:32:17 | 52.17234 | 14.84783 | 98° | 51km/h | 15154m | 5.4m/s | -51.8°C | 0.7% | 123.3hPa | 2.7V | 18:12:15 | 01:22:40 | 00:00:00 | |
| KRY50SP-1 | 2026-09-01 17:32:16 | 52.17234 | 14.84782 | 99° | 51km/h | 15154m | 5.4m/s | -51.8°C | 1.4% | 123.3hPa | 2.8V | 00:00:00 | 00:00:00 | 00:00:00 | |
| DM0DOS-11 | 2026-09-01 17:32:15 | 52.17238 | 14.84637 | 87° | 51km/h | 15121m | 5.7m/s | -51.7°C | 3.9% | 124hPa | 2.8V | 08:30:00 | 01:22:33 | 00:00:00 | |
| AA1-15 | 2026-09-01 17:32:15 | 52.17237 | 14.84741 | 95° | 51km/h | 15144m | 4.9m/s | -51.7°C | 0.7% | 123.5hPa | 2.8V | 18:12:15 | 01:22:38 | 00:00:00 | |
| DB0DAN | 2026-09-01 17:32:10 | 52.17238 | 14.84637 | 88° | 49km/h | 15121m | 5.7m/s | -51.7°C | 1.4% | 123.96hPa | 2.8V | 00:00:00 | 00:00:00 | 00:00:00 | |
| SP3WXH-11 | 2026-09-01 17:32:10 | 52.17238 | 14.84616 | 88° | 51km/h | 15117m | 3.3m/s | -51.7°C | 1.4% | 124.1hPa | 2.8V | 00:00:00 | 00:00:00 | 00:00:00 | |
| S3001 | 2026-09-01 17:32:06 | 52.17239 | 14.84528 | 94° | 51km/h | 15097m | 3.6m/s | -51.7°C | 1.5% | 124.4hPa | 2.8V | 00:00:00 | 00:00:00 | 00:00:00 | |
| DM0DOS-11 | 2026-09-01 17:32:05 | 52.17245 | 14.84407 | 93° | 47km/h | 15068m | 4.3m/s | -51.7°C | 4% | 125hPa | 2.8V | 08:30:00 | 01:22:22 | 00:00:00 | |
| DL1XH-west | 2026-09-01 17:32:05 | 52.17239 | 14.84507 | 94° | 53km/h | 15092m | 6.1m/s | -51.7°C | 0.8% | 124.5hPa | 2.8V | 18:12:15 | 01:22:27 | 00:00:00 | |
| DF8AY | 2026-09-01 17:31:59 | 52.17245 | 14.84407 | 93° | 47km/h | 15068m | 4.3m/s | -51.7°C | 0.8% | 125hPa | 2.8V | 18:12:15 | 01:22:22 | 00:00:00 | |
| DB0DAN | 2026-09-01 17:31:55 | 52.17247 | 14.84330 | 92° | 49km/h | 15048m | 4.2m/s | -51.7°C | 1.5% | 125.36hPa | 2.7V | 00:00:00 | 00:00:00 | 00:00:00 | |
| AA1-15 | 2026-09-01 17:31:53 | 52.17248 | 14.84286 | 94° | 53km/h | 15039m | 4.5m/s | -51.7°C | 0.8% | 125.6hPa | 2.8V | 18:12:15 | 01:22:16 | 00:00:00 | |
| D01LWL | 2026-09-01 17:31:47 | 52.17254 | 14.84146 | 93° | 57km/h | 15010m | 3.6m/s | 0°C | -1.0% | -1.0hPa | 2.7V | 00:00:00 | 00:00:00 | 00:00:00 | |
| DF8AY | 2026-09-01 17:31:42 | 52.17258 | 14.84033 | 93° | 53km/h | 14987m | 6.5m/s | -51.7°C | 0.8% | 126.5hPa | 2.7V | 18:12:15 | 01:22:05 | 00:00:00 | |
| DL1XH-west | 2026-09-01 17:31:41 | 52.17258 | 14.84011 | 93° | 53km/h | 14982m | 4.4m/s | -51.7°C | 0.8% | 126.6hPa | 2.7V | 18:12:15 | 01:22:04 | 00:00:00 | |
| DB0DAN | 2026-09-01 17:31:40 | 52.17259 | 14.83989 | 92° | 51km/h | 14977m | 5.9m/s | -51.7°C | 1.5% | 126.73hPa | 2.8V | 00:00:00 | 00:00:00 | 00:00:00 | |
| SONDE2-12 | 2026-09-01 17:31:35 | 52.17259 | 14.83883 | 86° | 51km/h | 14951m | 3.8m/s | -51.5°C | 1.6% | 127.3hPa | 2.7V | 00:00:00 | 00:00:00 | 00:00:00 | |
| AA1-15 | 2026-09-01 17:31:32 | 52.17257 | 14.83823 | 88° | 47km/h | 14937m | 6.3m/s | -51.4°C | 0.8% | 127.5hPa | 2.7V | 18:12:15 | 01:21:55 | 00:00:00 | |
| DF8AY | 2026-09-01 17:31:31 | 52.17257 | 14.83804 | 90° | 47km/h | 14932m | 4.5m/s | -51.4°C | 0.8% | 127.7hPa | 2.7V | 18:12:15 | 01:21:54 | 00:00:00 | |
| DL1XH-west | 2026-09-01 17:31:28 | 52.17258 | 14.83747 | 94° | 47km/h | 14917m | 6.1m/s | -51.2°C | 0.8% | 127.9hPa | 2.8V | 18:12:15 | 01:21:51 | 00:00:00 | |
| KRY50SP-1 | 2026-09-01 17:31:27 | 52.17258 | 14.83747 | 95° | 47km/h | 14917m | 6.1m/s | -51.2°C | 1.5% | 127.9hPa | 2.7V | 00:00:00 | 00:00:00 | 00:00:00 | |
| DB0DAN | 2026-09-01 17:31:25 | 52.17261 | 14.83688 | 93° | 46km/h | 14902m | 4.3m/s | -51.1°C | 1.4% | 128.22hPa | 2.7V | 00:00:00 | 00:00:00 | 00:00:00 | |
| AA1-15 | 2026-09-01 17:31:21 | 52.17263 | 14.83604 | 92° | 51km/h | 14881m | 4.8m/s | -51°C | 0.7% | 128.6hPa | 2.8V | 18:12:15 | 01:21:44 | 00:00:00 | |
| SP3BTT-10 | 2026-09-01 17:31:17 | 52.17263 | 14.83518 | 87° | 58km/h | 14861m | 5.9m/s | -51.1°C | 3.8% | 129.0hPa | 2.7V | 00:00:00 | 00:00:00 | 00:00:00 | |
| DM0DOS-11 | 2026-09-01 17:31:15 | 52.17262 | 14.83366 | 90° | 57km/h | 14825m | 4.1m/s | -51.3°C | 3.9% | 129.8hPa | 2.7V | 08:30:00 | 01:21:33 | 00:00:00 | |
| DF8AY | 2026-09-01 17:31:12 | 52.17262 | 14.83411 | 90° | 55km/h | 14835m | 4.1m/s | -51.2°C | 0.7% | 129.5hPa | 2.8V | 18:12:15 | 01:21:35 | 00:00:00 | |
| DB0DAN | 2026-09-01 17:31:10 | 52.17262 | 14.83366 | 91° | 53km/h | 14825m | 4.1m/s | -51.3°C | 1.5% | 129.76hPa | 2.7V | 00:00:00 | 00:00:00 | 00:00:00 | |
| AA1-15 | 2026-09-01 17:31:10 | 52.17262 | 14.83366 | 91° | 57km/h | 14825m | 4.1m/s | -51.3°C | 0.8% | 129.8hPa | 2.7V | 18:12:15 | 01:21:33 | 00:00:00 | |
| 13BRC | 2026-09-01 17:31:10 | 52.17262 | 14.83366 | 92° | 57km/h | 14825m | 4.1m/s | -51.3°C | 1.5% | 129.8hPa | 2.7V | 00:00:00 | 00:00:00 | 00:00:00 | |
| SP6BVK | 2026-09-01 17:31:09 | 52.17262 | 14.83366 | 92° | 57km/h | 14825m | 4.1m/s | -51.3°C | 1.5% | 129.8hPa | 2.7V | 00:00:00 | 00:00:00 | 00:00:00 | |
| SP3WXH-11 | 2026-09-01 17:31:07 | 52.17263 | 14.83297 | 91° | 55km/h | 14810m | 5.1m/s | -51.3°C | 1.5% | 130.1hPa | 2.7V | 00:00:00 | 00:00:00 | 00:00:00 | |
| DL2RXE-15 | 2026-09-01 17:31:06 | 52.17262 | 14.83297 | 93° | 55km/h | 14810m | 5.1m/s | -51.3°C | 1.5% | 130.1hPa | 2.7V | 00:00:00 | 00:00:00 | 00:00:00 | |
| KRY50SP-1 | 2026-09-01 17:31:05 | 52.17263 | 14.83274 | 92° | 55km/h | 14805m | 5.4m/s | -51.3°C | 1.5% | 130.2hPa | 2.7V | 00:00:00 | 00:00:00 | 00:00:00 | |
| DM0DOS-11 | 2026-09-01 17:31:04 | 52.17263 | 14.83113 | 89° | 57km/h | 14770m | 6.4m/s | -51.4°C | 3.9% | 130.9hPa | 2.7V | 08:30:00 | 01:21:22 | 00:00:00 | |
| AA1-15 | 2026-09-01 17:30:59 | 52.17263 | 14.83113 | 89° | 57km/h | 14770m | 6.4m/s | -51.4°C | 0.7% | 130.9hPa | 2.7V | 18:12:15 | 01:21:22 | 00:00:00 | |
| EDDB2-11 | 2026-09-01 17:30:56 | 52.17262 | 14.83041 | 87° | 58km/h | 14754m | 4.6m/s | -51.4°C | 1.5% | 131.2hPa | 2.7V | 00:00:00 | 00:00:00 | 00:00:00 | |
| DM0DOS-11 | 2026-09-01 17:30:54 | 52.17260 | 14.82874 | 88° | 57km/h | 14719m | 5.3m/s | -51.5°C | 3.9% | 131.8hPa | 2.7V | 08:30:00 | 01:21:12 | 00:00:00 | |
| DL1XH-west | 2026-09-01 17:30:52 | 52.17260 | 14.82945 | 89° | 58km/h | 14733m | 5.2m/s | -51.4°C | 0.8% | 131.6hPa | 2.8V | 18:12:15 | 01:21:15 | 00:00:00 | |
| DF8AY | 2026-09-01 17:30:50 | 52.17260 | 14.82874 | 89° | 57km/h | 14719m | 5.3m/s | -51.5°C | 0.8% | 131.8hPa | 2.7V | 18:12:15 | 01:21:12 | 00:00:00 | |
| AA1-15 | 2026-09-01 17:30:48 | 52.17260 | 14.82851 | 90° | 55km/h | 14714m | 4.5m/s | -51.6°C | 0.8% | 132hPa | 2.7V | 18:12:15 | 01:21:11 | 00:00:00 | |
| DL2RXE-15 | 2026-09-01 17:30:45 | 52.17260 | 14.82805 | 92° | 57km/h | 14704m | 3.5m/s | -51.6°C | 1.5% | 132.2hPa | 2.8V | 00:00:00 | 00:00:00 | 00:00:00 | |
| DM0DOS-11 | 2026-09-01 17:30:44 | 52.17257 | 14.82642 | 86° | 60km/h | 14670m | 6.3m/s | -51.7°C | 4% | 132.8hPa | 2.8V | 08:30:00 | 01:21:02 | 00:00:00 | |
| DL1XH-west | 2026-09-01 17:30:41 | 52.17259 | 14.82691 | 87° | 58km/h | 14680m | 5.5m/s | -51.8°C | 0.8% | 132.7hPa | 2.7V | 18:12:15 | 01:21:04 | 00:00:00 | |
| DB0DAN | 2026-09-01 17:30:40 | 52.17258 | 14.82667 | 85° | 57km/h | 14676m | 4m/s | -51.7°C | 1.5% | 132.75hPa | 2.8V | 00:00:00 | 00:00:00 | 00:00:00 | |
| DF8AY | 2026-09-01 17:30:39 | 52.17257 | 14.82642 | 86° | 60km/h | 14670m | 6.3m/s | -51.7°C | 0.8% | 132.8hPa | 2.8V | 18:12:15 | 01:21:02 | 00:00:00 | |
| AA1-15 | 2026-09-01 17:30:37 | 52.17255 | 14.82592 | 85° | 62km/h | 14659m | 6.9m/s | -51.7°C | 0.8% | 133.1hPa | 2.7V | 18:12:15 | 01:21:00 | 00:00:00 | |
| SP3WXH-11 | 2026-09-01 17:30:36 | 52.17253 | 14.82567 | 84° | 60km/h | 14654m | 3.5m/s | -51.7°C | 1.5% | 133.2hPa | 2.7V | 00:00:00 | 00:00:00 | 00:00:00 | |
| DM0DOS-11 | 2026-09-01 17:30:34 | 52.17248 | 14.82402 | 85° | 55km/h | 14618m | 4.9m/s | -51.5°C | 4% | 134hPa | 2.7V | 08:30:00 | 01:20:52 | 00:00:00 | |
| SONDE2-12 | 2026-09-01 17:30:33 | 52.17251 | 14.82494 | 86° | 57km/h | 14639m | 6.5m/s | -51.6°C | 1.6% | 133.5hPa | 2.8V | 00:00:00 | 00:00:00 | 00:00:00 | |
| DL1XH-west | 2026-09-01 17:30:31 | 52.17249 | 14.82447 | 89° | 55km/h | 14628m | 5.4m/s | -51.5°C | 0.9% | 133.8hPa | 2.8V | 18:12:15 | 01:20:54 | 00:00:00 | |
| DF8AY | 2026-09-01 17:30:28 | 52.17247 | 14.82379 | 87° | 55km/h | 14612m | 6.5m/s | -51.4°C | 0.8% | 134.1hPa | 2.8V | 18:12:15 | 01:20:51 | 00:00:00 | |
| DL1XH1-15 | 2026-09-01 17:30:27 | 52.17245 | 14.82264 | 92° | 55km/h | 14587m | 5m/s | 0°C | 0% | 0hPa | 2.8V | 08:30:00 | 01:20:46 | 00:00:00 | |
| AA1-15 | 2026-09-01 17:30:26 | 52.17246 | 14.82334 | 87° | 57km/h | 14602m | 5.5m/s | -51.4°C | 0.7% | 134.3hPa | 2.7V | 18:12:15 | 01:20:49 | 00:00:00 | |
| DB0DAN | 2026-09-01 17:30:25 | 52.17245 | 14.82310 | 87° | 55km/h | 14597m | 4.2m/s | -51.3°C | 1.5% | 134.4hPa | 2.7V | 00:00:00 | 00:00:00 | 00:00:00 | |
| EDDB2-11 | 2026-09-01 17:30:25 | 52.17245 | 14.82310 | 86° | 57km/h | 14597m | 4.2m/s | -51.3°C | 1.5% | 134.4hPa | 2.7V | 00:00:00 | 00:00:00 | 00:00:00 | |
| DM0DOS-11 | 2026-09-01 17:30:24 | 52.17247 | 14.82176 | 96° | 53km/h | 14567m | 4.2m/s | -51.1°C | 3.9% | 135hPa | 2.7V | 08:30:00 | 01:20:42 | 00:00:00 | |
| DL1XH-west | 2026-09-01 17:30:21 | 52.17246 | 14.82219 | 92° | 53km/h | 14578m | 4.6m/s | 0°C | 0% | 134.8hPa | 2.8V | 18:12:15 | 01:20:44 | 00:00:00 | |
| DF8AY | 2026-09-01 17:30:18 | 52.17249 | 14.82154 | 95° | 53km/h | 14562m | 5.7m/s | -51.1°C | 0.7% | 135.1hPa | 2.7V | 18:12:15 | 01:20:41 | 00:00:00 | |
| AA1-15 | 2026-09-01 17:30:16 | 52.17251 | 14.82110 | 95° | 53km/h | 14551m | 6.7m/s | -51°C | 0.7% | 135.4hPa | 2.8V | 18:12:15 | 01:20:39 | 00:00:00 | |
| DL1XH1-15 | 2026-09-01 17:30:15 | 52.17253 | 14.82044 | 90° | 55km/h | 14535m | 4.1m/s | 0°C | 0% | 0hPa | 2.7V | 00:00:00 | 01:20:36 | 00:00:00 | |
| KRY50SP-1 | 2026-09-01 17:30:14 | 52.17252 | 14.82088 | 96° | 55km/h | 14546m | 4.4m/s | -50.9°C | 1.5% | 135.4hPa | 2.8V | 00:00:00 | 00:00:00 | 00:00:00 | |
| DB0DAN | 2026-09-01 17:30:10 | 52.17255 | 14.81976 | 94° | 51km/h | 14521m | 4.4m/s | -50.7°C | 1.5% | 135.97hPa | 2.8V | 00:00:00 | 00:00:00 | 00:00:00 | |
| DL1XH-west | 2026-09-01 17:30:10 | 52.17255 | 14.81976 | 94° | 53km/h | 14521m | 4.4m/s | 0°C | 0% | 0hPa | 2.8V | 18:12:15 | 01:20:33 | 00:00:00 | |
| DF8AY | 2026-09-01 17:30:07 | 52.17258 | 14.81911 | 97° | 53km/h | 14507m | 6.2m/s | -50.7°C | 0.6% | 136.3hPa | 2.7V | 18:12:15 | 01:20:30 | 00:00:00 | |
| AA1-15 | 2026-09-01 17:30:05 | 52.17262 | 14.81867 | 98° | 57km/h | 14497m | 6m/s | -50.6°C | 0.7% | 136.5hPa | 2.8V | 18:12:15 | 01:20:28 | 00:00:00 | |
| DM0DOS-11 | 2026-09-01 17:30:04 | 52.17273 | 14.81725 | 96° | 58km/h | 14465m | 7.2m/s | -50.5°C | 3.8% | 137.2hPa | 2.8V | 08:30:00 | 01:20:22 | 00:00:00 | |
| DL1XH1-15 | 2026-09-01 17:30:03 | 52.17266 | 14.81820 | 98° | 58km/h | 14487m | 5.6m/s | 0°C | 0% | 0hPa | 2.8V | 00:00:00 | 01:20:26 | 00:00:00 | |
| DL1XH-west | 2026-09-01 17:30:00 | 52.17272 | 14.81748 | 96° | 58km/h | 14471m | 4.7m/s | 0°C | 0% | 0hPa | 2.7V | 18:12:15 | 01:20:23 | 00:00:00 | |
| EDDB2-12 | 2026-09-01 17:29:58 | 52.17275 | 14.81701 | 95° | 57km/h | 14459m | 4.5m/s | -50.5°C | 1.5% | 137.3hPa | 2.7V | 00:00:00 | 00:00:00 | 00:00:00 | |
| DL1XH1-15 | 2026-09-01 17:29:57 | 52.17279 | 14.81589 | 92° | 51km/h | 14432m | 4.8m/s | 0°C | 0% | 0hPa | 2.7V | 00:00:00 | 01:20:16 | 00:00:00 | |
| DF8AY | 2026-09-01 17:29:57 | 52.17276 | 14.81678 | 93° | 57km/h | 14453m | 7.1m/s | -50.5°C | 0.7% | 137.4hPa | 2.7V | 18:12:15 | 01:20:20 | 00:00:00 | |
| DB0DAN | 2026-09-01 17:29:55 | 52.17277 | 14.81633 | 94° | 53km/h | 14442m | 5.5m/s | -50.4°C | 1.5% | 137.6hPa | 2.8V | 00:00:00 | 00:00:00 | 00:00:00 | |
| AA1-15 | 2026-09-01 17:29:54 | 52.17278 | 14.81610 | 93° | 53km/h | 14437m | 5.6m/s | -50.4°C | 0.7% | 137.7hPa | 2.8V | 18:12:15 | 01:20:17 | 00:00:00 | |
| DL1XH-west | 2026-09-01 17:29:49 | 52.17283 | 14.81500 | 95° | 55km/h | 14411m | 4.7m/s | 0°C | 0% | 0hPa | 2.7V | 18:12:15 | 01:20:12 | 00:00:00 | |
| DAC517 | 2026-09-01 17:29:48 | 52.17283 | 14.81500 | 96° | 55km/h | 14411m | 4.7m/s | -50.2°C | 1.4% | 138.3hPa | 2.7V | 00:00:00 | 00:00:00 | 00:00:00 | |
| KRY50SP-1 | 2026-09-01 17:29:47 | 52.17284 | 14.81477 | 97° | 58km/h | 14406m | 4.4m/s | -50.2°C | 1.4% | 138.4hPa | 2.7V | 00:00:00 | 00:00:00 | 00:00:00 | |
| DM0DOS-11 | 2026-09-01 17:29:46 | 52.17290 | 14.81404 | 97° | 60km/h | 14390m | 5.2m/s | -50.2°C | 3.7% | 138.7hPa | 2.7V | 08:30:00 | 01:20:08 | 00:00:00 | |
| DF8AY | 2026-09-01 17:29:46 | 52.17288 | 14.81429 | 98° | 60km/h | 14395m | 6m/s | -50.2°C | 0.6% | 138.6hPa | 2.8V | 18:12:15 | 01:20:09 | 00:00:00 | |
| DL1XH1-15 | 2026-09-01 17:29:45 | 52.17296 | 14.81331 | 96° | 60km/h | 14374m | 5.3m/s | 0°C | 0% | 0hPa | 2.8V | 00:00:00 | 01:20:05 | 00:00:00 | |
| AA1-15 | 2026-09-01 17:29:43 | 52.17294 | 14.81355 | 98° | 60km/h | 14380m | 6.4m/s | -50.2°C | 0.7% | 138.9hPa | 2.7V | 18:12:15 | 01:20:06 | 00:00:00 | |
| DB0DAN | 2026-09-01 17:29:40 | 52.17299 | 14.81282 | 94° | 57km/h | 14363m | 6.3m/s | -50.3°C | 1.4% | 139.27hPa | 2.8V | 00:00:00 | 00:00:00 | 00:00:00 | |
| DL2RXE-15 | 2026-09-01 17:29:38 | 52.17300 | 14.81233 | 94° | 58km/h | 14352m | 4.7m/s | -50.2°C | 1.4% | 139.5hPa | 2.8V | 00:00:00 | 00:00:00 | 00:00:00 | |
| DM0DOS-11 | 2026-09-01 17:29:36 | 52.17303 | 14.81162 | 94° | 58km/h | 14337m | 5.9m/s | -50.1°C | 3.8% | 139.9hPa | 2.8V | 08:30:00 | 01:19:58 | 00:00:00 | |
| DF8AY | 2026-09-01 17:29:36 | 52.17302 | 14.81186 | 93° | 57km/h | 14342m | 4.2m/s | -50.1°C | 0.6% | 139.8hPa | 2.8V | 18:12:15 | 01:19:59 | 00:00:00 | |
| AA1-15 | 2026-09-01 17:29:32 | 52.17306 | 14.81090 | 93° | 58km/h | 14322m | 3.7m/s | -50°C | 0.7% | 140.2hPa | 2.7V | 18:12:15 | 01:19:55 | 00:00:00 | |
| SONDE2-11 | 2026-09-01 17:29:31 | 52.17306 | 14.81066 | 92° | 60km/h | 14318m | 5.0m/s | -50.0°C | 1.4% | 140.2hPa | 2.7V | 00:00:00 | 00:00:00 | 00:00:00 | |
| KRY50SP-1 | 2026-09-01 17:29:30 | 52.17306 | 14.81066 | 94° | 60km/h | 14318m | 5.0m/s | -50.0°C | 1.4% | 140.2hPa | 2.7V | 00:00:00 | 00:00:00 | 00:00:00 | |
| DB0NH | 2026-09-01 17:29:29 | 52.17308 | 14.81016 | 96° | 62km/h | 14308m | 5.8m/s | -50.0°C | 3.7% | 140.4hPa | 2.7V | 00:00:00 | 01:19:52 | 00:00:00 | |
| DAC517 | 2026-09-01 17:29:27 | 52.17310 | 14.80991 | 97° | 60km/h | 14303m | 3.8m/s | -50.0°C | 1.4% | 140.6hPa | 2.7V | 00:00:00 | 00:00:00 | 00:00:00 | |
| DB0DAN | 2026-09-01 17:29:25 | 52.17315 | 14.80917 | 97° | 57km/h | 14288m | 6.3m/s | -50°C | 1.4% | 140.94hPa | 2.7V | 00:00:00 | 00:00:00 | 00:00:00 | |
| DF8AY | 2026-09-01 17:29:25 | 52.17315 | 14.80917 | 97° | 58km/h | 14288m | 6.3m/s | -50°C | 0.7% | 140.9hPa | 2.7V | 18:12:15 | 01:19:48 | 00:00:00 | |
| EDDB2-11 | 2026-09-01 17:29:23 | 52.17318 | 14.80870 | 96° | 57km/h | 14278m | 5.2m/s | -49.9°C | 1.4% | 141.1hPa | 2.8V | 00:00:00 | 00:00:00 | 00:00:00 | |
| DL1XH1-15 | 2026-09-01 17:29:21 | 52.17327 | 14.80726 | 95° | 60km/h | 14247m | 4.1m/s | 0°C | 0% | 0hPa | 2.8V | 00:00:00 | 01:19:40 | 00:00:00 | |
| AA1-15 | 2026-09-01 17:29:21 | 52.17321 | 14.80822 | 95° | 58km/h | 14267m | 5.1m/s | -49.9°C | 0.6% | 141.3hPa | 2.7V | 18:12:15 | 01:19:44 | 00:00:00 | |
| KRY50SP-1 | 2026-09-01 17:29:20 | 52.17321 | 14.80822 | 96° | 58km/h | 14267m | 5.1m/s | -49.9°C | 1.4% | 141.3hPa | 2.8V | 00:00:00 | 00:00:00 | 00:00:00 | |
| DM0DOS-11 | 2026-09-01 17:29:16 | 52.17337 | 14.80575 | 97° | 60km/h | 14216m | 5m/s | -49.6°C | 3.7% | 142.4hPa | 2.8V | 08:30:00 | 01:19:34 | 00:00:00 | |
| DF8AY | 2026-09-01 17:29:14 | 52.17331 | 14.80651 | 97° | 62km/h | 14232m | 6.1m/s | -49.8°C | 0.6% | 142.1hPa | 2.7V | 18:12:15 | 01:19:37 | 00:00:00 | |
| DB0DAN | 2026-09-01 17:29:10 | 52.17340 | 14.80550 | 98° | 58km/h | 14211m | 6.1m/s | -49.6°C | 1.4% | 142.54hPa | 2.7V | 00:00:00 | 00:00:00 | 00:00:00 | |
| AA1-15 | 2026-09-01 17:29:10 | 52.17340 | 14.80550 | 98° | 62km/h | 14211m | 6.1m/s | -49.6°C | 0.6% | 142.5hPa | 2.7V | 18:12:15 | 01:19:33 | 00:00:00 | |
| KRY50SP-1 | 2026-09-01 17:29:09 | 52.17340 | 14.80550 | 99° | 62km/h | 14211m | 6.1m/s | -49.6°C | 1.4% | 142.5hPa | 2.7V | 00:00:00 | 00:00:00 | 00:00:00 | |
| SONCRA | 2026-09-01 17:29:07 | 52.17347 | 14.80451 | 95° | 60km/h | 14190m | 6.6m/s | -49.5°C | 1.4% | 143.1hPa | 2.7V | 00:00:00 | 00:00:00 | 00:00:00 | |
| DM0DOS-11 | 2026-09-01 17:29:06 | 52.17352 | 14.80323 | 93° | 62km/h | 14164m | 4.8m/s | -49.4°C | 3.7% | 143.6hPa | 2.7V | 08:30:00 | 01:19:24 | 00:00:00 | |
| DF8AY | 2026-09-01 17:29:04 | 52.17349 | 14.80400 | 94° | 62km/h | 14180m | 6.7m/s | -49.5°C | 0.6% | 143.2hPa | 2.8V | 18:12:15 | 01:19:27 | 00:00:00 | |
| SONDE2-12 | 2026-09-01 17:29:00 | 52.17353 | 14.80298 | 92° | 62km/h | 14159m | 5.1m/s | -49.3°C | 1.5% | 143.7hPa | 2.8V | 00:00:00 | 00:00:00 | 00:00:00 | |
| AA1-15 | 2026-09-01 17:28:59 | 52.17354 | 14.80272 | 93° | 64km/h | 14153m | 6.3m/s | -49.3°C | 0.6% | 143.8hPa | 2.8V | 18:12:15 | 01:19:22 | 00:00:00 | |
| DB0NH | 2026-09-01 17:28:59 | 52.17354 | 14.80272 | 94° | 64km/h | 14153m | 6.2m/s | -49.3°C | 3.6% | 143.8hPa | 2.7V | 00:00:00 | 01:19:22 | 00:00:00 | |
| DL1XH1-15 | 2026-09-01 17:28:57 | 52.17359 | 14.80120 | 91° | 62km/h | 14122m | 6.2m/s | 0°C | 0% | 0hPa | 2.7V | 00:00:00 | 01:19:16 | 00:00:00 | |
| EDDB2-12 | 2026-09-01 17:28:56 | 52.17357 | 14.80196 | 92° | 58km/h | 14138m | 3.4m/s | -49.2°C | 1.3% | 144.2hPa | 2.8V | 00:00:00 | 00:00:00 | 00:00:00 | |
| DB0DAN | 2026-09-01 17:28:55 | 52.17358 | 14.80171 | 94° | 58km/h | 14133m | 6.1m/s | -49.2°C | 1.4% | 144.3hPa | 2.8V | 00:00:00 | 00:00:00 | 00:00:00 | |
| DF8AY | 2026-09-01 17:28:53 | 52.17359 | 14.80120 | 92° | 62km/h | 14122m | 6.2m/s | -49.2°C | 0.5% | 144.5hPa | 2.7V | 18:12:15 | 01:19:16 | 00:00:00 | |
| AA1-15 | 2026-09-01 17:28:47 | 52.17360 | 14.79959 | 90° | 68km/h | 14091m | 5.9m/s | -49°C | 0.6% | 145.2hPa | 2.7V | 18:12:15 | 01:19:10 | 00:00:00 | |
| DF8AY | 2026-09-01 17:28:42 | 52.17359 | 14.79825 | 90° | 64km/h | 14065m | 3m/s | -48.9°C | 0.6% | 145.8hPa | 2.7V | 18:12:15 | 01:19:05 | 00:00:00 | |
| DB0DAN | 2026-09-01 17:28:40 | 52.17358 | 14.79774 | 86° | 60km/h | 14056m | 4.6m/s | -48.9°C | 1.4% | 145.96hPa | 2.7V | 00:00:00 | 00:00:00 | 00:00:00 | |
| AA1-15 | 2026-09-01 17:28:36 | 52.17355 | 14.79672 | 87° | 62km/h | 14035m | 3.6m/s | -48.8°C | 0.5% | 146.4hPa | 2.7V | 18:12:15 | 01:18:59 | 00:00:00 | |
| DM0DOS-11 | 2026-09-01 17:28:35 | 52.17352 | 14.79513 | 88° | 66km/h | 14006m | 6m/s | -49.1°C | 3.4% | 147.1hPa | 2.7V | 08:30:00 | 01:18:53 | 00:00:00 | |
| DF8AY | 2026-09-01 17:28:31 | 52.17352 | 14.79540 | 88° | 66km/h | 14012m | 4m/s | -49.1°C | 0.5% | 147hPa | 2.8V | 18:12:15 | 01:18:54 | 00:00:00 | |
| DB0NH | 2026-09-01 17:28:29 | 52.17351 | 14.79485 | 90° | 66km/h | 14002m | 4.0m/s | -49.1°C | 3.4% | 147.2hPa | 2.7V | 00:00:00 | 01:18:52 | 00:00:00 | |
| S3001 | 2026-09-01 17:28:28 | 52.17351 | 14.79458 | 88° | 66km/h | 13997m | 5.4m/s | -49.2°C | 1.3% | 147.3hPa | 2.8V | 00:00:00 | 00:00:00 | 00:00:00 | |
| DB0DAN | 2026-09-01 17:28:25 | 52.17350 | 14.79377 | 90° | 62km/h | 13982m | 4.7m/s | -49.3°C | 1.4% | 147.62hPa | 2.8V | 00:00:00 | 00:00:00 | 00:00:00 | |
| DM0DOS-11 | 2026-09-01 17:28:25 | 52.17347 | 14.79255 | 86° | 58km/h | 13958m | 4.8m/s | -49.5°C | 3.5% | 148.2hPa | 2.8V | 08:30:00 | 01:18:43 | 00:00:00 | |
| AA1-15 | 2026-09-01 17:28:25 | 52.17350 | 14.79377 | 90° | 64km/h | 13982m | 4.7m/s | -49.3°C | 0.5% | 147.6hPa | 2.8V | 18:12:15 | 01:18:48 | 00:00:00 | |
| DF8AY | 2026-09-01 17:28:21 | 52.17347 | 14.79278 | 87° | 58km/h | 13963m | 4.7m/s | -49.5°C | 0.5% | 148.1hPa | 2.8V | 18:12:15 | 01:18:44 | 00:00:00 | |
| SP3BTT-10 | 2026-09-01 17:28:17 | 52.17341 | 14.79181 | 84° | 64km/h | 13943m | 5.5m/s | -49.6°C | 3.6% | 148.5hPa | 2.7V | 00:00:00 | 00:00:00 | 00:00:00 | |
| DM0DOS-11 | 2026-09-01 17:28:15 | 52.17322 | 14.78985 | 80° | 68km/h | 13907m | 4.5m/s | -50.3°C | 3.8% | 149.3hPa | 2.7V | 08:30:00 | 01:18:33 | 00:00:00 | |
| AA1-15 | 2026-09-01 17:28:14 | 52.17334 | 14.79098 | 80° | 69km/h | 13928m | 4.7m/s | -50.3°C | 0.7% | 148.8hPa | 2.8V | 18:12:15 | 01:18:37 | 00:00:00 | |
| DF8AY | 2026-09-01 17:28:11 | 52.17325 | 14.79013 | 80° | 69km/h | 13912m | 5.7m/s | -50.3°C | 0.6% | 149.2hPa | 2.7V | 18:12:15 | 01:18:34 | 00:00:00 | |
| DB0DAN | 2026-09-01 17:28:10 | 52.17322 | 14.78985 | 81° | 66km/h | 13907m | 4.5m/s | -50.3°C | 1.5% | 149.32hPa | 2.7V | 00:00:00 | 00:00:00 | 00:00:00 | |
| 13BRC | 2026-09-01 17:28:07 | 52.17315 | 14.78902 | 83° | 68km/h | 13892m | 5.1m/s | -50.4°C | 1.5% | 149.7hPa | 2.8V | 00:00:00 | 00:00:00 | 00:00:00 | |
| DAC517 | 2026-09-01 17:28:06 | 52.17315 | 14.78902 | 83° | 68km/h | 13892m | 5.1m/s | -50.4°C | 1.5% | 149.7hPa | 2.8V | 00:00:00 | 00:00:00 | 00:00:00 | |
| DM0DOS-11 | 2026-09-01 17:28:05 | 52.17306 | 14.78704 | 89° | 71km/h | 13855m | 4.2m/s | -50.3°C | 3.7% | 150.5hPa | 2.8V | 08:30:00 | 01:18:23 | 00:00:00 | |
| AA1-15 | 2026-09-01 17:28:03 | 52.17309 | 14.78791 | 85° | 68km/h | 13871m | 5.1m/s | -50.3°C | 0.7% | 150.2hPa | 2.7V | 18:12:15 | 01:18:26 | 00:00:00 | |
| DF8AY | 2026-09-01 17:28:00 | 52.17306 | 14.78704 | 89° | 71km/h | 13855m | 4.3m/s | -50.3°C | 0.7% | 150.5hPa | 2.8V | 18:12:15 | 01:18:23 | 00:00:00 | |
| SONDE2-11 | 2026-09-01 17:27:58 | 52.17306 | 14.78618 | 92° | 68km/h | 13840m | 6.8m/s | -50.6°C | 1.5% | 150.9hPa | 2.7V | 00:00:00 | 00:00:00 | 00:00:00 | |
| S3001 | 2026-09-01 17:27:57 | 52.17306 | 14.78618 | 92° | 68km/h | 13840m | 6.8m/s | -50.6°C | 1.5% | 150.9hPa | 2.7V | 00:00:00 | 00:00:00 | 00:00:00 | |
| DM0DOS-11 | 2026-09-01 17:27:55 | 52.17316 | 14.78436 | 95° | 62km/h | 13806m | 4.1m/s | -50.5°C | 3.9% | 151.7hPa | 2.7V | 08:30:00 | 01:18:13 | 00:00:00 | |
| DB0DAN | 2026-09-01 17:27:55 | 52.17308 | 14.78563 | 94° | 62km/h | 13830m | 5.8m/s | -50.5°C | 1.6% | 151.13hPa | 2.7V | 00:00:00 | 00:00:00 | 00:00:00 | |
| AA1-15 | 2026-09-01 17:27:52 | 52.17312 | 14.78486 | 97° | 62km/h | 13817m | 4.6m/s | -50.5°C | 0.7% | 151.5hPa | 2.8V | 18:12:15 | 01:18:15 | 00:00:00 | |
| DF8AY | 2026-09-01 17:27:49 | 52.17317 | 14.78410 | 96° | 62km/h | 13802m | 5.7m/s | -50.5°C | 0.7% | 151.8hPa | 2.8V | 18:12:15 | 01:18:12 | 00:00:00 | |
| KRY50SP-1 | 2026-09-01 17:27:47 | 52.17319 | 14.78384 | 97° | 64km/h | 13797m | 4.1m/s | -50.4°C | 1.5% | 151.9hPa | 2.7V | 00:00:00 | 00:00:00 | 00:00:00 | |
| DM0DOS-11 | 2026-09-01 17:27:45 | 52.17327 | 14.78174 | 91° | 62km/h | 13757m | 4.8m/s | -50.2°C | 3.8% | 152.8hPa | 2.7V | 08:30:00 | 01:18:03 | 00:00:00 | |
| AA1-15 | 2026-09-01 17:27:41 | 52.17327 | 14.78200 | 92° | 64km/h | 13763m | 7m/s | -50.3°C | 0.8% | 152.7hPa | 2.7V | 18:12:15 | 01:18:04 | 00:00:00 | |
| DB0DAN | 2026-09-01 17:27:40 | 52.17327 | 14.78174 | 92° | 60km/h | 13757m | 4.8m/s | -50.2°C | 1.5% | 152.8hPa | 2.7V | 00:00:00 | 00:00:00 | 00:00:00 | |
| DL2RXE-15 | 2026-09-01 17:27:39 | 52.17327 | 14.78174 | 93° | 62km/h | 13758m | 4.8m/s | -50.2°C | 1.5% | 152.8hPa | 2.8V | 00:00:00 | 00:00:00 | 00:00:00 | |
| DM0DOS-11 | 2026-09-01 17:27:35 | 52.17338 | 14.77913 | 92° | 66km/h | 13706m | 4m/s | -50.1°C | 3.8% | 154hPa | 2.8V | 08:30:00 | 01:17:53 | 00:00:00 | |
| AA1-15 | 2026-09-01 17:27:30 | 52.17338 | 14.77913 | 92° | 66km/h | 13706m | 4m/s | -50.1°C | 0.8% | 154hPa | 2.8V | 18:12:15 | 01:17:53 | 00:00:00 | |
| KRY50SP-1 | 2026-09-01 17:27:29 | 52.17338 | 14.77913 | 93° | 66km/h | 13706m | 4.0m/s | -50.1°C | 1.5% | 154.0hPa | 2.8V | 00:00:00 | 00:00:00 | 00:00:00 | |
| DB0NH | 2026-09-01 17:27:28 | 52.17339 | 14.77859 | 91° | 68km/h | 13695m | 4.6m/s | -50.0°C | 3.8% | 154.2hPa | 2.8V | 00:00:00 | 01:17:51 | 00:00:00 | |
| SONDE2-11 | 2026-09-01 17:27:27 | 52.17339 | 14.77804 | 90° | 66km/h | 13686m | 4.0m/s | -50.0°C | 1.5% | 154.5hPa | 2.8V | 00:00:00 | 00:00:00 | 00:00:00 | |
| S3001 | 2026-09-01 17:27:26 | 52.17339 | 14.77804 | 90° | 66km/h | 13686m | 4.0m/s | -50.0°C | 1.5% | 154.5hPa | 2.8V | 00:00:00 | 00:00:00 | 00:00:00 | |
| DM0DOS-11 | 2026-09-01 17:27:25 | 52.17345 | 14.77638 | 94° | 68km/h | 13657m | 6m/s | -50°C | 3.8% | 155.2hPa | 2.8V | 08:30:00 | 01:17:43 | 00:00:00 | |
| DB0DAN | 2026-09-01 17:27:25 | 52.17340 | 14.77777 | 93° | 64km/h | 13681m | 5m/s | -50°C | 1.5% | 154.61hPa | 2.8V | 00:00:00 | 00:00:00 | 00:00:00 | |
| DAC517 | 2026-09-01 17:27:24 | 52.17340 | 14.77777 | 94° | 66km/h | 13681m | 5.0m/s | -50.0°C | 1.5% | 154.6hPa | 2.7V | 00:00:00 | 00:00:00 | 00:00:00 | |
| EDDB2-12 | 2026-09-01 17:27:23 | 52.17343 | 14.77693 | 93° | 68km/h | 13666m | 4.8m/s | -49.9°C | 1.5% | 154.9hPa | 2.7V | 00:00:00 | 00:00:00 | 00:00:00 | |
| EDDB2-11 | 2026-09-01 17:27:19 | 52.17347 | 14.77610 | 94° | 68km/h | 13652m | 3.9m/s | -50.0°C | 1.5% | 155.3hPa | 2.7V | 00:00:00 | 00:00:00 | 00:00:00 | |
| DF8AY | 2026-09-01 17:27:19 | 52.17347 | 14.77610 | 94° | 68km/h | 13652m | 3.9m/s | -50°C | 0.8% | 155.3hPa | 2.8V | 18:12:15 | 01:17:42 | 00:00:00 | |
| KRY50SP-1 | 2026-09-01 17:27:18 | 52.17347 | 14.77610 | 95° | 68km/h | 13652m | 3.9m/s | -50.0°C | 1.5% | 155.3hPa | 2.7V | 00:00:00 | 00:00:00 | 00:00:00 | |
| DM0DOS-11 | 2026-09-01 17:27:15 | 52.17366 | 14.77360 | 100° | 71km/h | 13607m | 5.8m/s | -49.9°C | 3.7% | 156.3hPa | 2.7V | 08:30:00 | 01:17:33 | 00:00:00 | |
| KRY50SP-1 | 2026-09-01 17:27:13 | 52.17355 | 14.77473 | 98° | 68km/h | 13627m | 4.9m/s | -50.0°C | 1.5% | 155.9hPa | 2.7V | 00:00:00 | 00:00:00 | 00:00:00 | |
| DB0DAN | 2026-09-01 17:27:10 | 52.17366 | 14.77360 | 101° | 68km/h | 13607m | 5.8m/s | -49.9°C | 1.5% | 156.31hPa | 2.7V | 00:00:00 | 00:00:00 | 00:00:00 | |
| DF8AY | 2026-09-01 17:27:07 | 52.17377 | 14.77275 | 100° | 71km/h | 13593m | 4.4m/s | -50°C | 0.9% | 156.7hPa | 2.8V | 18:12:15 | 01:17:30 | 00:00:00 | |
| DM0DOS-11 | 2026-09-01 17:27:05 | 52.17391 | 14.77081 | 96° | 69km/h | 13558m | 6.3m/s | -49.9°C | 3.8% | 157.5hPa | 2.8V | 08:30:00 | 01:17:23 | 00:00:00 | |
| AA1-15 | 2026-09-01 17:26:59 | 52.17393 | 14.77052 | 97° | 73km/h | 13553m | 3.5m/s | -49.9°C | 0.8% | 157.6hPa | 2.7V | 18:12:15 | 01:17:22 | 00:00:00 | |
| SONDE2-11 | 2026-09-01 17:26:56 | 52.17402 | 14.76930 | 94° | 75km/h | 13535m | 4.4m/s | -49.8°C | 1.6% | 158.0hPa | 2.8V | 00:00:00 | 00:00:00 | 00:00:00 | |
| DM0DOS-11 | 2026-09-01 17:26:55 | 52.17408 | 14.76780 | 92° | 71km/h | 13508m | 4.5m/s | -49.9°C | 3.8% | 158.7hPa | 2.8V | 08:30:00 | 01:17:13 | 00:00:00 | |
| DB0DAN | 2026-09-01 17:26:55 | 52.17402 | 14.76930 | 95° | 73km/h | 13535m | 4.4m/s | -49.8°C | 1.6% | 158.04hPa | 2.8V | 00:00:00 | 00:00:00 | 00:00:00 | |
| DF8AY | 2026-09-01 17:26:47 | 52.17409 | 14.76688 | 92° | 77km/h | 13495m | 2.9m/s | -49.9°C | 0.9% | 159.1hPa | 2.7V | 18:12:15 | 01:17:10 | 00:00:00 | |
| SP3BTT-10 | 2026-09-01 17:26:47 | 52.17409 | 14.76688 | 92° | 73km/h | 13496m | 2.8m/s | -49.9°C | 3.8% | 159.0hPa | 2.7V | 00:00:00 | 00:00:00 | 00:00:00 | |
| KRY50SP-1 | 2026-09-01 17:26:46 | 52.17409 | 14.76688 | 92° | 77km/h | 13496m | 2.9m/s | -49.9°C | 1.6% | 159.1hPa | 2.7V | 00:00:00 | 00:00:00 | 00:00:00 | |
| DM0DOS-11 | 2026-09-01 17:26:45 | 52.17412 | 14.76467 | 88° | 78km/h | 13461m | 6.5m/s | -49.8°C | 3.7% | 159.9hPa | 2.7V | 08:30:00 | 01:17:03 | 00:00:00 | |
| DAC517 | 2026-09-01 17:26:43 | 52.17411 | 14.76594 | 93° | 77km/h | 13481m | 5.9m/s | -49.9°C | 1.6% | 159.4hPa | 2.7V | 00:00:00 | 00:00:00 | 00:00:00 | |
| 13BRC | 2026-09-01 17:26:42 | 52.17412 | 14.76562 | 91° | 78km/h | 13476m | 3.9m/s | -49.9°C | 1.6% | 159.5hPa | 2.7V | 00:00:00 | 00:00:00 | 00:00:00 | |
| DB0DAN | 2026-09-01 17:26:40 | 52.17412 | 14.76467 | 89° | 75km/h | 13461m | 6.5m/s | -49.8°C | 1.6% | 159.89hPa | 2.7V | 00:00:00 | 00:00:00 | 00:00:00 | |
| AA1-15 | 2026-09-01 17:26:37 | 52.17410 | 14.76373 | 87° | 75km/h | 13447m | 4.1m/s | -49.8°C | 0.8% | 160.3hPa | 2.8V | 18:12:15 | 01:17:00 | 00:00:00 | |
| DF8AY | 2026-09-01 17:26:34 | 52.17406 | 14.76282 | 87° | 73km/h | 13431m | 6.2m/s | -49.7°C | 0.9% | 160.6hPa | 2.7V | 18:12:15 | 01:16:57 | 00:00:00 | |
| AA1-15 | 2026-09-01 17:26:26 | 52.17393 | 14.76039 | 82° | 73km/h | 13391m | 5.2m/s | -50.1°C | 1% | 161.6hPa | 2.8V | 18:12:15 | 01:16:49 | 00:00:00 | |
| DB0DAN | 2026-09-01 17:26:25 | 52.17390 | 14.76009 | 80° | 69km/h | 13385m | 5.3m/s | -50.1°C | 1.7% | 161.75hPa | 2.8V | 00:00:00 | 00:00:00 | 00:00:00 | |
| DM0DOS-11 | 2026-09-01 17:26:25 | 52.17375 | 14.75865 | 81° | 71km/h | 13361m | 3.9m/s | -50.2°C | 4% | 162.3hPa | 2.8V | 08:30:00 | 01:16:43 | 00:00:00 | |
| DF8AY | 2026-09-01 17:26:22 | 52.17381 | 14.75923 | 80° | 71km/h | 13371m | 4.8m/s | -50.2°C | 1.1% | 162.1hPa | 2.7V | 18:12:15 | 01:16:45 | 00:00:00 | |
| SP6BVK | 2026-09-01 17:26:21 | 52.17381 | 14.75923 | 81° | 71km/h | 13371m | 4.8m/s | -50.2°C | 1.7% | 162.1hPa | 2.7V | 00:00:00 | 00:00:00 | 00:00:00 | |
| KRY50SP-1 | 2026-09-01 17:26:20 | 52.17378 | 14.75894 | 81° | 73km/h | 13366m | 5.3m/s | -50.2°C | 1.7% | 162.2hPa | 2.7V | 00:00:00 | 00:00:00 | 00:00:00 | |
| EDDB2-11 | 2026-09-01 17:26:17 | 52.17365 | 14.75749 | 81° | 73km/h | 13342m | 3.9m/s | -50.3°C | 1.8% | 162.8hPa | 2.7V | 00:00:00 | 00:00:00 | 00:00:00 | |
| DM0DOS-11 | 2026-09-01 17:26:15 | 52.17350 | 14.75571 | 83° | 73km/h | 13313m | 5.5m/s | -50.3°C | 4.1% | 163.5hPa | 2.7V | 08:30:00 | 01:16:33 | 00:00:00 | |
| AA1-15 | 2026-09-01 17:26:15 | 52.17362 | 14.75720 | 81° | 73km/h | 13337m | 5.6m/s | -50.3°C | 1.2% | 163hPa | 2.7V | 18:12:15 | 01:16:38 | 00:00:00 | |
| KRY50SP-1 | 2026-09-01 17:26:10 | 52.17351 | 14.75601 | 84° | 73km/h | 13318m | 4.5m/s | -50.3°C | 1.8% | 163.4hPa | 2.8V | 00:00:00 | 00:00:00 | 00:00:00 | |
| DB0DAN | 2026-09-01 17:26:10 | 52.17350 | 14.75571 | 84° | 69km/h | 13313m | 5.5m/s | -50.3°C | 1.8% | 163.54hPa | 2.7V | 00:00:00 | 00:00:00 | 00:00:00 | |
| DM0DOS-11 | 2026-09-01 17:26:05 | 52.17331 | 14.75278 | 84° | 68km/h | 13266m | 6.5m/s | -50.1°C | 4% | 164.8hPa | 2.8V | 08:30:00 | 01:16:23 | 00:00:00 | |
| DF8AY | 2026-09-01 17:26:04 | 52.17338 | 14.75392 | 83° | 71km/h | 13285m | 6m/s | -50.1°C | 1.2% | 164.3hPa | 2.7V | 18:12:15 | 01:16:27 | 00:00:00 | |
| AA1-15 | 2026-09-01 17:26:02 | 52.17334 | 14.75335 | 84° | 69km/h | 13276m | 5.8m/s | -50.1°C | 1.2% | 164.5hPa | 2.8V | 18:12:15 | 01:16:25 | 00:00:00 | |
| DF8AY | 2026-09-01 17:25:58 | 52.17319 | 14.75087 | 82° | 64km/h | 13231m | 4.7m/s | -50.6°C | 1.4% | 165.6hPa | 2.7V | 18:12:15 | 01:16:16 | 00:00:00 | |
| SP3WXH-11 | 2026-09-01 17:25:57 | 52.17327 | 14.75194 | 85° | 66km/h | 13250m | 3.9m/s | -50.3°C | 1.8% | 165.2hPa | 2.8V | 00:00:00 | 00:00:00 | 00:00:00 | |
| DB0NH | 2026-09-01 17:25:56 | 52.17325 | 14.75167 | 85° | 62km/h | 13246m | 5.9m/s | -50.3°C | 4.1% | 165.2hPa | 2.8V | 00:00:00 | 01:16:19 | 00:00:00 | |
| DM0DOS-11 | 2026-09-01 17:25:55 | 52.17311 | 14.75009 | 79° | 66km/h | 13217m | 4.7m/s | -50.6°C | 4.3% | 166hPa | 2.8V | 08:30:00 | 01:16:13 | 00:00:00 | |
| DB0DAN | 2026-09-01 17:25:55 | 52.17323 | 14.75140 | 83° | 62km/h | 13241m | 3.7m/s | -50.4°C | 1.9% | 165.39hPa | 2.8V | 00:00:00 | 00:00:00 | 00:00:00 | |
| SONDE2-12 | 2026-09-01 17:25:54 | 52.17321 | 14.75113 | 83° | 66km/h | 13236m | 5.6m/s | -50.5°C | 2.0% | 165.6hPa | 2.7V | 00:00:00 | 00:00:00 | 00:00:00 | |
| AA1-15 | 2026-09-01 17:25:46 | 52.17298 | 14.74905 | 79° | 64km/h | 13198m | 3.8m/s | -50.7°C | 1.6% | 166.5hPa | 2.7V | 18:12:15 | 01:16:09 | 00:00:00 | |
| EDDB2-11 | 2026-09-01 17:25:46 | 52.17295 | 14.74880 | 78° | 62km/h | 13194m | 4.1m/s | -50.8°C | 2.0% | 166.6hPa | 2.7V | 00:00:00 | 00:00:00 | 00:00:00 | |
| DM0DOS-11 | 2026-09-01 17:25:45 | 52.17281 | 14.74756 | 78° | 60km/h | 13171m | 6m/s | -50.8°C | 4.5% | 167.2hPa | 2.7V | 08:30:00 | 01:16:03 | 00:00:00 | |
| DF8AY | 2026-09-01 17:25:43 | 52.17289 | 14.74830 | 79° | 60km/h | 13185m | 3.8m/s | -50.9°C | 1.6% | 166.8hPa | 2.8V | 18:12:15 | 01:16:06 | 00:00:00 | |
| DB0DAN | 2026-09-01 17:25:40 | 52.17281 | 14.74756 | 79° | 58km/h | 13171m | 6m/s | -50.8°C | 2.1% | 167.18hPa | 2.7V | 00:00:00 | 00:00:00 | 00:00:00 | |
| SP6BVK | 2026-09-01 17:25:39 | 52.17280 | 14.74756 | 80° | 60km/h | 13171m | 6.0m/s | -50.8°C | 2.1% | 167.2hPa | 2.8V | 00:00:00 | 00:00:00 | 00:00:00 | |
| DM0DOS-11 | 2026-09-01 17:25:35 | 52.17260 | 14.74506 | 86° | 62km/h | 13125m | 4.6m/s | -50.8°C | 4.3% | 168.4hPa | 2.8V | 08:30:00 | 01:15:53 | 00:00:00 | |
| DF8AY | 2026-09-01 17:25:32 | 52.17262 | 14.74557 | 84° | 60km/h | 13135m | 4.7m/s | -50.7°C | 1.7% | 168.1hPa | 2.8V | 18:12:15 | 01:15:55 | 00:00:00 | |
| AA1-15 | 2026-09-01 17:25:31 | 52.17261 | 14.74532 | 86° | 62km/h | 13130m | 5.4m/s | -50.8°C | 1.7% | 168.3hPa | 2.8V | 18:12:15 | 01:15:54 | 00:00:00 | |
| SONCRA | 2026-09-01 17:25:29 | 52.17259 | 14.74481 | 86° | 62km/h | 13120m | 5.6m/s | -50.9°C | 2.1% | 168.5hPa | 2.8V | 00:00:00 | 00:00:00 | 00:00:00 | |
| KRY50SP-1 | 2026-09-01 17:25:28 | 52.17259 | 14.74480 | 88° | 62km/h | 13120m | 5.6m/s | -50.9°C | 2.1% | 168.5hPa | 2.8V | 00:00:00 | 00:00:00 | 00:00:00 | |
| DB0DAN | 2026-09-01 17:25:25 | 52.17256 | 14.74376 | 87° | 62km/h | 13102m | 4.5m/s | -50.9°C | 2.2% | 168.97hPa | 2.8V | 00:00:00 | 00:00:00 | 00:00:00 | |
| SONDE2-12 | 2026-09-01 17:25:23 | 52.17254 | 14.74322 | 87° | 66km/h | 13093m | 4.5m/s | -51.0°C | 2.4% | 169.2hPa | 2.7V | 00:00:00 | 00:00:00 | 00:00:00 | |
| DF8AY | 2026-09-01 17:25:21 | 52.17252 | 14.74267 | 87° | 66km/h | 13084m | 6.2m/s | -51.1°C | 2% | 169.4hPa | 2.7V | 18:12:15 | 01:15:44 | 00:00:00 | |
| AA1-15 | 2026-09-01 17:25:16 | 52.17246 | 14.74130 | 85° | 66km/h | 13059m | 3.4m/s | -51.4°C | 2.2% | 170.1hPa | 2.7V | 18:12:15 | 01:15:39 | 00:00:00 | |
| DF8AY | 2026-09-01 17:25:11 | 52.17243 | 14.73993 | 90° | 68km/h | 13036m | 6m/s | -51.6°C | 2.3% | 170.7hPa | 2.7V | 18:12:15 | 01:15:34 | 00:00:00 | |
| DB0DAN | 2026-09-01 17:25:10 | 52.17243 | 14.73966 | 90° | 64km/h | 13031m | 4.3m/s | -51.7°C | 2.4% | 170.78hPa | 2.7V | 00:00:00 | 00:00:00 | 00:00:00 | |
| DM0DOS-11 | 2026-09-01 17:25:05 | 52.17240 | 14.73673 | 92° | 73km/h | 12984m | 5.8m/s | -52.5°C | 5.4% | 172hPa | 2.8V | 08:30:00 | 01:15:23 | 00:00:00 | |
| AA1-15 | 2026-09-01 17:25:05 | 52.17240 | 14.73824 | 88° | 71km/h | 13007m | 4.7m/s | -52°C | 2.5% | 171.4hPa | 2.7V | 18:12:15 | 01:15:28 | 00:00:00 | |
| DF8AY | 2026-09-01 17:25:00 | 52.17240 | 14.73673 | 92° | 73km/h | 12984m | 5.8m/s | -52.5°C | 2.8% | 172.1hPa | 2.8V | 18:12:15 | 01:15:23 | 00:00:00 | |
| SONCRA | 2026-09-01 17:24:58 | 52.17242 | 14.73613 | 92° | 71km/h | 12974m | 5.4m/s | -52.6°C | 2.8% | 172.3hPa | 2.8V | 00:00:00 | 00:00:00 | 00:00:00 | |
| DB0DAN | 2026-09-01 17:24:55 | 52.17245 | 14.73522 | 95° | 71km/h | 12959m | 3.9m/s | -52.7°C | 2.8% | 172.73hPa | 2.8V | 00:00:00 | 00:00:00 | 00:00:00 | |
| DM0DOS-11 | 2026-09-01 17:24:55 | 52.17251 | 14.73368 | 93° | 75km/h | 12938m | 2m/s | -52.8°C | 5.5% | 173.3hPa | 2.8V | 08:30:00 | 01:15:13 | 00:00:00 | |
| AA1-15 | 2026-09-01 17:24:55 | 52.17245 | 14.73522 | 95° | 75km/h | 12959m | 3.9m/s | -52.7°C | 2.9% | 172.7hPa | 2.8V | 18:12:15 | 01:15:18 | 00:00:00 | |
| SONDE2-12 | 2026-09-01 17:24:52 | 52.17249 | 14.73430 | 93° | 75km/h | 12948m | 2.9m/s | -52.7°C | 3.0% | 173.0hPa | 2.8V | 00:00:00 | 00:00:00 | 00:00:00 | |
| DF8AY | 2026-09-01 17:24:50 | 52.17251 | 14.73368 | 93° | 75km/h | 12939m | 2m/s | -52.8°C | 2.9% | 173.3hPa | 2.8V | 18:12:15 | 01:15:13 | 00:00:00 | |
| EDDB2-12 | 2026-09-01 17:24:48 | 52.17253 | 14.73277 | 92° | 75km/h | 12925m | 6.0m/s | -52.8°C | 2.9% | 173.6hPa | 2.7V | 00:00:00 | 00:00:00 | 00:00:00 | |
| DL2RXE-15 | 2026-09-01 17:24:47 | 52.17253 | 14.73307 | 92° | 75km/h | 12930m | 3.9m/s | -52.8°C | 2.9% | 173.5hPa | 2.7V | 00:00:00 | 00:00:00 | 00:00:00 | |
| DM0DOS-11 | 2026-09-01 17:24:45 | 52.17255 | 14.73048 | 87° | 82km/h | 12892m | 3.4m/s | -52.6°C | 5.6% | 174.5hPa | 2.7V | 08:30:00 | 01:15:03 | 00:00:00 | |
| AA1-15 | 2026-09-01 17:24:44 | 52.17255 | 14.73182 | 91° | 78km/h | 12909m | 4.2m/s | -52.7°C | 3% | 174hPa | 2.8V | 18:12:15 | 01:15:07 | 00:00:00 | |
| KRY50SP-1 | 2026-09-01 17:24:43 | 52.17255 | 14.73182 | 92° | 78km/h | 12910m | 4.2m/s | -52.7°C | 2.9% | 174.0hPa | 2.7V | 00:00:00 | 00:00:00 | 00:00:00 | |
| DB0DAN | 2026-09-01 17:24:40 | 52.17255 | 14.73048 | 87° | 78km/h | 12892m | 3.4m/s | -52.6°C | 3% | 174.54hPa | 2.7V | 00:00:00 | 00:00:00 | 00:00:00 | |
| DF8AY | 2026-09-01 17:24:39 | 52.17254 | 14.73015 | 88° | 80km/h | 12887m | 6m/s | -52.6°C | 3.1% | 174.7hPa | 2.7V | 18:12:15 | 01:15:02 | 00:00:00 | |
| SP6BVK | 2026-09-01 17:24:38 | 52.17255 | 14.73014 | 89° | 80km/h | 12887m | 6.0m/s | -52.6°C | 3.0% | 174.7hPa | 2.8V | 00:00:00 | 00:00:00 | 00:00:00 | |
| KRY50SP-1 | 2026-09-01 17:24:37 | 52.17254 | 14.72982 | 88° | 80km/h | 12883m | 3.2m/s | -52.6°C | 3.0% | 174.8hPa | 2.8V | 00:00:00 | 00:00:00 | 00:00:00 | |
| DM0DOS-11 | 2026-09-01 17:24:35 | 52.17247 | 14.72721 | 88° | 80km/h | 12842m | 4.5m/s | -52.4°C | 5.6% | 175.8hPa | 2.8V | 08:30:00 | 01:14:53 | 00:00:00 | |
| AA1-15 | 2026-09-01 17:24:34 | 52.17249 | 14.72852 | 88° | 78km/h | 12862m | 4.5m/s | -52.4°C | 3.2% | 175.3hPa | 2.7V | 18:12:15 | 01:14:57 | 00:00:00 | |
| DF8AY | 2026-09-01 17:24:29 | 52.17246 | 14.72688 | 88° | 80km/h | 12838m | 4.1m/s | -52.4°C | 3.4% | 176hPa | 2.7V | 18:12:15 | 01:14:52 | 00:00:00 | |
| SONCRA | 2026-09-01 17:24:27 | 52.17245 | 14.72623 | 89° | 77km/h | 12829m | 4.4m/s | -52.5°C | 3.2% | 176.2hPa | 2.8V | 00:00:00 | 00:00:00 | 00:00:00 | |
| DB0NH | 2026-09-01 17:24:26 | 52.17245 | 14.72592 | 89° | 73km/h | 12824m | 4.5m/s | -52.5°C | 5.9% | 176.3hPa | 2.8V | 00:00:00 | 01:14:49 | 00:00:00 | |
| DM0DOS-11 | 2026-09-01 17:24:25 | 52.17238 | 14.72402 | 84° | 77km/h | 12796m | 5.5m/s | -52.5°C | 6.1% | 177.1hPa | 2.8V | 08:30:00 | 01:14:43 | 00:00:00 | |
| DB0DAN | 2026-09-01 17:24:25 | 52.17244 | 14.72560 | 87° | 73km/h | 12820m | 4m/s | -52.6°C | 3.3% | 176.47hPa | 2.8V | 00:00:00 | 00:00:00 | 00:00:00 | |
| AA1-15 | 2026-09-01 17:24:23 | 52.17242 | 14.72498 | 87° | 77km/h | 12810m | 3.5m/s | -52.6°C | 3.7% | 176.7hPa | 2.7V | 18:12:15 | 01:14:46 | 00:00:00 | |
| SONDE2-12 | 2026-09-01 17:24:21 | 52.17240 | 14.72434 | 84° | 77km/h | 12800m | 3.6m/s | -52.5°C | 3.5% | 177.0hPa | 2.8V | 00:00:00 | 00:00:00 | 00:00:00 | |
| DF8AY | 2026-09-01 17:24:18 | 52.17234 | 14.72339 | 83° | 78km/h | 12785m | 4.4m/s | -52.5°C | 4% | 177.4hPa | 2.8V | 18:12:15 | 01:14:41 | 00:00:00 | |
| SP6BVK | 2026-09-01 17:24:17 | 52.17234 | 14.72338 | 84° | 78km/h | 12785m | 4.4m/s | -52.5°C | 3.5% | 177.4hPa | 2.7V | 00:00:00 | 00:00:00 | 00:00:00 | |
| KRY50SP-1 | 2026-09-01 17:24:16 | 52.17231 | 14.72306 | 86° | 78km/h | 12781m | 5.4m/s | -52.6°C | 3.5% | 177.5hPa | 2.7V | 00:00:00 | 00:00:00 | 00:00:00 | |
| DM0DOS-11 | 2026-09-01 17:24:15 | 52.17221 | 14.72095 | 84° | 69km/h | 12746m | 4.6m/s | -52.8°C | 6.8% | 178.5hPa | 2.7V | 08:30:00 | 01:14:33 | 00:00:00 | |
| AA1-15 | 2026-09-01 17:24:12 | 52.17224 | 14.72153 | 86° | 71km/h | 12756m | 4.3m/s | -52.7°C | 4.4% | 178.2hPa | 2.8V | 18:12:15 | 01:14:35 | 00:00:00 | |
| DF8AY | 2026-09-01 17:24:07 | 52.17214 | 14.72011 | 79° | 69km/h | 12731m | 5m/s | -52.8°C | 4.7% | 178.9hPa | 2.8V | 18:12:15 | 01:14:30 | 00:00:00 | |
| DM0DOS-11 | 2026-09-01 17:24:05 | 52.17191 | 14.71819 | 83° | 68km/h | 12697m | 4m/s | -52.7°C | 7.1% | 179.8hPa | 2.8V | 08:30:00 | 01:14:23 | 00:00:00 | |
| DF8AY | 2026-09-01 17:23:57 | 52.17185 | 14.71736 | 85° | 68km/h | 12681m | 6.9m/s | -52.6°C | 5.5% | 180.3hPa | 2.7V | 18:12:15 | 01:14:20 | 00:00:00 | |
| SONDE2-12 | 2026-09-01 17:23:50 | 52.17173 | 14.71540 | 84° | 71km/h | 12644m | 3.0m/s | -52.7°C | 5.0% | 181.4hPa | 2.8V | 00:00:00 | 00:00:00 | 00:00:00 | |
| S3001 | 2026-09-01 17:23:49 | 52.17172 | 14.71511 | 86° | 71km/h | 12639m | 5.8m/s | -52.8°C | 4.7% | 181.4hPa | 2.8V | 00:00:00 | 00:00:00 | 00:00:00 | |
| KRY50SP-1 | 2026-09-01 17:23:48 | 52.17171 | 14.71511 | 87° | 73km/h | 12640m | 5.8m/s | -52.8°C | 4.7% | 181.4hPa | 2.8V | 00:00:00 | 00:00:00 | 00:00:00 | |
| DM0DOS-11 | 2026-09-01 17:23:46 | 52.17170 | 14.71362 | 90° | 75km/h | 12614m | 4.8m/s | -52.9°C | 7.6% | 182.2hPa | 2.8V | 08:30:00 | 01:14:07 | 00:00:00 | |
| DF8AY | 2026-09-01 17:23:46 | 52.17170 | 14.71422 | 89° | 73km/h | 12624m | 4.5m/s | -52.9°C | 6.1% | 181.9hPa | 2.7V | 18:12:15 | 01:14:09 | 00:00:00 | |
| EDDB2-12 | 2026-09-01 17:23:45 | 52.17170 | 14.71392 | 90° | 73km/h | 12618m | 5.2m/s | -52.9°C | 4.7% | 182.0hPa | 2.8V | 00:00:00 | 00:00:00 | 00:00:00 | |
| MECKS9 | 2026-09-01 17:23:44 | 52.17169 | 14.71392 | 92° | 73km/h | 12619m | 5.2m/s | -52.9°C | 4.8% | 182.0hPa | 2.8V | 00:00:00 | 00:00:00 | 00:00:00 | |
| KRY50SP-1 | 2026-09-01 17:23:43 | 52.17170 | 14.71362 | 91° | 75km/h | 12614m | 4.8m/s | -52.9°C | 4.7% | 182.2hPa | 2.8V | 00:00:00 | 00:00:00 | 00:00:00 | |
| EDDB2-11 | 2026-09-01 17:23:42 | 52.17169 | 14.71267 | 89° | 78km/h | 12599m | 4.4m/s | -52.8°C | 4.9% | 182.6hPa | 2.8V | 00:00:00 | 00:00:00 | 00:00:00 | |
| KRY50SP-1 | 2026-09-01 17:23:37 | 52.17167 | 14.71169 | 87° | 80km/h | 12585m | 5.1m/s | -52.9°C | 4.8% | 183.0hPa | 2.8V | 00:00:00 | 00:00:00 | 00:00:00 | |
| DM0DOS-11 | 2026-09-01 17:23:36 | 52.17161 | 14.71041 | 87° | 75km/h | 12565m | 6.1m/s | -53.2°C | 7.8% | 183.6hPa | 2.8V | 08:30:00 | 01:13:57 | 00:00:00 | |
| DF8AY | 2026-09-01 17:23:35 | 52.17162 | 14.71072 | 86° | 77km/h | 12570m | 4.6m/s | -53.1°C | 6.3% | 183.4hPa | 2.8V | 18:12:15 | 01:13:58 | 00:00:00 | |
| MECKS9 | 2026-09-01 17:23:34 | 52.17162 | 14.71072 | 87° | 77km/h | 12570m | 4.6m/s | -53.1°C | 4.8% | 183.4hPa | 2.8V | 00:00:00 | 00:00:00 | 00:00:00 | |
| KRY50SP-1 | 2026-09-01 17:23:32 | 52.17160 | 14.71010 | 89° | 75km/h | 12561m | 3.5m/s | -53.3°C | 4.9% | 183.7hPa | 2.8V | 00:00:00 | 00:00:00 | 00:00:00 | |
| DB0DAN | 2026-09-01 17:23:25 | 52.17151 | 14.70776 | 80° | 69km/h | 12521m | 3.8m/s | -53.4°C | 5.2% | 184.89hPa | 2.8V | 00:00:00 | 00:00:00 | 00:00:00 | |
| DF8AY | 2026-09-01 17:23:24 | 52.17148 | 14.70746 | 78° | 71km/h | 12516m | 6.9m/s | -53.5°C | 7% | 185hPa | 2.8V | 18:12:15 | 01:13:47 | 00:00:00 | |
| SONDE2-12 | 2026-09-01 17:23:19 | 52.17133 | 14.70607 | 83° | 66km/h | 12490m | 6.0m/s | -53.6°C | 5.9% | 185.7hPa | 2.7V | 00:00:00 | 00:00:00 | 00:00:00 | |
| S3001 | 2026-09-01 17:23:18 | 52.17131 | 14.70580 | 85° | 64km/h | 12485m | 3.8m/s | -53.6°C | 5.7% | 185.9hPa | 2.7V | 00:00:00 | 00:00:00 | 00:00:00 | |
| KRY50SP-1 | 2026-09-01 17:23:15 | 52.17129 | 14.70527 | 86° | 66km/h | 12476m | 3.5m/s | -53.6°C | 5.8% | 186.2hPa | 2.7V | 00:00:00 | 00:00:00 | 00:00:00 | |
| DM0DOS-11 | 2026-09-01 17:23:14 | 52.17117 | 14.70325 | 85° | 71km/h | 12442m | 6.5m/s | -54°C | 10.1% | 187.2hPa | 2.7V | 08:30:00 | 01:13:32 | 00:00:00 | |
| DF8AY | 2026-09-01 17:23:14 | 52.17126 | 14.70472 | 84° | 69km/h | 12467m | 3.3m/s | -53.8°C | 8% | 186.5hPa | 2.7V | 18:12:15 | 01:13:37 | 00:00:00 | |
| DL1JHR | 2026-09-01 17:23:13 | 52.17126 | 14.70472 | 85° | 69km/h | 12467m | 3.3m/s | 0°C | 0% | 0hPa | 2.7V | 00:00:00 | 00:00:00 | 00:00:00 | |
| MECKS9 | 2026-09-01 17:23:12 | 52.17124 | 14.70443 | 84° | 71km/h | 12462m | 6.3m/s | -53.9°C | 6.2% | 186.6hPa | 2.7V | 00:00:00 | 00:00:00 | 00:00:00 | |
| DB0DAN | 2026-09-01 17:23:10 | 52.17118 | 14.70355 | 85° | 69km/h | 12448m | 4.4m/s | -54°C | 6.7% | 187.07hPa | 2.7V | 00:00:00 | 00:00:00 | 00:00:00 | |
| DF8AY | 2026-09-01 17:23:08 | 52.17117 | 14.70158 | 94° | 68km/h | 12411m | 7.4m/s | -53.9°C | 9.3% | 188.1hPa | 2.8V | 18:12:15 | 01:13:26 | 00:00:00 | |
| AA1-15 | 2026-09-01 17:23:07 | 52.17114 | 14.70268 | 89° | 69km/h | 12432m | 6.3m/s | -54°C | 8.9% | 187.5hPa | 2.8V | 18:12:15 | 01:13:30 | 00:00:00 | |
| DM0DOS-11 | 2026-09-01 17:23:04 | 52.17115 | 14.70043 | 84° | 75km/h | 12389m | 5.4m/s | -53.9°C | 10.5% | 188.7hPa | 2.8V | 08:30:00 | 01:13:22 | 00:00:00 | |
| AA1-15 | 2026-09-01 17:22:56 | 52.17111 | 14.69951 | 90° | 77km/h | 12372m | 4.7m/s | -53.8°C | 9.9% | 189.3hPa | 2.7V | 18:12:15 | 01:13:19 | 00:00:00 | |
| DB0DAN | 2026-09-01 17:22:55 | 52.17111 | 14.69919 | 93° | 71km/h | 12368m | 3.7m/s | -53.8°C | 7.4% | 189.35hPa | 2.7V | 00:00:00 | 00:00:00 | 00:00:00 | |
| DF8AY | 2026-09-01 17:22:52 | 52.17116 | 14.69829 | 94° | 71km/h | 12352m | 7.7m/s | -53.8°C | 10.2% | 189.8hPa | 2.8V | 18:12:15 | 01:13:15 | 00:00:00 | |
| SONDE2-12 | 2026-09-01 17:22:48 | 52.17116 | 14.69706 | 88° | 78km/h | 12330m | 6.3m/s | -53.6°C | 8.3% | 190.5hPa | 2.7V | 00:00:00 | 00:00:00 | 00:00:00 | |
| AA1-15 | 2026-09-01 17:22:45 | 52.17113 | 14.69605 | 89° | 86km/h | 12311m | 7.2m/s | -53.6°C | 11.4% | 191.1hPa | 2.7V | 18:12:15 | 01:13:08 | 00:00:00 | |
| DM0DOS-11 | 2026-09-01 17:22:44 | 52.17122 | 14.69395 | 98° | 82km/h | 12277m | 4.8m/s | -53.8°C | 12.6% | 192.1hPa | 2.8V | 08:30:00 | 01:13:02 | 00:00:00 | |
| DF8AY | 2026-09-01 17:22:42 | 52.17114 | 14.69498 | 94° | 84km/h | 12293m | 4.7m/s | -53.6°C | 12.1% | 191.6hPa | 2.8V | 18:12:15 | 01:13:05 | 00:00:00 | |
| DB0DAN | 2026-09-01 17:22:40 | 52.17119 | 14.69429 | 99° | 80km/h | 12282m | 6.2m/s | -53.7°C | 8.8% | 191.95hPa | 2.7V | 00:00:00 | 00:00:00 | 00:00:00 | |
| DF8AY | 2026-09-01 17:22:36 | 52.17134 | 14.69122 | 89° | 91km/h | 12226m | 7.1m/s | -54°C | 14.9% | 193.5hPa | 2.8V | 18:12:15 | 01:12:54 | 00:00:00 | |
| DM0DOS-11 | 2026-09-01 17:22:35 | 52.17132 | 14.69048 | 87° | 91km/h | 12215m | 7.3m/s | -54°C | 14.7% | 193.9hPa | 2.7V | 08:30:00 | 01:12:52 | 00:00:00 | |
| AA1-15 | 2026-09-01 17:22:34 | 52.17132 | 14.69233 | 93° | 88km/h | 12245m | 5.2m/s | -54°C | 14% | 193hPa | 2.7V | 18:12:15 | 01:12:57 | 00:00:00 | |
| DAC517 | 2026-09-01 17:22:33 | 52.17132 | 14.69233 | 94° | 88km/h | 12245m | 5.2m/s | -54.0°C | 9.7% | 193.0hPa | 2.8V | 00:00:00 | 00:00:00 | 00:00:00 | |
| KRY50SP-1 | 2026-09-01 17:22:30 | 52.17134 | 14.69122 | 90° | 91km/h | 12227m | 7.1m/s | -54.0°C | 10.4% | 193.5hPa | 2.8V | 00:00:00 | 00:00:00 | 00:00:00 | |
| DB0DAN | 2026-09-01 17:22:25 | 52.17132 | 14.68903 | 92° | 82km/h | 12193m | 6.9m/s | -54.2°C | 11.9% | 194.58hPa | 2.8V | 00:00:00 | 00:00:00 | 00:00:00 | |
| DM0DOS-11 | 2026-09-01 17:22:24 | 52.17133 | 14.68693 | 89° | 84km/h | 12160m | 6m/s | -54.9°C | 18.3% | 195.5hPa | 2.7V | 08:30:00 | 01:12:42 | 00:00:00 | |
| AA1-15 | 2026-09-01 17:22:23 | 52.17133 | 14.68832 | 91° | 86km/h | 12183m | 6.1m/s | -54.4°C | 18.1% | 194.9hPa | 2.7V | 18:12:15 | 01:12:46 | 00:00:00 | |
| DF8AY | 2026-09-01 17:22:20 | 52.17133 | 14.68727 | 90° | 84km/h | 12166m | 4.6m/s | -54.7°C | 19.5% | 195.4hPa | 2.8V | 18:12:15 | 01:12:43 | 00:00:00 | |
| SONDE2-12 | 2026-09-01 17:22:17 | 52.17133 | 14.68589 | 89° | 82km/h | 12144m | 6.8m/s | -55.1°C | 15.9% | 196.0hPa | 2.8V | 00:00:00 | 00:00:00 | 00:00:00 | |
| SP3BTT-10 | 2026-09-01 17:22:16 | 52.17132 | 14.68589 | 90° | 80km/h | 12144m | 6.7m/s | -55.0°C | 19.3% | 196.0hPa | 2.8V | 00:00:00 | 00:00:00 | 00:00:00 | |
| DM0DOS-11 | 2026-09-01 17:22:14 | 52.17122 | 14.68347 | 82° | 86km/h | 12108m | 5m/s | -55.9°C | 23.1% | 197.2hPa | 2.8V | 08:30:00 | 01:12:32 | 00:00:00 | |
| AA1-15 | 2026-09-01 17:22:12 | 52.17129 | 14.68452 | 86° | 82km/h | 12123m | 4.5m/s | -55.6°C | 23.3% | 196.7hPa | 2.7V | 18:12:15 | 01:12:35 | 00:00:00 | |
| DB0DAN | 2026-09-01 17:22:10 | 52.17125 | 14.68383 | 83° | 82km/h | 12112m | 4.9m/s | -55.8°C | 17.8% | 197.05hPa | 2.8V | 00:00:00 | 00:00:00 | 00:00:00 | |
| DF8AY | 2026-09-01 17:22:09 | 52.17122 | 14.68347 | 82° | 86km/h | 12108m | 5.1m/s | -55.9°C | 24.4% | 197.2hPa | 2.8V | 18:12:15 | 01:12:32 | 00:00:00 | |
| EDDB2-11 | 2026-09-01 17:22:08 | 52.17119 | 14.68312 | 81° | 84km/h | 12102m | 5.0m/s | -55.9°C | 18.3% | 197.3hPa | 2.8V | 00:00:00 | 00:00:00 | 00:00:00 | |
| DM0DOS-11 | 2026-09-01 17:22:04 | 52.17088 | 14.68005 | 79° | 82km/h | 12056m | 7m/s | -56.5°C | 26.4% | 198.8hPa | 2.8V | 08:30:00 | 01:12:22 | 00:00:00 | |
| AA1-15 | 2026-09-01 17:22:01 | 52.17096 | 14.68072 | 80° | 82km/h | 12066m | 5.3m/s | -56.5°C | 26.7% | 198.5hPa | 2.8V | 18:12:15 | 01:12:24 | 00:00:00 | |
| DF8AY | 2026-09-01 17:21:58 | 52.17085 | 14.67971 | 79° | 84km/h | 12051m | 3.6m/s | -56.5°C | 27.3% | 199hPa | 2.7V | 18:12:15 | 01:12:21 | 00:00:00 | |
| DB0DAN | 2026-09-01 17:21:55 | 52.17071 | 14.67871 | 77° | 80km/h | 12035m | 6.5m/s | -56.5°C | 21.8% | 199.46hPa | 2.8V | 00:00:00 | 00:00:00 | 00:00:00 | |
| DM0DOS-11 | 2026-09-01 17:21:54 | 52.17039 | 14.67668 | 76° | 84km/h | 12004m | 5.7m/s | -56.8°C | 28.8% | 200.4hPa | 2.8V | 08:30:00 | 01:12:12 | 00:00:00 | |
| DF8AY | 2026-09-01 17:21:47 | 52.17031 | 14.67600 | 79° | 86km/h | 11993m | 5.8m/s | -56.8°C | 29.6% | 200.8hPa | 2.7V | 18:12:15 | 01:12:10 | 00:00:00 | |
| SONDE2-12 | 2026-09-01 17:21:46 | 52.17022 | 14.67534 | 78° | 80km/h | 11984m | 5.9m/s | -56.8°C | 25.2% | 201.1hPa | 2.7V | 00:00:00 | 00:00:00 | 00:00:00 | |
| S3001 | 2026-09-01 17:21:45 | 52.17022 | 14.67534 | 78° | 80km/h | 11984m | 5.9m/s | -56.8°C | 23.6% | 201.1hPa | 2.7V | 00:00:00 | 00:00:00 | 00:00:00 | |
| DB0DAN | 2026-09-01 17:21:40 | 52.17002 | 14.67378 | 76° | 69km/h | 11957m | 4.6m/s | -56.8°C | 24.2% | 201.91hPa | 2.7V | 00:00:00 | 00:00:00 | 00:00:00 | |
| DF8AY | 2026-09-01 17:21:36 | 52.16984 | 14.67262 | 77° | 73km/h | 11938m | 5.9m/s | -56.9°C | 30.5% | 202.5hPa | 2.7V | 18:12:15 | 01:11:59 | 00:00:00 | |
| KRY50SP-1 | 2026-09-01 17:21:35 | 52.16984 | 14.67262 | 77° | 73km/h | 11938m | 5.9m/s | -56.9°C | 24.2% | 202.5hPa | 2.8V | 00:00:00 | 00:00:00 | 00:00:00 | |
| DM0DOS-11 | 2026-09-01 17:21:34 | 52.16954 | 14.67052 | 78° | 73km/h | 11902m | 5.3m/s | -56.7°C | 30.8% | 203.7hPa | 2.8V | 08:30:00 | 01:11:52 | 00:00:00 | |
| AA1-15 | 2026-09-01 17:21:33 | 52.16971 | 14.67173 | 77° | 75km/h | 11923m | 4.3m/s | -56.8°C | 30.4% | 203hPa | 2.8V | 18:12:15 | 01:11:56 | 00:00:00 | |
| SP6BVK | 2026-09-01 17:21:32 | 52.16971 | 14.67173 | 77° | 75km/h | 11923m | 4.3m/s | -56.8°C | 24.2% | 203.0hPa | 2.7V | 00:00:00 | 00:00:00 | 00:00:00 | |
| DL2RXE-15 | 2026-09-01 17:21:31 | 52.16962 | 14.67111 | 78° | 77km/h | 11912m | 5.7m/s | -56.8°C | 24.7% | 203.3hPa | 2.7V | 00:00:00 | 00:00:00 | 00:00:00 | |
| SP3BTT-10 | 2026-09-01 17:21:30 | 52.16958 | 14.67081 | 78° | 73km/h | 11907m | 4.4m/s | -56.7°C | 31.1% | 203.5hPa | 2.7V | 00:00:00 | 00:00:00 | 00:00:00 | |
| KRY50SP-1 | 2026-09-01 17:21:29 | 52.16958 | 14.67081 | 78° | 73km/h | 11907m | 4.5m/s | -56.7°C | 25.0% | 203.6hPa | 2.7V | 00:00:00 | 00:00:00 | 00:00:00 | |
| DB0DAN | 2026-09-01 17:21:25 | 52.16942 | 14.66941 | 81° | 62km/h | 11883m | 6.6m/s | -56.7°C | 25.3% | 204.33hPa | 2.7V | 00:00:00 | 00:00:00 | 00:00:00 | |
| DM0DOS-11 | 2026-09-01 17:21:25 | 52.16932 | 14.66782 | 85° | 66km/h | 11853m | 6.1m/s | -56.5°C | 31.5% | 205.3hPa | 2.7V | 08:30:00 | 01:11:42 | 00:00:00 | |
| DF8AY | 2026-09-01 17:21:24 | 52.16940 | 14.66915 | 83° | 66km/h | 11878m | 3.1m/s | -56.6°C | 31% | 204.5hPa | 2.8V | 18:12:15 | 01:11:47 | 00:00:00 | |
| AA1-15 | 2026-09-01 17:21:22 | 52.16936 | 14.66862 | 84° | 64km/h | 11869m | 3.5m/s | -56.6°C | 31.1% | 204.8hPa | 2.8V | 18:12:15 | 01:11:45 | 00:00:00 | |
| SONDE2-12 | 2026-09-01 17:21:15 | 52.16925 | 14.66642 | 84° | 69km/h | 11828m | 5.6m/s | -56.4°C | 27.1% | 206.1hPa | 2.7V | 00:00:00 | 00:00:00 | 00:00:00 | |
| DM0DOS-11 | 2026-09-01 17:21:14 | 52.16919 | 14.66501 | 89° | 68km/h | 11802m | 5m/s | -56.3°C | 31.9% | 206.9hPa | 2.7V | 08:30:00 | 01:11:32 | 00:00:00 | |
| DF8AY | 2026-09-01 17:21:12 | 52.16922 | 14.66585 | 84° | 68km/h | 11816m | 5m/s | -56.3°C | 32% | 206.5hPa | 2.8V | 18:12:15 | 01:11:35 | 00:00:00 | |
| AA1-15 | 2026-09-01 17:21:11 | 52.16921 | 14.66557 | 86° | 68km/h | 11812m | 4.6m/s | -56.3°C | 32.2% | 206.6hPa | 2.8V | 18:12:15 | 01:11:34 | 00:00:00 | |
| DB0DAN | 2026-09-01 17:21:10 | 52.16920 | 14.66529 | 89° | 66km/h | 11807m | 5.2m/s | -56.3°C | 25.8% | 206.74hPa | 2.7V | 00:00:00 | 00:00:00 | 00:00:00 | |
| DAC517 | 2026-09-01 17:21:09 | 52.16920 | 14.66529 | 90° | 69km/h | 11807m | 5.2m/s | -56.3°C | 25.8% | 206.7hPa | 2.7V | 00:00:00 | 00:00:00 | 00:00:00 | |
| KRY50SP-1 | 2026-09-01 17:21:06 | 52.16919 | 14.66445 | 93° | 68km/h | 11792m | 6.4m/s | -56.2°C | 26.2% | 207.2hPa | 2.7V | 00:00:00 | 00:00:00 | 00:00:00 | |
| DM0DOS-11 | 2026-09-01 17:21:04 | 52.16919 | 14.66207 | 87° | 75km/h | 11753m | 6.2m/s | -56.1°C | 32.9% | 208.5hPa | 2.7V | 08:30:00 | 01:11:22 | 00:00:00 | |
| AA1-15 | 2026-09-01 17:21:00 | 52.16919 | 14.66237 | 87° | 75km/h | 11758m | 4.1m/s | -56.1°C | 34.1% | 208.4hPa | 2.8V | 18:12:15 | 01:11:23 | 00:00:00 | |
| DB0DAN | 2026-09-01 17:20:55 | 52.16917 | 14.66083 | 91° | 73km/h | 11733m | 6m/s | -56°C | 28% | 209.13hPa | 2.8V | 00:00:00 | 00:00:00 | 00:00:00 | |
| DM0DOS-11 | 2026-09-01 17:20:52 | 52.16925 | 14.65826 | 90° | 78km/h | 11694m | 5.3m/s | -56.2°C | 37.3% | 210.4hPa | 2.7V | 08:30:00 | 01:11:10 | 00:00:00 | |
| AA1-15 | 2026-09-01 17:20:49 | 52.16925 | 14.65892 | 92° | 78km/h | 11703m | 5.6m/s | -56.1°C | 38.1% | 210.1hPa | 2.8V | 18:12:15 | 01:11:12 | 00:00:00 | |
| SP3WXH-11 | 2026-09-01 17:20:47 | 52.16925 | 14.65826 | 90° | 78km/h | 11694m | 5.3m/s | -56.2°C | 30.9% | 210.4hPa | 2.8V | 00:00:00 | 00:00:00 | 00:00:00 | |
| SONDE2-12 | 2026-09-01 17:20:44 | 52.16926 | 14.65694 | 91° | 80km/h | 11674m | 6.0m/s | -56.5°C | 35.3% | 211.1hPa | 2.8V | 00:00:00 | 00:00:00 | 00:00:00 | |
| S3001 | 2026-09-01 17:20:43 | 52.16927 | 14.65660 | 92° | 82km/h | 11669m | 4.0m/s | -56.5°C | 33.1% | 211.3hPa | 2.8V | 00:00:00 | 00:00:00 | 00:00:00 | |
| DM0DOS-11 | 2026-09-01 17:20:42 | 52.16933 | 14.65487 | 94° | 86km/h | 11641m | 5.4m/s | -56.6°C | 41.3% | 212.2hPa | 2.8V | 08:30:00 | 01:11:00 | 00:00:00 | |
| DB0DAN | 2026-09-01 17:20:40 | 52.16929 | 14.65591 | 93° | 80km/h | 11657m | 6.5m/s | -56.6°C | 33.4% | 211.64hPa | 2.7V | 00:00:00 | 00:00:00 | 00:00:00 | |
| AA1-15 | 2026-09-01 17:20:38 | 52.16932 | 14.65522 | 94° | 86km/h | 11646m | 6m/s | -56.5°C | 42% | 212hPa | 2.8V | 18:12:15 | 01:11:01 | 00:00:00 | |
| DF8AY | 2026-09-01 17:20:34 | 52.16939 | 14.65383 | 94° | 86km/h | 11627m | 4.3m/s | -56.9°C | 43.7% | 212.7hPa | 2.7V | 18:12:15 | 01:10:57 | 00:00:00 | |
| KRY50SP-1 | 2026-09-01 17:20:33 | 52.16939 | 14.65383 | 95° | 86km/h | 11627m | 4.3m/s | -56.9°C | 36.7% | 212.7hPa | 2.8V | 00:00:00 | 00:00:00 | 00:00:00 | |
| DM0DOS-11 | 2026-09-01 17:20:32 | 52.16952 | 14.65140 | 97° | 86km/h | 11593m | 4.4m/s | -56.7°C | 44.3% | 213.7hPa | 2.8V | 08:30:00 | 01:10:50 | 00:00:00 | |
| AA1-15 | 2026-09-01 17:20:27 | 52.16952 | 14.65140 | 97° | 86km/h | 11593m | 4.4m/s | -56.7°C | 44.9% | 213.7hPa | 2.8V | 18:12:15 | 01:10:50 | 00:00:00 | |
| DB0DAN | 2026-09-01 17:20:25 | 52.16958 | 14.65068 | 97° | 84km/h | 11584m | 3.8m/s | -56.7°C | 37.4% | 214.07hPa | 2.8V | 00:00:00 | 00:00:00 | 00:00:00 | |
| DM0DOS-11 | 2026-09-01 17:20:22 | 52.16975 | 14.64783 | 93° | 86km/h | 11547m | 5.7m/s | -56.7°C | 47.9% | 215.4hPa | 2.7V | 08:30:00 | 01:10:40 | 00:00:00 | |
| DF8AY | 2026-09-01 17:20:21 | 52.16968 | 14.64924 | 96° | 88km/h | 11565m | 5.7m/s | -56.7°C | 46.7% | 214.7hPa | 2.7V | 18:12:15 | 01:10:44 | 00:00:00 | |
| AA1-15 | 2026-09-01 17:20:17 | 52.16975 | 14.64783 | 93° | 86km/h | 11547m | 5.7m/s | -56.7°C | 48.3% | 215.4hPa | 2.7V | 18:12:15 | 01:10:40 | 00:00:00 | |
| SONDE2-12 | 2026-09-01 17:20:13 | 52.16982 | 14.64607 | 93° | 84km/h | 11525m | 3.7m/s | -56.8°C | 46.1% | 216.2hPa | 2.7V | 00:00:00 | 00:00:00 | 00:00:00 | |
| DB0DAN | 2026-09-01 17:20:10 | 52.16984 | 14.64538 | 94° | 80km/h | 11514m | 4.3m/s | -56.8°C | 43.5% | 216.46hPa | 2.7V | 00:00:00 | 00:00:00 | 00:00:00 | |
| AA1-15 | 2026-09-01 17:20:06 | 52.16990 | 14.64398 | 95° | 84km/h | 11494m | 5.7m/s | -56.9°C | 53.2% | 217.1hPa | 2.8V | 18:12:15 | 01:10:29 | 00:00:00 | |
| DF8AY | 2026-09-01 17:20:04 | 52.16994 | 14.64329 | 95° | 86km/h | 11485m | 5.9m/s | -57.1°C | 54.2% | 217.5hPa | 2.7V | 18:12:15 | 01:10:27 | 00:00:00 | |
| MECKS9 | 2026-09-01 17:20:03 | 52.16994 | 14.64329 | 96° | 86km/h | 11485m | 5.9m/s | -57.1°C | 47.1% | 217.5hPa | 2.7V | 00:00:00 | 00:00:00 | 00:00:00 | |
| DM0DOS-11 | 2026-09-01 17:20:02 | 52.17005 | 14.64082 | 93° | 89km/h | 11452m | 6m/s | -57.1°C | 59.8% | 218.6hPa | 2.7V | 08:30:00 | 01:10:20 | 00:00:00 | |
| SP3BTT-10 | 2026-09-01 17:20:01 | 52.16999 | 14.64225 | 94° | 82km/h | 11471m | 3.4m/s | -56.9°C | 56.8% | 217.9hPa | 2.8V | 00:00:00 | 00:00:00 | 00:00:00 | |
| KRY50SP-1 | 2026-09-01 17:19:59 | 52.17001 | 14.64190 | 95° | 86km/h | 11467m | 5.4m/s | -57.0°C | 49.0% | 218.1hPa | 2.8V | 00:00:00 | 00:00:00 | 00:00:00 | |
| DB0DAN | 2026-09-01 17:19:55 | 52.17008 | 14.64009 | 95° | 84km/h | 11442m | 5.3m/s | -57.2°C | 53.4% | 218.97hPa | 2.8V | 00:00:00 | 00:00:00 | 00:00:00 | |
| DF8AY | 2026-09-01 17:19:52 | 52.17012 | 14.63901 | 92° | 88km/h | 11428m | 3.5m/s | -57.3°C | 59.1% | 219.4hPa | 2.8V | 18:12:15 | 01:10:15 | 00:00:00 | |
| AA1-15 | 2026-09-01 17:19:49 | 52.17014 | 14.63796 | 91° | 84km/h | 11412m | 7.1m/s | -57.2°C | 58.8% | 219.9hPa | 2.7V | 18:12:15 | 01:10:12 | 00:00:00 | |
| SONCRA | 2026-09-01 17:19:48 | 52.17014 | 14.63727 | 90° | 84km/h | 11403m | 6.4m/s | -57.2°C | 53.0% | 220.3hPa | 2.7V | 00:00:00 | 00:00:00 | 00:00:00 | |
| DAC517 | 2026-09-01 17:19:47 | 52.17014 | 14.63762 | 91° | 84km/h | 11408m | 2.3m/s | -57.2°C | 54.2% | 220.1hPa | 2.7V | 00:00:00 | 00:00:00 | 00:00:00 | |
| DM0DOS-11 | 2026-09-01 17:19:46 | 52.17015 | 14.63587 | 90° | 86km/h | 11383m | 5.6m/s | -57°C | 60.1% | 221hPa | 2.7V | 08:30:00 | 01:10:06 | 00:00:00 | |
| SONDE2-12 | 2026-09-01 17:19:42 | 52.17016 | 14.63515 | 89° | 86km/h | 11374m | 5.9m/s | -57.0°C | 54.1% | 221.4hPa | 2.8V | 00:00:00 | 00:00:00 | 00:00:00 | |
| DB0DAN | 2026-09-01 17:19:40 | 52.17015 | 14.63480 | 89° | 82km/h | 11369m | 2.5m/s | -56.9°C | 50.6% | 221.47hPa | 2.8V | 00:00:00 | 00:00:00 | 00:00:00 | |
| DF8AY | 2026-09-01 17:19:40 | 52.17015 | 14.63480 | 89° | 86km/h | 11369m | 2.5m/s | -56.9°C | 56.1% | 221.5hPa | 2.8V | 18:12:15 | 01:10:03 | 00:00:00 | |
| AA1-15 | 2026-09-01 17:19:38 | 52.17015 | 14.63410 | 88° | 84km/h | 11361m | 3.6m/s | -56.9°C | 55.3% | 221.8hPa | 2.8V | 18:12:15 | 01:10:01 | 00:00:00 | |
| EDDB2-12 | 2026-09-01 17:19:37 | 52.17014 | 14.63375 | 89° | 84km/h | 11356m | 6.9m/s | -56.8°C | 48.5% | 222.0hPa | 2.8V | 00:00:00 | 00:00:00 | 00:00:00 | |
| DM0DOS-11 | 2026-09-01 17:19:36 | 52.17011 | 14.63238 | 87° | 82km/h | 11334m | 4.2m/s | -56.6°C | 54.6% | 222.7hPa | 2.8V | 08:30:00 | 01:09:56 | 00:00:00 | |
| DF8AY | 2026-09-01 17:19:29 | 52.17008 | 14.63104 | 88° | 80km/h | 11316m | 5.5m/s | -56.5°C | 53.3% | 223.3hPa | 2.7V | 18:12:15 | 01:09:52 | 00:00:00 | |
| AA1-15 | 2026-09-01 17:19:27 | 52.17007 | 14.63038 | 88° | 80km/h | 11307m | 5.9m/s | -56.5°C | 53.4% | 223.7hPa | 2.8V | 18:12:15 | 01:09:50 | 00:00:00 | |
| DB0DAN | 2026-09-01 17:19:25 | 52.17005 | 14.62972 | 87° | 77km/h | 11297m | 6.2m/s | -56.4°C | 46.8% | 223.97hPa | 2.8V | 00:00:00 | 00:00:00 | 00:00:00 | |
| DF8AY | 2026-09-01 17:19:19 | 52.16997 | 14.62770 | 86° | 82km/h | 11271m | 4.3m/s | -56.4°C | 54.5% | 225hPa | 2.8V | 18:12:15 | 01:09:42 | 00:00:00 | |
| AA1-15 | 2026-09-01 17:19:16 | 52.16994 | 14.62668 | 87° | 82km/h | 11257m | 3.8m/s | -56.3°C | 54.9% | 225.5hPa | 2.7V | 18:12:15 | 01:09:39 | 00:00:00 | |
| SONDE2-12 | 2026-09-01 17:19:11 | 52.16992 | 14.62466 | 88° | 84km/h | 11229m | 4.5m/s | -56.2°C | 52.4% | 226.5hPa | 2.7V | 00:00:00 | 00:00:00 | 00:00:00 | |
| DB0DAN | 2026-09-01 17:19:10 | 52.16992 | 14.62466 | 89° | 80km/h | 11229m | 4.5m/s | -56.2°C | 49.2% | 226.49hPa | 2.7V | 00:00:00 | 00:00:00 | 00:00:00 | |
| DF8AY | 2026-09-01 17:19:08 | 52.16990 | 14.62396 | 86° | 86km/h | 11221m | 4.1m/s | -56.1°C | 55.3% | 0hPa | 2.8V | 18:12:15 | 01:09:31 | 00:00:00 | |
| AA1-15 | 2026-09-01 17:19:06 | 52.16987 | 14.62326 | 85° | 86km/h | 11210m | 5.9m/s | -56.1°C | 55% | 227.1hPa | 2.8V | 18:12:15 | 01:09:29 | 00:00:00 | |
| DF8AY | 2026-09-01 17:18:58 | 52.16972 | 14.62049 | 85° | 84km/h | 11168m | 4.2m/s | -56.2°C | 54.2% | 0hPa | 2.7V | 18:12:15 | 01:09:21 | 00:00:00 | |
| KRY50SP-1 | 2026-09-01 17:18:57 | 52.16972 | 14.62049 | 86° | 84km/h | 11168m | 4.2m/s | -56.2°C | 49.7% | 228.6hPa | 2.8V | 00:00:00 | 00:00:00 | 00:00:00 | |
| DB0DAN | 2026-09-01 17:18:55 | 52.16967 | 14.61945 | 84° | 80km/h | 11155m | 5.2m/s | -56°C | 48% | 229.05hPa | 2.8V | 00:00:00 | 00:00:00 | 00:00:00 | |
| DF8AY | 2026-09-01 17:18:47 | 52.16941 | 14.61664 | 80° | 86km/h | 11119m | 5.4m/s | -55.8°C | 52.7% | 0hPa | 2.8V | 18:12:15 | 01:09:10 | 00:00:00 | |
| SONCRA | 2026-09-01 17:18:46 | 52.16934 | 14.61595 | 80° | 84km/h | 11110m | 5.4m/s | -55.7°C | 47.2% | 230.8hPa | 2.8V | 00:00:00 | 00:00:00 | 00:00:00 | |
| DAC517 | 2026-09-01 17:18:45 | 52.16937 | 14.61629 | 81° | 86km/h | 11115m | 3.5m/s | -55.7°C | 47.4% | 230.6hPa | 2.8V | 00:00:00 | 00:00:00 | 00:00:00 | |
| DL2RXE-15 | 2026-09-01 17:18:43 | 52.16930 | 14.61560 | 80° | 86km/h | 11104m | 6.9m/s | -55.7°C | 47.2% | 231.0hPa | 2.8V | 00:00:00 | 00:00:00 | 00:00:00 | |
| DB0DAN | 2026-09-01 17:18:40 | 52.16915 | 14.61421 | 79° | 82km/h | 11084m | 4.8m/s | -55.5°C | 48.6% | 231.75hPa | 2.8V | 00:00:00 | 00:00:00 | 00:00:00 | |
| SONDE2-12 | 2026-09-01 17:18:40 | 52.16911 | 14.61386 | 79° | 86km/h | 11080m | 4.6m/s | -55.4°C | 51.4% | 231.9hPa | 2.8V | 00:00:00 | 00:00:00 | 00:00:00 | |
| DF8AY | 2026-09-01 17:18:37 | 52.16903 | 14.61316 | 79° | 88km/h | 11070m | 6m/s | -55.4°C | 54.3% | 0hPa | 2.8V | 18:12:15 | 01:09:00 | 00:00:00 | |
| KRY50SP-1 | 2026-09-01 17:18:36 | 52.16899 | 14.61280 | 80° | 88km/h | 11065m | 4.4m/s | -55.3°C | 49.3% | 232.4hPa | 2.7V | 00:00:00 | 00:00:00 | 00:00:00 | |
| EDDB2-12 | 2026-09-01 17:18:35 | 52.16894 | 14.61245 | 78° | 86km/h | 11060m | 6.0m/s | -55.3°C | 49.3% | 232.6hPa | 2.7V | 00:00:00 | 00:00:00 | 00:00:00 | |
| DB0NH | 2026-09-01 17:18:31 | 52.16873 | 14.61104 | 77° | 84km/h | 11042m | 5.2m/s | -55.1°C | 56.7% | 233.2hPa | 2.7V | 00:00:00 | 01:08:54 | 00:00:00 | |
| SP3BTT-10 | 2026-09-01 17:18:30 | 52.16868 | 14.61069 | 78° | 82km/h | 11038m | 2.9m/s | -55.0°C | 56.5% | 233.4hPa | 2.8V | 00:00:00 | 00:00:00 | 00:00:00 | |
| KRY50SP-1 | 2026-09-01 17:18:27 | 52.16858 | 14.60997 | 79° | 88km/h | 11029m | 6.3m/s | -55.1°C | 48.6% | 233.7hPa | 2.8V | 00:00:00 | 00:00:00 | 00:00:00 | |
| DM0DOS-11 | 2026-09-01 17:18:26 | 52.16828 | 14.60762 | 78° | 80km/h | 10993m | 5.8m/s | 0°C | 0% | 0hPa | 2.8V | 00:00:00 | 01:08:44 | 00:00:00 | |
| DF8AY | 2026-09-01 17:18:26 | 52.16849 | 14.60927 | 78° | 86km/h | 11018m | 6.1m/s | 0°C | 0% | 0hPa | 2.8V | 18:12:15 | 01:08:49 | 00:00:00 | |
| DB0DAN | 2026-09-01 17:18:25 | 52.16845 | 14.60893 | 78° | 80km/h | 11013m | 5m/s | -54.9°C | 49.2% | 234.35hPa | 2.8V | 00:00:00 | 00:00:00 | 00:00:00 | |
| DF8AY | 2026-09-01 17:18:17 | 52.16807 | 14.60593 | 79° | 84km/h | 10970m | 5.5m/s | 0°C | 0% | 0hPa | 2.8V | 18:12:15 | 01:08:39 | 00:00:00 | |
| DM0DOS-11 | 2026-09-01 17:18:17 | 52.16785 | 14.60422 | 78° | 82km/h | 10944m | 5.5m/s | 0°C | 0% | 0hPa | 2.9V | 00:00:00 | 01:08:34 | 00:00:00 | |
| KRY50SP-1 | 2026-09-01 17:18:15 | 52.16807 | 14.60593 | 80° | 84km/h | 10970m | 5.5m/s | -54.6°C | 47.2% | 236.0hPa | 2.8V | 00:00:00 | 00:00:00 | 00:00:00 | |
| MECKS9 | 2026-09-01 17:18:14 | 52.16803 | 14.60558 | 79° | 86km/h | 10965m | 5.7m/s | -54.5°C | 46.0% | 236.0hPa | 2.8V | 00:00:00 | 00:00:00 | 00:00:00 | |
| DB0DAN | 2026-09-01 17:18:10 | 52.16781 | 14.60389 | 78° | 78km/h | 10940m | 3.9m/s | -54.3°C | 44.4% | 237.01hPa | 2.8V | 00:00:00 | 00:00:00 | 00:00:00 | |
| SONDE2-11 | 2026-09-01 17:18:08 | 52.16772 | 14.60324 | 76° | 82km/h | 10929m | 3.7m/s | -54.2°C | 44.4% | 237.4hPa | 2.9V | 00:00:00 | 00:00:00 | 00:00:00 | |
| S3001 | 2026-09-01 17:18:07 | 52.16767 | 14.60291 | 76° | 80km/h | 10924m | 6.4m/s | -54.2°C | 44.7% | 237.6hPa | 2.9V | 00:00:00 | 00:00:00 | 00:00:00 | |
| DM0DOS-11 | 2026-09-01 17:18:06 | 52.16739 | 14.60088 | 78° | 84km/h | 10898m | 4.7m/s | 0°C | 0% | 0hPa | 2.9V | 00:00:00 | 01:08:24 | 00:00:00 | |
| DF8AY | 2026-09-01 17:18:04 | 52.16752 | 14.60190 | 77° | 86km/h | 10910m | 3.9m/s | 0°C | 0% | 0hPa | 2.8V | 18:12:15 | 01:08:27 | 00:00:00 | |
| NBG1-10 | 2026-09-01 17:18:03 | 52.16748 | 14.60156 | 79° | 84km/h | 10906m | 4.8m/s | 0°C | 0% | 0hPa | 2.8V | 00:00:00 | 01:08:26 | 00:00:00 | |
| EDDB2-11 | 2026-09-01 17:18:00 | 52.16735 | 14.60054 | 78° | 82km/h | 10893m | 4.3m/s | -54.0°C | 42.4% | 238.8hPa | 2.8V | 00:00:00 | 00:00:00 | 00:00:00 | |
| DB0DAN | 2026-09-01 17:17:55 | 52.16712 | 14.59891 | 75° | 77km/h | 10869m | 3.8m/s | -53.9°C | 43.4% | 239.73hPa | 2.8V | 00:00:00 | 00:00:00 | 00:00:00 | |
| DL2RXE-15 | 2026-09-01 17:17:54 | 52.16712 | 14.59891 | 76° | 80km/h | 10869m | 3.8m/s | -53.9°C | 43.4% | 239.7hPa | 2.8V | 00:00:00 | 00:00:00 | 00:00:00 | |
| MECKS9 | 2026-09-01 17:17:52 | 52.16696 | 14.59797 | 76° | 78km/h | 10855m | 4.9m/s | -53.9°C | 43.9% | 240.3hPa | 2.8V | 00:00:00 | 00:00:00 | 00:00:00 | |
| KRY50SP-1 | 2026-09-01 17:17:51 | 52.16696 | 14.59797 | 76° | 78km/h | 10855m | 4.9m/s | -53.9°C | 43.9% | 240.3hPa | 2.8V | 00:00:00 | 00:00:00 | 00:00:00 | |
| DM0DOS-11 | 2026-09-01 17:17:50 | 52.16663 | 14.59567 | 78° | 82km/h | 10826m | 6.4m/s | 0°C | 0% | 0hPa | 2.8V | 00:00:00 | 01:08:08 | 00:00:00 | |
| SP3BTT-10 | 2026-09-01 17:17:45 | 52.16663 | 14.59567 | 79° | 80km/h | 10826m | 6.3m/s | -53.6°C | 50.2% | 241.4hPa | 2.8V | 00:00:00 | 00:00:00 | 00:00:00 | |
| DAC517 | 2026-09-01 17:17:43 | 52.16659 | 14.59533 | 80° | 84km/h | 10820m | 5.5m/s | -53.6°C | 43.5% | 241.7hPa | 2.8V | 00:00:00 | 00:00:00 | 00:00:00 | |
| DB0DAN | 2026-09-01 17:17:40 | 52.16642 | 14.59400 | 78° | 78km/h | 10803m | 5.8m/s | -53.5°C | 44.7% | 242.43hPa | 2.8V | 00:00:00 | 00:00:00 | 00:00:00 | |
| DM0DOS-11 | 2026-09-01 17:17:40 | 52.16622 | 14.59240 | 78° | 78km/h | 10783m | 4.8m/s | 0°C | 0% | 0hPa | 2.8V | 00:00:00 | 01:07:58 | 00:00:00 | |
| SONDE2-12 | 2026-09-01 17:17:37 | 52.16629 | 14.59303 | 79° | 77km/h | 10791m | 4.0m/s | -53.3°C | 46.1% | 243.0hPa | 2.8V | 00:00:00 | 00:00:00 | 00:00:00 | |
| AA1-15 | 2026-09-01 17:17:31 | 52.16606 | 14.59111 | 78° | 82km/h | 10761m | 9.7m/s | -53.1°C | 46.4% | 244hPa | 2.8V | 18:12:15 | 01:07:54 | 00:00:00 | |
| DB0NH | 2026-09-01 17:17:31 | 52.16606 | 14.59111 | 78° | 80km/h | 10762m | 9.6m/s | -53.1°C | 46.8% | 243.9hPa | 2.9V | 00:00:00 | 01:07:54 | 00:00:00 | |
| EDDB2-11 | 2026-09-01 17:17:29 | 52.16598 | 14.59045 | 79° | 80km/h | 10739m | 6.5m/s | -53.0°C | 40.1% | 244.4hPa | 2.9V | 00:00:00 | 00:00:00 | 00:00:00 | |
| KRY50SP-1 | 2026-09-01 17:17:27 | 52.16594 | 14.59012 | 81° | 80km/h | 10734m | 3.0m/s | -52.9°C | 40.2% | 244.6hPa | 2.9V | 00:00:00 | 00:00:00 | 00:00:00 | |
| DB0DAN | 2026-09-01 17:17:25 | 52.16584 | 14.58915 | 80° | 75km/h | 10720m | 6.7m/s | -52.8°C | 39.6% | 245.15hPa | 2.9V | 00:00:00 | 00:00:00 | 00:00:00 | |
| 13BRC | 2026-09-01 17:17:25 | 52.16584 | 14.58914 | 81° | 78km/h | 10720m | 6.7m/s | -52.8°C | 39.6% | 245.2hPa | 2.8V | 00:00:00 | 00:00:00 | 00:00:00 | |
| SP6BVK | 2026-09-01 17:17:24 | 52.16584 | 14.58914 | 81° | 78km/h | 10720m | 6.7m/s | -52.8°C | 39.6% | 245.2hPa | 2.8V | 00:00:00 | 00:00:00 | 00:00:00 | |
| DAC517 | 2026-09-01 17:17:22 | 52.16577 | 14.58851 | 82° | 78km/h | 10710m | 4.9m/s | -52.7°C | 39.5% | 245.5hPa | 2.8V | 00:00:00 | 00:00:00 | 00:00:00 | |
| KRY50SP-1 | 2026-09-01 17:17:21 | 52.16574 | 14.58820 | 81° | 77km/h | 10705m | 5.2m/s | -52.7°C | 39.8% | 245.7hPa | 2.8V | 00:00:00 | 00:00:00 | 00:00:00 | |
| MECKS9 | 2026-09-01 17:17:18 | 52.16564 | 14.58725 | 82° | 80km/h | 10691m | 3.0m/s | -52.6°C | 0% | 246.2hPa | 2.8V | 00:00:00 | 00:00:00 | 00:00:00 | |
| KRY50SP-1 | 2026-09-01 17:17:16 | 52.16558 | 14.58659 | 82° | 82km/h | 10683m | 3.0m/s | -52.6°C | 41.4% | 246.6hPa | 2.8V | 00:00:00 | 00:00:00 | 00:00:00 | |
| DB0DAN | 2026-09-01 17:17:10 | 52.16534 | 14.58422 | 80° | 78km/h | 10645m | 3.9m/s | -52.3°C | 40.5% | 248.04hPa | 2.8V | 00:00:00 | 00:00:00 | 00:00:00 | |
| SP3WXH-11 | 2026-09-01 17:17:10 | 52.16530 | 14.58389 | 79° | 82km/h | 10641m | 4.7m/s | -52.2°C | 40.1% | 248.2hPa | 2.8V | 00:00:00 | 00:00:00 | 00:00:00 | |
| KRY50SP-1 | 2026-09-01 17:17:06 | 52.16519 | 14.58291 | 81° | 80km/h | 10622m | 5.4m/s | -52.1°C | 40.0% | 248.9hPa | 2.8V | 00:00:00 | 00:00:00 | 00:00:00 | |
| 13BRC | 2026-09-01 17:17:03 | 52.16512 | 14.58226 | 81° | 80km/h | 10611m | 5.7m/s | -52.0°C | 41.1% | 249.3hPa | 2.8V | 00:00:00 | 00:00:00 | 00:00:00 | |
| EDDB2-12 | 2026-09-01 17:17:02 | 52.16506 | 14.58159 | 81° | 82km/h | 10602m | 5.9m/s | -51.9°C | 40.6% | 249.6hPa | 2.8V | 00:00:00 | 00:00:00 | 00:00:00 | |
| EDDB2-11 | 2026-09-01 17:16:58 | 52.16492 | 14.58023 | 79° | 84km/h | 10583m | 6.7m/s | -51.7°C | 39.8% | 250.4hPa | 2.8V | 00:00:00 | 00:00:00 | 00:00:00 | |
| DB0DAN | 2026-09-01 17:16:55 | 52.16481 | 14.57919 | 81° | 82km/h | 10565m | 4.8m/s | -51.6°C | 39.5% | 251.08hPa | 2.8V | 00:00:00 | 00:00:00 | 00:00:00 | |
| KRY50SP-1 | 2026-09-01 17:16:49 | 52.16464 | 14.57751 | 82° | 78km/h | 10538m | 4.1m/s | -51.4°C | 37.6% | 252.1hPa | 2.9V | 00:00:00 | 00:00:00 | 00:00:00 | |
| KRY50SP-1 | 2026-09-01 17:16:44 | 52.16451 | 14.57589 | 85° | 86km/h | 10513m | 3.4m/s | -51.1°C | 36.1% | 253.1hPa | 2.9V | 00:00:00 | 00:00:00 | 00:00:00 | |
| DB0DAN | 2026-09-01 17:16:40 | 52.16438 | 14.57411 | 83° | 82km/h | 10490m | 5.1m/s | -50.9°C | 33.9% | 254hPa | 2.9V | 00:00:00 | 00:00:00 | 00:00:00 | |
| KRY50SP-1 | 2026-09-01 17:16:38 | 52.16435 | 14.57377 | 83° | 84km/h | 10485m | 4.7m/s | -50.9°C | 33.9% | 254.2hPa | 2.8V | 00:00:00 | 00:00:00 | 00:00:00 | |
| DL2RXE-15 | 2026-09-01 17:16:37 | 52.16432 | 14.57343 | 84° | 82km/h | 10480m | 4.6m/s | -50.9°C | 33.1% | 254.4hPa | 2.8V | 00:00:00 | 00:00:00 | 00:00:00 | |
| SONDE2-11 | 2026-09-01 17:16:35 | 52.16422 | 14.57213 | 82° | 80km/h | 10462m | 3.6m/s | -50.7°C | 32.4% | 255.0hPa | 2.8V | 00:00:00 | 00:00:00 | 00:00:00 | |
| S3001 | 2026-09-01 17:16:34 | 52.16422 | 14.57213 | 82° | 80km/h | 10462m | 3.6m/s | -50.7°C | 32.4% | 255.0hPa | 2.8V | 00:00:00 | 00:00:00 | 00:00:00 | |
| KRY50SP-1 | 2026-09-01 17:16:32 | 52.16419 | 14.57179 | 84° | 82km/h | 10458m | 4.8m/s | -50.7°C | 32.3% | 255.2hPa | 2.8V | 00:00:00 | 00:00:00 | 00:00:00 | |
| DB0NH | 2026-09-01 17:16:31 | 52.16414 | 14.57110 | 82° | 86km/h | 10449m | 4.5m/s | -50.5°C | 37.9% | 255.5hPa | 2.8V | 00:00:00 | 01:06:54 | 00:00:00 | |
| DB0DAN | 2026-09-01 17:16:25 | 52.16394 | 14.56904 | 80° | 80km/h | 10420m | 3.1m/s | -50.3°C | 32.6% | 256.66hPa | 2.8V | 00:00:00 | 00:00:00 | 00:00:00 | |
| KRY50SP-1 | 2026-09-01 17:16:21 | 52.16382 | 14.56801 | 82° | 86km/h | 10405m | 3.4m/s | -50.2°C | 32.4% | 257.3hPa | 2.8V | 00:00:00 | 00:00:00 | 00:00:00 | |
| DAC517 | 2026-09-01 17:16:19 | 52.16376 | 14.56730 | 84° | 88km/h | 10396m | 4.5m/s | -50.1°C | 32.6% | 257.7hPa | 2.8V | 00:00:00 | 00:00:00 | 00:00:00 | |
| DL2RXE-15 | 2026-09-01 17:16:16 | 52.16369 | 14.56624 | 85° | 86km/h | 10377m | 5.5m/s | -50.0°C | 32.3% | 258.3hPa | 2.8V | 00:00:00 | 00:00:00 | 00:00:00 | |
| SP3BTT-10 | 2026-09-01 17:16:15 | 52.16364 | 14.56553 | 84° | 86km/h | 10367m | 3.6m/s | -49.8°C | 37.4% | 258.8hPa | 2.8V | 00:00:00 | 00:00:00 | 00:00:00 | |
| MECKS9 | 2026-09-01 17:16:14 | 52.16364 | 14.56553 | 85° | 86km/h | 10367m | 3.7m/s | -49.9°C | 0% | 258.8hPa | 2.8V | 00:00:00 | 00:00:00 | 00:00:00 | |
| DB0DAN | 2026-09-01 17:16:10 | 52.16347 | 14.56379 | 79° | 84km/h | 10342m | 4m/s | -49.6°C | 32.2% | 259.79hPa | 2.8V | 00:00:00 | 00:00:00 | 00:00:00 | |
| SONDE2-12 | 2026-09-01 17:16:04 | 52.16325 | 14.56172 | 81° | 82km/h | 10315m | 4.6m/s | -49.4°C | 33.6% | 260.9hPa | 2.9V | 00:00:00 | 00:00:00 | 00:00:00 | |
| AA1-15 | 2026-09-01 17:15:56 | 52.16301 | 14.55893 | 79° | 88km/h | 10275m | 3.8m/s | -49°C | 36% | 262.5hPa | 2.9V | 18:12:15 | 01:06:19 | 00:00:00 | |
| EDDB2-11 | 2026-09-01 17:15:56 | 52.16301 | 14.55893 | 79° | 86km/h | 10275m | 3.8m/s | -49.0°C | 31.2% | 262.5hPa | 2.9V | 00:00:00 | 00:00:00 | 00:00:00 | |
| DB0DAN | 2026-09-01 17:15:55 | 52.16296 | 14.55858 | 80° | 82km/h | 10270m | 5.8m/s | -49°C | 30.9% | 262.61hPa | 2.9V | 00:00:00 | 00:00:00 | 00:00:00 | |
| AA1-15 | 2026-09-01 17:15:45 | 52.16260 | 14.55511 | 81° | 89km/h | 10223m | 3.8m/s | -48.5°C | 34.6% | 264.6hPa | 2.9V | 18:12:15 | 01:06:08 | 00:00:00 | |
| KRY50SP-1 | 2026-09-01 17:15:43 | 52.16256 | 14.55475 | 82° | 89km/h | 10219m | 4.4m/s | -48.5°C | 28.8% | 264.8hPa | 2.9V | 00:00:00 | 00:00:00 | 00:00:00 | |
| DB0DAN | 2026-09-01 17:15:40 | 52.16242 | 14.55333 | 81° | 82km/h | 10201m | 5.1m/s | -48.3°C | 26.3% | 265.62hPa | 2.9V | 00:00:00 | 00:00:00 | 00:00:00 | |
| AA1-15 | 2026-09-01 17:15:34 | 52.16222 | 14.55123 | 84° | 86km/h | 10171m | 5.3m/s | -48.1°C | 31.5% | 266.7hPa | 2.9V | 18:12:15 | 01:05:57 | 00:00:00 | |
| SONDE2-11 | 2026-09-01 17:15:33 | 52.16217 | 14.55052 | 83° | 88km/h | 10161m | 3.6m/s | -48.0°C | 26.5% | 267.1hPa | 2.9V | 00:00:00 | 00:00:00 | 00:00:00 | |
| S3001 | 2026-09-01 17:15:32 | 52.16217 | 14.55052 | 83° | 88km/h | 10161m | 3.6m/s | -48.0°C | 26.5% | 267.1hPa | 2.9V | 00:00:00 | 00:00:00 | 00:00:00 | |
| SP3BTT-10 | 2026-09-01 17:15:31 | 52.16215 | 14.55016 | 85° | 89km/h | 10157m | 7.2m/s | -47.9°C | 31.0% | 267.3hPa | 2.9V | 00:00:00 | 00:00:00 | 00:00:00 | |
| EDDB2-12 | 2026-09-01 17:15:29 | 52.16211 | 14.54944 | 84° | 88km/h | 10146m | 5.7m/s | -47.9°C | 26.6% | 267.7hPa | 2.9V | 00:00:00 | 00:00:00 | 00:00:00 | |
| DL2RXE-15 | 2026-09-01 17:15:27 | 52.16208 | 14.54907 | 85° | 89km/h | 10143m | 2.7m/s | -47.9°C | 26.3% | 267.9hPa | 2.9V | 00:00:00 | 00:00:00 | 00:00:00 | |
| DB0DAN | 2026-09-01 17:15:25 | 52.16201 | 14.54799 | 83° | 84km/h | 10128m | 3.7m/s | -47.7°C | 26.1% | 268.52hPa | 2.9V | 00:00:00 | 00:00:00 | 00:00:00 | |
| AA1-15 | 2026-09-01 17:15:21 | 52.16189 | 14.54659 | 81° | 86km/h | 10110m | 3.3m/s | -47.6°C | 31.3% | 269.3hPa | 2.9V | 18:12:15 | 01:05:44 | 00:00:00 | |
| KRY50SP-1 | 2026-09-01 17:15:21 | 52.16189 | 14.54659 | 82° | 86km/h | 10110m | 3.3m/s | -47.6°C | 26.7% | 269.3hPa | 2.9V | 00:00:00 | 00:00:00 | 00:00:00 | |
| SP6BVK | 2026-09-01 17:15:20 | 52.16189 | 14.54659 | 82° | 86km/h | 10110m | 3.3m/s | -47.6°C | 26.7% | 269.3hPa | 2.9V | 00:00:00 | 00:00:00 | 00:00:00 | |
| 13BRC | 2026-09-01 17:15:19 | 52.16185 | 14.54624 | 82° | 86km/h | 10105m | 5.4m/s | -47.6°C | 26.6% | 269.4hPa | 2.9V | 00:00:00 | 00:00:00 | 00:00:00 | |
| DAC517 | 2026-09-01 17:15:17 | 52.16179 | 14.54553 | 82° | 89km/h | 10097m | 4.3m/s | -47.5°C | 26.5% | 269.8hPa | 2.9V | 00:00:00 | 00:00:00 | 00:00:00 | |
| KRY50SP-1 | 2026-09-01 17:15:15 | 52.16171 | 14.54480 | 82° | 89km/h | 10089m | 4.7m/s | -47.4°C | 26.7% | 270.1hPa | 2.9V | 00:00:00 | 00:00:00 | 00:00:00 | |
| DB0NH | 2026-09-01 17:15:14 | 52.16164 | 14.54407 | 81° | 89km/h | 10079m | 6.3m/s | -47.3°C | 30.8% | 270.5hPa | 2.9V | 00:00:00 | 01:05:37 | 00:00:00 | |
| DB0DAN | 2026-09-01 17:15:10 | 52.16153 | 14.54263 | 84° | 82km/h | 10059m | 3.7m/s | -47.2°C | 26.5% | 271.39hPa | 2.9V | 00:00:00 | 00:00:00 | 00:00:00 | |
| SONCRA | 2026-09-01 17:15:08 | 52.16147 | 14.54156 | 83° | 88km/h | 10044m | 4.9m/s | -47.1°C | 26.6% | 271.9hPa | 2.8V | 00:00:00 | 00:00:00 | 00:00:00 | |
| KRY50SP-1 | 2026-09-01 17:15:05 | 52.16144 | 14.54120 | 83° | 89km/h | 10040m | 3.5m/s | -47.0°C | 26.5% | 272.1hPa | 2.8V | 00:00:00 | 00:00:00 | 00:00:00 | |
| SONDE2-11 | 2026-09-01 17:15:02 | 52.16125 | 14.53939 | 79° | 88km/h | 10018m | 4.1m/s | -46.9°C | 26.6% | 273.1hPa | 2.8V | 00:00:00 | 00:00:00 | 00:00:00 | |
| S3001 | 2026-09-01 17:15:01 | 52.16125 | 14.53939 | 79° | 88km/h | 10018m | 4.1m/s | -46.9°C | 26.6% | 273.1hPa | 2.8V | 00:00:00 | 00:00:00 | 00:00:00 | |
| EDDB2-12 | 2026-09-01 17:14:58 | 52.16114 | 14.53831 | 81° | 86km/h | 10003m | 5.5m/s | -46.7°C | 26.2% | 273.7hPa | 2.8V | 00:00:00 | 00:00:00 | 00:00:00 | |
| DB0DAN | 2026-09-01 17:14:55 | 52.16106 | 14.53724 | 84° | 84km/h | 9989m | 3.8m/s | -46.6°C | 26.5% | 274.29hPa | 2.8V | 00:00:00 | 00:00:00 | 00:00:00 | |
| AA1-15 | 2026-09-01 17:14:41 | 52.16064 | 14.53212 | 80° | 88km/h | 9920m | 6.1m/s | -46.1°C | 32.5% | 277hPa | 2.9V | 18:12:15 | 01:05:04 | 00:00:00 | |
| DB0DAN | 2026-09-01 17:14:40 | 52.16060 | 14.53176 | 81° | 84km/h | 9915m | 4m/s | -46°C | 27.5% | 277.22hPa | 2.9V | 00:00:00 | 00:00:00 | 00:00:00 | |
| DL2RXE-15 | 2026-09-01 17:14:40 | 52.16060 | 14.53176 | 82° | 88km/h | 9915m | 4.0m/s | -46.0°C | 27.5% | 277.2hPa | 2.8V | 00:00:00 | 00:00:00 | 00:00:00 | |
| SP6BVK | 2026-09-01 17:14:38 | 52.16057 | 14.53140 | 82° | 88km/h | 9912m | 2.8m/s | -46.0°C | 27.1% | 277.4hPa | 2.8V | 00:00:00 | 00:00:00 | 00:00:00 | |
| SONCRA | 2026-09-01 17:14:37 | 52.16050 | 14.53070 | 82° | 86km/h | 9903m | 2.8m/s | -46.0°C | 26.7% | 277.7hPa | 2.8V | 00:00:00 | 00:00:00 | 00:00:00 | |
| DAC517 | 2026-09-01 17:14:35 | 52.16047 | 14.53034 | 83° | 88km/h | 9899m | 6.1m/s | -45.9°C | 26.5% | 277.9hPa | 2.8V | 00:00:00 | 00:00:00 | 00:00:00 | |
| MECKS9 | 2026-09-01 17:14:34 | 52.16045 | 14.52998 | 84° | 89km/h | 9894m | 3.6m/s | -45.9°C | 0% | 278.2hPa | 2.8V | 00:00:00 | 00:00:00 | 00:00:00 | |
| KRY50SP-1 | 2026-09-01 17:14:33 | 52.16042 | 14.52962 | 85° | 89km/h | 9890m | 5.7m/s | -45.8°C | 26.5% | 278.3hPa | 2.8V | 00:00:00 | 00:00:00 | 00:00:00 | |
| SONDE2-11 | 2026-09-01 17:14:31 | 52.16034 | 14.52817 | 86° | 86km/h | 9871m | 3.7m/s | -45.6°C | 26.6% | 279.1hPa | 2.8V | 00:00:00 | 00:00:00 | 00:00:00 | |
| AA1-15 | 2026-09-01 17:14:31 | 52.16034 | 14.52817 | 86° | 88km/h | 9871m | 3.7m/s | -45.6°C | 31.4% | 279.1hPa | 2.8V | 18:12:15 | 01:04:53 | 00:00:00 | |
| S3001 | 2026-09-01 17:14:30 | 52.16034 | 14.52817 | 86° | 86km/h | 9871m | 3.7m/s | -45.6°C | 26.6% | 279.1hPa | 2.8V | 00:00:00 | 00:00:00 | 00:00:00 | |
| KRY50SP-1 | 2026-09-01 17:14:28 | 52.16032 | 14.52781 | 87° | 86km/h | 9867m | 5.8m/s | -45.6°C | 26.5% | 279.3hPa | 2.8V | 00:00:00 | 00:00:00 | 00:00:00 | |
| DB0DAN | 2026-09-01 17:14:25 | 52.16026 | 14.52641 | 87° | 80km/h | 9848m | 4.7m/s | -45.5°C | 26.7% | 280.09hPa | 2.8V | 00:00:00 | 00:00:00 | 00:00:00 | |
| AA1-15 | 2026-09-01 17:14:19 | 52.16021 | 14.52432 | 87° | 88km/h | 9820m | 3.6m/s | -45.3°C | 33.6% | 281.3hPa | 2.8V | 18:12:15 | 01:04:42 | 00:00:00 | |
| KRY50SP-1 | 2026-09-01 17:14:18 | 52.16020 | 14.52397 | 87° | 86km/h | 9815m | 6.9m/s | -45.2°C | 28.8% | 281.5hPa | 2.9V | 00:00:00 | 00:00:00 | 00:00:00 | |
| SP6BVK | 2026-09-01 17:14:17 | 52.16020 | 14.52397 | 87° | 86km/h | 9815m | 6.9m/s | -45.2°C | 28.8% | 281.5hPa | 2.9V | 00:00:00 | 00:00:00 | 00:00:00 | |
| DAC517 | 2026-09-01 17:14:15 | 52.16016 | 14.52326 | 84° | 88km/h | 9805m | 5.9m/s | -45.2°C | 28.8% | 281.9hPa | 2.9V | 00:00:00 | 00:00:00 | 00:00:00 | |
| DB0NH | 2026-09-01 17:14:14 | 52.16010 | 14.52256 | 83° | 82km/h | 9797m | 4.4m/s | -45.0°C | 33.0% | 282.1hPa | 2.9V | 00:00:00 | 01:04:37 | 00:00:00 | |
| MECKS9 | 2026-09-01 17:14:13 | 52.16010 | 14.52256 | 83° | 84km/h | 9797m | 4.5m/s | 0°C | 0% | 282.2hPa | 2.9V | 00:00:00 | 00:00:00 | 00:00:00 | |
| DB0DAN | 2026-09-01 17:14:10 | 52.16003 | 14.52121 | 86° | 77km/h | 9780m | 4.1m/s | -44.9°C | 29.1% | 282.95hPa | 2.9V | 00:00:00 | 00:00:00 | 00:00:00 | |
| AA1-15 | 2026-09-01 17:14:08 | 52.16000 | 14.52055 | 87° | 82km/h | 9770m | 7.7m/s | -44.9°C | 34.5% | 283.4hPa | 2.9V | 18:12:15 | 01:04:31 | 00:00:00 | |
| SONDE2-12 | 2026-09-01 17:14:00 | 52.15989 | 14.51785 | 85° | 80km/h | 9728m | 4.2m/s | -44.5°C | 30.3% | 285.2hPa | 2.9V | 00:00:00 | 00:00:00 | 00:00:00 | |
| AA1-15 | 2026-09-01 17:13:57 | 52.15986 | 14.51687 | 90° | 78km/h | 9715m | 3.7m/s | -44.4°C | 33.4% | 285.8hPa | 2.9V | 18:12:15 | 01:04:20 | 00:00:00 | |
| EDDB2-12 | 2026-09-01 17:13:56 | 52.15986 | 14.51621 | 89° | 80km/h | 9707m | 4.2m/s | -44.3°C | 28.0% | 286.1hPa | 2.8V | 00:00:00 | 00:00:00 | 00:00:00 | |
| DB0DAN | 2026-09-01 17:13:55 | 52.15986 | 14.51621 | 90° | 77km/h | 9707m | 4.2m/s | -44.3°C | 28% | 286.05hPa | 2.8V | 00:00:00 | 00:00:00 | 00:00:00 | |
| AA1-15 | 2026-09-01 17:13:46 | 52.15982 | 14.51313 | 86° | 80km/h | 9666m | 3.9m/s | -44°C | 31.9% | 287.9hPa | 2.9V | 18:12:15 | 01:04:09 | 00:00:00 | |
| DB0NH | 2026-09-01 17:13:44 | 52.15979 | 14.51246 | 87° | 84km/h | 9656m | 3.4m/s | -43.8°C | 30.7% | 288.2hPa | 2.9V | 00:00:00 | 01:04:07 | 00:00:00 | |
| DB0DAN | 2026-09-01 17:13:40 | 52.15976 | 14.51112 | 88° | 78km/h | 9635m | 4.2m/s | -43.7°C | 26.5% | 289.14hPa | 2.9V | 00:00:00 | 00:00:00 | 00:00:00 | |
| AA1-15 | 2026-09-01 17:13:35 | 52.15974 | 14.50943 | 89° | 82km/h | 9611m | 5.4m/s | -43.5°C | 30.6% | 290.1hPa | 2.8V | 18:12:15 | 01:03:58 | 00:00:00 | |
| SONDE2-12 | 2026-09-01 17:13:29 | 52.15967 | 14.50741 | 86° | 80km/h | 9583m | 6.3m/s | -43.3°C | 26.4% | 291.2hPa | 2.9V | 00:00:00 | 00:00:00 | 00:00:00 | |
| S3001 | 2026-09-01 17:13:28 | 52.15966 | 14.50707 | 86° | 82km/h | 9577m | 5.4m/s | -43.3°C | 25.3% | 291.4hPa | 2.9V | 00:00:00 | 00:00:00 | 00:00:00 | |
| DB0DAN | 2026-09-01 17:13:25 | 52.15963 | 14.50604 | 88° | 82km/h | 9563m | 5.7m/s | -43.1°C | 25.4% | 292.13hPa | 2.9V | 00:00:00 | 00:00:00 | 00:00:00 | |
| AA1-15 | 2026-09-01 17:13:24 | 52.15963 | 14.50569 | 89° | 86km/h | 9558m | 4.6m/s | -43.1°C | 30% | 292.4hPa | 2.9V | 18:12:15 | 01:03:47 | 00:00:00 | |
| AA1-15 | 2026-09-01 17:13:13 | 52.15958 | 14.50185 | 85° | 82km/h | 9510m | 2.2m/s | -42.8°C | 29% | 294.5hPa | 2.9V | 18:12:15 | 01:03:36 | 00:00:00 | |
| KRY50SP-1 | 2026-09-01 17:13:12 | 52.15958 | 14.50185 | 86° | 82km/h | 9510m | 2.2m/s | -42.8°C | 24.3% | 294.5hPa | 2.8V | 00:00:00 | 00:00:00 | 00:00:00 | |
| DB0DAN | 2026-09-01 17:13:10 | 52.15953 | 14.50083 | 87° | 80km/h | 9498m | 5m/s | -42.7°C | 21% | 295.04hPa | 2.8V | 00:00:00 | 00:00:00 | 00:00:00 | |
| AA1-15 | 2026-09-01 17:13:02 | 52.15954 | 14.49801 | 90° | 84km/h | 9461m | 4.2m/s | -42.5°C | 23.5% | 296.7hPa | 2.9V | 18:12:15 | 01:03:25 | 00:00:00 | |
| SONDE2-12 | 2026-09-01 17:12:58 | 52.15953 | 14.49665 | 89° | 80km/h | 9441m | 6.1m/s | -42.3°C | 20.5% | 297.5hPa | 2.9V | 00:00:00 | 00:00:00 | 00:00:00 | |
| S3001 | 2026-09-01 17:12:57 | 52.15953 | 14.49631 | 88° | 80km/h | 9436m | 4.8m/s | -42.3°C | 19.8% | 297.7hPa | 2.9V | 00:00:00 | 00:00:00 | 00:00:00 | |
| DB0DAN | 2026-09-01 17:12:55 | 52.15951 | 14.49565 | 88° | 77km/h | 9427m | 3.4m/s | -42.2°C | 19.6% | 298.07hPa | 2.9V | 00:00:00 | 00:00:00 | 00:00:00 | |
| AA1-15 | 2026-09-01 17:12:52 | 52.15951 | 14.49465 | 91° | 82km/h | 9416m | 4.7m/s | -42.1°C | 22.3% | 298.7hPa | 2.9V | 18:12:15 | 01:03:15 | 00:00:00 | |
| EDDB2-11 | 2026-09-01 17:12:50 | 52.15951 | 14.49397 | 91° | 80km/h | 9406m | 6.4m/s | -42.0°C | 18.0% | 299.1hPa | 2.9V | 00:00:00 | 00:00:00 | 00:00:00 | |
| KRY50SP-1 | 2026-09-01 17:12:45 | 52.15952 | 14.49260 | 91° | 84km/h | 9381m | 5.3m/s | -41.8°C | 18.0% | 300.0hPa | 2.9V | 00:00:00 | 00:00:00 | 00:00:00 | |
| DB0NH | 2026-09-01 17:12:44 | 52.15951 | 14.49190 | 89° | 84km/h | 9372m | 4.9m/s | -41.7°C | 21.0% | 300.5hPa | 2.9V | 00:00:00 | 01:03:07 | 00:00:00 | |
| DB0DAN | 2026-09-01 17:12:40 | 52.15950 | 14.49051 | 88° | 80km/h | 9352m | 3.3m/s | -41.6°C | 18.8% | 301.37hPa | 2.9V | 00:00:00 | 00:00:00 | 00:00:00 | |
| AA1-15 | 2026-09-01 17:12:40 | 52.15950 | 14.49051 | 88° | 84km/h | 9352m | 3.3m/s | -41.6°C | 22.5% | 301.4hPa | 2.9V | 18:12:15 | 01:03:03 | 00:00:00 | |
| AA1-15 | 2026-09-01 17:12:30 | 52.15947 | 14.48720 | 93° | 82km/h | 9307m | 3.5m/s | 0°C | 0% | 303.3hPa | 2.8V | 18:12:15 | 01:02:53 | 00:00:00 | |
| SONDE2-12 | 2026-09-01 17:12:27 | 52.15950 | 14.48618 | 91° | 82km/h | 9292m | 4.0m/s | -41.1°C | 19.2% | 304.0hPa | 2.9V | 00:00:00 | 00:00:00 | 00:00:00 | |
| DB0DAN | 2026-09-01 17:12:25 | 52.15951 | 14.48549 | 92° | 78km/h | 9283m | 4.3m/s | -41°C | 18.4% | 304.38hPa | 2.9V | 00:00:00 | 00:00:00 | 00:00:00 | |
| AA1-15 | 2026-09-01 17:12:19 | 52.15959 | 14.48340 | 93° | 86km/h | 9256m | 3.7m/s | 0°C | 0% | 305.6hPa | 2.9V | 18:12:15 | 01:02:42 | 00:00:00 | |
| KRY50SP-1 | 2026-09-01 17:12:16 | 52.15961 | 14.48271 | 93° | 84km/h | 9247m | 3.2m/s | -40.7°C | 16.1% | 306.0hPa | 2.8V | 00:00:00 | 00:00:00 | 00:00:00 | |
| DB0NH | 2026-09-01 17:12:14 | 52.15963 | 14.48166 | 93° | 82km/h | 9234m | 3.9m/s | -40.6°C | 17.9% | 306.6hPa | 2.8V | 00:00:00 | 01:02:37 | 00:00:00 | |
| DL2RXE-15 | 2026-09-01 17:12:12 | 52.15964 | 14.48132 | 93° | 84km/h | 9230m | 4.1m/s | -40.6°C | 14.7% | 306.7hPa | 2.8V | 00:00:00 | 00:00:00 | 00:00:00 | |
| DB0DAN | 2026-09-01 17:12:10 | 52.15967 | 14.48032 | 94° | 77km/h | 9216m | 4.8m/s | -40.5°C | 12.9% | 307.4hPa | 2.8V | 00:00:00 | 00:00:00 | 00:00:00 | |
| SONDE2-12 | 2026-09-01 17:11:56 | 52.15982 | 14.47553 | 91° | 80km/h | 9154m | 5.7m/s | -40.1°C | 20.0% | 310.3hPa | 2.8V | 00:00:00 | 00:00:00 | 00:00:00 | |
| DB0DAN | 2026-09-01 17:11:55 | 52.15982 | 14.47520 | 92° | 77km/h | 9149m | 3.3m/s | -40°C | 19.7% | 310.57hPa | 2.8V | 00:00:00 | 00:00:00 | 00:00:00 | |
| EDDB2-12 | 2026-09-01 17:11:52 | 52.15989 | 14.47385 | 95° | 82km/h | 9134m | 4.1m/s | -39.9°C | 20.2% | 311.2hPa | 2.9V | 00:00:00 | 00:00:00 | 00:00:00 | |
| S3001 | 2026-09-01 17:11:50 | 52.15991 | 14.47351 | 96° | 82km/h | 9129m | 5.3m/s | -39.9°C | 20.0% | 311.5hPa | 2.9V | 00:00:00 | 00:00:00 | 00:00:00 | |
| EDDB2-11 | 2026-09-01 17:11:48 | 52.15998 | 14.47250 | 94° | 82km/h | 9116m | 2.9m/s | -39.7°C | 20.2% | 312.2hPa | 2.9V | 00:00:00 | 00:00:00 | 00:00:00 | |
| DL2RXE-15 | 2026-09-01 17:11:46 | 52.15999 | 14.47216 | 95° | 82km/h | 9112m | 5.2m/s | -39.7°C | 20.0% | 312.2hPa | 2.9V | 00:00:00 | 00:00:00 | 00:00:00 | |
| SP3BTT-10 | 2026-09-01 17:11:45 | 52.16001 | 14.47182 | 95° | 84km/h | 9108m | 2.9m/s | -39.6°C | 22.9% | 312.5hPa | 2.9V | 00:00:00 | 00:00:00 | 00:00:00 | |
| DB0NH | 2026-09-01 17:11:44 | 52.16003 | 14.47149 | 94° | 82km/h | 9104m | 5.8m/s | -39.6°C | 22.6% | 312.6hPa | 2.9V | 00:00:00 | 01:02:07 | 00:00:00 | |
| KRY50SP-1 | 2026-09-01 17:11:43 | 52.16003 | 14.47149 | 95° | 82km/h | 9104m | 5.9m/s | -39.6°C | 19.9% | 312.7hPa | 2.9V | 00:00:00 | 00:00:00 | 00:00:00 | |
| DB0DAN | 2026-09-01 17:11:40 | 52.16008 | 14.47015 | 94° | 78km/h | 9086m | 6.1m/s | -39.5°C | 20.1% | 313.54hPa | 2.9V | 00:00:00 | 00:00:00 | 00:00:00 | |
| AA1-15 | 2026-09-01 17:11:32 | 52.16025 | 14.46747 | 93° | 82km/h | 9051m | 5m/s | 0°C | 0% | 315.2hPa | 2.9V | 18:12:15 | 01:01:55 | 00:00:00 | |
| SONDE2-12 | 2026-09-01 17:11:25 | 52.16030 | 14.46511 | 93° | 80km/h | 9016m | 7.0m/s | -38.8°C | 20.2% | 316.6hPa | 2.8V | 00:00:00 | 00:00:00 | 00:00:00 | |
| DB0DAN | 2026-09-01 17:11:25 | 52.16030 | 14.46511 | 93° | 77km/h | 9016m | 7m/s | -38.8°C | 19.4% | 316.64hPa | 2.9V | 00:00:00 | 00:00:00 | 00:00:00 | |
| AA1-15 | 2026-09-01 17:11:13 | 52.16045 | 14.46099 | 90° | 84km/h | 8961m | 5.1m/s | 0°C | 0% | 319.3hPa | 2.8V | 18:12:15 | 01:01:36 | 00:00:00 | |
| DB0DAN | 2026-09-01 17:11:10 | 52.16046 | 14.45997 | 92° | 78km/h | 8948m | 4.9m/s | -38.3°C | 19.5% | 319.92hPa | 2.9V | 00:00:00 | 00:00:00 | 00:00:00 | |
| AA1-15 | 2026-09-01 17:11:02 | 52.16054 | 14.45718 | 94° | 84km/h | 8909m | 3m/s | 0°C | 0% | 321.6hPa | 2.9V | 18:12:15 | 01:01:25 | 00:00:00 | |
| SP3BTT-10 | 2026-09-01 17:11:00 | 52.16057 | 14.45649 | 94° | 80km/h | 8900m | 5.4m/s | -37.9°C | 21.6% | 322.0hPa | 2.9V | 00:00:00 | 00:00:00 | 00:00:00 | |
| KRY50SP-1 | 2026-09-01 17:10:57 | 52.16060 | 14.45581 | 95° | 84km/h | 8888m | 6.7m/s | -37.8°C | 19.0% | 322.5hPa | 2.9V | 00:00:00 | 00:00:00 | 00:00:00 | |
| DB0DAN | 2026-09-01 17:10:55 | 52.16065 | 14.45481 | 94° | 77km/h | 8875m | 4.5m/s | -37.7°C | 19% | 323.21hPa | 2.9V | 00:00:00 | 00:00:00 | 00:00:00 | |
| SONDE2-12 | 2026-09-01 17:10:54 | 52.16066 | 14.45448 | 93° | 80km/h | 8870m | 4.3m/s | -37.7°C | 19.9% | 323.4hPa | 2.8V | 00:00:00 | 00:00:00 | 00:00:00 | |
| AA1-15 | 2026-09-01 17:10:51 | 52.16070 | 14.45346 | 94° | 82km/h | 8856m | 3.8m/s | 0°C | 0% | 324hPa | 2.8V | 18:12:15 | 01:01:14 | 00:00:00 | |
| EDDB2-12 | 2026-09-01 17:10:50 | 52.16072 | 14.45278 | 92° | 82km/h | 8847m | 4.1m/s | -37.5°C | 19.1% | 324.4hPa | 2.9V | 00:00:00 | 00:00:00 | 00:00:00 | |
| S3001 | 2026-09-01 17:10:48 | 52.16073 | 14.45244 | 93° | 82km/h | 8842m | 5.7m/s | -37.4°C | 19.3% | 324.6hPa | 2.9V | 00:00:00 | 00:00:00 | 00:00:00 | |
| EDDB2-11 | 2026-09-01 17:10:46 | 52.16078 | 14.45140 | 95° | 84km/h | 8829m | 5.3m/s | -37.3°C | 19.6% | 325.3hPa | 2.9V | 00:00:00 | 00:00:00 | 00:00:00 | |
| AA1-15 | 2026-09-01 17:10:40 | 52.16091 | 14.44972 | 97° | 82km/h | 8802m | 5.2m/s | 0°C | 0% | 326.5hPa | 2.9V | 18:12:15 | 01:01:03 | 00:00:00 | |
| DB0DAN | 2026-09-01 17:10:40 | 52.16091 | 14.44972 | 97° | 78km/h | 8802m | 5.2m/s | -37.1°C | 21.6% | 326.49hPa | 2.9V | 00:00:00 | 00:00:00 | 00:00:00 | |
| AA1-15 | 2026-09-01 17:10:27 | 52.16122 | 14.44535 | 94° | 82km/h | 8739m | 4m/s | 0°C | 0% | 329.6hPa | 2.8V | 18:12:15 | 01:00:50 | 00:00:00 | |
| DB0DAN | 2026-09-01 17:10:25 | 52.16125 | 14.44468 | 95° | 77km/h | 8730m | 3.6m/s | -36.4°C | 25.3% | 330hPa | 2.9V | 00:00:00 | 00:00:00 | 00:00:00 | |
| SONDE2-12 | 2026-09-01 17:10:23 | 52.16128 | 14.44403 | 94° | 78km/h | 8722m | 4.4m/s | -36.4°C | 26.4% | 330.4hPa | 2.9V | 00:00:00 | 00:00:00 | 00:00:00 | |
| AA1-15 | 2026-09-01 17:10:16 | 52.16146 | 14.44183 | 97° | 78km/h | 8690m | 4.1m/s | 0°C | 0% | 331.9hPa | 2.9V | 18:12:15 | 01:00:39 | 00:00:00 | |
| EDDB2-11 | 2026-09-01 17:10:15 | 52.16151 | 14.44118 | 95° | 80km/h | 8682m | 4.0m/s | -36.0°C | 26.1% | 332.3hPa | 2.9V | 00:00:00 | 00:00:00 | 00:00:00 | |
| SP3BTT-10 | 2026-09-01 17:10:14 | 52.16151 | 14.44118 | 96° | 80km/h | 8682m | 3.9m/s | -36.0°C | 28.8% | 332.2hPa | 2.9V | 00:00:00 | 00:00:00 | 08:30:00 | |
| 13BRC | 2026-09-01 17:10:12 | 52.16153 | 14.44084 | 98° | 82km/h | 8677m | 5.1m/s | -36.0°C | 25.9% | 332.5hPa | 2.9V | 00:00:00 | 00:00:00 | 00:00:00 | |
| DB0DAN | 2026-09-01 17:10:10 | 52.16160 | 14.43983 | 96° | 80km/h | 8662m | 5.4m/s | -35.9°C | 25.3% | 333.19hPa | 2.9V | 00:00:00 | 00:00:00 | 00:00:00 | |
| AA1-15 | 2026-09-01 17:10:05 | 52.16167 | 14.43820 | 91° | 78km/h | 8639m | 4m/s | 0°C | 0% | 334.4hPa | 2.8V | 18:12:15 | 01:00:28 | 00:00:00 | |
| SONCRA | 2026-09-01 17:09:58 | 52.16173 | 14.43567 | 95° | 78km/h | 8592m | 6.7m/s | -35.3°C | 23.5% | 336.7hPa | 2.9V | 00:00:00 | 00:00:00 | 00:00:00 | |
| DB0DAN | 2026-09-01 17:09:55 | 52.16177 | 14.43501 | 95° | 78km/h | 8581m | 5.1m/s | -35.2°C | 23.1% | 337.16hPa | 2.9V | 00:00:00 | 00:00:00 | 00:00:00 | |
| AA1-15 | 2026-09-01 17:09:54 | 52.16178 | 14.43467 | 95° | 84km/h | 8576m | 3.8m/s | 0°C | 0% | 337.4hPa | 2.9V | 18:12:15 | 01:00:17 | 00:00:00 | |
| SONDE2-12 | 2026-09-01 17:09:52 | 52.16182 | 14.43399 | 94° | 80km/h | 8567m | 3.8m/s | -35.0°C | 24.0% | 337.9hPa | 2.9V | 00:00:00 | 00:00:00 | 00:00:00 | |
| SONDE2-11 | 2026-09-01 17:09:51 | 52.16184 | 14.43366 | 95° | 78km/h | 8562m | 5.7m/s | -35.0°C | 23.1% | 338.1hPa | 2.9V | 00:00:00 | 00:00:00 | 00:00:00 | |
| EDDB2-12 | 2026-09-01 17:09:47 | 52.16191 | 14.43239 | 96° | 77km/h | 8544m | 5.1m/s | -34.8°C | 22.0% | 339.0hPa | 2.9V | 00:00:00 | 00:00:00 | 00:00:00 | |
| S3001 | 2026-09-01 17:09:46 | 52.16194 | 14.43208 | 96° | 77km/h | 8540m | 4.4m/s | -34.8°C | 21.7% | 339.3hPa | 2.9V | 00:00:00 | 00:00:00 | 00:00:00 | |
| AA1-15 | 2026-09-01 17:09:43 | 52.16199 | 14.43113 | 95° | 78km/h | 8520m | 7.3m/s | 0°C | 0% | 0hPa | 2.9V | 18:12:15 | 01:00:06 | 00:00:00 | |
| KRY50SP-1 | 2026-09-01 17:09:43 | 52.16199 | 14.43113 | 96° | 78km/h | 8520m | 7.3m/s | -34.7°C | 20.3% | 340.0hPa | 2.8V | 00:00:00 | 00:00:00 | 00:00:00 | |
| DB0DAN | 2026-09-01 17:09:40 | 52.16206 | 14.43015 | 98° | 78km/h | 8504m | 6.5m/s | -34.5°C | 18.1% | 340.86hPa | 2.8V | 00:00:00 | 00:00:00 | 00:00:00 | |
| AA1-15 | 2026-09-01 17:09:32 | 52.16229 | 14.42748 | 97° | 84km/h | 8466m | 3.4m/s | 0°C | 0% | 0hPa | 2.8V | 18:12:15 | 00:59:55 | 00:00:00 | |
| KRY50SP-1 | 2026-09-01 17:09:31 | 52.16229 | 14.42748 | 98° | 84km/h | 8466m | 3.4m/s | -34.1°C | 11.7% | 342.6hPa | 2.8V | 00:00:00 | 00:00:00 | 00:00:00 | |
| SP3BTT-10 | 2026-09-01 17:09:29 | 52.16235 | 14.42646 | 97° | 75km/h | 8452m | 5.9m/s | -34.0°C | 12.6% | 343.2hPa | 2.8V | 00:00:00 | 00:00:00 | 00:00:00 | |
| DAC517 | 2026-09-01 17:09:27 | 52.16238 | 14.42612 | 98° | 82km/h | 8448m | 2.3m/s | -34.0°C | 10.9% | 343.5hPa | 2.8V | 00:00:00 | 00:00:00 | 00:00:00 | |
| DB0DAN | 2026-09-01 17:09:25 | 52.16245 | 14.42514 | 97° | 73km/h | 8433m | 5.5m/s | -33.9°C | 10.4% | 344.19hPa | 2.8V | 00:00:00 | 00:00:00 | 00:00:00 | |
| AA1-15 | 2026-09-01 17:09:22 | 52.16253 | 14.42421 | 98° | 77km/h | 8412m | 8.4m/s | 0°C | 0% | 0hPa | 2.9V | 18:12:15 | 00:59:45 | 00:00:00 | |
| SONDE2-12 | 2026-09-01 17:09:21 | 52.16255 | 14.42389 | 95° | 78km/h | 8404m | 7.7m/s | -33.6°C | 9.9% | 345.7hPa | 2.9V | 00:00:00 | 00:00:00 | 00:00:00 | |
| SONDE2-11 | 2026-09-01 17:09:20 | 52.16257 | 14.42356 | 95° | 82km/h | 8396m | 7.9m/s | -33.6°C | 9.1% | 345.9hPa | 2.9V | 00:00:00 | 00:00:00 | 00:00:00 | |
| KRY50SP-1 | 2026-09-01 17:09:19 | 52.16257 | 14.42356 | 96° | 82km/h | 8396m | 7.9m/s | -33.6°C | 9.1% | 345.9hPa | 2.9V | 00:00:00 | 00:00:00 | 00:00:00 | |
| DL2RXE-15 | 2026-09-01 17:09:18 | 52.16259 | 14.42322 | 97° | 82km/h | 8389m | 5.8m/s | -33.5°C | 8.6% | 346.2hPa | 2.9V | 00:00:00 | 00:00:00 | 00:00:00 | |
| EDDB2-12 | 2026-09-01 17:09:16 | 52.16267 | 14.42223 | 98° | 80km/h | 8374m | 5.1m/s | -33.4°C | 7.2% | 347.2hPa | 2.9V | 00:00:00 | 00:00:00 | 00:00:00 | |
| S3001 | 2026-09-01 17:09:15 | 52.16270 | 14.42190 | 98° | 78km/h | 8369m | 6.2m/s | -33.3°C | 7.0% | 347.5hPa | 2.9V | 00:00:00 | 00:00:00 | 00:00:00 | |
| KRY50SP-1 | 2026-09-01 17:09:14 | 52.16270 | 14.42190 | 99° | 80km/h | 8369m | 6.2m/s | -33.3°C | 7.0% | 347.5hPa | 2.9V | 00:00:00 | 00:00:00 | 00:00:00 | |
| MECKS9 | 2026-09-01 17:09:13 | 52.16273 | 14.42158 | 99° | 78km/h | 8364m | 4.1m/s | 0°C | 0% | 0hPa | 2.9V | 00:00:00 | 00:00:00 | 00:00:00 | |
| DB0DAN | 2026-09-01 17:09:10 | 52.16282 | 14.42033 | 94° | 71km/h | 8345m | 4.5m/s | -33.2°C | 6.6% | 348.71hPa | 2.9V | 00:00:00 | 00:00:00 | 00:00:00 | |
| AA1-15 | 2026-09-01 17:09:01 | 52.16288 | 14.41749 | 92° | 73km/h | 8297m | 7m/s | 0°C | 0% | 0hPa | 2.9V | 18:12:15 | 00:59:24 | 00:00:00 | |
| KRY50SP-1 | 2026-09-01 17:08:58 | 52.16289 | 14.41691 | 93° | 68km/h | 8287m | 5.7m/s | -33.0°C | 6.8% | 351.4hPa | 2.9V | 00:00:00 | 00:00:00 | 00:00:00 | |
| DL2RXE-15 | 2026-09-01 17:08:57 | 52.16290 | 14.41663 | 93° | 69km/h | 8282m | 4.3m/s | -33.0°C | 6.9% | 351.9hPa | 2.9V | 00:00:00 | 00:00:00 | 00:00:00 | |
| DB0DAN | 2026-09-01 17:08:55 | 52.16293 | 14.41575 | 94° | 71km/h | 8268m | 5.4m/s | -32.9°C | 6.9% | 352.36hPa | 2.9V | 00:00:00 | 00:00:00 | 00:00:00 | |
| SONDE2-12 | 2026-09-01 17:08:50 | 52.16303 | 14.41421 | 96° | 71km/h | 8243m | 4.6m/s | -32.8°C | 7.6% | 353.6hPa | 2.9V | 00:00:00 | 00:00:00 | 00:00:00 | |
| AA1-15 | 2026-09-01 17:08:48 | 52.16306 | 14.41364 | 93° | 68km/h | 8233m | 4.7m/s | 0°C | 0% | 0hPa | 2.9V | 18:12:15 | 00:59:11 | 00:00:00 | |
| SP6BVK | 2026-09-01 17:08:47 | 52.16306 | 14.41364 | 94° | 68km/h | 8233m | 4.7m/s | -32.8°C | 0% | 0hPa | 2.9V | 00:00:00 | 00:00:00 | 00:00:00 | |
| DAC517 | 2026-09-01 17:08:46 | 52.16306 | 14.41336 | 92° | 68km/h | 8228m | 4.9m/s | -32.8°C | 7.4% | 354.4hPa | 2.9V | 00:00:00 | 00:00:00 | 00:00:00 | |
| SP3BTT-10 | 2026-09-01 17:08:45 | 52.16308 | 14.41280 | 94° | 71km/h | 8219m | 4.9m/s | -32.7°C | 8.7% | 354.9hPa | 2.9V | 00:00:00 | 00:00:00 | 00:00:00 | |
| S3001 | 2026-09-01 17:08:44 | 52.16310 | 14.41223 | 92° | 69km/h | 8210m | 5.4m/s | -32.7°C | 7.4% | 355.4hPa | 2.9V | 00:00:00 | 00:00:00 | 00:00:00 | |
| DB0DAN | 2026-09-01 17:08:40 | 52.16312 | 14.41135 | 91° | 68km/h | 8193m | 4.8m/s | -32.6°C | 7.6% | 356.27hPa | 2.9V | 00:00:00 | 00:00:00 | 00:00:00 | |
| AA1-15 | 2026-09-01 17:08:38 | 52.16312 | 14.41078 | 89° | 69km/h | 8183m | 4.6m/s | 0°C | 0% | 0hPa | 2.9V | 18:12:15 | 00:59:01 | 00:00:00 | |
| KRY50SP-1 | 2026-09-01 17:08:35 | 52.16311 | 14.41020 | 90° | 69km/h | 8173m | 5.9m/s | -32.5°C | 7.7% | 357.2hPa | 2.8V | 00:00:00 | 00:00:00 | 00:00:00 | |
| 13BRC | 2026-09-01 17:08:30 | 52.16312 | 14.40871 | 93° | 73km/h | 8149m | 5.3m/s | -32.4°C | 7.6% | 358.5hPa | 2.8V | 00:00:00 | 00:00:00 | 00:00:00 | |
| MECKS9 | 2026-09-01 17:08:29 | 52.16313 | 14.40841 | 92° | 73km/h | 8144m | 3.8m/s | 0°C | 0% | 0hPa | 2.8V | 00:00:00 | 00:00:00 | 00:00:00 | |
| DB0DAN | 2026-09-01 17:08:25 | 52.16314 | 14.40687 | 90° | 75km/h | 8120m | 4.3m/s | -32.2°C | 7.4% | 360.01hPa | 2.8V | 00:00:00 | 00:00:00 | 00:00:00 | |
| SONDE2-12 | 2026-09-01 17:08:19 | 52.16308 | 14.40506 | 84° | 68km/h | 8091m | 4.9m/s | -32.0°C | 7.6% | 361.5hPa | 2.8V | 00:00:00 | 00:00:00 | 00:00:00 | |
| SONDE2-11 | 2026-09-01 17:08:18 | 52.16307 | 14.40478 | 85° | 68km/h | 8086m | 6.4m/s | -31.9°C | 7.3% | 361.8hPa | 2.8V | 00:00:00 | 00:00:00 | 00:00:00 | |
| EDDB2-12 | 2026-09-01 17:08:14 | 52.16302 | 14.40364 | 87° | 69km/h | 8063m | 4.1m/s | -31.8°C | 7.6% | 363.0hPa | 2.8V | 00:00:00 | 00:00:00 | 00:00:00 | |
| DB0DAN | 2026-09-01 17:08:10 | 52.16297 | 14.40245 | 86° | 71km/h | 8044m | 3.6m/s | -31.9°C | 8.5% | 363.99hPa | 2.8V | 00:00:00 | 00:00:00 | 00:00:00 | |
| DL2RXE-15 | 2026-09-01 17:08:10 | 52.16297 | 14.40245 | 87° | 75km/h | 8044m | 3.6m/s | -31.9°C | 0% | 364.0hPa | 2.9V | 00:00:00 | 00:00:00 | 00:00:00 | |
| 13BRC | 2026-09-01 17:08:09 | 52.16297 | 14.40245 | 87° | 75km/h | 8044m | 3.6m/s | -31.9°C | 8.5% | 364.0hPa | 2.9V | 00:00:00 | 00:00:00 | 00:00:00 | |
| KRY50SP-1 | 2026-09-01 17:08:08 | 52.16295 | 14.40214 | 85° | 77km/h | 8040m | 5.6m/s | -32.0°C | 9.0% | 364.2hPa | 2.9V | 00:00:00 | 00:00:00 | 00:00:00 | |
| MECKS9 | 2026-09-01 17:08:07 | 52.16293 | 14.40184 | 82° | 73km/h | 8035m | 4.4m/s | 0°C | 0% | 0hPa | 2.9V | 00:00:00 | 00:00:00 | 00:00:00 | |
| SP6BVK | 2026-09-01 17:08:06 | 52.16287 | 14.40127 | 83° | 66km/h | 8021m | 7.9m/s | -32.2°C | 0% | 0hPa | 2.9V | 00:00:00 | 00:00:00 | 00:00:00 | |
| DAC517 | 2026-09-01 17:08:05 | 52.16287 | 14.40127 | 83° | 66km/h | 8021m | 7.9m/s | -32.2°C | 10.2% | 365.1hPa | 2.9V | 00:00:00 | 00:00:00 | 00:00:00 | |
| KRY50SP-1 | 2026-09-01 17:08:03 | 52.16284 | 14.40073 | 87° | 68km/h | 8006m | 8.6m/s | -32.2°C | 10.9% | 365.8hPa | 2.9V | 00:00:00 | 00:00:00 | 00:00:00 | |
| SP3BTT-10 | 2026-09-01 17:07:59 | 52.16284 | 14.39923 | 92° | 66km/h | 7975m | 7.3m/s | -32.1°C | 13.6% | 367.4hPa | 2.9V | 00:00:00 | 00:00:00 | 00:00:00 | |
| KRY50SP-1 | 2026-09-01 17:07:58 | 52.16284 | 14.39890 | 90° | 80km/h | 7970m | 3.9m/s | -32.1°C | 12.4% | 367.8hPa | 2.9V | 00:00:00 | 00:00:00 | 00:00:00 | |
| MECKS9 | 2026-09-01 17:07:57 | 52.16284 | 14.39890 | 90° | 80km/h | 7970m | 3.9m/s | 0°C | 0% | 0hPa | 2.9V | 00:00:00 | 00:00:00 | 00:00:00 | |
| DB0DAN | 2026-09-01 17:07:55 | 52.16283 | 14.39790 | 89° | 75km/h | 7956m | 6.6m/s | -32.1°C | 13.3% | 368.43hPa | 2.9V | 00:00:00 | 00:00:00 | 00:00:00 | |
| SONDE2-12 | 2026-09-01 17:07:48 | 52.16291 | 14.39605 | 98° | 53km/h | 7907m | 4.3m/s | -32.2°C | 19.9% | 371.1hPa | 2.9V | 00:00:00 | 00:00:00 | 00:00:00 | |
| SONDE2-11 | 2026-09-01 17:07:47 | 52.16293 | 14.39583 | 99° | 55km/h | 7901m | 6.4m/s | -32.1°C | 19.5% | 371.4hPa | 2.9V | 00:00:00 | 00:00:00 | 00:00:00 | |
| MECKS9 | 2026-09-01 17:07:46 | 52.16293 | 14.39583 | 100° | 57km/h | 7901m | 6.4m/s | 0°C | 0% | 0hPa | 2.9V | 00:00:00 | 00:00:00 | 00:00:00 | |
| DAC517 | 2026-09-01 17:07:45 | 52.16295 | 14.39559 | 101° | 62km/h | 7896m | 3.9m/s | -32.1°C | 19.7% | 371.7hPa | 2.9V | 00:00:00 | 00:00:00 | 00:00:00 | |
| SP6BVK | 2026-09-01 17:07:44 | 52.16298 | 14.39533 | 100° | 64km/h | 7892m | 6.4m/s | -32.1°C | 0% | 0hPa | 2.9V | 00:00:00 | 00:00:00 | 00:00:00 | |
| EDDB2-12 | 2026-09-01 17:07:43 | 52.16303 | 14.39480 | 99° | 64km/h | 7876m | 8.1m/s | -32.0°C | 20.4% | 372.7hPa | 2.9V | 00:00:00 | 00:00:00 | 00:00:00 | |
| DL2RXE-15 | 2026-09-01 17:07:42 | 52.16303 | 14.39480 | 100° | 66km/h | 7876m | 8.1m/s | -32.0°C | 20.4% | 372.7hPa | 2.9V | 00:00:00 | 00:00:00 | 00:00:00 | |
| DB0DAN | 2026-09-01 17:07:40 | 52.16310 | 14.39399 | 97° | 64km/h | 7861m | 3.5m/s | -32°C | 21.3% | 373.56hPa | 2.9V | 00:00:00 | 00:00:00 | 00:00:00 | |
| EDDB2-11 | 2026-09-01 17:07:39 | 52.16312 | 14.39373 | 97° | 62km/h | 7856m | 6.7m/s | -32.0°C | 21.8% | 373.8hPa | 2.9V | 00:00:00 | 00:00:00 | 00:00:00 | |
| KRY50SP-1 | 2026-09-01 17:07:35 | 52.16319 | 14.39298 | 101° | 58km/h | 7841m | 6.1m/s | -32.0°C | 25.6% | 374.5hPa | 2.9V | 00:00:00 | 00:00:00 | 00:00:00 | |
| KRY50SP-1 | 2026-09-01 17:07:30 | 52.16332 | 14.39177 | 101° | 66km/h | 7815m | 4.8m/s | -32.0°C | 36.0% | 375.9hPa | 2.9V | 00:00:00 | 00:00:00 | 00:00:00 | |
| 13BRC | 2026-09-01 17:07:28 | 52.16336 | 14.39122 | 100° | 71km/h | 7804m | 4.8m/s | -32.0°C | 40.2% | 376.5hPa | 2.9V | 00:00:00 | 00:00:00 | 00:00:00 | |
| DB0DAN | 2026-09-01 17:07:25 | 52.16348 | 14.39000 | 100° | 71km/h | 7786m | 5.7m/s | -32°C | 57.6% | 377.39hPa | 2.9V | 00:00:00 | 00:00:00 | 00:00:00 | |
| AA1-15 | 2026-09-01 17:07:25 | 52.16348 | 14.39000 | 101° | 75km/h | 7786m | 5.7m/s | 0°C | 0% | 0hPa | 2.9V | 18:12:15 | 00:57:48 | 00:00:00 | |
| SONDE2-12 | 2026-09-01 17:07:17 | 52.16366 | 14.38757 | 96° | 53km/h | 7725m | 5.4m/s | -31.9°C | 90.3% | 380.9hPa | 2.9V | 00:00:00 | 00:00:00 | 00:00:00 | |
| AA1-15 | 2026-09-01 17:07:14 | 52.16369 | 14.38713 | 97° | 57km/h | 7714m | 5.2m/s | 0°C | 0% | 0hPa | 2.9V | 18:12:15 | 00:57:37 | 00:00:00 | |
| SP3BTT-10 | 2026-09-01 17:07:14 | 52.16369 | 14.38713 | 97° | 57km/h | 7714m | 5.1m/s | -31.8°C | 94.2% | 381.3hPa | 2.9V | 00:00:00 | 00:00:00 | 00:00:00 | |
| KRY50SP-1 | 2026-09-01 17:07:12 | 52.16371 | 14.38690 | 98° | 58km/h | 7710m | 4.9m/s | -31.8°C | 89.1% | 381.6hPa | 2.9V | 00:00:00 | 00:00:00 | 00:00:00 | |
| DB0DAN | 2026-09-01 17:07:10 | 52.16377 | 14.38616 | 98° | 60km/h | 7694m | 5.5m/s | -31.6°C | 89.9% | 382.51hPa | 2.9V | 00:00:00 | 00:00:00 | 00:00:00 | |
| EDDB2-11 | 2026-09-01 17:07:08 | 52.16382 | 14.38565 | 99° | 64km/h | 7685m | 6.0m/s | -31.6°C | 90.6% | 382.9hPa | 2.9V | 00:00:00 | 00:00:00 | 00:00:00 | |
| 13BRC | 2026-09-01 17:07:07 | 52.16382 | 14.38565 | 101° | 66km/h | 7685m | 6.0m/s | -31.6°C | 90.6% | 382.9hPa | 2.9V | 00:00:00 | 00:00:00 | 00:00:00 | |
| KRY50SP-1 | 2026-09-01 17:07:06 | 52.16384 | 14.38538 | 100° | 64km/h | 7681m | 4.1m/s | -31.5°C | 91.1% | 383.2hPa | 2.9V | 00:00:00 | 00:00:00 | 00:00:00 | |
| MECKS9 | 2026-09-01 17:07:05 | 52.16387 | 14.38513 | 99° | 62km/h | 7676m | 5.9m/s | 0°C | 0% | 0hPa | 2.9V | 00:00:00 | 00:00:00 | 00:00:00 | |
| DAC517 | 2026-09-01 17:07:01 | 52.16393 | 14.38415 | 94° | 60km/h | 7648m | 6.8m/s | -31.2°C | 88.0% | 384.9hPa | 2.9V | 00:00:00 | 00:00:00 | 00:00:00 | |
| KRY50SP-1 | 2026-09-01 17:07:00 | 52.16394 | 14.38391 | 94° | 58km/h | 7643m | 4.5m/s | -31.2°C | 88.5% | 385.2hPa | 2.9V | 00:00:00 | 00:00:00 | 00:00:00 | |
| DB0DAN | 2026-09-01 17:06:55 | 52.16401 | 14.38261 | 98° | 51km/h | 7613m | 3.7m/s | -30.9°C | 86.6% | 386.76hPa | 2.9V | 00:00:00 | 00:00:00 | 00:00:00 | |
| SONDE2-12 | 2026-09-01 17:06:46 | 52.16422 | 14.38031 | 96° | 53km/h | 7564m | 4.6m/s | -30.4°C | 87.0% | 389.5hPa | 2.8V | 00:00:00 | 00:00:00 | 00:00:00 | |
| SONDE2-11 | 2026-09-01 17:06:45 | 52.16422 | 14.38031 | 96° | 53km/h | 7564m | 4.6m/s | -30.4°C | 84.4% | 389.5hPa | 2.8V | 00:00:00 | 00:00:00 | 00:00:00 | |
| KRY50SP-1 | 2026-09-01 17:06:44 | 52.16422 | 14.38031 | 97° | 53km/h | 7564m | 4.6m/s | -30.4°C | 0% | 389.5hPa | 2.8V | 00:00:00 | 00:00:00 | 00:00:00 | |
| DB0DAN | 2026-09-01 17:06:40 | 52.16429 | 14.37918 | 98° | 53km/h | 7538m | 5.9m/s | -30.2°C | 82.3% | 390.97hPa | 2.8V | 00:00:00 | 00:00:00 | 00:00:00 | |
| S3001 | 2026-09-01 17:06:40 | 52.16431 | 14.37895 | 98° | 57km/h | 7532m | 6.3m/s | -30.2°C | 81.4% | 391.3hPa | 2.9V | 00:00:00 | 00:00:00 | 00:00:00 | |
| KRY50SP-1 | 2026-09-01 17:06:38 | 52.16430 | 14.37895 | 100° | 57km/h | 7532m | 6.3m/s | 0°C | 0% | 391.3hPa | 2.9V | 00:00:00 | 00:00:00 | 00:00:00 | |
| EDDB2-11 | 2026-09-01 17:06:37 | 52.16435 | 14.37848 | 99° | 58km/h | 7520m | 4.9m/s | -30.0°C | 81.5% | 392.0hPa | 2.9V | 00:00:00 | 00:00:00 | 00:00:00 | |
| DL2RXE-15 | 2026-09-01 17:06:33 | 52.16443 | 14.37780 | 104° | 55km/h | 7505m | 5.6m/s | -29.9°C | 0% | 392.8hPa | 2.9V | 00:00:00 | 00:00:00 | 00:00:00 | |
| KRY50SP-1 | 2026-09-01 17:06:32 | 52.16447 | 14.37758 | 106° | 55km/h | 7500m | 5.7m/s | 0°C | 0% | 393.1hPa | 2.9V | 00:00:00 | 00:00:00 | 00:00:00 | |
| SP3BTT-10 | 2026-09-01 17:06:29 | 52.16461 | 14.37669 | 103° | 57km/h | 7477m | 6.9m/s | -29.7°C | 79.9% | 394.1hPa | 2.9V | 00:00:00 | 00:00:00 | 00:00:00 | |
| DB0DAN | 2026-09-01 17:06:25 | 52.16468 | 14.37583 | 98° | 46km/h | 7456m | 2.5m/s | -29.5°C | 74% | 395.38hPa | 2.9V | 00:00:00 | 00:00:00 | 00:00:00 | |
| SONDE2-12 | 2026-09-01 17:06:15 | 52.16511 | 14.37336 | 99° | 57km/h | 7395m | 8.5m/s | -29.0°C | 72.0% | 398.6hPa | 2.9V | 00:00:00 | 00:00:00 | 00:00:00 | |
| SONDE2-11 | 2026-09-01 17:06:14 | 52.16511 | 14.37336 | 99° | 57km/h | 7395m | 8.5m/s | -29.0°C | 70.0% | 398.6hPa | 2.9V | 00:00:00 | 00:00:00 | 00:00:00 | |
| DB0DAN | 2026-09-01 17:06:10 | 52.16519 | 14.37243 | 100° | 55km/h | 7373m | 3.3m/s | -28.7°C | 70.5% | 400.03hPa | 2.9V | 00:00:00 | 00:00:00 | 00:00:00 | |
| KRY50SP-1 | 2026-09-01 17:06:10 | 52.16519 | 14.37243 | 101° | 58km/h | 7373m | 3.3m/s | 0°C | 0% | 0hPa | 2.9V | 00:00:00 | 00:00:00 | 00:00:00 | |
| S3001 | 2026-09-01 17:06:09 | 52.16525 | 14.37198 | 106° | 55km/h | 7364m | 2.8m/s | -28.7°C | 70.8% | 400.5hPa | 2.9V | 00:00:00 | 00:00:00 | 00:00:00 | |
| EDDB2-11 | 2026-09-01 17:06:07 | 52.16534 | 14.37155 | 109° | 53km/h | 7354m | 3.9m/s | -28.6°C | 70.6% | 401.1hPa | 2.9V | 00:00:00 | 00:00:00 | 00:00:00 | |
| 13BRC | 2026-09-01 17:06:06 | 52.16534 | 14.37155 | 110° | 53km/h | 7354m | 3.9m/s | -28.6°C | 70.7% | 401.1hPa | 2.9V | 00:00:00 | 00:00:00 | 00:00:00 | |
| DL2RXE-15 | 2026-09-01 17:06:05 | 52.16534 | 14.37155 | 110° | 53km/h | 7354m | 3.9m/s | -28.6°C | 0% | 401.1hPa | 2.9V | 00:00:00 | 00:00:00 | 00:00:00 | |
| DAC517 | 2026-09-01 17:06:00 | 52.16549 | 14.37040 | 100° | 57km/h | 7328m | 4.0m/s | -28.4°C | 68.8% | 402.5hPa | 2.9V | 00:00:00 | 00:00:00 | 00:00:00 | |
| DB0DAN | 2026-09-01 17:05:55 | 52.16571 | 14.36908 | 110° | 47km/h | 7300m | 3.9m/s | -28.2°C | 68.2% | 404.05hPa | 2.9V | 00:00:00 | 00:00:00 | 00:00:00 | |
| SONDE2-12 | 2026-09-01 17:05:44 | 52.16604 | 14.36625 | 104° | 58km/h | 7226m | 8.3m/s | -27.5°C | 66.1% | 408.2hPa | 2.9V | 00:00:00 | 00:00:00 | 00:00:00 | |
| DB0DAN | 2026-09-01 17:05:40 | 52.16614 | 14.36555 | 102° | 57km/h | 7209m | 5.5m/s | -27.4°C | 62.8% | 409.29hPa | 2.9V | 00:00:00 | 00:00:00 | 00:00:00 | |
| EDDB2-12 | 2026-09-01 17:05:39 | 52.16617 | 14.36531 | 101° | 57km/h | 7204m | 4.5m/s | -27.3°C | 62.2% | 409.6hPa | 2.9V | 00:00:00 | 00:00:00 | 00:00:00 | |
| S3001 | 2026-09-01 17:05:38 | 52.16623 | 14.36486 | 102° | 55km/h | 7193m | 3.8m/s | -27.2°C | 61.8% | 410.1hPa | 2.9V | 00:00:00 | 00:00:00 | 00:00:00 | |
| EDDB2-11 | 2026-09-01 17:05:36 | 52.16629 | 14.36441 | 104° | 57km/h | 7184m | 4.1m/s | -27.1°C | 60.8% | 410.6hPa | 2.9V | 00:00:00 | 00:00:00 | 00:00:00 | |
| DB0DAN | 2026-09-01 17:05:25 | 52.16677 | 14.36200 | 106° | 64km/h | 7132m | 6.1m/s | -26.9°C | 64.6% | 413.46hPa | 2.9V | 00:00:00 | 00:00:00 | 00:00:00 | |
| SONDE2-12 | 2026-09-01 17:05:13 | 52.16739 | 14.35893 | 107° | 62km/h | 7064m | 8.5m/s | -26.3°C | 65.9% | 417.5hPa | 2.9V | 00:00:00 | 00:00:00 | 00:00:00 | |
| DB0DAN | 2026-09-01 17:05:10 | 52.16748 | 14.35845 | 108° | 58km/h | 7050m | 5.3m/s | -26.2°C | 63.8% | 418.23hPa | 2.9V | 00:00:00 | 00:00:00 | 00:00:00 | |
| EDDB2-12 | 2026-09-01 17:05:08 | 52.16758 | 14.35796 | 107° | 62km/h | 7036m | 5.8m/s | -26.0°C | 63.3% | 419.0hPa | 2.9V | 00:00:00 | 00:00:00 | 00:00:00 | |
| S3001 | 2026-09-01 17:05:07 | 52.16768 | 14.35747 | 108° | 60km/h | 7027m | 5.2m/s | -26.0°C | 63.3% | 419.6hPa | 2.9V | 00:00:00 | 00:00:00 | 00:00:00 | |
| EDDB2-11 | 2026-09-01 17:05:04 | 52.16777 | 14.35698 | 107° | 62km/h | 7019m | 5.1m/s | -25.9°C | 63.0% | 420.1hPa | 2.9V | 00:00:00 | 00:00:00 | 00:00:00 | |
| 13BRC | 2026-09-01 17:05:02 | 52.16782 | 14.35673 | 106° | 64km/h | 7014m | 4.0m/s | -25.8°C | 63.1% | 420.4hPa | 2.9V | 00:00:00 | 00:00:00 | 00:00:00 | |
| SP3BTT-10 | 2026-09-01 17:04:59 | 52.16801 | 14.35574 | 112° | 57km/h | 6995m | 3.7m/s | -25.6°C | 66.9% | 421.5hPa | 2.9V | 00:00:00 | 00:00:00 | 00:00:00 | |
| DAC517 | 2026-09-01 17:04:58 | 52.16801 | 14.35574 | 113° | 62km/h | 6995m | 3.8m/s | -25.6°C | 64.0% | 421.6hPa | 2.9V | 00:00:00 | 00:00:00 | 00:00:00 | |
| DB0DAN | 2026-09-01 17:04:55 | 52.16822 | 14.35475 | 105° | 62km/h | 6972m | 4.8m/s | -25.5°C | 64.6% | 422.84hPa | 2.9V | 00:00:00 | 00:00:00 | 00:00:00 | |
| SONDE2-12 | 2026-09-01 17:04:42 | 52.16875 | 14.35129 | 108° | 57km/h | 6896m | 5.1m/s | -24.9°C | 62.3% | 427.3hPa | 2.9V | 00:00:00 | 00:00:00 | 00:00:00 | |
| DB0DAN | 2026-09-01 17:04:40 | 52.16880 | 14.35107 | 113° | 53km/h | 6892m | 3.2m/s | -24.8°C | 61.4% | 427.56hPa | 2.9V | 00:00:00 | 00:00:00 | 00:00:00 | |
| EDDB2-12 | 2026-09-01 17:04:37 | 52.16898 | 14.35045 | 117° | 53km/h | 6877m | 6.3m/s | -24.7°C | 63.0% | 428.4hPa | 2.9V | 00:00:00 | 00:00:00 | 00:00:00 | |
| S3001 | 2026-09-01 17:04:36 | 52.16909 | 14.35003 | 108° | 57km/h | 6865m | 4.9m/s | -24.6°C | 64.0% | 429.1hPa | 2.9V | 00:00:00 | 00:00:00 | 00:00:00 | |
| EDDB2-11 | 2026-09-01 17:04:33 | 52.16917 | 14.34957 | 107° | 58km/h | 6852m | 8.0m/s | -24.6°C | 64.5% | 429.8hPa | 2.9V | 00:00:00 | 00:00:00 | 00:00:00 | |
| DL2RXE-15 | 2026-09-01 17:04:27 | 52.16941 | 14.34847 | 114° | 57km/h | 6827m | 3.6m/s | -24.4°C | 0% | 431.3hPa | 2.9V | 00:00:00 | 00:00:00 | 00:00:00 | |
| DB0DAN | 2026-09-01 17:04:25 | 52.16959 | 14.34783 | 112° | 57km/h | 6812m | 6m/s | -24.4°C | 72.5% | 432.13hPa | 2.9V | 00:00:00 | 00:00:00 | 00:00:00 | |
| 13BRC | 2026-09-01 17:04:21 | 52.16972 | 14.34713 | 105° | 57km/h | 6796m | 6.4m/s | -24.2°C | 75.1% | 433.2hPa | 2.9V | 00:00:00 | 00:00:00 | 00:00:00 | |
| DAC517 | 2026-09-01 17:04:17 | 52.16986 | 14.34627 | 111° | 51km/h | 6774m | 5.9m/s | -24.1°C | 77.6% | 434.4hPa | 2.9V | 00:00:00 | 00:00:00 | 00:00:00 | |
| SP3BTT-10 | 2026-09-01 17:04:13 | 52.17018 | 14.34518 | 120° | 62km/h | 6751m | 7.0m/s | -23.9°C | 81.6% | 435.7hPa | 2.9V | 00:00:00 | 00:00:00 | 00:00:00 | |
| DB0DAN | 2026-09-01 17:04:10 | 52.17035 | 14.34446 | 103° | 58km/h | 6734m | 7.2m/s | -23.8°C | 77.4% | 436.68hPa | 2.9V | 00:00:00 | 00:00:00 | 00:00:00 | |
| SONDE2-11 | 2026-09-01 17:04:10 | 52.17038 | 14.34422 | 102° | 58km/h | 6727m | 7.1m/s | -23.7°C | 76.9% | 437.1hPa | 2.9V | 00:00:00 | 00:00:00 | 00:00:00 | |
| DL2RXE-15 | 2026-09-01 17:04:07 | 52.17041 | 14.34399 | 102° | 57km/h | 6720m | 7.3m/s | 0°C | 0% | 437.6hPa | 2.9V | 00:00:00 | 00:00:00 | 00:00:00 | |
| EDDB2-12 | 2026-09-01 17:04:06 | 52.17047 | 14.34354 | 101° | 53km/h | 6709m | 7.3m/s | -23.6°C | 77.6% | 438.4hPa | 2.9V | 00:00:00 | 00:00:00 | 00:00:00 | |
| S3001 | 2026-09-01 17:04:04 | 52.17053 | 14.34309 | 103° | 57km/h | 6697m | 2.8m/s | -23.5°C | 79.1% | 439.1hPa | 2.9V | 00:00:00 | 00:00:00 | 00:00:00 | |
| EDDB2-11 | 2026-09-01 17:04:02 | 52.17061 | 14.34264 | 106° | 60km/h | 6687m | 4.2m/s | -23.5°C | 79.5% | 439.5hPa | 2.9V | 00:00:00 | 00:00:00 | 00:00:00 | |
| 13BRC | 2026-09-01 17:04:00 | 52.17065 | 14.34239 | 108° | 64km/h | 6683m | 4.6m/s | -23.4°C | 79.6% | 439.8hPa | 2.9V | 00:00:00 | 00:00:00 | 00:00:00 | |
| DAC517 | 2026-09-01 17:03:57 | 52.17082 | 14.34164 | 111° | 66km/h | 6670m | 5.3m/s | -23.3°C | 79.1% | 440.6hPa | 2.9V | 00:00:00 | 00:00:00 | 00:00:00 | |
| DB0DAN | 2026-09-01 17:03:55 | 52.17096 | 14.34086 | 103° | 62km/h | 6656m | 4.5m/s | -23.2°C | 79.2% | 441.54hPa | 2.9V | 00:00:00 | 00:00:00 | 00:00:00 | |
| DB0DAN | 2026-09-01 17:03:40 | 52.17153 | 14.33736 | 104° | 64km/h | 6583m | 4.6m/s | -22.6°C | 80.4% | 446.04hPa | 2.9V | 00:00:00 | 00:00:00 | 00:00:00 | |
| SONDE2-11 | 2026-09-01 17:03:39 | 52.17160 | 14.33680 | 102° | 71km/h | 6575m | 5.2m/s | -22.6°C | 79.4% | 446.4hPa | 2.9V | 00:00:00 | 00:00:00 | 00:00:00 | |
| EDDB2-12 | 2026-09-01 17:03:35 | 52.17173 | 14.33593 | 104° | 68km/h | 6564m | 4.3m/s | -22.5°C | 79.8% | 447.3hPa | 2.9V | 00:00:00 | 00:00:00 | 00:00:00 | |
| S3001 | 2026-09-01 17:03:33 | 52.17180 | 14.33541 | 101° | 60km/h | 6550m | 7.7m/s | -22.4°C | 79.2% | 448.1hPa | 2.9V | 00:00:00 | 00:00:00 | 00:00:00 | |
| EDDB2-11 | 2026-09-01 17:03:31 | 52.17187 | 14.33493 | 103° | 57km/h | 6536m | 5.6m/s | -22.3°C | 79.4% | 449.0hPa | 2.9V | 00:00:00 | 00:00:00 | 00:00:00 | |
| SP3BTT-10 | 2026-09-01 17:03:28 | 52.17197 | 14.33427 | 107° | 60km/h | 6522m | 3.3m/s | -22.1°C | 83.1% | 449.9hPa | 2.9V | 00:00:00 | 00:00:00 | 08:30:00 | |
| DB0DAN | 2026-09-01 17:03:25 | 52.17212 | 14.33359 | 111° | 58km/h | 6509m | 6.1m/s | -22°C | 79.5% | 450.79hPa | 2.9V | 00:00:00 | 00:00:00 | 00:00:00 | |
| DL2RXE-15 | 2026-09-01 17:03:19 | 52.17232 | 14.33235 | 100° | 62km/h | 6484m | 6.4m/s | 0°C | 0% | 452.3hPa | 2.9V | 00:00:00 | 00:00:00 | 00:00:00 | |
| DAC517 | 2026-09-01 17:03:14 | 52.17245 | 14.33110 | 107° | 62km/h | 6461m | 4.2m/s | -21.7°C | 81.4% | 453.8hPa | 2.9V | 00:00:00 | 00:00:00 | 00:00:00 | |
| DB0DAN | 2026-09-01 17:03:10 | 52.17262 | 14.32995 | 95° | 51km/h | 6425m | 7.7m/s | -21.4°C | 79.5% | 455.86hPa | 2.9V | 00:00:00 | 00:00:00 | 00:00:00 | |
| SONDE2-11 | 2026-09-01 17:03:08 | 52.17265 | 14.32928 | 94° | 57km/h | 6405m | 6.7m/s | -21.3°C | 79.3% | 457.0hPa | 2.9V | 00:00:00 | 00:00:00 | 00:00:00 | |
| EDDB2-12 | 2026-09-01 17:03:04 | 52.17275 | 14.32853 | 108° | 66km/h | 6387m | 6.2m/s | -21.1°C | 78.9% | 458.0hPa | 2.9V | 00:00:00 | 00:00:00 | 00:00:00 | |
| S3001 | 2026-09-01 17:03:02 | 52.17285 | 14.32801 | 104° | 64km/h | 6373m | 7.8m/s | -21.0°C | 78.1% | 458.9hPa | 2.9V | 00:00:00 | 00:00:00 | 00:00:00 | |
| EDDB2-11 | 2026-09-01 17:03:00 | 52.17292 | 14.32751 | 102° | 60km/h | 6361m | 8.5m/s | -20.9°C | 78.1% | 459.6hPa | 2.9V | 00:00:00 | 00:00:00 | 00:00:00 | |
| 13BRC | 2026-09-01 17:02:58 | 52.17296 | 14.32726 | 105° | 62km/h | 6353m | 7.1m/s | -20.9°C | 80.2% | 460.2hPa | 2.9V | 00:00:00 | 00:00:00 | 00:00:00 | |
| DB0DAN | 2026-09-01 17:02:55 | 52.17316 | 14.32622 | 110° | 69km/h | 6333m | 2.7m/s | -20.8°C | 81.3% | 461.41hPa | 2.9V | 00:00:00 | 00:00:00 | 00:00:00 | |
| DAC517 | 2026-09-01 17:02:53 | 52.17323 | 14.32593 | 114° | 73km/h | 6329m | 4.9m/s | -20.7°C | 80.7% | 461.6hPa | 2.9V | 00:00:00 | 00:00:00 | 00:00:00 | |
| DL2RXE-15 | 2026-09-01 17:02:51 | 52.17337 | 14.32542 | 116° | 64km/h | 6322m | 3.9m/s | -20.7°C | 0% | 462.1hPa | 2.9V | 00:00:00 | 00:00:00 | 00:00:00 | |
| SP3BTT-10 | 2026-09-01 17:02:43 | 52.17382 | 14.32342 | 108° | 55km/h | 6271m | 5.3m/s | -20.5°C | 83.8% | 465.2hPa | 2.9V | 00:00:00 | 00:00:00 | 00:00:00 | |
| DB0DAN | 2026-09-01 17:02:40 | 52.17396 | 14.32264 | 103° | 62km/h | 6256m | 5.1m/s | -20.4°C | 80.7% | 466.15hPa | 2.9V | 00:00:00 | 00:00:00 | 00:00:00 | |
| SONDE2-11 | 2026-09-01 17:02:37 | 52.17410 | 14.32168 | 103° | 60km/h | 6233m | 7.6m/s | -20.2°C | 78.8% | 467.5hPa | 3V | 00:00:00 | 00:00:00 | 00:00:00 | |
| EDDB2-12 | 2026-09-01 17:02:33 | 52.17421 | 14.32095 | 103° | 60km/h | 6217m | 2.7m/s | -20.1°C | 79.0% | 468.6hPa | 3V | 00:00:00 | 00:00:00 | 00:00:00 | |
| DL2RXE-15 | 2026-09-01 17:02:31 | 52.17424 | 14.32070 | 103° | 62km/h | 6213m | 4.9m/s | 0°C | 0% | 468.7hPa | 3V | 00:00:00 | 00:00:00 | 00:00:00 | |
| EDDB2-11 | 2026-09-01 17:02:29 | 52.17432 | 14.31997 | 98° | 57km/h | 6201m | 3.6m/s | -20.1°C | 80.0% | 469.5hPa | 3V | 00:00:00 | 00:00:00 | 00:00:00 | |
| DB0DAN | 2026-09-01 17:02:25 | 52.17440 | 14.31901 | 100° | 62km/h | 6183m | 2.5m/s | -20.1°C | 81.8% | 470.8hPa | 3V | 00:00:00 | 00:00:00 | 00:00:00 | |
| 13BRC | 2026-09-01 17:02:16 | 52.17452 | 14.31713 | 99° | 44km/h | 6141m | 7.6m/s | -19.7°C | 79.2% | 473.5hPa | 3V | 00:00:00 | 00:00:00 | 00:00:00 | |
| DAC517 | 2026-09-01 17:02:13 | 52.17457 | 14.31652 | 96° | 58km/h | 6121m | 5.5m/s | -19.6°C | 79.6% | 474.8hPa | 3V | 00:00:00 | 00:00:00 | 00:00:00 | |
| DB0DAN | 2026-09-01 17:02:10 | 52.17460 | 14.31558 | 92° | 51km/h | 6096m | 6.5m/s | -19.5°C | 79.9% | 476.33hPa | 3V | 00:00:00 | 00:00:00 | 00:00:00 | |
| SONDE2-12 | 2026-09-01 17:02:06 | 52.17461 | 14.31479 | 90° | 47km/h | 6076m | 5.7m/s | -19.3°C | 80.7% | 477.6hPa | 3V | 00:00:00 | 00:00:00 | 00:00:00 | |
| SONDE2-11 | 2026-09-01 17:02:05 | 52.17461 | 14.31458 | 90° | 51km/h | 6071m | 3.8m/s | -19.3°C | 79.2% | 478.1hPa | 3V | 00:00:00 | 00:00:00 | 00:00:00 | |
| EDDB2-12 | 2026-09-01 17:02:02 | 52.17462 | 14.31393 | 93° | 53km/h | 6051m | 6.1m/s | -19.1°C | 78.4% | 479.2hPa | 3V | 00:00:00 | 00:00:00 | 00:00:00 | |
| S3001 | 2026-09-01 17:02:00 | 52.17461 | 14.31124 | 92° | 47km/h | 5995m | 3.1m/s | -19.0°C | 82.7% | 482.9hPa | 3V | 00:00:00 | 00:00:00 | 00:00:00 | |
| SP3BTT-10 | 2026-09-01 17:01:58 | 52.17467 | 14.31302 | 95° | 55km/h | 6033m | 5.5m/s | -19.0°C | 81.7% | 480.4hPa | 3V | 00:00:00 | 00:00:00 | 00:00:00 | |
| DB0DAN | 2026-09-01 17:01:55 | 52.17467 | 14.31232 | 87° | 53km/h | 6017m | 7.4m/s | -19°C | 79.5% | 481.36hPa | 3V | 00:00:00 | 00:00:00 | 00:00:00 | |
| DAC517 | 2026-09-01 17:01:51 | 52.17463 | 14.31165 | 83° | 53km/h | 6004m | 3.3m/s | -19.0°C | 80.2% | 482.3hPa | 3V | 00:00:00 | 00:00:00 | 00:00:00 | |
| DB0DAN | 2026-09-01 17:01:40 | 52.17480 | 14.30909 | 96° | 49km/h | 5931m | 3.4m/s | -18.8°C | 85% | 486.98hPa | 3V | 00:00:00 | 00:00:00 | 00:00:00 | |
| SONDE2-12 | 2026-09-01 17:01:35 | 52.17488 | 14.30805 | 95° | 49km/h | 5907m | 4.3m/s | -18.6°C | 86.5% | 488.6hPa | 3V | 00:00:00 | 00:00:00 | 00:00:00 | |
| SONDE2-11 | 2026-09-01 17:01:34 | 52.17489 | 14.30785 | 93° | 49km/h | 5902m | 4.3m/s | -18.6°C | 85.4% | 488.9hPa | 3V | 00:00:00 | 00:00:00 | 00:00:00 | |
| EDDB2-12 | 2026-09-01 17:01:31 | 52.17494 | 14.30719 | 98° | 57km/h | 5890m | 3.9m/s | -18.5°C | 85.1% | 489.8hPa | 3V | 00:00:00 | 00:00:00 | 00:00:00 | |
| S3001 | 2026-09-01 17:01:29 | 52.17498 | 14.30672 | 97° | 57km/h | 5881m | 3.4m/s | -18.4°C | 85.1% | 490.4hPa | 3V | 00:00:00 | 00:00:00 | 00:00:00 | |
| DB0DAN | 2026-09-01 17:01:25 | 52.17504 | 14.30583 | 98° | 53km/h | 5857m | 9.5m/s | -18.3°C | 83.5% | 491.91hPa | 3V | 00:00:00 | 00:00:00 | 00:00:00 | |
| SP6BVK | 2026-09-01 17:01:22 | 52.17508 | 14.30536 | 99° | 58km/h | 5839m | 7.8m/s | 0°C | 0% | 0hPa | 3.0V | 00:00:00 | 00:00:00 | 00:00:00 | |
| 13BRC | 2026-09-01 17:01:14 | 52.17508 | 14.30356 | 98° | 58km/h | 5786m | 5.1m/s | -17.6°C | 81.1% | 496.5hPa | 3.0V | 00:00:00 | 00:00:00 | 00:00:00 | |
| SP3BTT-10 | 2026-09-01 17:01:13 | 52.17514 | 14.30310 | 105° | 49km/h | 5774m | 9.6m/s | -17.4°C | 82.6% | 497.2hPa | 3.0V | 00:00:00 | 00:00:00 | 00:00:00 | |
| DL2RXE-15 | 2026-09-01 17:01:12 | 52.17514 | 14.30310 | 105° | 55km/h | 5774m | 9.7m/s | -17.5°C | 0% | 497.3hPa | 3V | 00:00:00 | 00:00:00 | 00:00:00 | |
| DB0DAN | 2026-09-01 17:01:10 | 52.17521 | 14.30250 | 95° | 46km/h | 5750m | 10.6m/s | -17.3°C | 80% | 498.85hPa | 3V | 00:00:00 | 00:00:00 | 00:00:00 | |
| SONDE2-11 | 2026-09-01 17:01:03 | 52.17532 | 14.30119 | 103° | 46km/h | 5706m | 5.6m/s | -17.1°C | 81.6% | 501.9hPa | 3V | 00:00:00 | 00:00:00 | 00:00:00 | |
| EDDB2-12 | 2026-09-01 17:01:00 | 52.17543 | 14.30062 | 111° | 53km/h | 5689m | 3.9m/s | -16.9°C | 81.3% | 503.0hPa | 3V | 00:00:00 | 00:00:00 | 00:00:00 | |
| S3001 | 2026-09-01 17:00:58 | 52.17552 | 14.30019 | 104° | 55km/h | 5681m | 5.1m/s | -16.9°C | 80.9% | 503.6hPa | 3V | 00:00:00 | 00:00:00 | 00:00:00 | |
| EDDB2-11 | 2026-09-01 17:00:56 | 52.17558 | 14.29973 | 99° | 58km/h | 5670m | 7.6m/s | -16.8°C | 79.7% | 504.4hPa | 3V | 00:00:00 | 00:00:00 | 00:00:00 | |
| DB0DAN | 2026-09-01 17:00:55 | 52.17560 | 14.29950 | 98° | 53km/h | 5663m | 7.1m/s | -16.7°C | 79.8% | 504.96hPa | 3V | 00:00:00 | 00:00:00 | 00:00:00 | |
| 13BRC | 2026-09-01 17:00:54 | 52.17560 | 14.29950 | 99° | 55km/h | 5663m | 7.1m/s | -16.7°C | 79.8% | 505.0hPa | 3V | 00:00:00 | 00:00:00 | 00:00:00 | |
| DL2RXE-15 | 2026-09-01 17:00:52 | 52.17564 | 14.29906 | 100° | 53km/h | 5649m | 6.5m/s | 0°C | 0% | 505.9hPa | 3V | 00:00:00 | 00:00:00 | 00:00:00 | |
| DAC517 | 2026-09-01 17:00:49 | 52.17568 | 14.29843 | 96° | 49km/h | 5628m | 6.8m/s | -16.4°C | 78.6% | 507.2hPa | 3V | 00:00:00 | 00:00:00 | 00:00:00 | |
| DB0DAN | 2026-09-01 17:00:40 | 52.17586 | 14.29671 | 102° | 42km/h | 5571m | 4.4m/s | -16°C | 78.6% | 510.98hPa | 3V | 00:00:00 | 00:00:00 | 00:00:00 | |
| SONDE2-12 | 2026-09-01 17:00:33 | 52.17601 | 14.29530 | 96° | 57km/h | 5522m | 5.2m/s | -15.7°C | 80.8% | 514.3hPa | 3V | 00:00:00 | 00:00:00 | 00:00:00 | |
| SONDE2-11 | 2026-09-01 17:00:32 | 52.17603 | 14.29506 | 94° | 57km/h | 5516m | 5.7m/s | -15.7°C | 79.4% | 514.6hPa | 3V | 00:00:00 | 00:00:00 | 00:00:00 | |
| EDDB2-12 | 2026-09-01 17:00:29 | 52.17609 | 14.29443 | 104° | 49km/h | 5496m | 11.6m/s | -15.5°C | 77.8% | 516.1hPa | 3V | 00:00:00 | 00:00:00 | 00:00:00 | |
| SP3BTT-10 | 2026-09-01 17:00:28 | 52.17613 | 14.29422 | 109° | 53km/h | 5485m | 9.0m/s | -15.3°C | 79.7% | 516.9hPa | 3V | 00:00:00 | 00:00:00 | 00:00:00 | |
| DB0DAN | 2026-09-01 17:00:25 | 52.17623 | 14.29363 | 99° | 47km/h | 5464m | 6.1m/s | -15.2°C | 77.6% | 518.23hPa | 3V | 00:00:00 | 00:00:00 | 00:00:00 | |
| DL2RXE-15 | 2026-09-01 17:00:23 | 52.17625 | 14.29342 | 97° | 53km/h | 5460m | 3.4m/s | -15.2°C | 0% | 518.6hPa | 3V | 00:00:00 | 00:00:00 | 00:00:00 | |
| 13BRC | 2026-09-01 17:00:13 | 52.17645 | 14.29156 | 99° | 49km/h | 5402m | 3.0m/s | -14.7°C | 75.9% | 522.4hPa | 3V | 00:00:00 | 00:00:00 | 00:00:00 | |
| DB0DAN | 2026-09-01 17:00:10 | 52.17649 | 14.29068 | 98° | 51km/h | 5382m | 4.9m/s | -14.6°C | 74.9% | 524.02hPa | 3V | 00:00:00 | 00:00:00 | 00:00:00 | |
| SONDE2-12 | 2026-09-01 17:00:02 | 52.17670 | 14.28912 | 100° | 46km/h | 5333m | 3.4m/s | -14.4°C | 75.4% | 527.3hPa | 3V | 00:00:00 | 00:00:00 | 00:00:00 | |
| SONDE2-11 | 2026-09-01 17:00:01 | 52.17672 | 14.28893 | 103° | 47km/h | 5329m | 4.5m/s | -14.4°C | 74.7% | 527.6hPa | 3V | 00:00:00 | 00:00:00 | 00:00:00 | |
| EDDB2-12 | 2026-09-01 16:59:58 | 52.17683 | 14.28832 | 111° | 53km/h | 5311m | 6.5m/s | -14.4°C | 75.6% | 528.8hPa | 3V | 00:00:00 | 00:00:00 | 00:00:00 | |
| S3001 | 2026-09-01 16:59:56 | 52.17694 | 14.28794 | 118° | 46km/h | 5297m | 6.2m/s | -14.3°C | 75.8% | 529.8hPa | 3V | 00:00:00 | 00:00:00 | 00:00:00 | |
| DB0DAN | 2026-09-01 16:59:55 | 52.17700 | 14.28778 | 118° | 44km/h | 5291m | 5.7m/s | -14.3°C | 76.1% | 530.19hPa | 3V | 00:00:00 | 00:00:00 | 00:00:00 | |
| EDDB2-11 | 2026-09-01 16:59:54 | 52.17705 | 14.28760 | 118° | 51km/h | 5285m | 6.1m/s | -14.3°C | 76.2% | 530.6hPa | 3V | 00:00:00 | 00:00:00 | 00:00:00 | |
| 13BRC | 2026-09-01 16:59:52 | 52.17712 | 14.28740 | 115° | 58km/h | 5279m | 5.9m/s | -14.2°C | 76.4% | 531.1hPa | 3V | 00:00:00 | 00:00:00 | 00:00:00 | |
| SP3BTT-10 | 2026-09-01 16:59:44 | 52.17753 | 14.28525 | 114° | 55km/h | 5209m | 7.6m/s | -13.6°C | 75.7% | 535.6hPa | 3V | 00:00:00 | 00:00:00 | 00:00:00 | |
| DB0DAN | 2026-09-01 16:59:40 | 52.17775 | 14.28449 | 116° | 53km/h | 5185m | 7.1m/s | -13.5°C | 73.7% | 537.26hPa | 3V | 00:00:00 | 00:00:00 | 00:00:00 | |
| SONDE2-12 | 2026-09-01 16:59:31 | 52.17827 | 14.28232 | 111° | 66km/h | 5137m | 5.4m/s | -13.0°C | 73.0% | 540.7hPa | 3V | 00:00:00 | 00:00:00 | 00:00:00 | |
| SONDE2-11 | 2026-09-01 16:59:30 | 52.17832 | 14.28207 | 109° | 62km/h | 5131m | 6.5m/s | -13.0°C | 71.6% | 541.1hPa | 3V | 00:00:00 | 00:00:00 | 00:00:00 | |
| EDDB2-12 | 2026-09-01 16:59:27 | 52.17852 | 14.28116 | 114° | 51km/h | 5107m | 4.7m/s | -12.8°C | 71.7% | 542.9hPa | 3V | 00:00:00 | 00:00:00 | 00:00:00 | |
| S3001 | 2026-09-01 16:59:25 | 52.17857 | 14.28098 | 114° | 47km/h | 5101m | 6.7m/s | -12.8°C | 71.4% | 543.3hPa | 3V | 00:00:00 | 00:00:00 | 00:00:00 | |
| DB0DAN | 2026-09-01 16:59:25 | 52.17857 | 14.28098 | 115° | 46km/h | 5101m | 6.7m/s | -12.8°C | 71.4% | 543.27hPa | 3V | 00:00:00 | 00:00:00 | 00:00:00 | |
| EDDB2-11 | 2026-09-01 16:59:23 | 52.17867 | 14.28063 | 116° | 49km/h | 5090m | 4.6m/s | -12.7°C | 71.7% | 544.1hPa | 3V | 00:00:00 | 00:00:00 | 00:00:00 | |
| DL2RXE-15 | 2026-09-01 16:59:14 | 52.17911 | 14.27908 | 117° | 55km/h | 5039m | 6.6m/s | 0°C | 0% | 547.8hPa | 3V | 00:00:00 | 00:00:00 | 00:00:00 | |
| DB0DAN | 2026-09-01 16:59:10 | 52.17944 | 14.27806 | 112° | 55km/h | 5017m | 4.5m/s | -12.3°C | 70.6% | 549.47hPa | 3V | 00:00:00 | 00:00:00 | 00:00:00 | |
| SONDE2-12 | 2026-09-01 16:59:00 | 52.17996 | 14.27581 | 117° | 66km/h | 4962m | 3.8m/s | -12.1°C | 69.5% | 553.5hPa | 3V | 00:00:00 | 00:00:00 | 00:00:00 | |
| SONDE2-11 | 2026-09-01 16:58:59 | 52.18004 | 14.27556 | 114° | 64km/h | 4957m | 5.2m/s | -12.1°C | 68.6% | 553.8hPa | 3V | 00:00:00 | 00:00:00 | 00:00:00 | |
| EDDB2-12 | 2026-09-01 16:58:56 | 52.18020 | 14.27484 | 106° | 57km/h | 4940m | 7.8m/s | -12.0°C | 0% | 555.1hPa | 3V | 00:00:00 | 00:00:00 | 00:00:00 | |
| DB0DAN | 2026-09-01 16:58:55 | 52.18024 | 14.27462 | 107° | 53km/h | 4933m | 6.8m/s | -12°C | 69.5% | 555.57hPa | 3V | 00:00:00 | 00:00:00 | 00:00:00 | |
| S3001 | 2026-09-01 16:58:54 | 52.18029 | 14.27440 | 107° | 57km/h | 4927m | 4.6m/s | -12.0°C | 70.4% | 556.1hPa | 3V | 00:00:00 | 00:00:00 | 00:00:00 | |
| EDDB2-11 | 2026-09-01 16:58:52 | 52.18038 | 14.27393 | 105° | 62km/h | 4915m | 5.8m/s | -12.0°C | 70.9% | 556.8hPa | 3V | 00:00:00 | 00:00:00 | 00:00:00 | |
| 13BRC | 2026-09-01 16:58:51 | 52.18037 | 14.27393 | 107° | 62km/h | 4915m | 5.8m/s | -12.0°C | 70.9% | 556.8hPa | 3V | 00:00:00 | 00:00:00 | 00:00:00 | |
| DAC517 | 2026-09-01 16:58:48 | 52.18051 | 14.27316 | 110° | 68km/h | 4899m | 5.3m/s | -11.9°C | 72.5% | 558.0hPa | 3V | 00:00:00 | 00:00:00 | 00:00:00 | |
| DL2RXE-15 | 2026-09-01 16:58:45 | 52.18068 | 14.27240 | 110° | 64km/h | 4884m | 3.9m/s | -11.8°C | 0% | 0hPa | 3V | 00:00:00 | 00:00:00 | 00:00:00 | |
| DB0DAN | 2026-09-01 16:58:40 | 52.18097 | 14.27094 | 102° | 53km/h | 4850m | 7m/s | -11.7°C | 75.3% | 561.52hPa | 3V | 00:00:00 | 00:00:00 | 00:00:00 | |
| SONDE2-12 | 2026-09-01 16:58:29 | 52.18156 | 14.26832 | 113° | 58km/h | 4780m | 4.2m/s | -11.2°C | 76.4% | 566.9hPa | 3V | 00:00:00 | 00:00:00 | 00:00:00 | |
| SONDE2-11 | 2026-09-01 16:58:28 | 52.18162 | 14.26809 | 108° | 57km/h | 4774m | 5.4m/s | -11.2°C | 75.6% | 567.2hPa | 3V | 00:00:00 | 00:00:00 | 00:00:00 | |
| DAC517 | 2026-09-01 16:58:27 | 52.18162 | 14.26809 | 110° | 57km/h | 4775m | 5.4m/s | -11.2°C | 75.6% | 567.2hPa | 3V | 00:00:00 | 00:00:00 | 00:00:00 | |
| DB0DAN | 2026-09-01 16:58:25 | 52.18171 | 14.26744 | 101° | 49km/h | 4757m | 3.3m/s | -11°C | 75.6% | 568.66hPa | 3V | 00:00:00 | 00:00:00 | 00:00:00 | |
| EDDB2-12 | 2026-09-01 16:58:25 | 52.18173 | 14.26724 | 99° | 47km/h | 4753m | 5.4m/s | -11.0°C | 75.0% | 568.9hPa | 3V | 00:00:00 | 00:00:00 | 00:00:00 | |
| S3001 | 2026-09-01 16:58:23 | 52.18176 | 14.26704 | 102° | 49km/h | 4749m | 2.5m/s | -11.0°C | 75.4% | 569.4hPa | 3V | 00:00:00 | 00:00:00 | 00:00:00 | |
| EDDB2-11 | 2026-09-01 16:58:21 | 52.18182 | 14.26663 | 104° | 55km/h | 4740m | 4.9m/s | -10.9°C | 75.1% | 570.0hPa | 3V | 00:00:00 | 00:00:00 | 00:00:00 | |
| SP3BTT-10 | 2026-09-01 16:58:13 | 52.18229 | 14.26483 | 121° | 55km/h | 4685m | 7.3m/s | -10.6°C | 77.6% | 574.0hPa | 3V | 00:00:00 | 00:00:00 | 00:00:00 | |
| DB0DAN | 2026-09-01 16:58:10 | 52.18245 | 14.26421 | 111° | 51km/h | 4666m | 7.7m/s | -10.5°C | 76.5% | 575.43hPa | 3V | 00:00:00 | 00:00:00 | 00:00:00 | |
| SONDE2-12 | 2026-09-01 16:57:58 | 52.18314 | 14.26160 | 108° | 57km/h | 4608m | 5.3m/s | -10.1°C | 78.5% | 579.8hPa | 3V | 00:00:00 | 00:00:00 | 00:00:00 | |
| DL2RXE-15 | 2026-09-01 16:57:57 | 52.18314 | 14.26160 | 110° | 58km/h | 4608m | 5.3m/s | -10.1°C | 0% | 0hPa | 3V | 00:00:00 | 00:00:00 | 00:00:00 | |
| DB0DAN | 2026-09-01 16:57:55 | 52.18326 | 14.26098 | 111° | 46km/h | 4588m | 4.8m/s | -10°C | 77.4% | 581.39hPa | 3V | 00:00:00 | 00:00:00 | 00:00:00 | |
| EDDB2-12 | 2026-09-01 16:57:54 | 52.18335 | 14.26059 | 110° | 55km/h | 4573m | 8.2m/s | -9.9°C | 76.9% | 582.4hPa | 3V | 00:00:00 | 00:00:00 | 00:00:00 | |
| S3001 | 2026-09-01 16:57:52 | 52.18340 | 14.26037 | 110° | 57km/h | 4565m | 7.0m/s | -9.9°C | 76.6% | 583.0hPa | 3V | 00:00:00 | 00:00:00 | 00:00:00 | |
| EDDB2-11 | 2026-09-01 16:57:50 | 52.18354 | 14.25970 | 106° | 55km/h | 4549m | 3.2m/s | -9.8°C | 77.4% | 584.1hPa | 3V | 00:00:00 | 00:00:00 | 00:00:00 | |
| 13BRC | 2026-09-01 16:57:49 | 52.18350 | 14.25992 | 109° | 57km/h | 4554m | 6.3m/s | -9.8°C | 77.0% | 583.8hPa | 3V | 00:00:00 | 00:00:00 | 00:00:00 | |
| DAC517 | 2026-09-01 16:57:45 | 52.18367 | 14.25908 | 111° | 51km/h | 4537m | 3.2m/s | -9.7°C | 76.0% | 585.1hPa | 3V | 00:00:00 | 00:00:00 | 00:00:00 | |
| DB0DAN | 2026-09-01 16:57:40 | 52.18400 | 14.25789 | 118° | 58km/h | 4510m | 3m/s | -9.6°C | 78.6% | 587.23hPa | 3V | 00:00:00 | 00:00:00 | 00:00:00 | |
| SONDE2-12 | 2026-09-01 16:57:27 | 52.18458 | 14.25502 | 112° | 51km/h | 4445m | 8.1m/s | -9.1°C | 76.8% | 592.1hPa | 3V | 00:00:00 | 00:00:00 | 00:00:00 | |
| DB0DAN | 2026-09-01 16:57:25 | 52.18470 | 14.25462 | 118° | 53km/h | 4430m | 6.5m/s | -9.1°C | 76.2% | 593.22hPa | 3V | 00:00:00 | 00:00:00 | 00:00:00 | |
| DAC517 | 2026-09-01 16:57:24 | 52.18470 | 14.25462 | 119° | 55km/h | 4430m | 6.5m/s | -9.1°C | 0% | 593.2hPa | 3V | 00:00:00 | 00:00:00 | 00:00:00 | |
| EDDB2-12 | 2026-09-01 16:57:23 | 52.18490 | 14.25396 | 115° | 60km/h | 4415m | 4.7m/s | -9.0°C | 76.6% | 594.4hPa | 3V | 00:00:00 | 00:00:00 | 00:00:00 | |
| S3001 | 2026-09-01 16:57:21 | 52.18503 | 14.25351 | 116° | 58km/h | 4406m | 4.9m/s | -8.9°C | 76.6% | 595.0hPa | 3V | 00:00:00 | 00:00:00 | 00:00:00 | |
| EDDB2-11 | 2026-09-01 16:57:19 | 52.18509 | 14.25331 | 117° | 51km/h | 4402m | 4.4m/s | -8.9°C | 76.7% | 595.5hPa | 3V | 00:00:00 | 00:00:00 | 00:00:00 | |
| DB0DAN | 2026-09-01 16:57:10 | 52.18548 | 14.25146 | 107° | 55km/h | 4348m | 5.6m/s | -8.5°C | 75.5% | 599.68hPa | 3V | 00:00:00 | 00:00:00 | 00:00:00 | |
| SONDE2-12 | 2026-09-01 16:56:56 | 52.18616 | 14.24859 | 123° | 53km/h | 4274m | 4.8m/s | -8.0°C | 76.0% | 605.2hPa | 3.0V | 00:00:00 | 00:00:00 | 00:00:00 | |
| SONDE2-11 | 2026-09-01 16:56:55 | 52.18623 | 14.24840 | 119° | 55km/h | 4271m | 2.9m/s | -7.9°C | 75.3% | 605.6hPa | 3.0V | 00:00:00 | 00:00:00 | 00:00:00 | |
| DB0DAN | 2026-09-01 16:56:55 | 52.18623 | 14.24840 | 120° | 53km/h | 4271m | 2.9m/s | -7.9°C | 75.3% | 605.61hPa | 3V | 00:00:00 | 00:00:00 | 00:00:00 | |
| EDDB2-12 | 2026-09-01 16:56:52 | 52.18648 | 14.24756 | 111° | 53km/h | 4244m | 7.8m/s | -7.8°C | 74.8% | 607.6hPa | 3.0V | 00:00:00 | 00:00:00 | 00:00:00 | |
| S3001 | 2026-09-01 16:56:50 | 52.18655 | 14.24714 | 105° | 51km/h | 4231m | 6.2m/s | -7.7°C | 74.9% | 608.7hPa | 3.0V | 00:00:00 | 00:00:00 | 00:00:00 | |
| EDDB2-11 | 2026-09-01 16:56:48 | 52.18662 | 14.24672 | 101° | 53km/h | 4219m | 4.8m/s | -7.6°C | 74.8% | 609.4hPa | 3.0V | 00:00:00 | 00:00:00 | 00:00:00 | |
| 13BRC | 2026-09-01 16:56:47 | 52.18659 | 14.24693 | 105° | 55km/h | 4225m | 5.9m/s | -7.7°C | 74.9% | 609.0hPa | 3.0V | 00:00:00 | 00:00:00 | 00:00:00 | |
| SP3BTT-10 | 2026-09-01 16:56:43 | 52.18673 | 14.24587 | 108° | 53km/h | 4201m | 6.7m/s | -7.4°C | 75.8% | 611.0hPa | 3.0V | 00:00:00 | 00:00:00 | 08:30:00 | |
| DB0DAN | 2026-09-01 16:56:40 | 52.18686 | 14.24523 | 105° | 51km/h | 4180m | 8.5m/s | -7.3°C | 74.8% | 612.52hPa | 3V | 00:00:00 | 00:00:00 | 00:00:00 | |
| 13BRC | 2026-09-01 16:56:27 | 52.18718 | 14.24273 | 115° | 53km/h | 4115m | 5.6m/s | -6.7°C | 73.1% | 617.9hPa | 3V | 00:00:00 | 00:00:00 | 00:00:00 | |
| DB0DAN | 2026-09-01 16:56:25 | 52.18738 | 14.24208 | 118° | 58km/h | 4092m | 4.1m/s | -6.7°C | 75.2% | 619.76hPa | 3V | 00:00:00 | 00:00:00 | 00:00:00 | |
| SONDE2-11 | 2026-09-01 16:56:24 | 52.18745 | 14.24186 | 116° | 60km/h | 4087m | 6.1m/s | -6.7°C | 75.0% | 620.2hPa | 3V | 00:00:00 | 00:00:00 | 00:00:00 | |
| DAC517 | 2026-09-01 16:56:23 | 52.18745 | 14.24186 | 117° | 60km/h | 4087m | 6.1m/s | 0°C | 0% | 620.2hPa | 3V | 00:00:00 | 00:00:00 | 00:00:00 | |
| DL2RXE-15 | 2026-09-01 16:56:20 | 52.18760 | 14.24122 | 112° | 51km/h | 4069m | 8.0m/s | -6.5°C | 0% | 0hPa | 3V | 00:00:00 | 00:00:00 | 00:00:00 | |
| EDDB2-11 | 2026-09-01 16:56:17 | 52.18785 | 14.24028 | 116° | 53km/h | 4038m | 6.5m/s | -6.3°C | 73.9% | 623.9hPa | 3V | 00:00:00 | 00:00:00 | 00:00:00 | |
| DB0DAN | 2026-09-01 16:56:10 | 52.18822 | 14.23901 | 110° | 49km/h | 4003m | 8.2m/s | -6.1°C | 74.8% | 626.81hPa | 3V | 00:00:00 | 00:00:00 | 00:00:00 | |
| 13BRC | 2026-09-01 16:56:07 | 52.18830 | 14.23862 | 110° | 49km/h | 3989m | 7.4m/s | -6.0°C | 74.0% | 627.8hPa | 3V | 00:00:00 | 00:00:00 | 00:00:00 | |
| DAC517 | 2026-09-01 16:56:01 | 52.18852 | 14.23754 | 104° | 46km/h | 3957m | 6.5m/s | 0°C | 0% | 630.4hPa | 3V | 00:00:00 | 00:00:00 | 00:00:00 | |
| DL2RXE-15 | 2026-09-01 16:55:59 | 52.18859 | 14.23715 | 112° | 53km/h | 3947m | 5.4m/s | 0°C | 0% | 631.2hPa | 3V | 00:00:00 | 00:00:00 | 00:00:00 | |
| SP3BTT-10 | 2026-09-01 16:55:58 | 52.18871 | 14.23673 | 117° | 51km/h | 3936m | 7.8m/s | -5.6°C | 69.9% | 632.1hPa | 3V | 00:00:00 | 00:00:00 | 00:00:00 | |
| DB0DAN | 2026-09-01 16:55:55 | 52.18890 | 14.23610 | 111° | 53km/h | 3916m | 5.5m/s | -5.5°C | 67.4% | 633.69hPa | 3V | 00:00:00 | 00:00:00 | 00:00:00 | |
| SONDE2-12 | 2026-09-01 16:55:54 | 52.18895 | 14.23589 | 109° | 51km/h | 3911m | 5.7m/s | -5.4°C | 67.5% | 634.2hPa | 3V | 00:00:00 | 00:00:00 | 00:00:00 | |
| SONDE2-11 | 2026-09-01 16:55:53 | 52.18899 | 14.23569 | 108° | 49km/h | 3904m | 6.8m/s | -5.4°C | 66.4% | 634.6hPa | 3V | 00:00:00 | 00:00:00 | 00:00:00 | |
| EDDB2-12 | 2026-09-01 16:55:49 | 52.18911 | 14.23491 | 106° | 46km/h | 3882m | 5.7m/s | -5.2°C | 66.8% | 636.6hPa | 3V | 00:00:00 | 00:00:00 | 00:00:00 | |
| S3001 | 2026-09-01 16:55:48 | 52.18920 | 14.23455 | 116° | 44km/h | 3870m | 6.3m/s | -5.1°C | -1.0% | 637.4hPa | 3V | 00:00:00 | 00:00:00 | 00:00:00 | |
| EDDB2-11 | 2026-09-01 16:55:46 | 52.18930 | 14.23424 | 117° | 38km/h | 3853m | 8.3m/s | -5.0°C | 67.4% | 638.9hPa | 3V | 00:00:00 | 00:00:00 | 00:00:00 | |
| DB0DAN | 2026-09-01 16:55:40 | 52.18954 | 14.23336 | 113° | 47km/h | 3823m | 6.9m/s | -4.9°C | 58.6% | 641.28hPa | 3V | 00:00:00 | 00:00:00 | 00:00:00 | |
| DAC517 | 2026-09-01 16:55:36 | 52.18970 | 14.23286 | 122° | 44km/h | 3807m | 4.2m/s | 0°C | 0% | 642.7hPa | 3V | 00:00:00 | 00:00:00 | 00:00:00 | |
| DL2RXE-15 | 2026-09-01 16:55:28 | 52.19020 | 14.23128 | 117° | 58km/h | 3758m | 6.1m/s | -4.4°C | 0% | 0hPa | 3V | 00:00:00 | 00:00:00 | 00:00:00 | |
| DB0DAN | 2026-09-01 16:55:25 | 52.19043 | 14.23047 | 111° | 44km/h | 3738m | 5.5m/s | -4.2°C | 54.3% | 648.43hPa | 3V | 00:00:00 | 00:00:00 | 00:00:00 | |
| SONDE2-12 | 2026-09-01 16:55:23 | 52.19050 | 14.23012 | 106° | 46km/h | 3724m | 8.2m/s | -4.1°C | 53.8% | 649.6hPa | 3V | 00:00:00 | 00:00:00 | 00:00:00 | |
| SONDE2-11 | 2026-09-01 16:55:22 | 52.19054 | 14.22993 | 107° | 49km/h | 3716m | 6.8m/s | -4.1°C | 52.9% | 650.2hPa | 3V | 00:00:00 | 00:00:00 | 00:00:00 | |
| EDDB2-12 | 2026-09-01 16:55:19 | 52.19070 | 14.22914 | 112° | 47km/h | 3690m | 6.1m/s | -3.9°C | 50.7% | 652.2hPa | 3V | 00:00:00 | 00:00:00 | 00:00:00 | |
| S3001 | 2026-09-01 16:55:17 | 52.19080 | 14.22879 | 118° | 46km/h | 3680m | 4.7m/s | 0°C | -1.0% | -1.0hPa | 3V | 00:00:00 | 00:00:00 | 00:00:00 | |
| EDDB2-11 | 2026-09-01 16:55:15 | 52.19090 | 14.22846 | 111° | 44km/h | 3670m | 5.9m/s | -3.7°C | 49.7% | 653.9hPa | 3V | 00:00:00 | 00:00:00 | 00:00:00 | |
| SP3BTT-10 | 2026-09-01 16:55:13 | 52.19094 | 14.22828 | 109° | 46km/h | 3665m | 4.9m/s | -3.7°C | 50.2% | 654.3hPa | 3V | 00:00:00 | 00:00:00 | 00:00:00 | |
| DB0DAN | 2026-09-01 16:55:10 | 52.19106 | 14.22774 | 110° | 46km/h | 3644m | 5m/s | -3.5°C | 48.1% | 656.06hPa | 3V | 00:00:00 | 00:00:00 | 00:00:00 | |
| DL2RXE-15 | 2026-09-01 16:55:08 | 52.19110 | 14.22755 | 109° | 49km/h | 3638m | 7.2m/s | 0°C | 0% | 656.6hPa | 3V | 00:00:00 | 00:00:00 | 00:00:00 | |
| 13BRC | 2026-09-01 16:55:04 | 52.19120 | 14.22669 | 100° | 49km/h | 3605m | 8.7m/s | -3.2°C | 46.8% | 659.4hPa | 3V | 00:00:00 | 00:00:00 | 00:00:00 | |
| DB0DAN | 2026-09-01 16:54:55 | 52.19156 | 14.22459 | 98° | 44km/h | 3537m | 5.5m/s | -2.7°C | 47.5% | 665.21hPa | 3V | 00:00:00 | 00:00:00 | 00:00:00 | |
| SONDE2-12 | 2026-09-01 16:54:52 | 52.19164 | 14.22408 | 113° | 46km/h | 3519m | 5.5m/s | -2.6°C | 48.1% | 666.6hPa | 3V | 00:00:00 | 00:00:00 | 00:00:00 | |
| SONDE2-11 | 2026-09-01 16:54:51 | 52.19169 | 14.22390 | 113° | 47km/h | 3512m | 8.4m/s | -2.5°C | 47.5% | 667.2hPa | 3V | 00:00:00 | 00:00:00 | 00:00:00 | |
| EDDB2-12 | 2026-09-01 16:54:48 | 52.19188 | 14.22312 | 112° | 46km/h | 3481m | 5.7m/s | -2.3°C | 50.2% | 669.8hPa | 3V | 00:00:00 | 00:00:00 | 00:00:00 | |
| 13BRC | 2026-09-01 16:54:43 | 52.19199 | 14.22256 | 107° | 51km/h | 3463m | 5.8m/s | -2.2°C | 48.7% | 671.4hPa | 3V | 00:00:00 | 00:00:00 | 00:00:00 | |
| DB0DAN | 2026-09-01 16:54:40 | 52.19209 | 14.22176 | 96° | 42km/h | 3444m | 6.5m/s | -2°C | 47.8% | 672.97hPa | 3V | 00:00:00 | 00:00:00 | 00:00:00 | |
| SP3BTT-10 | 2026-09-01 16:54:29 | 52.19242 | 14.21983 | 112° | 53km/h | 3378m | 6.0m/s | -1.6°C | 36.9% | 678.5hPa | 3.0V | 00:00:00 | 00:00:00 | 00:00:00 | |
| DB0DAN | 2026-09-01 16:54:25 | 52.19256 | 14.21904 | 103° | 55km/h | 3357m | 6.4m/s | -1.5°C | 35.8% | 680.21hPa | 3V | 00:00:00 | 00:00:00 | 00:00:00 | |
| SONDE2-12 | 2026-09-01 16:54:21 | 52.19270 | 14.21814 | 102° | 51km/h | 3328m | 6.9m/s | -1.4°C | 37.9% | 682.8hPa | 3V | 00:00:00 | 00:00:00 | 00:00:00 | |
| SONDE2-11 | 2026-09-01 16:54:20 | 52.19273 | 14.21793 | 105° | 49km/h | 3321m | 7.7m/s | -1.4°C | 37.5% | 683.3hPa | 3V | 00:00:00 | 00:00:00 | 00:00:00 | |
| EDDB2-12 | 2026-09-01 16:54:16 | 52.19290 | 14.21717 | 111° | 49km/h | 3295m | 3.3m/s | -1.2°C | 38.2% | 685.4hPa | 3V | 00:00:00 | 00:00:00 | 00:00:00 | |
| DB0DAN | 2026-09-01 16:54:10 | 52.19323 | 14.21598 | 107° | 57km/h | 3266m | 5.3m/s | -1°C | 36.1% | 687.91hPa | 3V | 00:00:00 | 00:00:00 | 00:00:00 | |
| DB0DAN | 2026-09-01 16:53:55 | 52.19388 | 14.21294 | 104° | 53km/h | 3188m | 5.1m/s | -0.9°C | 28.7% | 695.08hPa | 3V | 00:00:00 | 00:00:00 | 00:00:00 | |
| SONDE2-12 | 2026-09-01 16:53:50 | 52.19409 | 14.21174 | 100° | 53km/h | 3161m | 4.5m/s | -1.5°C | 44.1% | 697.3hPa | 3V | 00:00:00 | 00:00:00 | 00:00:00 | |
| SONDE2-11 | 2026-09-01 16:53:49 | 52.19413 | 14.21133 | 96° | 47km/h | 3147m | 7.7m/s | -1.8°C | 54.8% | 698.4hPa | 3V | 00:00:00 | 00:00:00 | 00:00:00 | |
| EDDB2-12 | 2026-09-01 16:53:45 | 52.19417 | 14.21073 | 102° | 47km/h | 3131m | 3.9m/s | -1.9°C | 58.5% | 700.0hPa | 3V | 00:00:00 | 00:00:00 | 00:00:00 | |
| 13BRC | 2026-09-01 16:53:42 | 52.19424 | 14.21031 | 106° | 58km/h | 3121m | 6.4m/s | -2.2°C | 69.7% | 700.9hPa | 3V | 00:00:00 | 00:00:00 | 00:00:00 | |
| DB0DAN | 2026-09-01 16:53:40 | 52.19436 | 14.20956 | 107° | 62km/h | 3103m | 8.1m/s | -2.2°C | 75% | 702.41hPa | 3V | 00:00:00 | 00:00:00 | 00:00:00 | |
| DL2RXE-15 | 2026-09-01 16:53:32 | 52.19466 | 14.20811 | 109° | 55km/h | 3059m | 5.9m/s | 0°C | 0% | 0hPa | 3V | 00:00:00 | 00:00:00 | 00:00:00 | |
| DB0DAN | 2026-09-01 16:53:25 | 52.19496 | 14.20617 | 103° | 57km/h | 3019m | 10m/s | -1.7°C | 81.8% | 709.73hPa | 3V | 00:00:00 | 00:00:00 | 00:00:00 | |
| SONDE2-12 | 2026-09-01 16:53:19 | 52.19516 | 14.20480 | 109° | 44km/h | 2975m | 9.2m/s | -1.5°C | 84.6% | 713.6hPa | 3V | 00:00:00 | 00:00:00 | 00:00:00 | |
| SONDE2-11 | 2026-09-01 16:53:18 | 52.19519 | 14.20461 | 106° | 51km/h | 2967m | 6.8m/s | -1.4°C | 84.2% | 714.3hPa | 3V | 00:00:00 | 00:00:00 | 00:00:00 | |
| EDDB2-12 | 2026-09-01 16:53:14 | 52.19528 | 14.20398 | 98° | 51km/h | 2947m | 5.9m/s | -1.4°C | 87.5% | 716.1hPa | 3V | 00:00:00 | 00:00:00 | 00:00:00 | |
| DB0DAN | 2026-09-01 16:53:10 | 52.19538 | 14.20309 | 108° | 51km/h | 2923m | 7.5m/s | -1.3°C | 89.7% | 718.28hPa | 3V | 00:00:00 | 00:00:00 | 00:00:00 | |
| DAC517 | 2026-09-01 16:53:06 | 52.19555 | 14.20251 | 120° | 53km/h | 2903m | 7.5m/s | 0°C | 0% | 720.1hPa | 3V | 00:00:00 | 00:00:00 | 00:00:00 | |
| 13BRC | 2026-09-01 16:53:01 | 52.19584 | 14.20152 | 109° | 55km/h | 2879m | 6.5m/s | -1.0°C | 87.3% | 722.3hPa | 3V | 00:00:00 | 00:00:00 | 00:00:00 | |
| DL2RXE-15 | 2026-09-01 16:53:00 | 52.19588 | 14.20130 | 108° | 53km/h | 2872m | 5.8m/s | 0°C | 0% | 0hPa | 3V | 00:00:00 | 00:00:00 | 00:00:00 | |
| DB0DAN | 2026-09-01 16:52:55 | 52.19608 | 14.20007 | 106° | 51km/h | 2848m | 4.6m/s | -0.7°C | 80.7% | 725.08hPa | 3V | 00:00:00 | 00:00:00 | 00:00:00 | |
| SONDE2-12 | 2026-09-01 16:52:48 | 52.19642 | 14.19835 | 115° | 58km/h | 2808m | 4.5m/s | -0.3°C | 81.1% | 728.7hPa | 3V | 00:00:00 | 00:00:00 | 00:00:00 | |
| SONDE2-11 | 2026-09-01 16:52:47 | 52.19648 | 14.19813 | 112° | 58km/h | 2801m | 8.0m/s | -0.3°C | 80.2% | 729.2hPa | 3V | 00:00:00 | 00:00:00 | 00:00:00 | |
| EDDB2-12 | 2026-09-01 16:52:44 | 52.19661 | 14.19747 | 109° | 49km/h | 2781m | 7.4m/s | -0.1°C | 80.2% | 731.1hPa | 3V | 00:00:00 | 00:00:00 | 00:00:00 | |
| DB0DAN | 2026-09-01 16:52:40 | 52.19678 | 14.19690 | 116° | 53km/h | 2765m | 6.2m/s | 0.1°C | 80.2% | 732.59hPa | 3V | 00:00:00 | 00:00:00 | 00:00:00 | |
| EDDB2-11 | 2026-09-01 16:52:40 | 52.19684 | 14.19669 | 113° | 57km/h | 2759m | 6.4m/s | 0.1°C | 84.2% | 733.1hPa | 3V | 00:00:00 | 00:00:00 | 00:00:00 | |
| DL2RXE-15 | 2026-09-01 16:52:28 | 52.19732 | 14.19457 | 110° | 49km/h | 2703m | 5.1m/s | 0°C | 0% | 0hPa | 3V | 00:00:00 | 00:00:00 | 00:00:00 | |
| DB0DAN | 2026-09-01 16:52:25 | 52.19748 | 14.19374 | 109° | 53km/h | 2681m | 6.4m/s | 0.8°C | 85.1% | 740.63hPa | 3V | 00:00:00 | 00:00:00 | 00:00:00 | |
| SONDE2-12 | 2026-09-01 16:52:17 | 52.19793 | 14.19155 | 110° | 55km/h | 2640m | 5.7m/s | 1.1°C | 84.4% | 744.4hPa | 3V | 00:00:00 | 00:00:00 | 00:00:00 | |
| SONDE2-11 | 2026-09-01 16:52:16 | 52.19798 | 14.19134 | 110° | 53km/h | 2635m | 4.5m/s | 1.2°C | 84.0% | 745.0hPa | 3V | 00:00:00 | 00:00:00 | 00:00:00 | |
| DB0DAN | 2026-09-01 16:52:10 | 52.19825 | 14.19021 | 107° | 55km/h | 2607m | 5.2m/s | 0°C | 0% | 747.36hPa | 3V | 00:00:00 | 00:00:00 | 00:00:00 | |
| EDDB2-11 | 2026-09-01 16:52:08 | 52.19834 | 14.18979 | 111° | 53km/h | 2594m | 8.5m/s | 1.5°C | 82.4% | 748.6hPa | 3V | 00:00:00 | 00:00:00 | 00:00:00 | |
| DL2RXE-15 | 2026-09-01 16:52:07 | 52.19834 | 14.18979 | 113° | 55km/h | 2594m | 8.5m/s | 0°C | 0% | 0hPa | 3V | 00:00:00 | 00:00:00 | 00:00:00 | |
| 13BRC | 2026-09-01 16:51:59 | 52.19871 | 14.18790 | 112° | 55km/h | 2542m | 4.7m/s | 0°C | 0% | 0hPa | 3V | 00:00:00 | 00:00:00 | 00:00:00 | |
| DB0DAN | 2026-09-01 16:51:55 | 52.19900 | 14.18673 | 114° | 58km/h | 2512m | 7m/s | 0°C | 0% | 0hPa | 3V | 00:00:00 | 00:00:00 | 00:00:00 | |
| SONDE2-12 | 2026-09-01 16:51:47 | 52.19932 | 14.18473 | 109° | 57km/h | 2461m | 4.2m/s | 2.6°C | 78.4% | 760.9hPa | 3V | 00:00:00 | 00:00:00 | 00:00:00 | |
| SONDE2-11 | 2026-09-01 16:51:45 | 52.19937 | 14.18451 | 111° | 57km/h | 2457m | 5.5m/s | 2.7°C | 77.9% | 761.4hPa | 3V | 00:00:00 | 00:00:00 | 00:00:00 | |
| DB0DAN | 2026-09-01 16:51:40 | 52.19956 | 14.18379 | 109° | 40km/h | 2435m | 5.3m/s | 0°C | 0% | 0hPa | 3V | 00:00:00 | 00:00:00 | 00:00:00 | |
| EDDB2-11 | 2026-09-01 16:51:37 | 52.19970 | 14.18326 | 119° | 49km/h | 2419m | 6.3m/s | 3.0°C | 76.4% | 764.9hPa | 0V | 00:00:00 | 00:00:00 | 00:00:00 | |
| SONDE2-12 | 2026-09-01 16:51:15 | 52.20085 | 14.17850 | 115° | 55km/h | 2289m | 3.0m/s | 3.9°C | 76.8% | 777.3hPa | 0V | 00:00:00 | 00:00:00 | 00:00:00 | |
| SONDE2-11 | 2026-09-01 16:51:14 | 52.20091 | 14.17829 | 113° | 55km/h | 2286m | 4.6m/s | 3.9°C | 76.9% | 777.7hPa | 0V | 00:00:00 | 00:00:00 | 00:00:00 | |
| EDDB2-12 | 2026-09-01 16:51:10 | 52.20108 | 14.17759 | 110° | 62km/h | 2269m | 4.4m/s | 4.0°C | 77.2% | 779.2hPa | 0V | 00:00:00 | 00:00:00 | 00:00:00 | |
| EDDB2-11 | 2026-09-01 16:51:06 | 52.20123 | 14.17676 | 109° | 42km/h | 2250m | 5.8m/s | 4.1°C | 77.8% | 781.2hPa | 0V | 00:00:00 | 00:00:00 | 00:00:00 | |
| SONDE2-12 | 2026-09-01 16:50:44 | 52.20217 | 14.17247 | 102° | 46km/h | 2118m | 6.9m/s | 5.2°C | 76.4% | 793.7hPa | 0V | 00:00:00 | 00:00:00 | 00:00:00 | |
| SONDE2-11 | 2026-09-01 16:50:43 | 52.20219 | 14.17227 | 98° | 51km/h | 2111m | 6.7m/s | 5.2°C | 76.1% | 794.3hPa | 0V | 00:00:00 | 00:00:00 | 00:00:00 | |
| EDDB2-12 | 2026-09-01 16:50:39 | 52.20229 | 14.17159 | 105° | 55km/h | 2094m | 6.0m/s | 5.3°C | 75.7% | 795.9hPa | 0V | 00:00:00 | 00:00:00 | 00:00:00 | |
| EDDB2-11 | 2026-09-01 16:50:35 | 52.20237 | 14.17075 | 93° | 49km/h | 2070m | 5.9m/s | 5.6°C | 74.3% | 798.3hPa | 0V | 00:00:00 | 00:00:00 | 00:00:00 | |
| SONDE2-12 | 2026-09-01 16:50:13 | 52.20315 | 14.16646 | 106° | 46km/h | 1932m | 6.4m/s | 6.7°C | 69.3% | 812.1hPa | 0V | 00:00:00 | 00:00:00 | 00:00:00 | |
| SONDE2-11 | 2026-09-01 16:50:12 | 52.20318 | 14.16627 | 108° | 49km/h | 1925m | 7.5m/s | 6.8°C | 68.8% | 812.8hPa | 0V | 00:00:00 | 00:00:00 | 00:00:00 | |
| EDDB2-12 | 2026-09-01 16:50:08 | 52.20330 | 14.16563 | 103° | 53km/h | 1907m | 4.8m/s | 6.9°C | 68.7% | 814.7hPa | 0V | 00:00:00 | 00:00:00 | 00:00:00 | |
| EDDB2-11 | 2026-09-01 16:50:04 | 52.20342 | 14.16485 | 106° | 42km/h | 1883m | 6.2m/s | 7.1°C | 69.2% | 816.9hPa | 0V | 00:00:00 | 00:00:00 | 00:00:00 | |
| SONDE2-12 | 2026-09-01 16:49:42 | 52.20457 | 14.16097 | 117° | 47km/h | 1751m | 5.5m/s | 8.2°C | 67.1% | 830.3hPa | 0V | 00:00:00 | 00:00:00 | 00:00:00 | |
| SONDE2-11 | 2026-09-01 16:49:40 | 52.20462 | 14.16078 | 115° | 51km/h | 1744m | 8.9m/s | 8.2°C | 66.6% | 830.7hPa | 0V | 00:00:00 | 00:00:00 | 00:00:00 | |
| EDDB2-12 | 2026-09-01 16:49:37 | 52.20476 | 14.16018 | 107° | 47km/h | 1725m | 3.8m/s | 8.4°C | 66.2% | 832.8hPa | 0V | 00:00:00 | 00:00:00 | 00:00:00 | |
| EDDB2-11 | 2026-09-01 16:49:33 | 52.20492 | 14.15947 | 114° | 46km/h | 1707m | 4.2m/s | 8.6°C | 66.0% | 834.6hPa | 0V | 00:00:00 | 00:00:00 | 00:00:00 | |
| SONDE2-12 | 2026-09-01 16:49:10 | 52.20610 | 14.15519 | 101° | 49km/h | 1577m | 3.9m/s | 9.2°C | 71.1% | 847.9hPa | 0V | 00:00:00 | 00:00:00 | 00:00:00 | |
| SONDE2-11 | 2026-09-01 16:49:09 | 52.20613 | 14.15499 | 104° | 47km/h | 1572m | 5.5m/s | 9.3°C | 70.7% | 848.3hPa | 0V | 00:00:00 | 00:00:00 | 00:00:00 | |
| EDDB2-12 | 2026-09-01 16:49:06 | 52.20625 | 14.15448 | 111° | 38km/h | 1558m | 5.1m/s | 9.4°C | 71.2% | 849.6hPa | 0V | 00:00:00 | 00:00:00 | 00:00:00 | |
| DAC517 | 2026-09-01 16:49:05 | 52.20625 | 14.15448 | 113° | 38km/h | 1558m | 5.1m/s | 0°C | 0% | 0hPa | 0V | 00:00:00 | 00:00:00 | 00:00:00 | |
| EDDB2-11 | 2026-09-01 16:49:02 | 52.20638 | 14.15386 | 112° | 47km/h | 1536m | 4.6m/s | 9.5°C | 71.1% | 852.0hPa | 0V | 00:00:00 | 00:00:00 | 00:00:00 | |
| SONDE2-12 | 2026-09-01 16:48:40 | 52.20730 | 14.14971 | 103° | 49km/h | 1411m | 6.0m/s | 10.2°C | 77.7% | 864.7hPa | 0V | 00:00:00 | 00:00:00 | 00:00:00 | |
| SONDE2-11 | 2026-09-01 16:48:40 | 52.20733 | 14.14951 | 104° | 46km/h | 1405m | 6.3m/s | 10.3°C | 77.6% | 865.2hPa | 0V | 00:00:00 | 00:00:00 | 00:00:00 | |
| EDDB2-12 | 2026-09-01 16:48:35 | 52.20745 | 14.14901 | 116° | 40km/h | 1386m | 6.2m/s | 10.4°C | 76.5% | 867.1hPa | 0V | 00:00:00 | 00:00:00 | 00:00:00 | |
| DAC517 | 2026-09-01 16:48:32 | 52.20752 | 14.14871 | 108° | 40km/h | 1376m | 5.5m/s | 0°C | 0% | 0hPa | 0V | 00:00:00 | 00:00:00 | 00:00:00 | |
| EDDB2-11 | 2026-09-01 16:48:31 | 52.20758 | 14.14840 | 107° | 38km/h | 1366m | 6.2m/s | 10.6°C | 75.6% | 869.3hPa | 0V | 00:00:00 | 00:00:00 | 00:00:00 | |
| SONDE2-12 | 2026-09-01 16:48:08 | 52.20848 | 14.14461 | 120° | 46km/h | 1238m | 6.8m/s | 11.6°C | 78.6% | 882.9hPa | 0V | 00:00:00 | 00:00:00 | 00:00:00 | |
| SONDE2-11 | 2026-09-01 16:48:07 | 52.20853 | 14.14444 | 117° | 46km/h | 1232m | 6.4m/s | 11.6°C | 78.3% | 883.8hPa | 0V | 00:00:00 | 00:00:00 | 00:00:00 | |
| EDDB2-12 | 2026-09-01 16:48:04 | 52.20865 | 14.14391 | 109° | 42km/h | 1215m | 8.4m/s | 11.8°C | 78.9% | 885.5hPa | 0V | 00:00:00 | 00:00:00 | 00:00:00 | |
| EDDB2-11 | 2026-09-01 16:48:00 | 52.20877 | 14.14328 | 108° | 40km/h | 1188m | 7.6m/s | 12.0°C | 77.5% | 888.3hPa | 0V | 00:00:00 | 00:00:00 | 00:00:00 | |
| SONDE2-12 | 2026-09-01 16:47:39 | 52.20938 | 14.13963 | 104° | 35km/h | 1052m | 5.1m/s | 13.2°C | 74.8% | 902.9hPa | 0V | 00:00:00 | 00:00:00 | 00:00:00 | |
| SONDE2-11 | 2026-09-01 16:47:36 | 52.20940 | 14.13949 | 102° | 33km/h | 1045m | 7.6m/s | 13.3°C | 74.7% | 903.3hPa | 0V | 00:00:00 | 00:00:00 | 00:00:00 | |
| EDDB2-12 | 2026-09-01 16:47:33 | 52.20943 | 14.13911 | 97° | 29km/h | 1026m | 7.0m/s | 13.4°C | 74.0% | 905.4hPa | 0V | 00:00:00 | 00:00:00 | 00:00:00 | |
| SONDE2-11 | 2026-09-01 16:47:07 | 52.20981 | 14.13505 | 99° | 37km/h | 858m | 4.7m/s | 15.0°C | 68.5% | 923.5hPa | 0V | 00:00:00 | 00:00:00 | 00:00:00 | |
| SONDE2-12 | 2026-09-01 16:47:07 | 52.20979 | 14.13520 | 101° | 37km/h | 863m | 6.2m/s | 15.0°C | -1.0% | 922.8hPa | 0V | 00:00:00 | 00:00:00 | 00:00:00 | |
| EDDB2-12 | 2026-09-01 16:47:04 | 52.20985 | 14.13463 | 102° | 33km/h | 842m | 6.2m/s | 15.1°C | 68.7% | 925.3hPa | 0V | 00:00:00 | 00:00:00 | 00:00:00 | |
| EDDB2-11 | 2026-09-01 16:46:58 | 52.20993 | 14.13411 | 98° | 29km/h | 820m | 3.2m/s | 15.3°C | 68.3% | 927.8hPa | 0V | 00:00:00 | 00:00:00 | 00:00:00 | |
| SONDE2-12 | 2026-09-01 16:46:35 | 52.21021 | 14.13083 | 104° | 38km/h | 694m | 5.6m/s | 16.5°C | -1.0% | -1.0hPa | 0V | 00:00:00 | 00:00:00 | 00:00:00 | |
| SONDE2-11 | 2026-09-01 16:46:34 | 52.21023 | 14.13068 | 98° | 37km/h | 689m | 4.5m/s | 16.6°C | 64.8% | 942.6hPa | 0V | 00:00:00 | 00:00:00 | 00:00:00 | |
| EDDB2-12 | 2026-09-01 16:46:31 | 52.21026 | 14.13028 | 94° | 29km/h | 674m | 4.6m/s | 16.7°C | 64.5% | 944.0hPa | 0V | 00:00:00 | 00:00:00 | 00:00:00 | |
| EDDB2-11 | 2026-09-01 16:46:27 | 52.21028 | 14.12975 | 106° | 33km/h | 649m | 5.1m/s | 17.0°C | 63.2% | 946.9hPa | 0V | 00:00:00 | 00:00:00 | 00:00:00 | |
| SONDE2-11 | 2026-09-01 16:46:04 | 52.21040 | 14.12609 | 85° | 37km/h | 514m | 5.6m/s | 17.9°C | 64.0% | 962.1hPa | 0V | 00:00:00 | 00:00:00 | 00:00:00 | |
| EDDB2-12 | 2026-09-01 16:46:00 | 52.21041 | 14.12562 | 86° | 38km/h | 498m | 6.0m/s | 18.0°C | 64.4% | 964.0hPa | 0V | 00:00:00 | 00:00:00 | 00:00:00 | |
| EDDB2-11 | 2026-09-01 16:45:56 | 52.21038 | 14.12510 | 83° | 27km/h | 475m | 6.3m/s | 18.2°C | -1.0% | -1.0hPa | 0V | 00:00:00 | 00:00:00 | 00:00:00 | |
| SONDE2-11 | 2026-09-01 16:45:32 | 52.21010 | 14.12261 | 74° | 27km/h | 326m | 4.9m/s | 19.6°C | -1.0% | -1.0hPa | 0V | 00:00:00 | 00:00:00 | 00:00:00 | |
| EDDB2-12 | 2026-09-01 16:45:29 | 52.21005 | 14.12236 | 100° | 13km/h | 310m | 4.8m/s | 19.8°C | -1.0% | -1.0hPa | 0V | 00:00:00 | 00:00:00 | 00:00:00 | |
| EDDB2-11 | 2026-09-01 16:45:25 | 52.21004 | 14.12209 | 67° | 20km/h | 289m | 6.4m/s | 0°C | -1.0% | -1.0hPa | 0V | 00:00:00 | 00:00:00 | 00:00:00 |